BY4732 / ES-SAM 7700 Squawk Report (16th of May, 2022)

Aircraft A320 Reg No. ES-SAM Age 19 years old
Model A320 Jet engines 2 First flight 23-10-02
Registered 30-04-22 Rollout 10-02 Delivered 26-11-02
Construction No. 1896 Line No. N/A Series 232
ADSHEX 5110BF Airline name TUI Airways Owner N/A
Airfield based Manchester International~Gtr Mcr~G First tracked N/A

Flight history for ES-SAM

Route Flight No Date Playback
Girona (GRO) - Robin Hood Doncaster Sheffield Airport (DSA) BY3267 2022-06-28 13:28:00
Robin Hood Doncaster Sheffield Airport (DSA) - Girona (GRO) BY3266 2022-06-28 11:16:00
Ioannis Kapodistrias Intl (CFU) - Robin Hood Doncaster Sheffield Airport (DSA) BY3129 2022-06-28 09:17:00
Robin Hood Doncaster Sheffield Airport (DSA) - Ioannis Kapodistrias Intl (CFU) BY4566 2022-06-27 17:34:00
Ibiza (IBZ) - Robin Hood Doncaster Sheffield Airport (DSA) BY3149 2022-06-27 14:22:00
Robin Hood Doncaster Sheffield Airport (DSA) - Ibiza (IBZ) BY3148 2022-06-27 09:54:00
Kos (KGS) - Robin Hood Doncaster Sheffield Airport (DSA) BY3789 2022-06-27 05:42:00
Robin Hood Doncaster Sheffield Airport (DSA) - Kos (KGS) BY3788 2022-06-26 19:44:00
Son Sant Joan (PMI) - Robin Hood Doncaster Sheffield Airport (DSA) BY3781 2022-06-26 15:02:00
Robin Hood Doncaster Sheffield Airport (DSA) - Son Sant Joan (PMI) BY3780 2022-06-26 09:41:00
Rhodes Diagoras (RHO) - Robin Hood Doncaster Sheffield Airport (DSA) BY3645 2022-06-26 05:31:00
Robin Hood Doncaster Sheffield Airport (DSA) - Rhodes Diagoras (RHO) BY3644 2022-06-25 21:06:00
Reus (REU) - Robin Hood Doncaster Sheffield Airport (DSA) N/A 2022-06-25 16:05:00
Robin Hood Doncaster Sheffield Airport (DSA) - Reus (REU) BY3616 2022-06-25 07:49:00
Dionysios Solomos (ZTH) - Robin Hood Doncaster Sheffield Airport (DSA) TOM3569 2022-06-25 05:45:00
Robin Hood Doncaster Sheffield Airport (DSA) - Dionysios Solomos (ZTH) BY3568 2022-06-24 16:54:00
Ibiza (IBZ) - Robin Hood Doncaster Sheffield Airport (DSA) BY3537 2022-06-24 13:55:00
Robin Hood Doncaster Sheffield Airport (DSA) - Ibiza (IBZ) BY3536 2022-06-24 07:47:00
Malaga (AGP) - Robin Hood Doncaster Sheffield Airport (DSA) BY3483 2022-06-23 22:09:00
Robin Hood Doncaster Sheffield Airport (DSA) - Malaga (AGP) BY3482 2022-06-23 19:42:00
Time Lat Lon Altitude Heading Speed Vertical Rate
2022-05-16 23:24:56 GMT 53.474148 -1.004744 0 196 59 0
2022-05-16 23:24:55 GMT 53.474693 -1.004441 0 196 72 0
2022-05-16 23:24:52 GMT 53.475742 -1.003896 0 196 84 0
2022-05-16 23:24:50 GMT 53.476139 -1.003674 0 196 92 0
2022-05-16 23:24:49 GMT 53.476524 -1.003464 0 196 92 0
2022-05-16 23:24:48 GMT 53.477325 -1.003048 -50 196 98 0
2022-05-16 23:24:46 GMT 53.477768 -1.002826 -50 198 100 320
2022-05-16 23:24:44 GMT 53.478607 -1.002345 -75 198 104 256
2022-05-16 23:24:43 GMT 53.479118 -1.002099 -75 198 110 -64
2022-05-16 23:24:42 GMT 53.479614 -1.001796 -75 198 115 -64
2022-05-16 23:24:41 GMT 53.480026 -1.001561 -75 198 118 -320
2022-05-16 23:24:39 GMT 53.481079 -1.001011 -75 198 122 128
2022-05-16 23:24:37 GMT 53.482002 -1.000564 -75 198 124 320
2022-05-16 23:24:36 GMT 53.482590 -1.000227 -75 198 125 320
2022-05-16 23:24:34 GMT 53.483727 -0.999675 -75 198 126 -384
2022-05-16 23:24:33 GMT 53.484333 -0.999271 -75 198 128 -576
2022-05-16 23:24:32 GMT 53.485451 -0.998706 -50 199 128 -896
2022-05-16 23:24:30 GMT 53.486053 -0.998383 -25 199 128 -768
2022-05-16 23:24:29 GMT 53.486664 -0.998029 -25 199 128 -768
2022-05-16 23:24:28 GMT 53.487167 -0.997794 0 198 129 -832
2022-05-16 23:24:26 GMT 53.488953 -0.996852 50 198 129 -704
2022-05-16 23:24:24 GMT 53.489548 -0.996460 50 198 128 -832
2022-05-16 23:24:23 GMT 53.490692 -0.995911 75 198 128 -704
2022-05-16 23:24:21 GMT 53.491287 -0.995597 100 199 128 -640
2022-05-16 23:24:20 GMT 53.491791 -0.995283 100 198 128 -640
2022-05-16 23:24:18 GMT 53.492889 -0.994734 125 199 129 -704
2022-05-16 23:24:17 GMT 53.493458 -0.994424 125 198 129 -704
2022-05-16 23:24:15 GMT 53.494537 -0.993792 150 198 129 -768
2022-05-16 23:24:13 GMT 53.495785 -0.993132 175 198 131 -640
2022-05-16 23:24:12 GMT 53.496342 -0.992889 200 198 131 -768
2022-05-16 23:24:10 GMT 53.497559 -0.992222 225 198 132 -832
2022-05-16 23:24:06 GMT 53.499756 -0.991045 275 198 132 -832
2022-05-16 23:24:04 GMT 53.500858 -0.990466 300 198 133 -832
2022-05-16 23:24:03 GMT 53.501770 -0.989947 300 198 133 -832
2022-05-16 23:24:01 GMT 53.502411 -0.989633 325 198 133 -768
2022-05-16 23:24:00 GMT 53.503326 -0.989162 350 198 133 -704
2022-05-16 23:23:58 GMT 53.504471 -0.988534 375 198 133 -704
2022-05-16 23:23:57 GMT 53.505047 -0.988204 375 198 133 -640
2022-05-16 23:23:55 GMT 53.506393 -0.987514 400 198 133 -640
2022-05-16 23:23:54 GMT 53.506943 -0.987200 425 198 133 -640
2022-05-16 23:23:52 GMT 53.507793 -0.986750 425 198 132 -640
2022-05-16 23:23:51 GMT 53.508678 -0.986265 450 199 132 -640
2022-05-16 23:23:50 GMT 53.509277 -0.985944 450 199 132 -512
2022-05-16 23:23:48 GMT 53.509872 -0.985631 475 199 132 -640
2022-05-16 23:23:47 GMT 53.511017 -0.985003 475 199 132 -576
2022-05-16 23:23:45 GMT 53.511612 -0.984650 500 199 132 -576
2022-05-16 23:23:44 GMT 53.512867 -0.984003 525 198 133 -768
2022-05-16 23:23:42 GMT 53.513489 -0.983669 525 198 133 -640
2022-05-16 23:23:41 GMT 53.515045 -0.982806 550 198 133 -768
2022-05-16 23:23:39 GMT 53.515045 -0.982806 550 198 133 -832
2022-05-16 23:23:38 GMT 53.515640 -0.982492 575 198 134 -832
2022-05-16 23:23:36 GMT 53.516922 -0.981785 600 198 134 -832
2022-05-16 23:23:35 GMT 53.518112 -0.981236 625 198 134 -768
2022-05-16 23:23:33 GMT 53.518688 -0.980934 650 198 134 -832
2022-05-16 23:23:32 GMT 53.519302 -0.980608 650 198 134 -832
2022-05-16 23:23:30 GMT 53.520596 -0.979884 700 198 134 -832
2022-05-16 23:23:29 GMT 53.520905 -0.979745 700 198 134 -832
2022-05-16 23:23:28 GMT 53.521545 -0.979353 725 198 134 -768
2022-05-16 23:23:26 GMT 53.522785 -0.978753 750 198 133 -704
2022-05-16 23:23:25 GMT 53.523342 -0.978429 750 198 133 -704
2022-05-16 23:23:24 GMT 53.523949 -0.978106 775 198 133 -704
2022-05-16 23:23:22 GMT 53.525066 -0.977541 775 198 133 -704
2022-05-16 23:23:21 GMT 53.525665 -0.977155 800 198 133 -576
2022-05-16 23:23:20 GMT 53.526810 -0.976606 825 198 133 -576
2022-05-16 23:23:18 GMT 53.527393 -0.976248 825 198 133 -576
2022-05-16 23:23:16 GMT 53.528595 -0.975586 850 199 132 -512
2022-05-16 23:23:15 GMT 53.529190 -0.975272 850 199 132 -512
2022-05-16 23:23:13 GMT 53.530560 -0.974552 875 199 132 -512
2022-05-16 23:23:11 GMT 53.531754 -0.973860 900 199 132 -576
2022-05-16 23:23:09 GMT 53.532715 -0.973310 925 198 133 -768
2022-05-16 23:23:08 GMT 53.533264 -0.972996 925 198 133 -512
2022-05-16 23:23:06 GMT 53.534454 -0.972369 950 198 134 -768
2022-05-16 23:23:05 GMT 53.535072 -0.972048 950 198 135 -768
2022-05-16 23:23:04 GMT 53.536240 -0.971427 975 198 135 -832
2022-05-16 23:23:02 GMT 53.536842 -0.971159 1,000 198 136 -704
2022-05-16 23:23:01 GMT 53.537430 -0.970799 1,000 198 136 -960
2022-05-16 23:22:59 GMT 53.538845 -0.970109 1,050 198 136 -960
2022-05-16 23:22:58 GMT 53.539490 -0.969779 1,050 198 136 -960
2022-05-16 23:22:57 GMT 53.540054 -0.969463 1,075 198 136 -896
2022-05-16 23:22:55 GMT 53.540909 -0.968994 1,100 198 137 -896
2022-05-16 23:22:54 GMT 53.541824 -0.968523 1,125 198 137 -960
2022-05-16 23:22:53 GMT 53.542465 -0.968209 1,125 198 137 -1024
2022-05-16 23:22:51 GMT 53.543732 -0.967524 1,175 198 137 -960
2022-05-16 23:22:50 GMT 53.544067 -0.967346 1,175 198 137 -960
2022-05-16 23:22:48 GMT 53.545361 -0.966635 1,200 198 137 -896
2022-05-16 23:22:47 GMT 53.545944 -0.966326 1,225 198 137 -896
2022-05-16 23:22:46 GMT 53.547318 -0.965585 1,250 198 137 -832
2022-05-16 23:22:44 GMT 53.547783 -0.965343 1,275 198 137 -832
2022-05-16 23:22:43 GMT 53.548279 -0.965070 1,275 198 137 -768
2022-05-16 23:22:41 GMT 53.549599 -0.964373 1,300 199 138 -768
2022-05-16 23:22:40 GMT 53.550156 -0.964050 1,325 199 138 -832
2022-05-16 23:22:39 GMT 53.551414 -0.963404 1,350 199 138 -768
2022-05-16 23:22:37 GMT 53.552078 -0.963030 1,350 198 139 -576
2022-05-16 23:22:36 GMT 53.552628 -0.962716 1,375 198 140 -832
2022-05-16 23:22:34 GMT 53.553909 -0.962010 1,400 198 142 -768
2022-05-16 23:22:33 GMT 53.554581 -0.961708 1,400 198 142 -768
2022-05-16 23:22:32 GMT 53.555744 -0.961142 1,425 198 142 -704
2022-05-16 23:22:30 GMT 53.556393 -0.960738 1,425 198 142 -704
2022-05-16 23:22:29 GMT 53.557232 -0.960334 1,450 198 142 -704
2022-05-16 23:22:28 GMT 53.558533 -0.959656 1,475 198 143 -448
2022-05-16 23:22:26 GMT 53.558899 -0.959420 1,475 198 144 -512
2022-05-16 23:22:25 GMT 53.560181 -0.958793 1,475 198 146 -640
2022-05-16 23:22:23 GMT 53.560863 -0.958396 1,500 199 147 -384
2022-05-16 23:22:22 GMT 53.561462 -0.958086 1,500 199 147 -576
2022-05-16 23:22:21 GMT 53.562881 -0.957302 1,525 199 149 -640
2022-05-16 23:22:19 GMT 53.563477 -0.956909 1,525 199 150 -640
2022-05-16 23:22:18 GMT 53.564072 -0.956595 1,550 199 151 -640
2022-05-16 23:22:16 GMT 53.565536 -0.955811 1,575 199 153 -832
2022-05-16 23:22:15 GMT 53.566261 -0.955407 1,575 199 154 -704
2022-05-16 23:22:14 GMT 53.567642 -0.954633 1,600 198 155 -704
2022-05-16 23:22:12 GMT 53.568329 -0.954320 1,625 198 156 -896
2022-05-16 23:22:11 GMT 53.568916 -0.953953 1,625 198 157 -832
2022-05-16 23:22:09 GMT 53.570312 -0.953226 1,650 198 158 -1088
2022-05-16 23:22:08 GMT 53.570938 -0.952907 1,675 198 159 -896
2022-05-16 23:22:06 GMT 53.572315 -0.952175 1,700 198 160 -896
2022-05-16 23:22:05 GMT 53.573044 -0.951730 1,725 198 160 -960
2022-05-16 23:22:03 GMT 53.574596 -0.950964 1,750 198 161 -960
2022-05-16 23:22:02 GMT 53.575993 -0.950156 1,775 198 162 -960
2022-05-16 23:22:00 GMT 53.576736 -0.949833 1,800 198 163 -896
2022-05-16 23:21:59 GMT 53.577389 -0.949429 1,825 198 164 -896
2022-05-16 23:21:58 GMT 53.578739 -0.948702 1,850 198 166 -1024
2022-05-16 23:21:56 GMT 53.579453 -0.948356 1,850 198 166 -896
2022-05-16 23:21:53 GMT 53.582138 -0.946925 1,925 198 169 -1152
2022-05-16 23:21:50 GMT 53.583984 -0.945923 1,975 198 173 -1088
2022-05-16 23:21:47 GMT 53.586548 -0.944510 2,025 198 174 -960
2022-05-16 23:21:44 GMT 53.589066 -0.943176 2,050 199 176 -1792
2022-05-16 23:21:40 GMT 53.594604 -0.940037 2,175 199 176 -1280
2022-05-16 23:21:37 GMT 53.596943 -0.938685 2,250 199 175 -1280
2022-05-16 23:21:33 GMT 53.596943 -0.938685 2,275 199 175 -1152
2022-05-16 23:21:30 GMT 53.599091 -0.937526 2,350 199 176 -768
2022-05-16 23:21:27 GMT 53.602341 -0.935643 2,400 199 178 -448
2022-05-16 23:21:24 GMT 53.604252 -0.934565 2,400 199 180 -64
2022-05-16 23:21:22 GMT 53.608063 -0.932425 2,400 199 182 -192
2022-05-16 23:21:19 GMT 53.608063 -0.932425 2,400 199 182 0
2022-05-16 23:21:16 GMT 53.610855 -0.930777 2,400 199 183 64
2022-05-16 23:21:13 GMT 53.612862 -0.929718 2,400 199 183 64
2022-05-16 23:21:10 GMT 53.615707 -0.928109 2,400 197 183 64
2022-05-16 23:21:07 GMT 53.618496 -0.926648 2,400 196 185 0
2022-05-16 23:21:04 GMT 53.622219 -0.924952 2,375 196 185 64
2022-05-16 23:21:02 GMT 53.622219 -0.924952 2,375 196 186 0
2022-05-16 23:20:59 GMT 53.624359 -0.923902 2,375 195 188 -64
2022-05-16 23:20:56 GMT 53.626827 -0.922852 2,375 195 190 -128
2022-05-16 23:20:53 GMT 53.629387 -0.921801 2,400 195 190 -64
2022-05-16 23:20:50 GMT 53.631912 -0.920733 2,400 192 193 0
2022-05-16 23:20:47 GMT 53.634430 -0.919713 2,400 193 192 -64
2022-05-16 23:20:44 GMT 53.637131 -0.918849 2,400 190 194 -64
2022-05-16 23:20:42 GMT 53.639465 -0.918222 2,400 188 194 0
2022-05-16 23:20:39 GMT 53.641754 -0.917751 2,400 182 197 -64
2022-05-16 23:20:36 GMT 53.644890 -0.917520 2,400 179 197 -64
2022-05-16 23:20:33 GMT 53.647202 -0.917829 2,400 175 198 -128
2022-05-16 23:20:29 GMT 53.650955 -0.918928 2,400 161 203 -64
2022-05-16 23:20:26 GMT 53.653610 -0.920419 2,425 159 204 -192
2022-05-16 23:20:23 GMT 53.658997 -0.924144 2,425 156 205 -192
2022-05-16 23:20:20 GMT 53.661209 -0.926226 2,425 150 208 -192
2022-05-16 23:20:17 GMT 53.661209 -0.926226 2,450 143 212 -192
2022-05-16 23:20:14 GMT 53.663651 -0.928991 2,450 141 214 -384
2022-05-16 23:20:12 GMT 53.665977 -0.932384 2,475 132 220 -576
2022-05-16 23:20:08 GMT 53.668400 -0.937069 2,500 125 223 -640
2022-05-16 23:20:04 GMT 53.670216 -0.941512 2,550 113 231 -768
2022-05-16 23:20:02 GMT 53.671612 -0.945874 2,575 111 231 -768
2022-05-16 23:19:59 GMT 53.672607 -0.949925 2,600 108 233 -640
2022-05-16 23:19:56 GMT 53.673706 -0.955497 2,625 105 235 -576
2022-05-16 23:19:53 GMT 53.674759 -0.961618 2,675 105 237 -576
2022-05-16 23:19:49 GMT 53.675720 -0.967503 2,800 105 242 -832
2022-05-16 23:19:46 GMT 53.676727 -0.973781 2,750 105 240 -768
2022-05-16 23:19:43 GMT 53.677780 -0.980294 2,775 105 242 -832
2022-05-16 23:19:39 GMT 53.679665 -0.992485 2,875 104 243 -1216
2022-05-16 23:19:36 GMT 53.680481 -0.998343 2,925 103 243 -1152
2022-05-16 23:19:33 GMT 53.680481 -0.998343 2,950 102 244 -1152
2022-05-16 23:19:29 GMT 53.681152 -1.003795 3,075 97 248 -1088
2022-05-16 23:19:26 GMT 53.681805 -1.010823 3,075 95 248 -1152
2022-05-16 23:19:23 GMT 53.682083 -1.015921 3,125 94 248 -1088
2022-05-16 23:19:20 GMT 53.682037 -1.022121 3,200 82 252 -1344
2022-05-16 23:19:17 GMT 53.681622 -1.027868 3,250 78 253 -1408
2022-05-16 23:19:14 GMT 53.680847 -1.034127 3,325 72 253 -1472
2022-05-16 23:19:10 GMT 53.679432 -1.040874 3,450 59 254 -1472
2022-05-16 23:19:07 GMT 53.677368 -1.047860 3,525 59 254 -1472
2022-05-16 23:19:03 GMT 53.673241 -1.057515 3,625 51 252 -1600
2022-05-16 23:19:00 GMT 53.673241 -1.057515 3,700 44 251 -1600
2022-05-16 23:18:57 GMT 53.671333 -1.060908 3,800 38 250 -1728
2022-05-16 23:18:54 GMT 53.668259 -1.065517 3,850 36 250 -1664
2022-05-16 23:18:52 GMT 53.666397 -1.067936 4,150 35 249 -1600
2022-05-16 23:18:49 GMT 53.663544 -1.071402 4,000 35 249 -1536
2022-05-16 23:18:46 GMT 53.661163 -1.074227 4,025 35 249 -1600
2022-05-16 23:18:43 GMT 53.657043 -1.079093 4,150 35 248 -1472
2022-05-16 23:18:40 GMT 53.655224 -1.081265 4,225 35 248 -1280
2022-05-16 23:18:37 GMT 53.649452 -1.088050 4,275 35 249 -1280
2022-05-16 23:18:34 GMT 53.649452 -1.088050 4,325 35 249 -1280
2022-05-16 23:18:32 GMT 53.644913 -1.093454 4,375 34 249 -1024
2022-05-16 23:18:29 GMT 53.644913 -1.093454 4,425 35 251 -960
2022-05-16 23:18:26 GMT 53.641937 -1.096985 4,450 34 251 -960
2022-05-16 23:18:23 GMT 53.639465 -1.099888 4,500 35 251 -960
2022-05-16 23:18:20 GMT 53.636093 -1.103884 4,575 35 254 -960
2022-05-16 23:18:17 GMT 53.633514 -1.106873 4,625 34 256 -960
2022-05-16 23:18:14 GMT 53.630219 -1.110796 4,650 35 256 -1024
2022-05-16 23:18:12 GMT 53.628551 -1.112770 4,725 35 257 -1344
2022-05-16 23:18:09 GMT 53.625523 -1.116324 4,875 35 257 -1152
2022-05-16 23:18:06 GMT 53.621521 -1.121090 4,825 35 258 -1344
2022-05-16 23:18:03 GMT 53.620056 -1.122881 4,850 35 258 -1344
2022-05-16 23:18:01 GMT 53.617565 -1.125856 4,925 35 257 -1536
2022-05-16 23:17:57 GMT 53.614075 -1.130057 5,100 35 256 -1600
2022-05-16 23:17:53 GMT 53.610256 -1.134500 5,150 34 257 -1472
2022-05-16 23:17:50 GMT 53.606918 -1.138497 5,225 34 256 -1536
2022-05-16 23:17:47 GMT 53.604263 -1.141558 5,300 34 256 -1408
2022-05-16 23:17:44 GMT 53.599594 -1.146894 5,375 34 256 -1472
2022-05-16 23:17:42 GMT 53.599594 -1.146894 5,425 34 255 -1280
2022-05-16 23:17:39 GMT 53.596195 -1.150737 5,475 33 255 -1216
2022-05-16 23:17:36 GMT 53.593636 -1.153645 5,575 33 256 -960
2022-05-16 23:17:33 GMT 53.590622 -1.157017 5,575 33 256 -960
2022-05-16 23:17:30 GMT 53.587399 -1.160592 5,650 33 259 -1088
2022-05-16 23:17:27 GMT 53.584579 -1.163766 5,725 33 259 -1216
2022-05-16 23:17:24 GMT 53.581440 -1.167217 5,750 33 259 -1088
2022-05-16 23:17:22 GMT 53.579533 -1.169398 5,800 33 260 -1216
2022-05-16 23:17:19 GMT 53.575806 -1.173518 5,850 33 261 -1024
2022-05-16 23:17:16 GMT 53.573227 -1.176322 5,875 33 262 -960
2022-05-16 23:17:13 GMT 53.570454 -1.179415 5,950 33 263 -1216
2022-05-16 23:17:10 GMT 53.567230 -1.182914 6,175 32 263 -1472
2022-05-16 23:17:07 GMT 53.564121 -1.186362 6,100 32 263 -1536
2022-05-16 23:17:04 GMT 53.561371 -1.189192 6,125 32 263 -1536
2022-05-16 23:17:02 GMT 53.559280 -1.191451 6,325 31 262 -1536
2022-05-16 23:16:59 GMT 53.556152 -1.194763 6,375 31 261 -1472
2022-05-16 23:16:56 GMT 53.553543 -1.197431 6,350 31 261 -1664
2022-05-16 23:16:53 GMT 53.549973 -1.201120 6,400 31 261 -1600
2022-05-16 23:16:50 GMT 53.546806 -1.204376 6,550 31 260 -1408
2022-05-16 23:16:47 GMT 53.543381 -1.207868 6,625 33 258 -1408
2022-05-16 23:16:44 GMT 53.538162 -1.213283 6,675 31 260 -1152
2022-05-16 23:16:42 GMT 53.538162 -1.213283 6,700 31 260 -1088
2022-05-16 23:16:39 GMT 53.534515 -1.217059 6,775 31 260 -1088
2022-05-16 23:16:36 GMT 53.528557 -1.223198 6,850 32 261 -1152
2022-05-16 23:16:33 GMT 53.528557 -1.223198 6,900 32 261 -1280
2022-05-16 23:16:30 GMT 53.525574 -1.226467 6,975 32 260 -1344
2022-05-16 23:16:27 GMT 53.522366 -1.229903 7,000 33 260 -1344
2022-05-16 23:16:24 GMT 53.520222 -1.232165 7,050 33 260 -1344
2022-05-16 23:16:22 GMT 53.516918 -1.235800 7,125 32 259 -1408
2022-05-16 23:16:19 GMT 53.515182 -1.237688 7,225 33 258 -1472
2022-05-16 23:16:16 GMT 53.512161 -1.240984 7,250 33 258 -1408
2022-05-16 23:16:13 GMT 53.509098 -1.244282 7,300 33 258 -1280
2022-05-16 23:16:10 GMT 53.506027 -1.247655 7,400 33 259 -1344
2022-05-16 23:16:07 GMT 53.499847 -1.254482 7,475 33 258 -1536
2022-05-16 23:16:04 GMT 53.499847 -1.254482 7,525 33 259 -1536
2022-05-16 23:16:02 GMT 53.498245 -1.256287 7,725 33 258 -1472
2022-05-16 23:15:59 GMT 53.495132 -1.259712 7,675 33 257 -1408
2022-05-16 23:15:56 GMT 53.492661 -1.262408 7,725 33 257 -1216
2022-05-16 23:15:53 GMT 53.489124 -1.266336 7,800 33 258 -1280
2022-05-16 23:15:51 GMT 53.487545 -1.268113 7,800 33 258 -1216
2022-05-16 23:15:49 GMT 53.484982 -1.270940 7,850 33 259 -1152
2022-05-16 23:15:47 GMT 53.483002 -1.273158 7,900 33 259 -1088
2022-05-16 23:15:44 GMT 53.480118 -1.276376 7,950 33 259 -1152
2022-05-16 23:15:42 GMT 53.478188 -1.278534 7,975 33 260 -1152
2022-05-16 23:15:39 GMT 53.472462 -1.284916 8,050 33 260 -1344
2022-05-16 23:15:36 GMT 53.472462 -1.284916 8,125 33 260 -1344
2022-05-16 23:15:33 GMT 53.466225 -1.291782 8,200 33 261 -960
2022-05-16 23:15:30 GMT 53.466225 -1.291782 8,275 33 262 -768
2022-05-16 23:15:27 GMT 53.462952 -1.295445 8,300 33 264 -704
2022-05-16 23:15:24 GMT 53.460022 -1.298741 8,300 33 264 -576
2022-05-16 23:15:22 GMT 53.458122 -1.300830 8,325 33 267 -512
2022-05-16 23:15:19 GMT 53.454666 -1.304705 8,350 34 269 -384
2022-05-16 23:15:16 GMT 53.451508 -1.308315 8,350 35 274 -640
2022-05-16 23:15:13 GMT 53.448952 -1.311251 8,375 35 273 -576
2022-05-16 23:15:10 GMT 53.444668 -1.316421 8,425 37 275 -960
2022-05-16 23:15:07 GMT 53.441971 -1.319975 8,475 41 276 -1216
2022-05-16 23:15:04 GMT 53.439407 -1.323853 8,525 43 276 -1344
2022-05-16 23:15:02 GMT 53.437641 -1.326841 8,600 52 275 -1152
2022-05-16 23:14:59 GMT 53.435120 -1.331857 8,625 52 275 -1216
2022-05-16 23:14:56 GMT 53.432796 -1.337585 8,675 62 276 -960
2022-05-16 23:14:53 GMT 53.430908 -1.343236 8,750 64 276 -1088
2022-05-16 23:14:50 GMT 53.428932 -1.350995 8,825 74 276 -1408
2022-05-16 23:14:47 GMT 53.428143 -1.354873 8,875 74 276 -1408
2022-05-16 23:14:44 GMT 53.427120 -1.361255 9,000 77 276 -1152
2022-05-16 23:14:41 GMT 53.426422 -1.366182 9,025 77 276 -1344
2022-05-16 23:14:38 GMT 53.425827 -1.370466 9,050 77 277 -1344
2022-05-16 23:14:36 GMT 53.424957 -1.376744 9,100 77 277 -1344
2022-05-16 23:14:33 GMT 53.424091 -1.383146 9,150 76 277 -1344
2022-05-16 23:14:31 GMT 53.423676 -1.386161 9,200 76 277 -1280
2022-05-16 23:14:29 GMT 53.422897 -1.391575 9,275 76 278 -1280
2022-05-16 23:14:26 GMT 53.422211 -1.396598 9,350 76 279 -1152
2022-05-16 23:14:23 GMT 53.421249 -1.403739 9,375 76 279 -1152
2022-05-16 23:14:21 GMT 53.420647 -1.407785 9,450 76 280 -1088
2022-05-16 23:14:18 GMT 53.419281 -1.417629 9,475 76 280 -1152
2022-05-16 23:14:16 GMT 53.419281 -1.417629 9,500 76 280 -1152
2022-05-16 23:14:13 GMT 53.418274 -1.424911 9,550 76 280 -1088
2022-05-16 23:14:11 GMT 53.417484 -1.430404 9,600 76 281 -1216
2022-05-16 23:14:07 GMT 53.416397 -1.437953 9,700 76 280 -1472
2022-05-16 23:14:04 GMT 53.415436 -1.444467 9,725 76 281 -1344
2022-05-16 23:14:02 GMT 53.415115 -1.446586 9,750 76 281 -1408
2022-05-16 23:14:00 GMT 53.414337 -1.452079 9,825 76 281 -1472
2022-05-16 23:13:57 GMT 53.413422 -1.458200 9,925 75 280 -1536
2022-05-16 23:13:54 GMT 53.412361 -1.465221 9,975 75 280 -1536
2022-05-16 23:13:52 GMT 53.412037 -1.467563 10,000 75 280 -1536
2022-05-16 23:13:50 GMT 53.411362 -1.471854 10,050 75 280 -1600
2022-05-16 23:13:47 GMT 53.410126 -1.480251 11,950 77 278 -1344
2022-05-16 23:13:44 GMT 53.409164 -1.486764 10,225 75 278 -1408
2022-05-16 23:13:41 GMT 53.408340 -1.492179 10,325 75 278 -1408
2022-05-16 23:13:38 GMT 53.407288 -1.499084 10,375 76 278 -1408
2022-05-16 23:13:36 GMT 53.406635 -1.503350 10,400 76 278 -1344
2022-05-16 23:13:33 GMT 53.404633 -1.517325 10,525 76 277 -1216
2022-05-16 23:13:30 GMT 53.404633 -1.517325 10,550 76 278 -1280
2022-05-16 23:13:27 GMT 53.403049 -1.528473 10,625 76 278 -1280
2022-05-16 23:13:24 GMT 53.403049 -1.528473 10,650 77 278 -1280
2022-05-16 23:13:21 GMT 53.401794 -1.538086 10,725 77 278 -1280
2022-05-16 23:13:19 GMT 53.401794 -1.538086 10,875 77 278 -1280
2022-05-16 23:13:16 GMT 53.400211 -1.550122 10,875 78 278 -1216
2022-05-16 23:13:13 GMT 53.400211 -1.550122 10,875 78 278 -1216
2022-05-16 23:13:10 GMT 53.398361 -1.563668 10,975 75 280 -1216
2022-05-16 23:13:07 GMT 53.398361 -1.563668 11,000 73 281 -1344
2022-05-16 23:13:04 GMT 53.397141 -1.569995 11,075 68 282 -1408
2022-05-16 23:13:02 GMT 53.395889 -1.575361 11,125 64 284 -1472
2022-05-16 23:12:59 GMT 53.393417 -1.583601 11,225 60 286 -1344
2022-05-16 23:12:56 GMT 53.393051 -1.584778 11,250 57 288 -1280
2022-05-16 23:12:54 GMT 53.390854 -1.590585 11,350 52 291 -1088
2022-05-16 23:12:51 GMT 53.388885 -1.595136 11,350 52 291 -1152
2022-05-16 23:12:49 GMT 53.387455 -1.598026 11,400 48 293 -960
2022-05-16 23:12:46 GMT 53.384125 -1.604161 11,450 44 296 -960
2022-05-16 23:12:43 GMT 53.382156 -1.607300 11,450 39 298 -960
2022-05-16 23:12:41 GMT 53.379501 -1.610988 11,500 37 300 -1024
2022-05-16 23:12:39 GMT 53.376938 -1.614263 11,550 32 303 -832
2022-05-16 23:12:36 GMT 53.373688 -1.617815 11,600 28 305 -1024
2022-05-16 23:12:33 GMT 53.370697 -1.620645 11,625 26 305 -960
2022-05-16 23:12:31 GMT 53.367020 -1.623553 11,675 20 308 -960
2022-05-16 23:12:28 GMT 53.362289 -1.626526 11,725 17 309 -960
2022-05-16 23:12:25 GMT 53.359478 -1.627915 11,750 13 312 -1088
2022-05-16 23:12:22 GMT 53.354546 -1.629693 11,825 8 313 -1152
2022-05-16 23:12:19 GMT 53.351166 -1.630450 11,825 5 315 -1216
2022-05-16 23:12:16 GMT 53.343292 -1.630842 11,950 358 317 -1536
2022-05-16 23:12:13 GMT 53.343292 -1.630842 12,000 355 317 -1664
2022-05-16 23:12:11 GMT 53.339413 -1.630339 12,050 354 318 -1792
2022-05-16 23:12:09 GMT 53.335007 -1.629351 12,175 351 317 -2240
2022-05-16 23:12:06 GMT 53.331268 -1.628400 12,275 352 321 -2048
2022-05-16 23:12:03 GMT 53.324005 -1.626461 12,325 352 319 -2112
2022-05-16 23:12:01 GMT 53.319534 -1.625349 12,450 352 320 -2112
2022-05-16 23:11:58 GMT 53.319534 -1.625349 12,500 352 321 -2112
2022-05-16 23:11:55 GMT 53.314957 -1.624172 12,625 352 322 -2048
2022-05-16 23:11:52 GMT 53.306919 -1.622099 12,725 352 323 -1792
2022-05-16 23:11:49 GMT 53.306919 -1.622099 12,825 352 325 -1600
2022-05-16 23:11:46 GMT 53.301041 -1.620640 12,900 352 326 -1536
2022-05-16 23:11:43 GMT 53.297237 -1.619676 12,925 352 328 -1408
2022-05-16 23:11:40 GMT 53.293579 -1.618757 13,000 352 331 -1280
2022-05-16 23:11:38 GMT 53.289780 -1.617815 13,025 352 333 -1216
2022-05-16 23:11:35 GMT 53.285660 -1.616717 13,075 352 336 -1216
2022-05-16 23:11:32 GMT 53.281734 -1.615717 13,175 352 340 -1216
2022-05-16 23:11:29 GMT 53.276478 -1.614425 13,200 352 343 -1216
2022-05-16 23:11:26 GMT 53.271915 -1.613213 13,275 351 347 -1216
2022-05-16 23:11:23 GMT 53.266838 -1.611840 13,300 351 349 -1152
2022-05-16 23:11:20 GMT 53.262882 -1.610709 13,350 351 352 -1088
2022-05-16 23:11:18 GMT 53.259750 -1.609811 13,375 350 354 -1024
2022-05-16 23:11:15 GMT 53.251968 -1.607221 13,450 348 360 -1152
2022-05-16 23:11:13 GMT 53.251968 -1.607221 13,475 348 360 -1216
2022-05-16 23:11:11 GMT 53.248497 -1.605943 13,525 346 362 -1280
2022-05-16 23:11:09 GMT 53.239655 -1.601728 13,550 343 366 -1152
2022-05-16 23:11:06 GMT 53.236069 -1.599561 13,625 339 368 -1280
2022-05-16 23:11:03 GMT 53.236069 -1.599561 13,650 338 368 -1280
2022-05-16 23:11:01 GMT 53.231365 -1.596330 13,675 337 368 -1216
2022-05-16 23:10:59 GMT 53.228294 -1.593906 13,725 334 369 -1216
2022-05-16 23:10:56 GMT 53.223591 -1.589867 13,975 329 371 -1280
2022-05-16 23:10:53 GMT 53.220566 -1.586897 13,825 329 371 -1280
2022-05-16 23:10:51 GMT 53.217545 -1.583758 13,850 327 371 -1024
2022-05-16 23:10:49 GMT 53.214386 -1.580226 13,950 325 374 -1024
2022-05-16 23:10:46 GMT 53.208481 -1.573242 13,975 325 374 -1024
2022-05-16 23:10:43 GMT 53.206512 -1.570888 13,975 325 377 -960
2022-05-16 23:10:41 GMT 53.203484 -1.567248 14,000 325 379 -1088
2022-05-16 23:10:39 GMT 53.200378 -1.563590 14,100 325 380 -1024
2022-05-16 23:10:36 GMT 53.195251 -1.557469 14,125 325 383 -1024
2022-05-16 23:10:33 GMT 53.192402 -1.554162 14,150 325 385 -960
2022-05-16 23:10:31 GMT 53.188911 -1.550042 14,175 325 385 -1152
2022-05-16 23:10:29 GMT 53.186691 -1.547424 14,200 325 387 -1152
2022-05-16 23:10:27 GMT 53.183510 -1.543660 14,250 325 390 -1088
2022-05-16 23:10:25 GMT 53.179916 -1.539420 14,275 325 390 -1152
2022-05-16 23:10:23 GMT 53.177261 -1.536281 14,300 325 393 -1216
2022-05-16 23:10:20 GMT 53.171871 -1.529927 14,375 325 396 -1216
2022-05-16 23:10:17 GMT 53.168793 -1.526315 14,400 325 398 -1280
2022-05-16 23:10:15 GMT 53.165077 -1.522010 14,500 325 403 -1472
2022-05-16 23:10:12 GMT 53.159817 -1.515790 14,525 325 403 -1472
2022-05-16 23:10:09 GMT 53.155334 -1.510463 14,600 325 405 -1536
2022-05-16 23:10:06 GMT 53.145355 -1.498771 14,700 325 408 -2304
2022-05-16 23:10:03 GMT 53.142105 -1.494925 14,850 325 408 -2560
2022-05-16 23:10:00 GMT 53.142105 -1.494925 14,900 325 409 -3072
2022-05-16 23:09:58 GMT 53.138123 -1.490217 15,375 325 408 -3136
2022-05-16 23:09:55 GMT 53.134735 -1.486215 15,150 325 408 -3136
2022-05-16 23:09:53 GMT 53.129791 -1.480408 15,300 325 408 -3008
2022-05-16 23:09:50 GMT 53.126625 -1.476692 15,400 325 409 -2944
2022-05-16 23:09:48 GMT 53.118710 -1.467402 15,650 325 410 -2752
2022-05-16 23:09:45 GMT 53.114136 -1.462045 15,700 325 411 -2752
2022-05-16 23:09:43 GMT 53.114136 -1.462045 15,800 325 411 -2944
2022-05-16 23:09:40 GMT 53.111076 -1.458516 15,875 326 412 -2944
2022-05-16 23:09:37 GMT 53.105629 -1.452215 16,025 326 413 -2688
2022-05-16 23:09:34 GMT 53.101593 -1.447527 16,200 326 414 -2432
2022-05-16 23:09:32 GMT 53.098553 -1.443975 16,325 326 415 -2496
2022-05-16 23:09:29 GMT 53.087906 -1.431656 16,400 326 416 -2560
2022-05-16 23:09:26 GMT 53.087906 -1.431656 16,500 326 418 -2624
2022-05-16 23:09:23 GMT 53.083050 -1.426104 16,650 326 419 -2816
2022-05-16 23:09:20 GMT 53.079418 -1.421866 16,725 326 420 -2624
2022-05-16 23:09:18 GMT 53.076393 -1.418335 16,825 326 420 -2688
2022-05-16 23:09:16 GMT 53.072250 -1.413548 17,075 326 421 -2944
2022-05-16 23:09:13 GMT 53.068039 -1.408691 17,125 326 421 -2816
2022-05-16 23:09:10 GMT 53.063313 -1.403190 17,225 326 423 -2880
2022-05-16 23:09:08 GMT 53.060429 -1.399894 17,700 326 424 -2944
2022-05-16 23:09:06 GMT 53.057144 -1.396103 17,525 326 424 -2944
2022-05-16 23:09:03 GMT 53.051254 -1.389300 17,575 326 424 -3072
2022-05-16 23:09:00 GMT 53.044281 -1.381149 17,750 326 425 -2880
2022-05-16 23:08:58 GMT 53.044281 -1.381149 17,800 326 425 -2880
2022-05-16 23:08:56 GMT 53.041107 -1.377529 17,925 326 426 -3392
2022-05-16 23:08:53 GMT 53.036591 -1.372349 18,050 326 425 -3392
2022-05-16 23:08:50 GMT 53.030685 -1.365585 18,325 326 426 -3392
2022-05-16 23:08:48 GMT 53.028351 -1.362854 18,375 326 427 -3200
2022-05-16 23:08:46 GMT 53.024117 -1.358067 18,450 326 427 -2944
2022-05-16 23:08:43 GMT 53.019878 -1.353280 18,650 326 427 -3264
2022-05-16 23:08:40 GMT 53.014618 -1.347198 18,750 326 427 -3328
2022-05-16 23:08:38 GMT 53.011185 -1.343307 19,000 326 427 -3584
2022-05-16 23:08:35 GMT 53.006378 -1.337821 19,125 326 427 -3392
2022-05-16 23:08:32 GMT 53.001026 -1.331778 19,350 326 427 -3008
2022-05-16 23:08:29 GMT 52.995953 -1.325971 19,475 326 428 -3072
2022-05-16 23:08:26 GMT 52.992695 -1.322283 19,550 326 428 -3008
2022-05-16 23:08:23 GMT 52.982079 -1.310120 19,750 326 430 -2816
2022-05-16 23:08:20 GMT 52.982079 -1.310120 19,825 326 431 -2752
2022-05-16 23:08:18 GMT 52.978088 -1.305542 20,000 326 431 -2944
2022-05-16 23:08:15 GMT 52.974258 -1.301095 20,200 322 433 -2560
2022-05-16 23:08:12 GMT 52.968338 -1.294098 20,250 325 432 -2752
2022-05-16 23:08:09 GMT 52.960281 -1.284256 20,800 321 434 -2112
2022-05-16 23:08:06 GMT 52.960281 -1.284256 20,575 321 434 -2240
2022-05-16 23:08:03 GMT 52.950146 -1.271040 20,675 321 434 -2688
2022-05-16 23:08:00 GMT 52.950146 -1.271040 20,750 321 434 -2240
2022-05-16 23:07:57 GMT 52.946468 -1.265860 20,825 320 435 -2240
2022-05-16 23:07:55 GMT 52.941765 -1.259112 21,100 318 437 -2368
2022-05-16 23:07:52 GMT 52.936413 -1.250950 20,975 318 437 -2304
2022-05-16 23:07:49 GMT 52.929108 -1.239166 21,200 316 436 -3008
2022-05-16 23:07:46 GMT 52.929108 -1.239166 21,300 315 436 -3520
2022-05-16 23:07:43 GMT 52.924728 -1.231960 21,525 315 436 -3520
2022-05-16 23:07:40 GMT 52.920410 -1.224747 21,625 315 436 -3392
2022-05-16 23:07:37 GMT 52.916904 -1.219012 22,125 315 435 -3264
2022-05-16 23:07:34 GMT 52.912582 -1.211777 21,975 315 436 -3200
2022-05-16 23:07:32 GMT 52.907867 -1.203995 22,125 315 436 -3072
2022-05-16 23:07:29 GMT 52.905781 -1.200570 22,175 315 436 -3328
2022-05-16 23:07:27 GMT 52.902103 -1.194449 22,400 315 436 -3328
2022-05-16 23:07:24 GMT 52.894043 -1.181107 22,550 315 435 -3328
2022-05-16 23:07:21 GMT 52.894043 -1.181107 22,650 315 436 -3328
2022-05-16 23:07:19 GMT 52.888916 -1.172638 23,000 316 436 -3008
2022-05-16 23:07:17 GMT 52.888916 -1.172638 23,050 316 436 -3072
2022-05-16 23:07:15 GMT 52.885254 -1.166534 23,000 316 436 -3008
2022-05-16 23:07:12 GMT 52.881153 -1.159842 23,225 316 436 -3200
2022-05-16 23:07:09 GMT 52.874779 -1.149248 23,800 315 435 -3520
2022-05-16 23:07:06 GMT 52.873333 -1.146894 23,500 315 435 -3072
2022-05-16 23:07:04 GMT 52.869514 -1.140616 23,575 315 435 -3392
2022-05-16 23:07:02 GMT 52.865513 -1.134024 23,725 316 434 -3392
2022-05-16 23:06:59 GMT 52.863510 -1.130729 23,875 316 434 -3200
2022-05-16 23:06:57 GMT 52.859344 -1.123810 24,125 316 434 -3200
2022-05-16 23:06:54 GMT 52.854713 -1.116211 24,250 316 434 -3136
2022-05-16 23:06:51 GMT 52.850616 -1.109462 24,300 316 434 -3264
2022-05-16 23:06:49 GMT 52.849312 -1.107343 24,400 316 434 -3008
2022-05-16 23:06:47 GMT 52.845840 -1.101608 24,500 316 434 -3136
2022-05-16 23:06:45 GMT 52.841072 -1.093846 24,650 316 434 -3072
2022-05-16 23:06:42 GMT 52.837395 -1.087803 24,875 316 432 -3136
2022-05-16 23:06:39 GMT 52.830879 -1.077053 24,925 316 432 -3392
2022-05-16 23:06:37 GMT 52.830879 -1.077053 25,050 316 432 -3072
2022-05-16 23:06:33 GMT 52.826385 -1.069717 25,725 316 431 -3072
2022-05-16 23:06:31 GMT 52.822639 -1.063555 25,350 316 432 -3200
2022-05-16 23:06:29 GMT 52.820358 -1.059867 25,425 316 432 -3264
2022-05-16 23:06:26 GMT 52.811554 -1.045380 25,725 316 431 -3072
2022-05-16 23:06:23 GMT 52.811554 -1.045380 25,800 316 431 -3136
2022-05-16 23:06:21 GMT 52.808578 -1.040497 25,900 316 431 -3328
2022-05-16 23:06:19 GMT 52.805740 -1.035843 26,000 316 431 -3136
2022-05-16 23:06:16 GMT 52.801598 -1.029027 26,325 316 430 -3328
2022-05-16 23:06:13 GMT 52.795963 -1.019767 26,375 316 430 -3136
2022-05-16 23:06:10 GMT 52.793060 -1.015015 26,475 316 430 -3392
2022-05-16 23:06:08 GMT 52.790333 -1.010507 26,750 315 429 -3648
2022-05-16 23:06:05 GMT 52.786148 -1.003647 26,825 315 429 -3648
2022-05-16 23:06:02 GMT 52.781113 -0.995331 27,050 315 428 -3904
2022-05-16 23:05:59 GMT 52.778320 -0.990677 27,150 315 428 -4096
2022-05-16 23:05:57 GMT 52.774036 -0.983669 27,275 315 427 -3904
2022-05-16 23:05:54 GMT 52.769985 -0.976998 27,525 315 425 -3840
2022-05-16 23:05:51 GMT 52.766682 -0.971505 27,625 315 425 -3776
2022-05-16 23:05:49 GMT 52.762573 -0.964737 27,800 315 424 -3904
2022-05-16 23:05:46 GMT 52.758209 -0.957615 28,000 315 422 -3776
2022-05-16 23:05:43 GMT 52.755463 -0.953064 28,200 315 422 -3648
2022-05-16 23:05:41 GMT 52.752502 -0.948105 28,275 316 422 -3456
2022-05-16 23:05:39 GMT 52.750065 -0.944196 28,375 316 422 -3200
2022-05-16 23:05:37 GMT 52.747734 -0.940273 28,525 316 422 -3136
2022-05-16 23:05:35 GMT 52.745041 -0.935898 28,550 316 422 -3072
2022-05-16 23:05:32 GMT 52.740097 -0.927734 28,725 316 421 -3008
2022-05-16 23:05:30 GMT 52.737991 -0.924301 28,800 316 422 -2752
2022-05-16 23:05:28 GMT 52.735165 -0.919713 28,900 316 422 -2560
2022-05-16 23:05:26 GMT 52.731724 -0.914062 29,050 316 423 -2240
2022-05-16 23:05:23 GMT 52.727112 -0.906607 29,175 316 423 -2240
2022-05-16 23:05:20 GMT 52.724365 -0.902056 29,200 316 423 -2496
2022-05-16 23:05:18 GMT 52.720688 -0.895996 29,300 316 423 -2112
2022-05-16 23:05:15 GMT 52.715755 -0.888009 29,700 316 423 -1472
2022-05-16 23:05:12 GMT 52.713100 -0.883615 29,500 316 424 -2240
2022-05-16 23:05:09 GMT 52.707840 -0.874983 29,625 316 423 -1472
2022-05-16 23:05:07 GMT 52.705048 -0.870510 29,700 316 422 -1408
2022-05-16 23:05:05 GMT 52.702469 -0.866318 29,725 316 422 -1408
2022-05-16 23:05:02 GMT 52.698990 -0.860672 29,800 316 422 -1024
2022-05-16 23:05:00 GMT 52.697067 -0.857468 29,825 316 422 -960
2022-05-16 23:04:58 GMT 52.694248 -0.852853 29,875 316 422 -960
2022-05-16 23:04:56 GMT 52.689743 -0.845566 29,925 316 420 -832
2022-05-16 23:04:53 GMT 52.682514 -0.833784 29,975 316 420 -640
2022-05-16 23:04:50 GMT 52.682514 -0.833784 29,975 316 420 -640
2022-05-16 23:04:48 GMT 52.679863 -0.829546 30,000 316 419 -512
2022-05-16 23:04:46 GMT 52.676926 -0.824738 30,025 316 420 -896
2022-05-16 23:04:44 GMT 52.673447 -0.819092 30,100 316 420 -1088
2022-05-16 23:04:41 GMT 52.667435 -0.809378 30,150 316 420 -1024
2022-05-16 23:04:38 GMT 52.665665 -0.806475 30,250 316 420 -1088
2022-05-16 23:04:35 GMT 52.658524 -0.794983 30,250 316 420 -1088
2022-05-16 23:04:31 GMT 52.655045 -0.789337 30,300 316 420 -704
2022-05-16 23:04:28 GMT 52.652161 -0.784683 30,350 316 420 -1024
2022-05-16 23:04:26 GMT 52.648624 -0.778931 30,375 316 421 -832
2022-05-16 23:04:23 GMT 52.644104 -0.771637 30,450 316 421 -1344
2022-05-16 23:04:20 GMT 52.641270 -0.767003 30,450 316 421 -832
2022-05-16 23:04:18 GMT 52.637054 -0.760193 30,550 316 421 -832
2022-05-16 23:04:15 GMT 52.633263 -0.753976 30,575 316 421 -1216
2022-05-16 23:04:12 GMT 52.628983 -0.747070 30,625 316 421 -1088
2022-05-16 23:04:09 GMT 52.624878 -0.740433 30,675 316 420 -1088
2022-05-16 23:04:06 GMT 52.618599 -0.730277 30,750 316 420 -960
2022-05-16 23:04:04 GMT 52.618599 -0.730277 30,750 316 420 -1152
2022-05-16 23:04:01 GMT 52.613846 -0.722504 30,825 316 420 -1024
2022-05-16 23:03:58 GMT 52.611153 -0.718192 30,850 316 419 -1024
2022-05-16 23:03:56 GMT 52.606979 -0.711365 30,900 316 418 -896
2022-05-16 23:03:54 GMT 52.605518 -0.709011 30,950 316 417 -960
2022-05-16 23:03:52 GMT 52.601421 -0.702340 30,950 316 417 -1024
2022-05-16 23:03:49 GMT 52.597366 -0.695801 31,000 316 417 -1024
2022-05-16 23:03:46 GMT 52.593384 -0.689316 31,050 316 416 -768
2022-05-16 23:03:43 GMT 52.586014 -0.677338 31,250 316 415 -768
2022-05-16 23:03:40 GMT 52.586014 -0.677338 31,150 316 416 -1152
2022-05-16 23:03:38 GMT 52.583817 -0.673752 31,200 316 415 -896
2022-05-16 23:03:36 GMT 52.580933 -0.669098 31,250 316 415 -960
2022-05-16 23:03:34 GMT 52.576656 -0.662162 31,275 316 414 -1088
2022-05-16 23:03:31 GMT 52.573536 -0.657061 31,325 316 414 -768
2022-05-16 23:03:28 GMT 52.568665 -0.649261 31,375 316 413 -1216
2022-05-16 23:03:25 GMT 52.562302 -0.638885 31,400 316 413 -896
2022-05-16 23:03:23 GMT 52.562302 -0.638885 31,450 316 413 -896
2022-05-16 23:03:20 GMT 52.558182 -0.632324 31,475 316 413 -640
2022-05-16 23:03:18 GMT 52.554173 -0.625907 31,525 316 413 -768
2022-05-16 23:03:15 GMT 52.552170 -0.622611 31,525 316 412 -1024
2022-05-16 23:03:13 GMT 52.548351 -0.616411 31,600 316 412 -576
2022-05-16 23:03:10 GMT 52.544815 -0.610761 31,600 316 412 -576
2022-05-16 23:03:08 GMT 52.540649 -0.604095 31,650 316 412 -768
2022-05-16 23:03:05 GMT 52.537125 -0.598373 31,675 316 414 -768
2022-05-16 23:03:02 GMT 52.533554 -0.592651 31,700 316 414 -960
2022-05-16 23:03:00 GMT 52.527969 -0.583649 31,775 316 414 -768
2022-05-16 23:02:58 GMT 52.527969 -0.583649 31,850 316 415 -960
2022-05-16 23:02:55 GMT 52.520096 -0.571054 31,825 316 415 -896
2022-05-16 23:02:52 GMT 52.515610 -0.563812 31,900 316 417 -1024
2022-05-16 23:02:49 GMT 52.515610 -0.563812 31,925 316 417 -1024
2022-05-16 23:02:47 GMT 52.512177 -0.558319 31,975 316 418 -1408
2022-05-16 23:02:44 GMT 52.507668 -0.551121 32,000 316 420 -320
2022-05-16 23:02:41 GMT 52.504917 -0.546727 32,000 316 420 -256
2022-05-16 23:02:39 GMT 52.502125 -0.542254 32,025 316 420 0
2022-05-16 23:02:37 GMT 52.499100 -0.537310 32,025 316 420 64
2022-05-16 23:02:34 GMT 52.494350 -0.529776 32,025 316 420 384
2022-05-16 23:02:31 GMT 52.489883 -0.522614 32,000 316 420 256
2022-05-16 23:02:28 GMT 52.487228 -0.518341 32,000 316 420 192
2022-05-16 23:02:26 GMT 52.484344 -0.513687 32,000 316 420 0
2022-05-16 23:02:24 GMT 52.481644 -0.509373 32,000 316 420 -64
2022-05-16 23:02:22 GMT 52.478710 -0.504743 32,000 316 420 256
2022-05-16 23:02:20 GMT 52.475052 -0.498810 32,000 316 420 128
2022-05-16 23:02:17 GMT 52.471436 -0.493011 32,000 316 420 -128
2022-05-16 23:02:14 GMT 52.467770 -0.487087 32,000 316 420 128
2022-05-16 23:02:12 GMT 52.465534 -0.483555 32,000 316 420 128
2022-05-16 23:02:10 GMT 52.462143 -0.478134 32,000 316 420 -64
2022-05-16 23:02:08 GMT 52.459854 -0.474452 32,000 316 420 0
2022-05-16 23:02:06 GMT 52.456879 -0.469666 32,000 316 420 -64
2022-05-16 23:02:04 GMT 52.453995 -0.464935 32,000 316 420 320
2022-05-16 23:02:02 GMT 52.450592 -0.459464 32,000 316 420 -256
2022-05-16 23:02:00 GMT 52.448498 -0.456168 32,000 316 420 -64
2022-05-16 23:01:58 GMT 52.445751 -0.451695 32,000 316 420 192
2022-05-16 23:01:56 GMT 52.440071 -0.442592 32,000 316 420 -256
2022-05-16 23:01:54 GMT 52.440071 -0.442592 32,000 316 420 128
2022-05-16 23:01:52 GMT 52.437420 -0.438354 32,000 316 420 192
2022-05-16 23:01:50 GMT 52.434174 -0.433121 32,000 316 420 -64
2022-05-16 23:01:47 GMT 52.429783 -0.426113 32,000 316 420 -64
2022-05-16 23:01:45 GMT 52.426201 -0.420384 32,000 316 420 -128
2022-05-16 23:01:42 GMT 52.424194 -0.417175 32,000 316 420 -128
2022-05-16 23:01:40 GMT 52.419960 -0.410339 32,000 316 420 128
2022-05-16 23:01:38 GMT 52.418007 -0.407279 32,000 316 420 0
2022-05-16 23:01:36 GMT 52.415314 -0.402908 32,000 316 420 0
2022-05-16 23:01:34 GMT 52.412605 -0.398568 32,000 316 420 128
2022-05-16 23:01:32 GMT 52.409252 -0.393311 32,000 316 420 0
2022-05-16 23:01:30 GMT 52.406296 -0.388489 32,000 316 420 128
2022-05-16 23:01:28 GMT 52.404133 -0.385071 32,000 316 420 64
2022-05-16 23:01:26 GMT 52.396545 -0.373001 32,000 316 421 0
2022-05-16 23:01:23 GMT 52.396545 -0.373001 32,000 316 421 128
2022-05-16 23:01:20 GMT 52.392307 -0.366237 32,000 316 421 64
2022-05-16 23:01:18 GMT 52.389313 -0.361481 32,000 316 421 -64
2022-05-16 23:01:15 GMT 52.385834 -0.355911 32,000 316 421 -64
2022-05-16 23:01:13 GMT 52.382301 -0.350307 32,000 316 421 128
2022-05-16 23:01:10 GMT 52.378670 -0.344500 32,000 316 420 0
2022-05-16 23:01:08 GMT 52.376156 -0.340576 32,000 316 421 -320
2022-05-16 23:01:06 GMT 52.372803 -0.335240 32,000 316 420 256
2022-05-16 23:01:04 GMT 52.369221 -0.329433 32,000 316 420 -128
2022-05-16 23:01:01 GMT 52.362167 -0.318298 32,000 316 420 -64
2022-05-16 23:00:58 GMT 52.362167 -0.318298 32,000 316 420 128
2022-05-16 23:00:55 GMT 52.358791 -0.312875 32,000 316 420 -64
2022-05-16 23:00:53 GMT 52.355022 -0.306911 32,000 316 420 -192
2022-05-16 23:00:50 GMT 52.350693 -0.300005 32,000 316 420 128
2022-05-16 23:00:48 GMT 52.345367 -0.291519 32,000 316 420 320
2022-05-16 23:00:46 GMT 52.345367 -0.291519 32,000 316 420 128
2022-05-16 23:00:43 GMT 52.340515 -0.283813 32,000 316 420 -256
2022-05-16 23:00:40 GMT 52.334026 -0.273481 32,000 316 420 -64
2022-05-16 23:00:38 GMT 52.334026 -0.273481 32,000 316 420 -64
2022-05-16 23:00:35 GMT 52.326736 -0.261917 32,000 316 420 -64
2022-05-16 23:00:33 GMT 52.323227 -0.256295 32,000 316 420 64
2022-05-16 23:00:30 GMT 52.323227 -0.256295 32,000 316 420 -192
2022-05-16 23:00:28 GMT 52.319595 -0.250567 32,000 316 420 0
2022-05-16 23:00:25 GMT 52.316895 -0.246277 32,000 316 420 64
2022-05-16 23:00:23 GMT 52.308975 -0.233688 32,000 316 420 -64
2022-05-16 23:00:20 GMT 52.308975 -0.233688 32,000 316 420 64
2022-05-16 23:00:18 GMT 52.306141 -0.229143 32,000 316 420 0
2022-05-16 23:00:16 GMT 52.303986 -0.225754 32,000 316 420 128
2022-05-16 23:00:14 GMT 52.296131 -0.213292 32,000 316 420 -192
2022-05-16 23:00:11 GMT 52.296131 -0.213292 32,025 316 420 -256
2022-05-16 23:00:08 GMT 52.289429 -0.202698 32,025 316 420 0
2022-05-16 23:00:06 GMT 52.289429 -0.202698 32,000 316 420 -320
2022-05-16 23:00:04 GMT 52.286541 -0.198068 32,000 316 420 0
2022-05-16 23:00:01 GMT 52.283112 -0.192719 32,000 316 420 64
2022-05-16 22:59:58 GMT 52.278629 -0.185512 32,025 316 420 -64
2022-05-16 22:59:56 GMT 52.272858 -0.176392 32,025 316 420 -192
2022-05-16 22:59:54 GMT 52.272858 -0.176392 32,025 316 420 -64
2022-05-16 22:59:51 GMT 52.268784 -0.169983 32,025 316 420 64
2022-05-16 22:59:48 GMT 52.264664 -0.163539 32,025 316 420 -256
2022-05-16 22:59:46 GMT 52.261688 -0.158768 32,025 316 420 64
2022-05-16 22:59:44 GMT 52.258209 -0.153351 32,025 316 420 -128
2022-05-16 22:59:41 GMT 52.254181 -0.146942 32,025 316 420 192
2022-05-16 22:59:38 GMT 52.250603 -0.141331 32,025 316 420 64
2022-05-16 22:59:36 GMT 52.247112 -0.135838 32,025 316 420 0
2022-05-16 22:59:33 GMT 52.240768 -0.125885 32,025 316 420 -64
2022-05-16 22:59:31 GMT 52.238174 -0.121791 32,025 316 420 192
2022-05-16 22:59:29 GMT 52.238174 -0.121791 32,025 316 420 -128
2022-05-16 22:59:27 GMT 52.233986 -0.115278 32,025 317 420 0
2022-05-16 22:59:24 GMT 52.229874 -0.108795 32,025 317 419 -64
2022-05-16 22:59:21 GMT 52.227001 -0.104292 32,000 316 420 192
2022-05-16 22:59:19 GMT 52.224838 -0.100861 32,000 316 420 0
2022-05-16 22:59:17 GMT 52.221184 -0.095110 32,000 316 420 192
2022-05-16 22:59:14 GMT 52.214340 -0.084359 32,000 317 420 128
2022-05-16 22:59:12 GMT 52.214340 -0.084359 32,000 317 420 128
2022-05-16 22:59:09 GMT 52.210709 -0.078631 32,000 317 420 -128
2022-05-16 22:59:07 GMT 52.208614 -0.075335 32,000 317 420 192
2022-05-16 22:59:05 GMT 52.205017 -0.069809 32,000 316 420 -320
2022-05-16 22:59:03 GMT 52.202957 -0.066528 32,000 316 420 192
2022-05-16 22:59:01 GMT 52.198746 -0.059891 32,000 316 420 0
2022-05-16 22:58:59 GMT 52.193531 -0.051714 32,000 316 420 128
2022-05-16 22:58:57 GMT 52.193531 -0.051714 32,000 316 420 64
2022-05-16 22:58:54 GMT 52.189758 -0.045750 32,000 316 420 128
2022-05-16 22:58:52 GMT 52.185516 -0.039062 32,000 316 420 -320
2022-05-16 22:58:49 GMT 52.182724 -0.034714 32,000 316 420 128
2022-05-16 22:58:47 GMT 52.179287 -0.029349 32,000 316 420 -128
2022-05-16 22:58:44 GMT 52.174164 -0.021266 32,000 316 420 0
2022-05-16 22:58:41 GMT 52.171280 -0.016708 32,000 316 420 -64
2022-05-16 22:58:39 GMT 52.168762 -0.012817 32,000 316 420 -64
2022-05-16 22:58:37 GMT 52.161736 -0.001726 32,000 316 420 64
2022-05-16 22:58:35 GMT 52.161736 -0.001726 32,000 316 420 192
2022-05-16 22:58:33 GMT 52.160294 0.000610 32,000 316 420 -256
2022-05-16 22:58:31 GMT 52.156616 0.006356 32,000 316 420 64
2022-05-16 22:58:29 GMT 52.150749 0.015616 32,000 316 419 0
2022-05-16 22:58:27 GMT 52.150749 0.015616 32,000 316 419 0
2022-05-16 22:58:24 GMT 52.147957 0.020011 32,000 316 419 0
2022-05-16 22:58:22 GMT 52.145210 0.024327 32,000 316 419 128
2022-05-16 22:58:20 GMT 52.137390 0.036647 32,000 316 419 192
2022-05-16 22:58:17 GMT 52.137390 0.036647 32,000 316 419 128
2022-05-16 22:58:14 GMT 52.134155 0.041809 32,000 316 419 -64
2022-05-16 22:58:12 GMT 52.130173 0.048026 32,000 316 419 -128
2022-05-16 22:58:09 GMT 52.127335 0.052490 32,000 316 419 -64
2022-05-16 22:58:07 GMT 52.123890 0.057835 32,000 316 419 128
2022-05-16 22:58:04 GMT 52.120167 0.063799 32,000 316 419 0
2022-05-16 22:58:02 GMT 52.116623 0.069351 32,000 316 419 128
2022-05-16 22:57:59 GMT 52.112762 0.075335 32,000 316 420 -64
2022-05-16 22:57:57 GMT 52.109177 0.081063 32,000 316 419 64
2022-05-16 22:57:54 GMT 52.105042 0.087509 32,000 316 420 192
2022-05-16 22:57:51 GMT 52.101974 0.092316 32,000 316 419 192
2022-05-16 22:57:49 GMT 52.094002 0.104841 32,000 316 420 128
2022-05-16 22:57:46 GMT 52.094002 0.104841 32,000 317 419 -64
2022-05-16 22:57:43 GMT 52.089951 0.111197 32,000 317 419 -64
2022-05-16 22:57:40 GMT 52.086601 0.116455 32,000 317 419 64
2022-05-16 22:57:37 GMT 52.082245 0.123291 32,000 317 419 320
2022-05-16 22:57:35 GMT 52.080139 0.126572 32,000 317 419 0
2022-05-16 22:57:33 GMT 52.076065 0.132904 32,000 317 419 192
2022-05-16 22:57:31 GMT 52.074005 0.136185 32,000 317 419 0
2022-05-16 22:57:29 GMT 52.071144 0.140625 32,000 317 419 0
2022-05-16 22:57:27 GMT 52.068283 0.145111 32,000 317 419 64
2022-05-16 22:57:25 GMT 52.065491 0.149460 32,000 317 419 64
2022-05-16 22:57:23 GMT 52.061230 0.156084 32,000 317 419 0
2022-05-16 22:57:20 GMT 52.057938 0.161209 32,000 317 420 64
2022-05-16 22:57:17 GMT 52.053772 0.167694 32,000 317 420 64
2022-05-16 22:57:14 GMT 52.051037 0.171936 32,000 317 420 64
2022-05-16 22:57:12 GMT 52.047405 0.177586 32,000 317 420 0
2022-05-16 22:57:09 GMT 52.043076 0.184335 32,000 317 420 -128
2022-05-16 22:57:07 GMT 52.040279 0.188729 32,000 317 420 -128
2022-05-16 22:57:05 GMT 52.037766 0.192653 32,000 317 420 64
2022-05-16 22:57:03 GMT 52.031799 0.201874 32,000 317 420 -64
2022-05-16 22:57:01 GMT 52.031799 0.201874 32,000 317 420 -64
2022-05-16 22:56:59 GMT 52.029060 0.206151 32,000 317 420 0
2022-05-16 22:56:57 GMT 52.026131 0.210702 32,000 317 420 64
2022-05-16 22:56:55 GMT 52.023335 0.215097 32,000 317 420 -64
2022-05-16 22:56:53 GMT 52.021103 0.218549 32,000 317 420 0
2022-05-16 22:56:51 GMT 52.015236 0.227652 32,000 317 420 -192
2022-05-16 22:56:49 GMT 52.015236 0.227652 32,000 317 420 128
2022-05-16 22:56:47 GMT 52.012344 0.232086 32,000 317 420 0
2022-05-16 22:56:45 GMT 52.007927 0.238953 32,000 317 420 0
2022-05-16 22:56:42 GMT 52.003738 0.245466 32,000 317 420 64
2022-05-16 22:56:39 GMT 52.000305 0.250778 32,000 317 420 64
2022-05-16 22:56:36 GMT 51.996506 0.256653 32,000 317 420 192
2022-05-16 22:56:34 GMT 51.993637 0.261161 32,000 317 420 0
2022-05-16 22:56:31 GMT 51.989723 0.267203 32,000 317 420 192
2022-05-16 22:56:29 GMT 51.984138 0.275914 32,000 317 420 -448
2022-05-16 22:56:27 GMT 51.984138 0.275914 32,000 317 420 128
2022-05-16 22:56:25 GMT 51.978275 0.285095 31,975 317 420 -128
2022-05-16 22:56:23 GMT 51.978275 0.285095 32,000 317 420 128
2022-05-16 22:56:20 GMT 51.974808 0.290375 32,000 317 420 0
2022-05-16 22:56:17 GMT 51.970093 0.297775 32,000 317 420 192
2022-05-16 22:56:14 GMT 51.965240 0.305341 32,000 317 420 -192
2022-05-16 22:56:11 GMT 51.958923 0.315247 32,000 317 420 64
2022-05-16 22:56:09 GMT 51.958923 0.315247 32,000 317 420 -128
2022-05-16 22:56:06 GMT 51.953091 0.324254 32,000 317 420 0
2022-05-16 22:56:04 GMT 51.953091 0.324254 32,000 317 420 64
2022-05-16 22:56:02 GMT 51.949539 0.329819 32,000 317 420 192
2022-05-16 22:56:00 GMT 51.946667 0.334220 32,000 317 420 0
2022-05-16 22:55:58 GMT 51.943871 0.338614 32,000 317 420 64
2022-05-16 22:55:56 GMT 51.940842 0.343246 32,000 317 420 -64
2022-05-16 22:55:53 GMT 51.936493 0.349960 32,000 317 420 -192
2022-05-16 22:55:51 GMT 51.930416 0.359410 32,000 317 420 -128
2022-05-16 22:55:48 GMT 51.930416 0.359410 32,000 317 420 64
2022-05-16 22:55:46 GMT 51.926182 0.365923 32,000 317 420 -64
2022-05-16 22:55:44 GMT 51.924866 0.367966 32,000 317 420 -128
2022-05-16 22:55:42 GMT 51.921066 0.373840 32,000 317 420 256
2022-05-16 22:55:39 GMT 51.913925 0.384827 32,000 317 420 -64
2022-05-16 22:55:36 GMT 51.913925 0.384827 32,000 317 420 -128
2022-05-16 22:55:34 GMT 51.907013 0.395432 32,000 317 420 64
2022-05-16 22:55:32 GMT 51.907013 0.395432 32,000 317 420 320
2022-05-16 22:55:29 GMT 51.901882 0.403355 32,000 317 420 0
2022-05-16 22:55:26 GMT 51.897766 0.409698 32,000 317 420 192
2022-05-16 22:55:23 GMT 51.894295 0.415048 32,000 317 420 -128
2022-05-16 22:55:21 GMT 51.892059 0.418472 32,000 317 420 -192
2022-05-16 22:55:19 GMT 51.888569 0.423889 32,000 317 420 0
2022-05-16 22:55:16 GMT 51.885727 0.428238 32,000 317 420 -128
2022-05-16 22:55:14 GMT 51.882843 0.432698 32,000 317 420 -128
2022-05-16 22:55:12 GMT 51.878082 0.440047 32,000 317 420 128
2022-05-16 22:55:09 GMT 51.874695 0.445243 32,000 317 420 64
2022-05-16 22:55:06 GMT 51.871216 0.450662 32,000 317 420 0
2022-05-16 22:55:04 GMT 51.868240 0.455190 32,000 317 420 -192
2022-05-16 22:55:02 GMT 51.861008 0.466309 32,000 317 420 0
2022-05-16 22:54:59 GMT 51.857849 0.471224 32,000 317 420 0
2022-05-16 22:54:57 GMT 51.857849 0.471224 32,000 317 420 -128
2022-05-16 22:54:55 GMT 51.855560 0.474777 32,000 317 420 192
2022-05-16 22:54:53 GMT 51.851883 0.480347 32,000 317 420 64
2022-05-16 22:54:51 GMT 51.849789 0.483627 32,000 317 420 128
2022-05-16 22:54:49 GMT 51.846222 0.489114 32,000 317 420 256
2022-05-16 22:54:46 GMT 51.841873 0.495869 32,000 317 420 -256
2022-05-16 22:54:43 GMT 51.837872 0.502014 32,000 317 420 -64
2022-05-16 22:54:41 GMT 51.831619 0.511607 32,000 317 420 -256
2022-05-16 22:54:38 GMT 51.831619 0.511607 32,000 317 420 0
2022-05-16 22:54:36 GMT 51.825302 0.521405 32,000 317 420 320
2022-05-16 22:54:34 GMT 51.825302 0.521405 32,000 317 420 0
2022-05-16 22:54:31 GMT 51.821091 0.527863 32,000 317 420 -192
2022-05-16 22:54:28 GMT 51.816551 0.534897 32,000 317 420 -192
2022-05-16 22:54:25 GMT 51.813675 0.539295 32,000 317 420 0
2022-05-16 22:54:23 GMT 51.810917 0.543518 32,000 317 420 192
2022-05-16 22:54:21 GMT 51.807495 0.548797 32,000 317 420 -64
2022-05-16 22:54:18 GMT 51.804153 0.553993 32,000 317 420 128
2022-05-16 22:54:16 GMT 51.799839 0.560608 32,000 317 420 192
2022-05-16 22:54:13 GMT 51.796764 0.565338 32,000 317 420 192
2022-05-16 22:54:11 GMT 51.792618 0.571734 32,000 317 420 256
2022-05-16 22:54:08 GMT 51.789318 0.576782 32,000 317 420 -256
2022-05-16 22:54:06 GMT 51.786667 0.580902 32,000 317 420 -64
2022-05-16 22:54:04 GMT 51.783920 0.585096 32,000 317 420 -128
2022-05-16 22:54:02 GMT 51.781540 0.588734 32,000 317 420 128
2022-05-16 22:54:00 GMT 51.778748 0.593113 32,000 317 420 128
2022-05-16 22:53:58 GMT 51.776005 0.597305 32,000 317 420 -64
2022-05-16 22:53:56 GMT 51.772018 0.603506 32,000 317 420 -64
2022-05-16 22:53:54 GMT 51.769363 0.607588 32,000 317 420 -64
2022-05-16 22:53:51 GMT 51.765152 0.614047 32,000 317 420 -192
2022-05-16 22:53:49 GMT 51.762409 0.618286 32,000 317 420 128
2022-05-16 22:53:46 GMT 51.758698 0.623994 32,000 317 420 0
2022-05-16 22:53:43 GMT 51.750492 0.636673 32,000 317 420 192
2022-05-16 22:53:41 GMT 51.750492 0.636673 32,000 317 420 64
2022-05-16 22:53:38 GMT 51.746796 0.642403 32,000 317 420 192
2022-05-16 22:53:35 GMT 51.743271 0.647822 32,000 317 420 -64
2022-05-16 22:53:32 GMT 51.738903 0.654602 32,000 317 420 0
2022-05-16 22:53:30 GMT 51.735855 0.659328 32,000 317 420 192
2022-05-16 22:53:28 GMT 51.733749 0.662520 32,000 317 421 -64
2022-05-16 22:53:26 GMT 51.730198 0.668106 32,000 317 421 64
2022-05-16 22:53:24 GMT 51.727543 0.672226 32,000 317 420 192
2022-05-16 22:53:21 GMT 51.720375 0.683212 32,000 317 420 -192
2022-05-16 22:53:18 GMT 51.720375 0.683212 32,000 317 420 -192
2022-05-16 22:53:16 GMT 51.716263 0.689615 32,000 317 421 -64
2022-05-16 22:53:14 GMT 51.712189 0.695925 32,000 317 420 -256
2022-05-16 22:53:10 GMT 51.709213 0.700453 32,000 317 421 64
2022-05-16 22:53:08 GMT 51.705002 0.706911 32,000 317 420 64
2022-05-16 22:53:06 GMT 51.702267 0.711136 32,000 317 420 64
2022-05-16 22:53:03 GMT 51.696671 0.719604 32,000 317 421 0
2022-05-16 22:53:00 GMT 51.693794 0.724030 32,000 317 421 0
2022-05-16 22:52:58 GMT 51.690395 0.729141 32,000 317 420 -128
2022-05-16 22:52:55 GMT 51.687607 0.733337 32,000 317 420 192
2022-05-16 22:52:53 GMT 51.683876 0.738983 32,000 318 420 -64
2022-05-16 22:52:51 GMT 51.681038 0.743256 32,000 318 421 -320
2022-05-16 22:52:48 GMT 51.676754 0.749664 32,000 318 421 0
2022-05-16 22:52:45 GMT 51.671677 0.757166 32,000 318 420 -128
2022-05-16 22:52:42 GMT 51.668049 0.762558 32,000 318 420 0
2022-05-16 22:52:39 GMT 51.662292 0.771121 32,000 318 419 64
2022-05-16 22:52:35 GMT 51.659271 0.775575 32,000 318 419 64
2022-05-16 22:52:33 GMT 51.656506 0.779648 32,025 318 419 -192
2022-05-16 22:52:31 GMT 51.653664 0.783844 32,025 318 419 -64
2022-05-16 22:52:29 GMT 51.649662 0.789719 32,025 318 418 -64
2022-05-16 22:52:27 GMT 51.645985 0.795212 32,025 318 417 -256
2022-05-16 22:52:24 GMT 51.642960 0.799561 32,025 318 417 64
2022-05-16 22:52:22 GMT 51.636612 0.808831 32,025 318 416 128
2022-05-16 22:52:20 GMT 51.636612 0.808831 32,025 318 417 -128
2022-05-16 22:52:18 GMT 51.634254 0.812225 32,050 318 417 128
2022-05-16 22:52:16 GMT 51.629829 0.818634 32,025 319 417 -128
2022-05-16 22:52:13 GMT 51.627689 0.821762 32,025 319 417 128
2022-05-16 22:52:11 GMT 51.622879 0.828725 32,025 319 417 128
2022-05-16 22:52:08 GMT 51.619354 0.833740 32,025 319 418 256
2022-05-16 22:52:05 GMT 51.614002 0.841370 32,025 319 418 128
2022-05-16 22:52:02 GMT 51.611115 0.845490 32,025 319 418 128
2022-05-16 22:52:00 GMT 51.607727 0.850401 32,025 319 419 256
2022-05-16 22:51:58 GMT 51.604980 0.854335 32,025 318 419 -128
2022-05-16 22:51:56 GMT 51.602924 0.857315 32,025 317 418 256
2022-05-16 22:51:54 GMT 51.596466 0.867326 32,025 315 417 0
2022-05-16 22:51:51 GMT 51.596466 0.867326 32,025 314 416 320
2022-05-16 22:51:49 GMT 51.593765 0.871780 32,025 311 415 0
2022-05-16 22:51:47 GMT 51.589657 0.879288 32,025 311 415 128
2022-05-16 22:51:44 GMT 51.587265 0.883880 32,000 307 413 320
2022-05-16 22:51:41 GMT 51.582642 0.893678 32,000 306 413 128
2022-05-16 22:51:38 GMT 51.580353 0.898949 32,000 303 412 -64
2022-05-16 22:51:35 GMT 51.576096 0.909713 32,000 299 410 -128
2022-05-16 22:51:32 GMT 51.573990 0.915577 32,000 298 409 384
2022-05-16 22:51:29 GMT 51.571640 0.922699 32,000 296 409 64
2022-05-16 22:51:27 GMT 51.569592 0.929489 32,000 295 409 192
2022-05-16 22:51:24 GMT 51.566471 0.941238 32,000 291 408 -384
2022-05-16 22:51:21 GMT 51.565353 0.946045 32,000 287 407 0
2022-05-16 22:51:18 GMT 51.563828 0.952990 32,000 288 407 -64
2022-05-16 22:51:16 GMT 51.562454 0.960190 32,000 286 407 64
2022-05-16 22:51:14 GMT 51.560394 0.973032 32,000 283 407 64
2022-05-16 22:51:11 GMT 51.560394 0.973032 32,000 281 406 192
2022-05-16 22:51:09 GMT 51.559444 0.980301 32,000 281 406 0
2022-05-16 22:51:07 GMT 51.557766 0.995102 32,000 281 406 0
2022-05-16 22:51:04 GMT 51.557766 0.995102 32,000 281 406 192
2022-05-16 22:51:01 GMT 51.556595 1.005917 32,000 280 406 -192
2022-05-16 22:50:58 GMT 51.555634 1.014528 32,000 281 406 0
2022-05-16 22:50:56 GMT 51.555130 1.019279 32,000 281 406 -64
2022-05-16 22:50:54 GMT 51.554489 1.024846 32,000 280 406 0
2022-05-16 22:50:52 GMT 51.554031 1.029300 32,000 280 406 128
2022-05-16 22:50:50 GMT 51.553066 1.038055 32,000 280 406 64
2022-05-16 22:50:47 GMT 51.552090 1.046982 32,000 280 406 -64
2022-05-16 22:50:44 GMT 51.550179 1.064148 32,000 280 406 64
2022-05-16 22:50:41 GMT 51.550179 1.064148 32,000 280 406 64
2022-05-16 22:50:38 GMT 51.548641 1.078339 32,000 280 406 192
2022-05-16 22:50:36 GMT 51.548641 1.078339 32,000 280 406 -64
2022-05-16 22:50:34 GMT 51.547806 1.085939 32,000 280 406 128
2022-05-16 22:50:31 GMT 51.546982 1.093659 32,000 280 406 -128
2022-05-16 22:50:28 GMT 51.545990 1.102676 32,000 280 406 -64
2022-05-16 22:50:25 GMT 51.544418 1.117042 32,000 280 406 0
2022-05-16 22:50:23 GMT 51.544418 1.117042 32,000 280 406 0
2022-05-16 22:50:21 GMT 51.543800 1.122513 32,000 280 406 -128
2022-05-16 22:50:18 GMT 51.542637 1.133499 32,000 280 406 -128
2022-05-16 22:50:15 GMT 51.541809 1.140722 32,000 280 406 64
2022-05-16 22:50:12 GMT 51.540848 1.149630 32,000 281 406 256
2022-05-16 22:50:09 GMT 51.539799 1.159210 32,000 280 406 128
2022-05-16 22:50:06 GMT 51.538773 1.168365 32,000 280 406 0
2022-05-16 22:50:04 GMT 51.538239 1.173607 32,000 280 406 0
2022-05-16 22:50:02 GMT 51.536587 1.188507 32,000 281 406 0
2022-05-16 22:49:59 GMT 51.536587 1.188507 32,000 281 406 192
2022-05-16 22:49:57 GMT 51.536224 1.191645 32,000 281 406 128
2022-05-16 22:49:55 GMT 51.534584 1.206589 32,000 281 406 -64
2022-05-16 22:49:53 GMT 51.534584 1.206589 32,000 281 406 -64
2022-05-16 22:49:51 GMT 51.534119 1.210709 32,000 281 406 0
2022-05-16 22:49:49 GMT 51.533340 1.217924 32,000 281 406 64
2022-05-16 22:49:47 GMT 51.532654 1.223862 32,000 281 406 64
2022-05-16 22:49:45 GMT 51.531979 1.230240 32,000 281 405 0
2022-05-16 22:49:43 GMT 51.531326 1.235962 32,000 281 405 -192
2022-05-16 22:49:40 GMT 51.530228 1.245761 32,000 281 405 128
2022-05-16 22:49:37 GMT 51.528625 1.260376 32,000 281 405 -64
2022-05-16 22:49:34 GMT 51.528625 1.260376 32,000 281 405 -64
2022-05-16 22:49:32 GMT 51.527802 1.267585 32,000 281 405 -128
2022-05-16 22:49:29 GMT 51.526749 1.277086 32,000 281 405 0
2022-05-16 22:49:27 GMT 51.526108 1.282951 32,000 281 405 -64
2022-05-16 22:49:25 GMT 51.525040 1.292572 32,000 281 405 128
2022-05-16 22:49:21 GMT 51.524323 1.298911 32,000 281 405 -64
2022-05-16 22:49:19 GMT 51.523457 1.306458 32,000 281 405 -192
2022-05-16 22:49:17 GMT 51.522991 1.310577 32,000 281 405 0
2022-05-16 22:49:15 GMT 51.522293 1.317062 32,000 281 405 128
2022-05-16 22:49:13 GMT 51.521549 1.323547 32,000 281 405 -256
2022-05-16 22:49:10 GMT 51.520432 1.333618 32,000 281 405 -64
2022-05-16 22:49:07 GMT 51.519424 1.342559 32,000 281 404 0
2022-05-16 22:49:04 GMT 51.517639 1.358816 32,000 281 405 -256
2022-05-16 22:49:01 GMT 51.517639 1.358816 32,000 281 404 -128
2022-05-16 22:48:58 GMT 51.516663 1.367493 32,000 281 404 -64
2022-05-16 22:48:56 GMT 51.515991 1.373217 32,000 281 404 -256
2022-05-16 22:48:53 GMT 51.514984 1.382347 32,000 281 404 -64
2022-05-16 22:48:51 GMT 51.514160 1.389771 32,000 281 404 128
2022-05-16 22:48:49 GMT 51.513840 1.392666 32,000 281 404 64
2022-05-16 22:48:47 GMT 51.512844 1.401672 32,000 281 403 64
2022-05-16 22:48:44 GMT 51.511261 1.415787 32,000 281 404 128
2022-05-16 22:48:42 GMT 51.510426 1.423111 32,000 281 403 -64
2022-05-16 22:48:39 GMT 51.510426 1.423111 32,000 281 403 -64
2022-05-16 22:48:37 GMT 51.509586 1.430740 32,000 281 403 0
2022-05-16 22:48:34 GMT 51.508713 1.438244 32,000 281 403 0
2022-05-16 22:48:32 GMT 51.508144 1.443405 32,000 281 403 64
2022-05-16 22:48:30 GMT 51.507305 1.451035 32,000 281 403 -192
2022-05-16 22:48:27 GMT 51.506233 1.460419 32,000 281 403 64
2022-05-16 22:48:25 GMT 51.505554 1.466452 32,000 281 402 -256
2022-05-16 22:48:22 GMT 51.504868 1.472613 32,000 281 402 0
2022-05-16 22:48:20 GMT 51.504181 1.478478 32,000 281 402 0
2022-05-16 22:48:17 GMT 51.503036 1.488722 32,000 281 402 -64
2022-05-16 22:48:14 GMT 51.501949 1.498184 32,000 281 401 -128
2022-05-16 22:48:11 GMT 51.501068 1.505944 32,000 281 401 192
2022-05-16 22:48:08 GMT 51.500229 1.513443 32,000 281 401 -128
2022-05-16 22:48:06 GMT 51.499603 1.519083 32,000 281 401 -128
2022-05-16 22:48:04 GMT 51.498596 1.527842 32,000 281 401 128
2022-05-16 22:48:01 GMT 51.496876 1.543198 32,000 281 401 384
2022-05-16 22:47:58 GMT 51.496876 1.543198 32,000 281 401 0
2022-05-16 22:47:56 GMT 51.496086 1.550217 32,000 281 401 128
2022-05-16 22:47:53 GMT 51.494980 1.559984 32,000 281 401 128
2022-05-16 22:47:50 GMT 51.494247 1.566071 32,000 281 401 64
2022-05-16 22:47:48 GMT 51.493561 1.572530 31,975 281 401 448
2022-05-16 22:47:46 GMT 51.492874 1.578217 32,000 281 401 64
2022-05-16 22:47:44 GMT 51.491959 1.586559 31,975 281 401 192
2022-05-16 22:47:41 GMT 51.490967 1.595154 31,950 281 402 128
2022-05-16 22:47:38 GMT 51.490314 1.601028 31,975 281 402 128
2022-05-16 22:47:36 GMT 51.489567 1.607437 31,950 281 403 256
2022-05-16 22:47:34 GMT 51.488754 1.614693 31,950 281 403 384
2022-05-16 22:47:32 GMT 51.487976 1.621448 31,925 281 403 256
2022-05-16 22:47:29 GMT 51.487381 1.626816 31,925 281 403 448
2022-05-16 22:47:27 GMT 51.486355 1.635666 31,875 281 403 768
2022-05-16 22:47:25 GMT 51.485703 1.641541 31,850 281 403 1216
2022-05-16 22:47:23 GMT 51.485001 1.647578 31,800 281 403 896
2022-05-16 22:47:20 GMT 51.483994 1.656634 31,725 281 403 1280
2022-05-16 22:47:17 GMT 51.481655 1.677094 31,700 281 404 1024
2022-05-16 22:47:14 GMT 51.481655 1.677094 31,625 281 404 1152
2022-05-16 22:47:11 GMT 51.480835 1.684620 31,575 281 404 1216
2022-05-16 22:47:08 GMT 51.480118 1.690674 31,550 281 405 1088
2022-05-16 22:47:06 GMT 51.479599 1.695235 31,500 281 406 832
2022-05-16 22:47:04 GMT 51.478729 1.703178 31,475 281 406 832
2022-05-16 22:47:02 GMT 51.478043 1.709116 31,425 281 407 960
2022-05-16 22:47:00 GMT 51.477539 1.713570 31,350 281 407 1024
2022-05-16 22:46:57 GMT 51.475697 1.729736 31,325 281 409 1408
2022-05-16 22:46:55 GMT 51.475697 1.729736 31,325 281 409 1408
2022-05-16 22:46:53 GMT 51.475021 1.735840 31,250 281 409 1216
2022-05-16 22:46:50 GMT 51.474251 1.742859 31,225 281 410 1344
2022-05-16 22:46:48 GMT 51.473373 1.750464 31,150 281 411 1856
2022-05-16 22:46:46 GMT 51.472996 1.753616 31,075 281 411 1856
2022-05-16 22:46:44 GMT 51.472137 1.761227 31,075 281 411 1856
2022-05-16 22:46:42 GMT 51.471134 1.770020 30,975 281 412 1536
2022-05-16 22:46:39 GMT 51.470619 1.774521 30,925 281 413 1344
2022-05-16 22:46:37 GMT 51.469757 1.781864 30,850 281 413 1408
2022-05-16 22:46:35 GMT 51.468887 1.789435 30,800 281 414 1664
2022-05-16 22:46:33 GMT 51.468201 1.795448 30,725 281 415 1472
2022-05-16 22:46:31 GMT 51.467361 1.802521 30,500 281 415 1536
2022-05-16 22:46:28 GMT 51.466385 1.810684 30,625 281 415 1408
2022-05-16 22:46:25 GMT 51.465687 1.816711 30,575 281 415 1344
2022-05-16 22:46:23 GMT 51.464615 1.825790 30,500 281 416 1408
2022-05-16 22:46:20 GMT 51.463779 1.832428 30,350 282 416 1280
2022-05-16 22:46:18 GMT 51.462151 1.845703 30,350 282 416 1216
2022-05-16 22:46:16 GMT 51.462151 1.845703 30,325 282 417 1216
2022-05-16 22:46:14 GMT 51.461357 1.852036 30,275 282 417 1472
2022-05-16 22:46:11 GMT 51.460239 1.861115 30,125 282 418 1216
2022-05-16 22:46:08 GMT 51.457855 1.880073 30,100 282 418 1408
2022-05-16 22:46:05 GMT 51.457855 1.880073 30,075 282 418 1408
2022-05-16 22:46:01 GMT 51.456482 1.890985 29,775 282 419 1088
2022-05-16 22:45:58 GMT 51.455120 1.901779 29,925 282 419 1280
2022-05-16 22:45:56 GMT 51.454655 1.905365 29,900 282 419 1216
2022-05-16 22:45:54 GMT 51.453552 1.914368 29,775 282 419 1728
2022-05-16 22:45:51 GMT 51.452362 1.923795 29,750 282 420 1472
2022-05-16 22:45:48 GMT 51.451263 1.932629 29,700 282 420 1344
2022-05-16 22:45:46 GMT 51.450699 1.937027 29,675 282 420 1152
2022-05-16 22:45:44 GMT 51.449753 1.944506 29,625 282 420 1216
2022-05-16 22:45:42 GMT 51.449207 1.949158 29,550 282 420 1088
2022-05-16 22:45:39 GMT 51.448013 1.958833 29,525 281 420 960
2022-05-16 22:45:37 GMT 51.446602 1.970520 29,475 281 420 1152
2022-05-16 22:45:35 GMT 51.446602 1.970520 29,475 281 420 832
2022-05-16 22:45:33 GMT 51.445717 1.977844 29,400 281 420 1152
2022-05-16 22:45:30 GMT 51.444397 1.988971 29,350 281 420 1024
2022-05-16 22:45:27 GMT 51.443848 1.993573 29,325 281 419 960
2022-05-16 22:45:25 GMT 51.442978 2.001145 29,300 281 419 960
2022-05-16 22:45:23 GMT 51.442154 2.008197 29,225 281 419 1280
2022-05-16 22:45:20 GMT 51.441284 2.015472 29,200 281 419 1088
2022-05-16 22:45:18 GMT 51.440552 2.021559 29,200 281 419 1088
2022-05-16 22:45:15 GMT 51.438721 2.037073 29,100 281 419 1216
2022-05-16 22:45:13 GMT 51.438721 2.037073 29,025 281 419 1408
2022-05-16 22:45:10 GMT 51.437614 2.046661 28,975 281 419 1536
2022-05-16 22:45:07 GMT 51.435516 2.064465 28,825 281 420 1600
2022-05-16 22:45:04 GMT 51.435516 2.064465 28,850 281 420 1920
2022-05-16 22:45:02 GMT 51.433868 2.078495 28,750 281 420 1984
2022-05-16 22:45:00 GMT 51.433056 2.085114 28,675 281 421 1664
2022-05-16 22:44:57 GMT 51.433056 2.085114 28,625 281 421 1728
2022-05-16 22:44:55 GMT 51.432175 2.092896 28,550 281 422 1984
2022-05-16 22:44:53 GMT 51.431610 2.097626 28,400 281 423 2240
2022-05-16 22:44:51 GMT 51.430023 2.111008 28,400 281 424 2048
2022-05-16 22:44:49 GMT 51.430023 2.111008 28,250 281 425 2176
2022-05-16 22:44:46 GMT 51.428165 2.126617 28,225 281 425 2176
2022-05-16 22:44:44 GMT 51.428165 2.126617 28,175 281 426 2112
2022-05-16 22:44:42 GMT 51.426132 2.143819 28,075 281 427 2240
2022-05-16 22:44:39 GMT 51.426132 2.143819 27,900 281 428 2368
2022-05-16 22:44:36 GMT 51.425400 2.150054 27,875 281 429 1856
2022-05-16 22:44:34 GMT 51.424629 2.156448 27,850 281 429 1920
2022-05-16 22:44:32 GMT 51.423744 2.163925 27,700 281 433 2240
2022-05-16 22:44:29 GMT 51.422626 2.173309 27,650 281 432 2176
2022-05-16 22:44:26 GMT 51.421463 2.182693 27,525 281 435 1920
2022-05-16 22:44:24 GMT 51.420765 2.188721 27,450 281 433 1920
2022-05-16 22:44:22 GMT 51.419815 2.196746 27,350 281 435 2048
2022-05-16 22:44:19 GMT 51.418854 2.204986 27,300 281 435 1920
2022-05-16 22:44:17 GMT 51.418259 2.209662 27,250 281 436 1984
2022-05-16 22:44:15 GMT 51.417114 2.219238 27,150 281 437 2176
2022-05-16 22:44:13 GMT 51.416794 2.222059 27,125 281 438 2240
2022-05-16 22:44:11 GMT 51.414597 2.240246 27,000 281 439 2112
2022-05-16 22:44:08 GMT 51.413818 2.246927 26,825 281 440 2368
2022-05-16 22:44:06 GMT 51.413818 2.246927 26,850 281 442 1536
2022-05-16 22:44:03 GMT 51.412849 2.254791 26,700 281 443 1408
2022-05-16 22:44:01 GMT 51.412033 2.261625 26,725 281 443 960
2022-05-16 22:43:59 GMT 51.410942 2.270813 26,675 281 443 960
2022-05-16 22:43:56 GMT 51.410065 2.278030 26,625 281 443 640
2022-05-16 22:43:54 GMT 51.409195 2.285082 26,600 281 443 640
2022-05-16 22:43:52 GMT 51.408382 2.291718 26,575 281 442 832
2022-05-16 22:43:49 GMT 51.407639 2.297924 26,550 281 442 896
2022-05-16 22:43:47 GMT 51.406448 2.307574 26,525 281 442 768
2022-05-16 22:43:45 GMT 51.405624 2.314626 26,500 281 442 960
2022-05-16 22:43:43 GMT 51.404984 2.319565 26,475 281 441 896
2022-05-16 22:43:41 GMT 51.404022 2.327691 26,425 281 441 960
2022-05-16 22:43:38 GMT 51.402924 2.336673 26,400 281 441 832
2022-05-16 22:43:36 GMT 51.401367 2.349441 26,350 281 441 1024
2022-05-16 22:43:34 GMT 51.401367 2.349441 26,300 281 441 1088
2022-05-16 22:43:32 GMT 51.400745 2.354736 26,325 281 441 1088
2022-05-16 22:43:29 GMT 51.399582 2.364349 26,250 281 441 1024
2022-05-16 22:43:27 GMT 51.398666 2.371859 26,200 281 441 1280
2022-05-16 22:43:25 GMT 51.397156 2.384330 26,150 281 441 1280
2022-05-16 22:43:23 GMT 51.397156 2.384330 26,125 281 441 704
2022-05-16 22:43:18 GMT 51.395161 2.400818 26,025 281 442 640
2022-05-16 22:43:15 GMT 51.393345 2.415848 26,000 281 441 960
2022-05-16 22:43:13 GMT 51.393345 2.415848 25,975 281 441 832
2022-05-16 22:43:11 GMT 51.392414 2.423859 25,925 281 441 1216
2022-05-16 22:43:08 GMT 51.391205 2.433777 25,875 281 441 1024
2022-05-16 22:43:05 GMT 51.390224 2.441788 25,850 281 441 1088
2022-05-16 22:43:03 GMT 51.389191 2.450174 25,825 281 441 832
2022-05-16 22:43:00 GMT 51.388412 2.456558 25,725 282 440 768
2022-05-16 22:42:57 GMT 51.386921 2.468872 25,700 282 440 1280
2022-05-16 22:42:54 GMT 51.385941 2.477046 25,675 282 440 1088
2022-05-16 22:42:52 GMT 51.385197 2.483215 25,625 282 440 1152
2022-05-16 22:42:49 GMT 51.383148 2.500153 25,500 282 440 1344
2022-05-16 22:42:47 GMT 51.383148 2.500153 25,525 282 440 1344
2022-05-16 22:42:44 GMT 51.381958 2.509856 25,475 282 440 1344
2022-05-16 22:42:42 GMT 51.381382 2.514496 25,450 282 440 1344
2022-05-16 22:42:39 GMT 51.379257 2.532200 25,225 282 440 1216
2022-05-16 22:42:36 GMT 51.379257 2.532200 25,350 282 440 1216
2022-05-16 22:42:34 GMT 51.378307 2.540054 25,300 282 440 768
2022-05-16 22:42:32 GMT 51.377518 2.546230 25,250 282 440 832
2022-05-16 22:42:30 GMT 51.376724 2.552795 25,200 282 440 1088
2022-05-16 22:42:27 GMT 51.375366 2.564120 25,150 282 440 1088
2022-05-16 22:42:24 GMT 51.374443 2.571869 25,125 281 438 1024
2022-05-16 22:42:21 GMT 51.373280 2.581406 25,025 281 438 1024
2022-05-16 22:42:18 GMT 51.372162 2.590843 25,025 281 438 1472
2022-05-16 22:42:15 GMT 51.370861 2.601471 24,925 281 438 1152
2022-05-16 22:42:12 GMT 51.369827 2.609921 24,825 281 438 960
2022-05-16 22:42:09 GMT 51.368671 2.619553 24,725 281 437 1088
2022-05-16 22:42:06 GMT 51.367695 2.627869 24,825 281 437 1024
2022-05-16 22:42:04 GMT 51.367035 2.633378 24,800 281 437 1408
2022-05-16 22:42:02 GMT 51.365845 2.643548 24,750 283 435 1024
2022-05-16 22:41:59 GMT 51.364838 2.651788 24,725 283 435 1024
2022-05-16 22:41:57 GMT 51.364471 2.654980 24,625 282 436 896
2022-05-16 22:41:54 GMT 51.363087 2.666168 24,650 282 435 1024
2022-05-16 22:41:52 GMT 51.361862 2.675394 24,625 284 434 832
2022-05-16 22:41:49 GMT 51.359734 2.690582 24,500 284 434 832
2022-05-16 22:41:46 GMT 51.359734 2.690582 24,550 284 434 1152
2022-05-16 22:41:44 GMT 51.358795 2.696995 24,475 285 433 1088
2022-05-16 22:41:42 GMT 51.357548 2.704926 24,475 285 434 960
2022-05-16 22:41:39 GMT 51.356243 2.712936 24,425 286 433 1344
2022-05-16 22:41:36 GMT 51.354614 2.722549 24,350 286 433 1280
2022-05-16 22:41:34 GMT 51.353531 2.728841 24,275 286 433 1280
2022-05-16 22:41:32 GMT 51.352100 2.736664 24,250 287 432 1280
2022-05-16 22:41:29 GMT 51.350464 2.745394 24,150 289 433 1472
2022-05-16 22:41:26 GMT 51.347027 2.762604 24,075 289 433 1600
2022-05-16 22:41:23 GMT 51.347027 2.762604 24,050 289 434 1792
2022-05-16 22:41:21 GMT 51.345795 2.768555 23,900 290 434 1728
2022-05-16 22:41:18 GMT 51.342957 2.781545 23,900 290 434 1728
2022-05-16 22:41:15 GMT 51.341949 2.786073 23,875 290 434 1472
2022-05-16 22:41:12 GMT 51.339752 2.795352 23,800 291 434 1344
2022-05-16 22:41:09 GMT 51.337601 2.804334 22,775 294 430 1280
2022-05-16 22:41:06 GMT 51.334736 2.815781 23,625 294 434 832
2022-05-16 22:41:03 GMT 51.332966 2.822571 23,625 294 434 1088
2022-05-16 22:41:01 GMT 51.331291 2.828751 23,550 294 434 1344
2022-05-16 22:40:58 GMT 51.328949 2.837442 23,500 294 433 1152
2022-05-16 22:40:55 GMT 51.324402 2.854309 23,375 294 432 1152
2022-05-16 22:40:52 GMT 51.324402 2.854309 23,425 294 432 1152
2022-05-16 22:40:49 GMT 51.321808 2.863794 23,325 294 432 1536
2022-05-16 22:40:46 GMT 51.319328 2.873001 23,275 294 432 1152
2022-05-16 22:40:44 GMT 51.317780 2.878715 23,250 294 431 1472
2022-05-16 22:40:42 GMT 51.316116 2.884979 23,150 294 431 1408
2022-05-16 22:40:39 GMT 51.313881 2.893143 22,875 294 431 1088
2022-05-16 22:40:36 GMT 51.311180 2.903061 23,025 294 431 1536
2022-05-16 22:40:33 GMT 51.309265 2.910263 22,975 294 431 1344
2022-05-16 22:40:31 GMT 51.307316 2.917404 22,900 294 431 1280
2022-05-16 22:40:28 GMT 51.304893 2.926407 22,800 294 430 1152
2022-05-16 22:40:25 GMT 51.302986 2.933426 22,800 294 430 1472
2022-05-16 22:40:22 GMT 51.300613 2.942123 22,775 294 430 1280
2022-05-16 22:40:19 GMT 51.298191 2.951126 22,650 294 429 1152
2022-05-16 22:40:16 GMT 51.295486 2.961187 22,625 294 429 1280
2022-05-16 22:40:12 GMT 51.292419 2.972470 22,575 294 428 960
2022-05-16 22:40:09 GMT 51.289673 2.982565 22,500 294 427 1280
2022-05-16 22:40:06 GMT 51.287766 2.989655 22,450 294 425 1152
2022-05-16 22:40:04 GMT 51.286507 2.994232 22,425 294 426 1024
2022-05-16 22:40:02 GMT 51.284912 3.000158 21,975 294 424 1536
2022-05-16 22:39:59 GMT 51.282829 3.007812 22,300 294 425 960
2022-05-16 22:39:56 GMT 51.277802 3.026123 22,225 294 424 1472
2022-05-16 22:39:53 GMT 51.277802 3.026123 22,225 294 424 1472
2022-05-16 22:39:51 GMT 51.275436 3.034899 22,050 294 424 1792
2022-05-16 22:39:48 GMT 51.273846 3.040771 22,050 294 424 1536
2022-05-16 22:39:46 GMT 51.271797 3.048172 21,975 294 424 1536
2022-05-16 22:39:43 GMT 51.269936 3.055038 21,925 294 424 1856
2022-05-16 22:39:41 GMT 51.268772 3.059387 21,850 294 424 1728
2022-05-16 22:39:39 GMT 51.267014 3.065779 21,800 294 424 1728
2022-05-16 22:39:36 GMT 51.264069 3.076553 21,700 294 424 1600
2022-05-16 22:39:34 GMT 51.262848 3.080997 21,700 294 424 1600
2022-05-16 22:39:31 GMT 51.258530 3.096848 21,525 294 424 1856
2022-05-16 22:39:28 GMT 51.256481 3.104324 21,425 294 424 1536
2022-05-16 22:39:26 GMT 51.256481 3.104324 21,425 294 422 1600
2022-05-16 22:39:23 GMT 51.254150 3.112768 21,375 294 423 1472
2022-05-16 22:39:21 GMT 51.252686 3.118113 21,225 294 423 1536
2022-05-16 22:39:18 GMT 51.250381 3.126602 21,225 294 422 1216
2022-05-16 22:39:15 GMT 51.246334 3.141403 21,075 294 421 1280
2022-05-16 22:39:13 GMT 51.244125 3.149513 21,125 294 420 1408
2022-05-16 22:39:11 GMT 51.244125 3.149513 21,075 294 420 1088
2022-05-16 22:39:08 GMT 51.242191 3.156433 21,025 294 420 1344
2022-05-16 22:39:05 GMT 51.237854 3.172451 20,925 294 419 1344
2022-05-16 22:39:02 GMT 51.237854 3.172451 20,875 294 419 1536
2022-05-16 22:38:59 GMT 51.235626 3.180466 20,800 294 418 1600
2022-05-16 22:38:56 GMT 51.233414 3.188485 20,725 294 418 1536
2022-05-16 22:38:53 GMT 51.230713 3.198358 20,675 294 417 1664
2022-05-16 22:38:51 GMT 51.226360 3.214264 20,600 294 416 1920
2022-05-16 22:38:47 GMT 51.226360 3.214264 20,450 294 416 1792
2022-05-16 22:38:44 GMT 51.223984 3.222854 20,400 294 416 2048
2022-05-16 22:38:42 GMT 51.222263 3.229141 20,325 294 416 2560
2022-05-16 22:38:40 GMT 51.220219 3.236465 20,225 294 416 2560
2022-05-16 22:38:37 GMT 51.218674 3.242229 20,100 294 418 2240
2022-05-16 22:38:34 GMT 51.215881 3.252324 20,025 294 418 1984
2022-05-16 22:38:32 GMT 51.215012 3.255442 19,975 294 418 1984
2022-05-16 22:38:30 GMT 51.210709 3.271253 19,825 294 417 1600
2022-05-16 22:38:27 GMT 51.210709 3.271253 19,800 294 417 1408
2022-05-16 22:38:24 GMT 51.208813 3.278122 19,700 294 416 1536
2022-05-16 22:38:22 GMT 51.207275 3.283576 19,700 294 415 1600
2022-05-16 22:38:20 GMT 51.203064 3.299016 19,600 294 415 1600
2022-05-16 22:38:17 GMT 51.203064 3.299016 19,375 294 413 2048
2022-05-16 22:38:14 GMT 51.200340 3.308945 19,475 294 413 1792
2022-05-16 22:38:11 GMT 51.197918 3.317566 19,300 294 414 1984
2022-05-16 22:38:08 GMT 51.196102 3.324280 19,275 294 412 2112
2022-05-16 22:38:05 GMT 51.194099 3.331451 19,225 294 412 2112
2022-05-16 22:38:03 GMT 51.192703 3.336487 19,150 294 412 2496
2022-05-16 22:38:01 GMT 51.190750 3.343630 19,000 294 414 2432
2022-05-16 22:37:58 GMT 51.188560 3.351517 18,925 294 414 2112
2022-05-16 22:37:55 GMT 51.186127 3.360332 18,775 294 414 2368
2022-05-16 22:37:52 GMT 51.184525 3.366122 18,700 294 414 2176
2022-05-16 22:37:50 GMT 51.182831 3.372283 18,700 294 414 2176
2022-05-16 22:37:47 GMT 51.179855 3.383026 18,525 294 413 1920
2022-05-16 22:37:45 GMT 51.178783 3.386917 18,350 294 413 1856
2022-05-16 22:37:43 GMT 51.177521 3.391509 18,350 294 413 1856
2022-05-16 22:37:41 GMT 51.175598 3.398413 18,325 294 412 1728
2022-05-16 22:37:38 GMT 51.173244 3.406906 18,225 294 411 1664
2022-05-16 22:37:35 GMT 51.170918 3.415222 18,200 294 411 1664
2022-05-16 22:37:32 GMT 51.168404 3.424377 18,100 294 411 1600
2022-05-16 22:37:30 GMT 51.166866 3.429871 18,025 294 410 1536
2022-05-16 22:37:27 GMT 51.164841 3.437162 17,875 294 407 1344
2022-05-16 22:37:24 GMT 51.161655 3.448563 17,775 294 407 1216
2022-05-16 22:37:21 GMT 51.159439 3.456685 17,800 294 406 1408
2022-05-16 22:37:18 GMT 51.157791 3.462524 17,650 294 405 1216
2022-05-16 22:37:15 GMT 51.155510 3.470764 17,725 294 404 1664
2022-05-16 22:37:13 GMT 51.154129 3.475762 17,700 294 403 1664
2022-05-16 22:37:11 GMT 51.150391 3.489151 17,550 294 402 1984
2022-05-16 22:37:08 GMT 51.150391 3.489151 17,450 294 402 2112
2022-05-16 22:37:05 GMT 51.147949 3.497958 17,400 294 402 2048
2022-05-16 22:37:02 GMT 51.145798 3.505529 17,300 294 402 2048
2022-05-16 22:37:00 GMT 51.143646 3.513324 17,200 294 401 2112
2022-05-16 22:36:57 GMT 51.141769 3.520079 16,975 294 401 1984
2022-05-16 22:36:55 GMT 51.140488 3.524681 17,050 294 401 1920
2022-05-16 22:36:53 GMT 51.139023 3.529803 16,950 294 401 1984
2022-05-16 22:36:51 GMT 51.137558 3.535222 16,925 294 401 1792
2022-05-16 22:36:48 GMT 51.135399 3.542862 16,825 294 400 1920
2022-05-16 22:36:45 GMT 51.132889 3.551850 16,725 294 400 2048
2022-05-16 22:36:42 GMT 51.128696 3.567047 16,600 294 399 2176
2022-05-16 22:36:40 GMT 51.128696 3.567047 16,575 294 399 2432
2022-05-16 22:36:37 GMT 51.126369 3.575287 16,400 294 399 2048
2022-05-16 22:36:34 GMT 51.125156 3.579636 16,350 294 399 1984
2022-05-16 22:36:32 GMT 51.123184 3.586739 16,250 294 399 1920
2022-05-16 22:36:30 GMT 51.118927 3.601957 16,175 294 398 1856
2022-05-16 22:36:27 GMT 51.118927 3.601957 16,100 294 397 2176
2022-05-16 22:36:25 GMT 51.118176 3.604736 16,050 294 397 1856
2022-05-16 22:36:23 GMT 51.114311 3.618546 15,700 294 396 1920
2022-05-16 22:36:21 GMT 51.114311 3.618546 15,875 294 395 1856
2022-05-16 22:36:18 GMT 51.112106 3.626379 15,800 294 394 1728
2022-05-16 22:36:15 GMT 51.110680 3.631592 15,750 294 393 1664
2022-05-16 22:36:12 GMT 51.108772 3.638458 15,600 294 392 1664
2022-05-16 22:36:10 GMT 51.107372 3.643494 15,575 294 392 1536
2022-05-16 22:36:08 GMT 51.105511 3.650055 15,175 294 390 1472
2022-05-16 22:36:05 GMT 51.103317 3.658002 15,475 294 389 1344
2022-05-16 22:36:02 GMT 51.101463 3.664703 15,425 294 388 1344
2022-05-16 22:36:00 GMT 51.100018 3.669891 15,400 294 387 1152
2022-05-16 22:35:58 GMT 51.098202 3.676376 15,350 294 382 1472
2022-05-16 22:35:55 GMT 51.095718 3.685319 15,300 294 383 1344
2022-05-16 22:35:52 GMT 51.093658 3.692742 15,225 294 381 1600
2022-05-16 22:35:50 GMT 51.091873 3.699126 15,150 294 380 2048
2022-05-16 22:35:47 GMT 51.090382 3.704376 15,050 294 379 2240
2022-05-16 22:35:44 GMT 51.088211 3.712117 14,975 294 379 2304
2022-05-16 22:35:42 GMT 51.085464 3.722064 14,850 294 379 2304
2022-05-16 22:35:40 GMT 51.085464 3.722064 14,775 294 378 2368
2022-05-16 22:35:37 GMT 51.083267 3.729933 14,650 294 378 1984
2022-05-16 22:35:34 GMT 51.081436 3.736539 14,625 294 377 2176
2022-05-16 22:35:32 GMT 51.079582 3.743286 14,550 294 377 2112
2022-05-16 22:35:30 GMT 51.075714 3.757027 14,425 294 376 2240
2022-05-16 22:35:27 GMT 51.074661 3.760813 14,325 294 376 2176
2022-05-16 22:35:24 GMT 51.074661 3.760813 14,300 294 376 2240
2022-05-16 22:35:22 GMT 51.072739 3.767700 14,175 294 375 2432
2022-05-16 22:35:20 GMT 51.071529 3.772049 14,075 294 375 2560
2022-05-16 22:35:18 GMT 51.070084 3.777144 14,025 294 375 2624
2022-05-16 22:35:14 GMT 51.067566 3.786275 13,850 294 375 2944
2022-05-16 22:35:12 GMT 51.064407 3.797558 13,650 294 376 3200
2022-05-16 22:35:10 GMT 51.064407 3.797558 13,625 294 376 3136
2022-05-16 22:35:07 GMT 51.062210 3.805427 13,250 294 377 2240
2022-05-16 22:35:04 GMT 51.060219 3.812637 13,350 294 377 2432
2022-05-16 22:35:02 GMT 51.057037 3.823910 13,225 294 377 2176
2022-05-16 22:35:00 GMT 51.057037 3.823910 13,125 295 377 2304
2022-05-16 22:34:56 GMT 51.054443 3.833084 13,050 295 376 2112
2022-05-16 22:34:54 GMT 51.052769 3.839188 12,325 295 375 1728
2022-05-16 22:34:51 GMT 51.050720 3.846436 12,925 294 374 1536
2022-05-16 22:34:49 GMT 51.050022 3.848953 12,875 294 374 1536
2022-05-16 22:34:47 GMT 51.048161 3.855438 12,775 294 368 1920
2022-05-16 22:34:44 GMT 51.045685 3.864292 12,725 295 370 1728
2022-05-16 22:34:41 GMT 51.044083 3.869934 12,675 294 368 1920
2022-05-16 22:34:39 GMT 51.042801 3.874685 12,625 294 368 1920
2022-05-16 22:34:37 GMT 51.041084 3.880692 12,450 295 365 2304
2022-05-16 22:34:34 GMT 51.039322 3.886933 12,350 295 365 2304
2022-05-16 22:34:31 GMT 51.036850 3.895767 12,275 295 364 2432
2022-05-16 22:34:29 GMT 51.034698 3.903338 12,100 295 364 2368
2022-05-16 22:34:27 GMT 51.034698 3.903338 12,075 295 364 2240
2022-05-16 22:34:24 GMT 51.032101 3.912430 12,025 295 363 2368
2022-05-16 22:34:21 GMT 51.028606 3.924866 11,875 295 362 2304
2022-05-16 22:34:19 GMT 51.027466 3.928874 11,800 295 362 2176
2022-05-16 22:34:17 GMT 51.027466 3.928874 11,725 295 360 1920
2022-05-16 22:34:14 GMT 51.023533 3.942719 11,650 295 360 1920
2022-05-16 22:34:12 GMT 51.023533 3.942719 11,575 295 359 1792
2022-05-16 22:34:10 GMT 51.022228 3.947296 11,525 295 358 1792
2022-05-16 22:34:08 GMT 51.021206 3.950882 11,400 295 355 1472
2022-05-16 22:34:05 GMT 51.019135 3.958196 11,325 295 355 1344
2022-05-16 22:34:02 GMT 51.016754 3.966510 11,325 295 353 1216
2022-05-16 22:34:00 GMT 51.015198 3.971929 11,300 295 353 1408
2022-05-16 22:33:57 GMT 51.014145 3.975640 11,250 295 349 960
2022-05-16 22:33:54 GMT 51.011765 3.984029 11,175 295 346 1280
2022-05-16 22:33:52 GMT 51.010078 3.989944 11,150 295 344 1024
2022-05-16 22:33:50 GMT 51.008789 3.994421 11,125 295 342 1024
2022-05-16 22:33:47 GMT 51.006912 4.001028 11,075 295 338 1216
2022-05-16 22:33:44 GMT 51.005310 4.006669 11,025 295 336 1088
2022-05-16 22:33:41 GMT 51.003143 4.014435 10,975 295 333 1152
2022-05-16 22:33:39 GMT 51.002151 4.017878 10,950 295 331 1088
2022-05-16 22:33:37 GMT 50.998856 4.029533 10,875 295 326 1152
2022-05-16 22:33:34 GMT 50.998856 4.029533 10,850 295 325 1152
2022-05-16 22:33:31 GMT 50.996765 4.036942 10,800 295 320 1088
2022-05-16 22:33:29 GMT 50.996246 4.038738 10,800 295 320 1088
2022-05-16 22:33:27 GMT 50.994114 4.046326 10,700 294 315 1152
2022-05-16 22:33:24 GMT 50.992901 4.050751 10,675 294 313 1088
2022-05-16 22:33:21 GMT 50.990204 4.060287 10,625 295 309 1088
2022-05-16 22:33:19 GMT 50.990204 4.060287 10,575 294 306 1024
2022-05-16 22:33:17 GMT 50.989178 4.064026 10,550 294 300 1088
2022-05-16 22:33:14 GMT 50.987000 4.071845 10,525 294 299 1152
2022-05-16 22:33:12 GMT 50.986038 4.075185 10,500 294 297 1088
2022-05-16 22:33:10 GMT 50.984894 4.079285 10,450 294 295 1152
2022-05-16 22:33:07 GMT 50.983566 4.084093 10,375 295 290 1472
2022-05-16 22:33:04 GMT 50.981636 4.090958 10,325 294 286 1856
2022-05-16 22:33:02 GMT 50.980751 4.094086 10,275 294 284 2176
2022-05-16 22:33:00 GMT 50.978565 4.101868 9,975 294 281 2944
2022-05-16 22:32:56 GMT 50.975235 4.113860 10,000 294 281 2944
2022-05-16 22:32:53 GMT 50.975235 4.113860 9,800 294 281 3008
2022-05-16 22:32:50 GMT 50.974365 4.116830 9,750 294 281 2880
2022-05-16 22:32:48 GMT 50.972794 4.122620 9,575 294 279 3008
2022-05-16 22:32:45 GMT 50.970043 4.132538 9,375 294 279 2880
2022-05-16 22:32:42 GMT 50.970043 4.132538 9,350 294 278 2880
2022-05-16 22:32:40 GMT 50.967438 4.141998 9,075 294 277 2880
2022-05-16 22:32:37 GMT 50.967438 4.141998 9,050 294 275 2880
2022-05-16 22:32:34 GMT 50.965668 4.148331 8,925 294 274 2752
2022-05-16 22:32:32 GMT 50.964317 4.153290 8,825 294 273 2752
2022-05-16 22:32:30 GMT 50.964317 4.153290 8,750 294 273 2816
2022-05-16 22:32:26 GMT 50.961990 4.161758 8,525 294 270 2880
2022-05-16 22:32:23 GMT 50.960724 4.166342 8,475 294 270 3008
2022-05-16 22:32:21 GMT 50.959442 4.171093 8,350 294 269 3008
2022-05-16 22:32:19 GMT 50.956779 4.180756 7,450 296 262 3008
2022-05-16 22:32:15 GMT 50.954956 4.187201 7,900 294 265 3008
2022-05-16 22:32:12 GMT 50.954956 4.187201 7,900 294 265 3072
2022-05-16 22:32:10 GMT 50.953426 4.192657 7,750 295 264 3008
2022-05-16 22:32:07 GMT 50.952896 4.194550 7,575 295 264 3008
2022-05-16 22:32:04 GMT 50.950726 4.201965 7,400 296 263 3072
2022-05-16 22:32:00 GMT 50.948677 4.208755 7,300 297 262 3072
2022-05-16 22:31:57 GMT 50.945435 4.218008 7,050 303 260 3136
2022-05-16 22:31:54 GMT 50.945435 4.218008 6,925 303 260 3264
2022-05-16 22:31:51 GMT 50.942551 4.225060 6,775 306 260 3328
2022-05-16 22:31:46 GMT 50.940067 4.230499 6,575 308 260 3520
2022-05-16 22:31:43 GMT 50.937832 4.235229 6,375 307 260 3648
2022-05-16 22:31:40 GMT 50.935364 4.240500 6,050 305 259 3968
2022-05-16 22:31:36 GMT 50.932983 4.245770 5,725 300 259 3776
2022-05-16 22:31:33 GMT 50.930801 4.251099 5,725 300 259 3776
2022-05-16 22:31:30 GMT 50.927307 4.262770 5,400 289 258 3264
2022-05-16 22:31:26 GMT 50.927307 4.262770 5,325 289 258 3200
2022-05-16 22:31:23 GMT 50.926208 4.268560 5,175 282 254 3008
2022-05-16 22:31:20 GMT 50.925262 4.277191 4,975 279 253 2880
2022-05-16 22:31:18 GMT 50.924927 4.280956 4,900 278 252 2688
2022-05-16 22:31:16 GMT 50.924927 4.280956 4,725 278 249 2432
2022-05-16 22:31:13 GMT 50.924099 4.291000 4,700 278 248 2240
2022-05-16 22:31:11 GMT 50.924099 4.291000 4,650 278 245 2176
2022-05-16 22:31:09 GMT 50.923912 4.293442 4,600 278 244 2048
2022-05-16 22:31:06 GMT 50.923370 4.300257 4,475 278 242 1920
2022-05-16 22:31:03 GMT 50.922958 4.305824 4,375 277 235 1728
2022-05-16 22:31:00 GMT 50.922653 4.309998 4,325 277 231 1728
2022-05-16 22:30:53 GMT 50.921818 4.321213 4,150 277 221 1664
2022-05-16 22:30:51 GMT 50.921585 4.324417 4,075 277 218 1408
2022-05-16 22:30:49 GMT 50.921356 4.327351 4,075 277 217 1216
2022-05-16 22:30:45 GMT 50.920898 4.333438 4,000 277 210 576
2022-05-16 22:30:42 GMT 50.920624 4.337373 3,975 277 205 832
2022-05-16 22:30:39 GMT 50.920189 4.342651 3,825 278 196 1472
2022-05-16 22:30:36 GMT 50.919491 4.351425 3,775 278 192 1408
2022-05-16 22:30:33 GMT 50.919491 4.351425 3,775 278 189 1408
2022-05-16 22:30:29 GMT 50.919113 4.355856 3,675 279 183 1088
2022-05-16 22:30:27 GMT 50.918793 4.359131 3,625 279 181 1216
2022-05-16 22:30:24 GMT 50.918472 4.362760 3,575 280 177 1152
2022-05-16 22:30:21 GMT 50.917999 4.367065 3,550 280 174 1088
2022-05-16 22:30:19 GMT 50.917812 4.369125 3,525 281 172 1024
2022-05-16 22:30:16 GMT 50.917374 4.372707 3,425 283 167 960
2022-05-16 22:30:13 GMT 50.916695 4.377823 3,400 285 162 896
2022-05-16 22:30:10 GMT 50.916416 4.379578 3,375 285 162 896
2022-05-16 22:30:08 GMT 50.916092 4.381466 3,325 288 160 960
2022-05-16 22:30:06 GMT 50.914646 4.387665 3,275 296 154 1216
2022-05-16 22:30:03 GMT 50.914646 4.387665 3,100 297 150 2112
2022-05-16 22:30:00 GMT 50.913670 4.390793 3,175 297 151 1856
2022-05-16 22:29:58 GMT 50.912785 4.393616 3,100 297 150 2112
2022-05-16 22:29:55 GMT 50.912201 4.395496 2,975 297 150 2112
2022-05-16 22:29:52 GMT 50.911240 4.398466 2,875 297 150 2240
2022-05-16 22:29:49 GMT 50.910370 4.401212 2,775 297 150 2240
2022-05-16 22:29:47 GMT 50.909668 4.403305 2,725 297 151 2432
2022-05-16 22:29:44 GMT 50.908585 4.406705 2,600 297 152 2496
2022-05-16 22:29:40 GMT 50.907303 4.410714 2,450 297 154 2496
2022-05-16 22:29:38 GMT 50.906639 4.412766 2,350 297 154 2496
2022-05-16 22:29:34 GMT 50.905243 4.417191 2,175 298 156 2368
2022-05-16 22:29:30 GMT 50.904079 4.420776 2,025 298 156 2304
2022-05-16 22:29:29 GMT 50.903755 4.421768 2,000 297 156 2112
2022-05-16 22:29:28 GMT 50.903412 4.422888 1,975 298 157 2240
2022-05-16 22:29:26 GMT 50.902779 4.424820 1,875 297 156 2176
2022-05-16 22:29:25 GMT 50.902451 4.425735 1,875 297 156 2240
2022-05-16 22:29:24 GMT 50.901810 4.427861 1,800 297 157 2240
2022-05-16 22:29:22 GMT 50.901474 4.428940 1,750 297 157 2240
2022-05-16 22:29:20 GMT 50.900776 4.431152 1,675 296 157 2240
2022-05-16 22:29:19 GMT 50.900482 4.432093 1,575 296 157 2240
2022-05-16 22:29:17 GMT 50.899845 4.434357 1,550 294 157 2240
2022-05-16 22:29:16 GMT 50.899612 4.435285 1,525 293 157 2240
2022-05-16 22:29:14 GMT 50.899109 4.437140 1,450 290 157 2176
2022-05-16 22:29:12 GMT 50.898560 4.439516 1,375 286 157 2240
2022-05-16 22:29:11 GMT 50.898331 4.440852 1,325 280 157 2240
2022-05-16 22:29:09 GMT 50.898029 4.443054 1,275 277 156 2240
2022-05-16 22:29:08 GMT 50.897919 4.444267 1,225 274 156 2240
2022-05-16 22:29:07 GMT 50.897842 4.446487 1,150 265 155 2368
2022-05-16 22:29:05 GMT 50.897873 4.447607 1,100 265 155 2368
2022-05-16 22:29:03 GMT 50.898010 4.449983 1,050 262 155 2368
2022-05-16 22:29:01 GMT 50.898285 4.452061 950 254 155 2368
2022-05-16 22:28:59 GMT 50.898651 4.454214 900 251 155 2432
2022-05-16 22:28:58 GMT 50.898914 4.455109 875 247 155 2752
2022-05-16 22:28:57 GMT 50.899155 4.456218 775 246 155 2688
2022-05-16 22:28:56 GMT 50.899750 4.458389 725 245 155 2688
2022-05-16 22:28:54 GMT 50.900124 4.459457 600 246 156 2816
2022-05-16 22:28:52 GMT 50.900402 4.460526 600 246 156 2816
2022-05-16 22:28:51 GMT 50.901009 4.462585 500 246 157 2880
2022-05-16 22:28:49 GMT 50.901352 4.463790 450 246 158 2688
2022-05-16 22:28:48 GMT 50.901939 4.465790 375 246 158 2688
2022-05-16 22:28:46 GMT 50.902451 4.467501 300 247 159 2944
2022-05-16 22:28:44 GMT 50.903057 4.469681 200 247 160 2368
2022-05-16 22:28:43 GMT 50.903366 4.470767 175 247 160 2368
2022-05-16 22:28:41 GMT 50.903942 4.472885 75 246 163 1984
2022-05-16 22:28:39 GMT 50.904694 4.475518 0 246 164 2112
2022-05-16 22:28:26 GMT 50.908318 4.488144 -50 246 127 192
2022-05-16 22:28:01 GMT 50.912224 4.501685 0 244 25
2022-05-16 22:27:14 GMT 50.912350 4.502149 0 14 7
2022-05-16 22:27:13 GMT 50.912369 4.502201 0 14 9
2022-05-16 22:27:07 GMT 50.912453 4.502632 0 14 14
2022-05-16 22:26:58 GMT 50.912354 4.503708 0 14 17
2022-05-16 22:26:36 GMT 50.911541 4.505119 0 14 7
2022-05-16 22:26:20 GMT 50.911354 4.505174 0 14 0
2022-05-16 22:24:59 GMT 50.909981 4.505291 0 14 18
2022-05-16 22:24:58 GMT 50.909866 4.505248 0 14 19
2022-05-16 22:24:19 GMT 50.905651 4.503536 0 14 30
2022-05-16 22:24:04 GMT 50.903812 4.502780 0 14 24
2022-05-16 22:24:01 GMT 50.903492 4.502613 0 22 23
2022-05-16 22:23:56 GMT 50.903114 4.502242 0 42 22
2022-05-16 22:23:54 GMT 50.902905 4.501934 0 56 21
2022-05-16 22:23:51 GMT 50.902794 4.501667 0 61 19
2022-05-16 22:23:49 GMT 50.902679 4.501351 0 61 20
2022-05-16 22:23:48 GMT 50.902645 4.501221 0 61 21
2022-05-16 22:23:41 GMT 50.902302 4.500200 0 61 29
2022-05-16 22:23:39 GMT 50.902138 4.499722 0 64 29
2022-05-16 22:23:32 GMT 50.901764 4.498586 0 61 28
2022-05-16 22:23:31 GMT 50.901684 4.498310 0 61 27
2022-05-16 22:23:29 GMT 50.901554 4.497929 0 61 26
2022-05-16 22:23:28 GMT 50.901451 4.497604 0 61 25
2022-05-16 22:23:26 GMT 50.901398 4.497435 0 61 25
2022-05-16 22:23:25 GMT 50.901226 4.496934 0 61 24
2022-05-16 22:23:23 GMT 50.901226 4.496934 0 61 24
2022-05-16 22:23:21 GMT 50.901134 4.496632 0 61 24
2022-05-16 22:23:16 GMT 50.900906 4.495951 0 61 22
2022-05-16 22:23:15 GMT 50.900799 4.495602 0 61 22
2022-05-16 22:23:12 GMT 50.900707 4.495354 0 64 22
2022-05-16 22:23:10 GMT 50.900631 4.495097 0 67 21
2022-05-16 22:23:09 GMT 50.900589 4.494953 0 64 21
2022-05-16 22:23:08 GMT 50.900555 4.494820 0 59 21
2022-05-16 22:23:04 GMT 50.900322 4.494343 0 14 20
2022-05-16 22:23:02 GMT 50.900173 4.494169 0 14 19
2022-05-16 22:23:00 GMT 50.900013 4.494058 0 14 18
2022-05-16 22:22:59 GMT 50.899807 4.493946 0 14 16
2022-05-16 22:22:56 GMT 50.899738 4.493904 0 14 16
2022-05-16 22:22:49 GMT 50.899380 4.493523 0 14 15
2022-05-16 22:22:46 GMT 50.899281 4.493204 0 14 14
2022-05-16 22:22:42 GMT 50.899189 4.492870 0 14 14
2022-05-16 22:22:38 GMT 50.899052 4.492550 0 14 12
2022-05-16 22:22:37 GMT 50.898937 4.492443 0 14 15
2022-05-16 22:22:32 GMT 50.898708 4.492350 0 14 20
2022-05-16 22:22:31 GMT 50.898537 4.492276 0 14 22
2022-05-16 22:22:29 GMT 50.898354 4.492202 0 14 22
2022-05-16 22:22:25 GMT 50.898018 4.492073 0 14 21
2022-05-16 22:22:19 GMT 50.897495 4.491863 0 19
2022-05-16 22:22:15 GMT 50.897190 4.491749 0 19
2022-05-16 22:22:14 GMT 50.897060 4.491701 0 18
2022-05-16 22:22:00 GMT 50.896191 4.491062 0 14
2022-05-16 22:21:51 GMT 50.895596 4.490604 0 14
2022-05-16 22:21:50 GMT 50.895596 4.490604 0 14
2022-05-16 22:21:47 GMT 50.895397 4.490528 0 13
2022-05-16 22:21:46 GMT 50.895275 4.490495 0 11
2022-05-16 22:21:42 GMT 50.895103 4.490420 0 10
2022-05-16 22:21:39 GMT 50.895023 4.490383 0 9
2022-05-16 22:21:36 GMT 50.894932 4.490356 0 8
2022-05-16 22:21:35 GMT 50.894875 4.490328 0 7
2022-05-16 22:21:34 GMT 50.894840 4.490328 0 7
2022-05-16 22:21:33 GMT 50.894806 4.490318 0 7
2022-05-16 22:20:44 GMT 50.894566 4.490216 0 0
2022-05-16 22:20:34 GMT 50.894573 4.490204 0 0
2022-05-16 22:20:29 GMT 50.894562 4.490223 0 0
2022-05-16 22:20:19 GMT 50.894566 4.490216 0 0
2022-05-16 22:20:14 GMT 50.894562 4.490223 0 0
2022-05-16 22:20:04 GMT 50.894573 4.490223 0 0
2022-05-16 22:19:19 GMT 50.894566 4.490216 0 0
2022-05-16 22:18:54 GMT 50.894573 4.490223 0 0
2022-05-16 22:18:39 GMT 50.894566 4.490216 0 0
2022-05-16 22:18:28 GMT 50.894573 4.490223 0 0
2022-05-16 22:18:03 GMT 50.894562 4.490223 0 0
2022-05-16 22:18:00 GMT 50.894566 4.490216 0 0
2022-05-16 22:17:58 GMT 50.894562 4.490223 0 0
2022-05-16 22:17:56 GMT 50.894566 4.490216 0 0
2022-05-16 22:17:53 GMT 50.894562 4.490223 0 0
2022-05-16 22:17:50 GMT 50.894562 4.490223 0 0
2022-05-16 22:17:46 GMT 50.894566 4.490216 0 0
2022-05-16 22:17:43 GMT 50.894562 4.490223 0 0
2022-05-16 22:17:40 GMT 50.894554 4.490235 0 0
2022-05-16 22:17:39 GMT 50.894566 4.490235 0 0
2022-05-16 22:17:38 GMT 50.894562 4.490223 0 0
2022-05-16 22:17:37 GMT 50.894566 4.490235 0 0
2022-05-16 22:17:34 GMT 50.894566 4.490216 0 0
2022-05-16 22:17:32 GMT 50.894585 4.490204 0 0
2022-05-16 22:17:29 GMT 50.894596 4.490166 0 3
2022-05-16 22:17:27 GMT 50.894562 4.490223 0 0
2022-05-16 22:17:22 GMT 50.894554 4.490216 0 0
2022-05-16 22:17:21 GMT 50.894562 4.490223 0 0
2022-05-16 22:17:20 GMT 50.894554 4.490235 0 0
2022-05-16 22:17:18 GMT 50.894554 4.490235 0 0
2022-05-16 22:17:15 GMT 50.894562 4.490223 0 0
We lost coverage of the aircraft here for a total of 63 minutes
2022-05-16 21:14:29 GMT 50.899750 4.526901 50 251 132 -704
2022-05-16 21:14:26 GMT 50.900208 4.528817 75 251 132 -704
2022-05-16 21:14:24 GMT 50.900635 4.530792 100 251 132 -704
2022-05-16 21:14:20 GMT 50.901798 4.535751 175 251 131 -768
2022-05-16 21:14:16 GMT 50.902313 4.538022 200 250 131 -768
2022-05-16 21:14:15 GMT 50.902496 4.538879 200 250 131 -640
2022-05-16 21:14:14 GMT 50.902954 4.540768 225 250 129 -640
2022-05-16 21:14:12 GMT 50.903183 4.541659 250 250 129 -640
2022-05-16 21:14:10 GMT 50.903614 4.543457 300 250 129 -704
2022-05-16 21:14:07 GMT 50.904221 4.546051 300 250 129 -640
2022-05-16 21:14:06 GMT 50.904373 4.546929 300 250 129 -640
2022-05-16 21:14:03 GMT 50.905060 4.549713 350 251 128 -640
2022-05-16 21:14:01 GMT 50.905426 4.551383 350 251 128 -640
2022-05-16 21:13:58 GMT 50.906036 4.554138 400 251 128 -704
2022-05-16 21:13:57 GMT 50.906223 4.554977 400 251 128 -640
2022-05-16 21:13:55 GMT 50.906616 4.556728 425 251 128 -768
2022-05-16 21:13:53 GMT 50.907291 4.559784 475 251 128 -832
2022-05-16 21:13:52 GMT 50.907291 4.559784 475 251 128 -704
2022-05-16 21:13:51 GMT 50.907806 4.561920 500 251 128 -768
2022-05-16 21:13:48 GMT 50.908447 4.564671 550 251 128 -640
2022-05-16 21:13:44 GMT 50.908642 4.565582 550 251 128 -640
2022-05-16 21:13:43 GMT 50.908859 4.566527 550 251 128 -640
2022-05-16 21:13:41 GMT 50.909435 4.569016 600 251 128 -640
2022-05-16 21:13:39 GMT 50.909901 4.570999 625 251 128 -640
2022-05-16 21:13:37 GMT 50.910187 4.572168 650 250 129 -704
2022-05-16 21:13:36 GMT 50.910599 4.574024 650 250 129 -640
2022-05-16 21:13:33 GMT 50.911057 4.575880 675 251 128 -704
2022-05-16 21:13:32 GMT 50.911251 4.576797 700 251 128 -640
2022-05-16 21:13:31 GMT 50.911652 4.578552 700 251 129 -704
2022-05-16 21:13:30 GMT 50.911762 4.579010 725 251 129 -640
2022-05-16 21:13:28 GMT 50.912247 4.581225 750 251 129 -640
2022-05-16 21:13:27 GMT 50.912430 4.582041 750 251 130 -640
2022-05-16 21:13:25 GMT 50.912842 4.583823 775 251 130 -640
2022-05-16 21:13:24 GMT 50.913017 4.584579 775 252 129 -576
2022-05-16 21:13:23 GMT 50.913208 4.585530 800 252 129 -704
2022-05-16 21:13:21 GMT 50.914230 4.590149 825 252 129 -640
2022-05-16 21:13:19 GMT 50.914230 4.590149 825 252 129 -704
2022-05-16 21:13:16 GMT 50.914555 4.591522 875 250 130 -640
2022-05-16 21:13:14 GMT 50.915176 4.594141 925 249 128 -576
2022-05-16 21:13:11 GMT 50.915726 4.596516 925 250 128 -576
2022-05-16 21:13:09 GMT 50.915955 4.597407 950 250 129 -640
2022-05-16 21:13:07 GMT 50.916416 4.599228 975 250 129 -576
2022-05-16 21:13:04 GMT 50.917511 4.603865 1,000 251 129 -704
2022-05-16 21:13:02 GMT 50.917511 4.603865 1,000 251 129 -704
2022-05-16 21:12:59 GMT 50.918060 4.606315 1,050 251 129 -768
2022-05-16 21:12:58 GMT 50.918243 4.607206 1,050 250 130 -704
2022-05-16 21:12:57 GMT 50.918976 4.610291 1,100 250 130 -768
2022-05-16 21:12:55 GMT 50.918976 4.610291 1,100 250 132 -768
2022-05-16 21:12:54 GMT 50.919163 4.611053 1,100 250 132 -768
2022-05-16 21:12:53 GMT 50.919350 4.611893 1,125 250 132 -768
2022-05-16 21:12:51 GMT 50.919891 4.614184 1,150 250 132 -768
2022-05-16 21:12:49 GMT 50.920212 4.615520 1,150 250 132 -768
2022-05-16 21:12:46 GMT 50.921127 4.619306 1,225 251 135 -768
2022-05-16 21:12:43 GMT 50.921398 4.620590 1,250 251 135 -768
2022-05-16 21:12:42 GMT 50.921814 4.622349 1,275 251 135 -768
2022-05-16 21:12:41 GMT 50.922043 4.623240 1,300 251 135 -768
2022-05-16 21:12:40 GMT 50.922188 4.624023 1,300 251 135 -704
2022-05-16 21:12:38 GMT 50.922516 4.625397 1,325 250 136 -640
2022-05-16 21:12:37 GMT 50.923325 4.628807 1,350 250 136 -768
2022-05-16 21:12:35 GMT 50.923325 4.628807 1,350 250 138 -704
2022-05-16 21:12:33 GMT 50.923634 4.630203 1,375 250 138 -704
2022-05-16 21:12:32 GMT 50.924473 4.633789 1,400 250 141 -768
2022-05-16 21:12:30 GMT 50.924473 4.633789 1,425 250 141 -832
2022-05-16 21:12:28 GMT 50.924797 4.635239 1,450 250 142 -768
2022-05-16 21:12:27 GMT 50.925030 4.636307 1,500 250 142 -832
2022-05-16 21:12:25 GMT 50.925522 4.638383 1,500 251 143 -832
2022-05-16 21:12:22 GMT 50.926239 4.641495 1,500 250 143 -768
2022-05-16 21:12:21 GMT 50.926472 4.642487 1,525 250 143 -704
2022-05-16 21:12:19 GMT 50.927216 4.645538 1,550 250 144 -704
2022-05-16 21:12:18 GMT 50.927216 4.645538 1,550 250 145 -640
2022-05-16 21:12:17 GMT 50.927448 4.646683 1,575 250 145 -640
2022-05-16 21:12:15 GMT 50.927731 4.647751 1,575 250 145 -576
2022-05-16 21:12:13 GMT 50.928196 4.649734 1,600 250 146 -640
2022-05-16 21:12:11 GMT 50.928909 4.652710 1,625 250 149 -640
2022-05-16 21:12:07 GMT 50.929596 4.655679 1,650 250 151 -704
2022-05-16 21:12:05 GMT 50.930099 4.657906 1,700 250 154 -768
2022-05-16 21:12:03 GMT 50.930710 4.660492 1,700 250 154 -768
2022-05-16 21:12:00 GMT 50.931408 4.663544 1,750 251 157 -896
2022-05-16 21:11:58 GMT 50.931919 4.665833 1,800 252 158 -576
2022-05-16 21:11:56 GMT 50.932289 4.667587 1,825 252 159 -1024
2022-05-16 21:11:54 GMT 50.932800 4.669858 1,825 252 161 -704
2022-05-16 21:11:52 GMT 50.933258 4.672084 1,850 252 162 -768
2022-05-16 21:11:51 GMT 50.933594 4.673615 1,850 251 165 -768
2022-05-16 21:11:48 GMT 50.934341 4.677048 1,900 251 166 -1088
2022-05-16 21:11:46 GMT 50.934757 4.678802 1,925 251 168 -1216
2022-05-16 21:11:45 GMT 50.934990 4.679947 1,950 251 169 -832
2022-05-16 21:11:43 GMT 50.935551 4.682312 1,975 251 170 -1152
2022-05-16 21:11:41 GMT 50.936325 4.685743 2,050 251 172 -1280
2022-05-16 21:11:39 GMT 50.936573 4.687042 2,075 251 173 -1216
2022-05-16 21:11:38 GMT 50.936874 4.688267 2,075 251 173 -1216
2022-05-16 21:11:36 GMT 50.937424 4.690717 2,100 251 174 -1216
2022-05-16 21:11:35 GMT 50.937691 4.692078 2,175 251 176 -1216
2022-05-16 21:11:33 GMT 50.938343 4.694824 2,175 251 176 -1280
2022-05-16 21:11:30 GMT 50.939041 4.698029 2,225 251 177 -1344
2022-05-16 21:11:28 GMT 50.939621 4.700664 2,275 251 179 -1152
2022-05-16 21:11:26 GMT 50.940205 4.703064 2,275 251 179 -1152
2022-05-16 21:11:24 GMT 50.940765 4.705658 2,350 251 180 -1024
2022-05-16 21:11:23 GMT 50.941044 4.706802 2,375 251 181 -1024
2022-05-16 21:11:22 GMT 50.941601 4.709396 2,400 252 183 -896
2022-05-16 21:11:18 GMT 50.942368 4.713061 2,450 253 185 -640
2022-05-16 21:11:16 GMT 50.943008 4.716104 2,475 253 187 -832
2022-05-16 21:11:15 GMT 50.943230 4.717407 2,475 253 191 -896
2022-05-16 21:11:13 GMT 50.943695 4.719593 2,500 253 191 -1024
2022-05-16 21:11:10 GMT 50.944336 4.723082 2,525 254 192 -1024
2022-05-16 21:11:09 GMT 50.944721 4.725037 2,550 254 193 -832
2022-05-16 21:11:07 GMT 50.945251 4.727981 2,575 254 194 -960
2022-05-16 21:11:06 GMT 50.945480 4.729169 2,600 255 196 -768
2022-05-16 21:11:04 GMT 50.946259 4.733474 2,625 255 196 -832
2022-05-16 21:11:02 GMT 50.946487 4.735033 2,675 256 197 -768
2022-05-16 21:11:00 GMT 50.946991 4.737780 2,675 257 199 -704
2022-05-16 21:10:58 GMT 50.947403 4.740526 2,700 257 199 -768
2022-05-16 21:10:57 GMT 50.947701 4.742584 2,700 258 199 -704
2022-05-16 21:10:56 GMT 50.948181 4.746836 2,725 261 201 -576
2022-05-16 21:10:54 GMT 50.948181 4.746836 2,725 261 201 -576
2022-05-16 21:10:52 GMT 50.948410 4.749880 2,750 267 203 -640
2022-05-16 21:10:51 GMT 50.948444 4.750748 2,750 267 203 -640
2022-05-16 21:10:50 GMT 50.948490 4.752197 2,775 269 204 -640
2022-05-16 21:10:48 GMT 50.948502 4.755299 2,775 274 205 -576
2022-05-16 21:10:46 GMT 50.948353 4.758072 2,825 280 206 -576
2022-05-16 21:10:44 GMT 50.948090 4.760940 2,825 281 208 -576
2022-05-16 21:10:43 GMT 50.948025 4.761810 2,825 281 208 -640
2022-05-16 21:10:42 GMT 50.947678 4.764578 2,850 281 208 -640
2022-05-16 21:10:40 GMT 50.947266 4.767918 2,875 281 210 -576
2022-05-16 21:10:38 GMT 50.946815 4.771576 2,875 281 210 -768
2022-05-16 21:10:36 GMT 50.946533 4.773931 2,925 281 212 -704
2022-05-16 21:10:34 GMT 50.946209 4.776764 2,925 281 212 -704
2022-05-16 21:10:32 GMT 50.945847 4.779647 2,950 281 213 -768
2022-05-16 21:10:30 GMT 50.945606 4.781876 2,975 281 214 -896
2022-05-16 21:10:29 GMT 50.945343 4.784249 3,000 281 215 -832
2022-05-16 21:10:26 GMT 50.944794 4.788926 3,025 281 216 -768
2022-05-16 21:10:25 GMT 50.944580 4.790573 3,050 281 217 -768
2022-05-16 21:10:23 GMT 50.944199 4.793899 3,075 281 217 -832
2022-05-16 21:10:22 GMT 50.944023 4.795380 3,075 281 218 -704
2022-05-16 21:10:21 GMT 50.943462 4.800491 3,125 281 219 -768
2022-05-16 21:10:19 GMT 50.943462 4.800491 3,125 281 220 -832
2022-05-16 21:10:18 GMT 50.943279 4.802170 3,150 281 220 -832
2022-05-16 21:10:16 GMT 50.943054 4.803846 3,150 281 220 -896
2022-05-16 21:10:14 GMT 50.942688 4.807187 3,200 281 220 -960
2022-05-16 21:10:12 GMT 50.942139 4.811937 3,250 281 221 -1216
2022-05-16 21:10:09 GMT 50.941818 4.814536 3,300 281 221 -1280
2022-05-16 21:10:08 GMT 50.941647 4.816208 3,300 281 221 -1280
2022-05-16 21:10:07 GMT 50.941418 4.817886 3,325 281 220 -1216
2022-05-16 21:10:06 GMT 50.941090 4.820480 3,350 282 221 -1280
2022-05-16 21:10:04 GMT 50.940811 4.822924 3,425 282 221 -1216
2022-05-16 21:10:02 GMT 50.940392 4.826050 3,475 283 221 -1344
2022-05-16 21:09:59 GMT 50.939713 4.830495 3,500 285 221 -1344
2022-05-16 21:09:58 GMT 50.939274 4.832916 3,525 286 221 -1408
2022-05-16 21:09:56 GMT 50.938614 4.836211 3,575 290 222 -1472
2022-05-16 21:09:54 GMT 50.937927 4.839106 3,600 296 221 -1408
2022-05-16 21:09:52 GMT 50.937038 4.841995 3,650 298 221 -1280
2022-05-16 21:09:50 GMT 50.936062 4.844742 3,700 303 223 -1216
2022-05-16 21:09:48 GMT 50.934807 4.847565 3,750 308 224 -1216
2022-05-16 21:09:46 GMT 50.933487 4.850241 3,775 312 225 -1152
2022-05-16 21:09:45 GMT 50.932804 4.851379 3,800 319 226 -1152
2022-05-16 21:09:43 GMT 50.931381 4.853582 3,825 319 226 -1152
2022-05-16 21:09:42 GMT 50.930603 4.854695 3,850 325 228 -1024
2022-05-16 21:09:40 GMT 50.929314 4.856262 3,875 325 228 -1024
2022-05-16 21:09:39 GMT 50.928131 4.857590 3,900 329 230 -960
2022-05-16 21:09:38 GMT 50.927170 4.858475 3,925 332 231 -704
2022-05-16 21:09:36 GMT 50.925385 4.860114 3,950 337 232 -832
2022-05-16 21:09:35 GMT 50.923050 4.861747 3,975 342 235 -832
2022-05-16 21:09:33 GMT 50.921955 4.862366 4,000 346 237 -896
2022-05-16 21:09:32 GMT 50.920280 4.863129 4,025 349 238 -896
2022-05-16 21:09:30 GMT 50.919159 4.863529 4,025 351 239 -1088
2022-05-16 21:09:28 GMT 50.917007 4.864123 4,050 351 239 -1088
2022-05-16 21:09:26 GMT 50.914600 4.864502 4,100 0 243 -1280
2022-05-16 21:09:24 GMT 50.912182 4.864502 4,150 3 244 -1216
2022-05-16 21:09:23 GMT 50.911194 4.864419 4,175 3 245 -1344
2022-05-16 21:09:22 GMT 50.909180 4.864197 4,200 3 246 -1280
2022-05-16 21:09:20 GMT 50.907852 4.864120 4,225 3 247 -1280
2022-05-16 21:09:18 GMT 50.905571 4.863815 4,275 4 247 -1280
2022-05-16 21:09:16 GMT 50.903149 4.863510 4,325 4 249 -1280
2022-05-16 21:09:15 GMT 50.902176 4.863380 4,325 5 251 -1216
2022-05-16 21:09:13 GMT 50.899704 4.863052 4,375 6 252 -1280
2022-05-16 21:09:11 GMT 50.897461 4.862638 4,425 7 253 -1216
2022-05-16 21:09:10 GMT 50.894119 4.861984 4,475 7 255 -1280
2022-05-16 21:09:08 GMT 50.894119 4.861984 4,475 8 255 -1216
2022-05-16 21:09:06 GMT 50.891281 4.861302 4,525 11 260 -1280
2022-05-16 21:09:05 GMT 50.890549 4.861079 4,525 11 260 -1280
2022-05-16 21:09:02 GMT 50.886997 4.860001 4,625 15 262 -1536
2022-05-16 21:09:01 GMT 50.885834 4.859543 4,625 17 263 -1600
2022-05-16 21:08:58 GMT 50.881805 4.857442 4,725 24 267 -1728
2022-05-16 21:08:56 GMT 50.878784 4.855289 4,800 28 269 -1856
2022-05-16 21:08:54 GMT 50.877548 4.854324 4,850 29 271 -2112
2022-05-16 21:08:52 GMT 50.875397 4.852320 4,950 33 272 -2112
2022-05-16 21:08:50 GMT 50.872425 4.849091 5,000 36 273 -1920
2022-05-16 21:08:48 GMT 50.871368 4.847866 5,025 38 276 -1856
2022-05-16 21:08:47 GMT 50.868484 4.844154 5,050 40 278 -1856
2022-05-16 21:08:45 GMT 50.868484 4.844154 5,100 41 279 -1792
2022-05-16 21:08:43 GMT 50.866421 4.841232 5,150 42 280 -1984
2022-05-16 21:08:41 GMT 50.864914 4.839032 5,225 42 283 -1920
2022-05-16 21:08:40 GMT 50.863495 4.836954 5,300 43 286 -1920
2022-05-16 21:08:38 GMT 50.860741 4.832916 5,350 43 287 -1984
2022-05-16 21:08:35 GMT 50.858879 4.830170 5,400 43 288 -1984
2022-05-16 21:08:33 GMT 50.856995 4.827378 5,450 43 289 -1984
2022-05-16 21:08:31 GMT 50.855347 4.824854 5,525 43 292 -1856
2022-05-16 21:08:30 GMT 50.853882 4.822627 5,575 43 293 -1728
2022-05-16 21:08:28 GMT 50.851913 4.819658 5,675 43 295 -1792
2022-05-16 21:08:26 GMT 50.850037 4.816837 5,675 44 298 -1664
2022-05-16 21:08:24 GMT 50.847748 4.813348 5,750 44 300 -1792
2022-05-16 21:08:23 GMT 50.845844 4.810333 5,800 44 301 -1856
2022-05-16 21:08:21 GMT 50.844818 4.808807 5,825 45 305 -1792
2022-05-16 21:08:19 GMT 50.842804 4.805554 5,900 45 306 -1856
2022-05-16 21:08:18 GMT 50.841839 4.804001 5,925 45 308 -1856
2022-05-16 21:08:16 GMT 50.839745 4.800644 5,975 45 309 -1856
2022-05-16 21:08:14 GMT 50.836121 4.794567 6,075 47 315 -1792
2022-05-16 21:08:12 GMT 50.836121 4.794567 6,100 48 316 -1984
2022-05-16 21:08:11 GMT 50.835159 4.792860 6,125 49 319 -1920
2022-05-16 21:08:09 GMT 50.833462 4.789810 6,200 50 321 -2048
2022-05-16 21:08:07 GMT 50.831406 4.785956 6,225 51 322 -1984
2022-05-16 21:08:06 GMT 50.830490 4.784101 6,275 52 324 -2112
2022-05-16 21:08:04 GMT 50.827827 4.778442 6,375 54 328 -2368
2022-05-16 21:08:02 GMT 50.826851 4.776306 6,425 55 331 -2688
2022-05-16 21:08:00 GMT 50.824997 4.772001 6,525 56 333 -2880
2022-05-16 21:07:59 GMT 50.824036 4.769774 6,575 57 334 -2816
2022-05-16 21:07:56 GMT 50.821930 4.764429 6,675 58 337 -2688
2022-05-16 21:07:54 GMT 50.820007 4.759445 6,800 59 339 -2496
2022-05-16 21:07:53 GMT 50.819542 4.758148 6,800 59 339 -2752
2022-05-16 21:07:52 GMT 50.817627 4.753146 6,925 59 341 -2752
2022-05-16 21:07:50 GMT 50.816849 4.750993 6,950 59 342 -2688
2022-05-16 21:07:49 GMT 50.816006 4.748764 7,000 59 342 -2688
2022-05-16 21:07:48 GMT 50.814331 4.744386 7,100 59 342 -3200
2022-05-16 21:07:46 GMT 50.813507 4.742234 7,175 59 343 -3264
2022-05-16 21:07:45 GMT 50.811954 4.738007 7,275 59 342 -3136
2022-05-16 21:07:43 GMT 50.811172 4.735998 7,325 59 343 -3328
2022-05-16 21:07:41 GMT 50.809479 4.731470 7,425 59 343 -3264
2022-05-16 21:07:40 GMT 50.808701 4.729317 7,500 59 343 -3392
2022-05-16 21:07:38 GMT 50.807018 4.724884 7,600 59 344 -3392
2022-05-16 21:07:37 GMT 50.806274 4.722785 7,650 59 344 -3200
2022-05-16 21:07:36 GMT 50.805435 4.720535 7,700 59 344 -3392
2022-05-16 21:07:35 GMT 50.803848 4.716327 7,825 59 343 -3136
2022-05-16 21:07:33 GMT 50.803017 4.714050 7,875 59 343 -3392
2022-05-16 21:07:32 GMT 50.801559 4.710017 8,000 59 344 -3520
2022-05-16 21:07:30 GMT 50.800690 4.707718 8,050 59 344 -3392
2022-05-16 21:07:29 GMT 50.799896 4.705582 8,100 60 344 -3520
2022-05-16 21:07:28 GMT 50.798355 4.701332 8,225 60 344 -3584
2022-05-16 21:07:26 GMT 50.797623 4.699402 8,275 60 344 -3456
2022-05-16 21:07:25 GMT 50.795975 4.694799 8,400 60 343 -3520
2022-05-16 21:07:23 GMT 50.795147 4.692535 8,450 60 343 -3520
2022-05-16 21:07:22 GMT 50.794327 4.690271 8,525 60 343 -3520
2022-05-16 21:07:21 GMT 50.792725 4.685892 8,625 60 343 -3584
2022-05-16 21:07:19 GMT 50.791843 4.683380 8,700 60 343 -3520
2022-05-16 21:07:18 GMT 50.789658 4.677355 8,825 60 344 -3392
2022-05-16 21:07:16 GMT 50.789658 4.677355 8,850 60 344 -3648
2022-05-16 21:07:14 GMT 50.788010 4.672827 8,975 60 345 -3520
2022-05-16 21:07:13 GMT 50.787231 4.670600 9,050 60 346 -3456
2022-05-16 21:07:12 GMT 50.786350 4.668045 9,100 60 346 -3648
2022-05-16 21:07:11 GMT 50.784805 4.663771 9,225 60 347 -3584
2022-05-16 21:07:09 GMT 50.783978 4.661484 9,275 60 348 -3520
2022-05-16 21:07:07 GMT 50.782471 4.657164 9,400 61 348 -3776
2022-05-16 21:07:06 GMT 50.781647 4.654770 9,475 61 348 -3776
2022-05-16 21:07:04 GMT 50.780823 4.652487 9,550 61 349 -3840
2022-05-16 21:07:03 GMT 50.779953 4.650038 9,650 61 349 -3648
2022-05-16 21:07:02 GMT 50.778168 4.644841 9,725 61 350 -3520
2022-05-16 21:07:00 GMT 50.777390 4.642614 9,775 61 351 -3712
2022-05-16 21:06:59 GMT 50.776714 4.640732 9,875 61 353 -3200
2022-05-16 21:06:57 GMT 50.775146 4.636008 9,925 62 355 -2752
2022-05-16 21:06:56 GMT 50.774323 4.633484 10,025 63 356 -2752
2022-05-16 21:06:55 GMT 50.773640 4.631271 10,075 64 357 -2624
2022-05-16 21:06:53 GMT 50.772125 4.626209 10,125 66 359 -2752
2022-05-16 21:06:52 GMT 50.770157 4.618934 10,250 67 362 -2688
2022-05-16 21:06:50 GMT 50.770157 4.618934 10,250 68 365 -2304
2022-05-16 21:06:49 GMT 50.769264 4.615326 10,300 69 367 -2496
2022-05-16 21:06:47 GMT 50.767124 4.606018 10,450 70 371 -2432
2022-05-16 21:06:45 GMT 50.767124 4.606018 10,450 70 375 -2240
2022-05-16 21:06:43 GMT 50.765900 4.600748 10,525 70 376 -2368
2022-05-16 21:06:42 GMT 50.765396 4.598372 10,550 70 378 -2240
2022-05-16 21:06:40 GMT 50.764252 4.593473 10,625 70 381 -2496
2022-05-16 21:06:39 GMT 50.763336 4.589539 10,675 70 384 -2432
2022-05-16 21:06:37 GMT 50.762188 4.584427 10,725 70 384 -2432
2022-05-16 21:06:36 GMT 50.761818 4.582825 10,775 70 386 -2944
2022-05-16 21:06:35 GMT 50.759907 4.574661 10,900 70 386 -3072
2022-05-16 21:06:33 GMT 50.759907 4.574661 10,925 70 387 -3264
2022-05-16 21:06:32 GMT 50.758698 4.569397 11,100 70 387 -3712
2022-05-16 21:06:30 GMT 50.758118 4.566824 11,175 69 387 -4096
2022-05-16 21:06:29 GMT 50.757568 4.564448 11,250 69 387 -4032
2022-05-16 21:06:28 GMT 50.756332 4.559178 11,375 69 387 -3840
2022-05-16 21:06:26 GMT 50.755764 4.556656 11,450 69 387 -3776
2022-05-16 21:06:24 GMT 50.754509 4.551315 11,575 69 388 -3712
2022-05-16 21:06:23 GMT 50.753159 4.545517 11,700 69 388 -3776
2022-05-16 21:06:21 GMT 50.751995 4.540405 11,725 70 389 -3456
2022-05-16 21:06:19 GMT 50.751389 4.537735 11,800 70 389 -3584
2022-05-16 21:06:18 GMT 50.750832 4.535370 11,900 70 390 -3584
2022-05-16 21:06:16 GMT 50.749329 4.528817 12,000 70 391 -3456
2022-05-16 21:06:15 GMT 50.748825 4.526664 12,075 70 392 -3264
2022-05-16 21:06:14 GMT 50.748230 4.523992 12,125 70 391 -3328
2022-05-16 21:06:11 GMT 50.746315 4.515533 12,275 70 394 -3008
2022-05-16 21:06:08 GMT 50.744221 4.505997 12,425 71 397 -3200
2022-05-16 21:06:06 GMT 50.743523 4.503021 12,475 71 397 -3200
2022-05-16 21:06:05 GMT 50.742599 4.498753 12,575 71 398 -2880
2022-05-16 21:06:03 GMT 50.741730 4.494670 12,650 71 399 -2880
2022-05-16 21:06:02 GMT 50.741089 4.491627 12,700 71 400 -2944
2022-05-16 21:06:01 GMT 50.740402 4.488449 12,750 71 400 -2880
2022-05-16 21:06:00 GMT 50.739799 4.485626 12,825 71 401 -3200
2022-05-16 21:05:59 GMT 50.738586 4.479828 12,925 71 402 -3648
2022-05-16 21:05:57 GMT 50.737930 4.476929 12,975 71 402 -3840
2022-05-16 21:05:56 GMT 50.736816 4.471512 13,100 71 402 -4160
2022-05-16 21:05:54 GMT 50.736168 4.468460 13,175 71 402 -4224
2022-05-16 21:05:53 GMT 50.735550 4.465497 13,250 71 401 -4736
2022-05-16 21:05:51 GMT 50.734863 4.462453 13,400 71 400 -4928
2022-05-16 21:05:49 GMT 50.733673 4.456663 13,500 71 399 -5184
2022-05-16 21:05:48 GMT 50.733078 4.453917 13,650 71 399 -5184
2022-05-16 21:05:46 GMT 50.731934 4.448349 13,725 71 398 -4992
2022-05-16 21:05:45 GMT 50.731373 4.445724 13,950 71 397 -4864
2022-05-16 21:05:43 GMT 50.730209 4.440231 14,075 72 398 -4288
2022-05-16 21:05:42 GMT 50.728580 4.431915 14,150 72 399 -3520
2022-05-16 21:05:40 GMT 50.728580 4.431915 14,300 72 399 -3520
2022-05-16 21:05:39 GMT 50.727974 4.428864 14,350 73 399 -3392
2022-05-16 21:05:36 GMT 50.726482 4.420776 14,450 74 400 -3584
2022-05-16 21:05:34 GMT 50.725273 4.413757 14,600 75 401 -3520
2022-05-16 21:05:31 GMT 50.723923 4.403662 14,825 80 402 -3456
2022-05-16 21:05:29 GMT 50.723598 4.400635 14,875 83 402 -3776
2022-05-16 21:05:28 GMT 50.723133 4.394760 15,000 85 403 -3584
2022-05-16 21:05:26 GMT 50.722870 4.390820 15,075 87 403 -3648
2022-05-16 21:05:24 GMT 50.722687 4.384658 15,150 89 404 -3584
2022-05-16 21:05:23 GMT 50.722687 4.382060 15,250 90 405 -3520
2022-05-16 21:05:22 GMT 50.722668 4.378967 15,300 90 405 -3456
2022-05-16 21:05:20 GMT 50.722778 4.373227 15,425 92 405 -3648
2022-05-16 21:05:19 GMT 50.722900 4.370422 15,475 95 405 -3520
2022-05-16 21:05:18 GMT 50.723053 4.367659 15,525 95 405 -3584
2022-05-16 21:05:15 GMT 50.723785 4.358529 15,725 99 406 -3584
2022-05-16 21:05:14 GMT 50.724106 4.355634 15,775 101 406 -3648
2022-05-16 21:05:12 GMT 50.724884 4.349547 15,925 102 406 -3520
2022-05-16 21:05:11 GMT 50.726345 4.340820 16,025 105 406 -3776
2022-05-16 21:05:09 GMT 50.726345 4.340820 16,075 106 406 -3648
2022-05-16 21:05:07 GMT 50.727539 4.334700 16,200 107 406 -3648
2022-05-16 21:05:06 GMT 50.728020 4.332275 16,250 108 406 -3456
2022-05-16 21:05:05 GMT 50.728531 4.329758 16,300 108 407 -3456
2022-05-16 21:05:04 GMT 50.730347 4.320984 16,450 108 408 -3392
2022-05-16 21:05:02 GMT 50.730347 4.320984 16,475 108 409 -3328
2022-05-16 21:04:59 GMT 50.732117 4.312356 16,650 108 410 -3264
2022-05-16 21:04:58 GMT 50.732769 4.309387 16,700 108 410 -3392
2022-05-16 21:04:56 GMT 50.733978 4.303436 16,825 107 411 -3520
2022-05-16 21:04:54 GMT 50.735046 4.298178 16,875 107 411 -3648
2022-05-16 21:04:53 GMT 50.735607 4.295425 16,975 108 412 -3648
2022-05-16 21:04:52 GMT 50.736214 4.292603 17,075 108 412 -3520
2022-05-16 21:04:51 GMT 50.737286 4.287491 17,100 108 412 -3648
2022-05-16 21:04:49 GMT 50.737934 4.284363 17,225 108 412 -3584
2022-05-16 21:04:48 GMT 50.739166 4.278507 17,350 108 413 -3072
2022-05-16 21:04:46 GMT 50.739807 4.275315 17,400 108 414 -3200
2022-05-16 21:04:45 GMT 50.740452 4.272308 17,450 108 415 -2496
2022-05-16 21:04:42 GMT 50.742264 4.263763 17,575 108 417 -2560
2022-05-16 21:04:41 GMT 50.743881 4.256386 17,650 108 418 -2432
2022-05-16 21:04:39 GMT 50.743881 4.256386 17,700 109 419 -2624
2022-05-16 21:04:38 GMT 50.745243 4.250183 17,750 109 420 -2496
2022-05-16 21:04:36 GMT 50.745850 4.247478 17,825 109 421 -2432
2022-05-16 21:04:35 GMT 50.746502 4.244385 17,875 109 422 -2624
2022-05-16 21:04:33 GMT 50.747726 4.239015 17,925 109 424 -2816
2022-05-16 21:04:32 GMT 50.748367 4.236120 17,975 109 424 -3072
2022-05-16 21:04:30 GMT 50.749901 4.229279 18,100 109 424 -3200
2022-05-16 21:04:29 GMT 50.750610 4.226247 18,150 109 426 -3520
2022-05-16 21:04:28 GMT 50.751984 4.220086 18,275 109 425 -3648
2022-05-16 21:04:26 GMT 50.752396 4.218379 18,325 109 426 -3776
2022-05-16 21:04:25 GMT 50.753036 4.215410 18,375 109 426 -3840
2022-05-16 21:04:24 GMT 50.754414 4.209442 18,500 109 426 -3776
2022-05-16 21:04:22 GMT 50.755051 4.206650 18,575 109 426 -3712
2022-05-16 21:04:19 GMT 50.757889 4.194105 18,850 109 427 -3904
2022-05-16 21:04:17 GMT 50.758511 4.191284 18,900 109 426 -3840
2022-05-16 21:04:16 GMT 50.759949 4.184974 19,025 109 427 -3840
2022-05-16 21:04:13 GMT 50.761307 4.179001 19,150 109 428 -3456
2022-05-16 21:04:11 GMT 50.762604 4.173246 19,275 109 428 -3456
2022-05-16 21:04:10 GMT 50.763199 4.170573 19,325 109 428 -3584
2022-05-16 21:04:08 GMT 50.764469 4.164886 19,425 109 429 -3328
2022-05-16 21:04:07 GMT 50.765076 4.162216 19,475 109 430 -3200
2022-05-16 21:04:06 GMT 50.767044 4.153500 19,575 109 431 -3136
2022-05-16 21:04:04 GMT 50.767044 4.153500 19,675 109 431 -3136
2022-05-16 21:04:03 GMT 50.767731 4.150391 19,700 109 432 -3392
2022-05-16 21:04:01 GMT 50.769012 4.144592 19,800 109 433 -3136
2022-05-16 21:04:00 GMT 50.769730 4.141464 20,200 109 433 -3328
2022-05-16 21:03:58 GMT 50.771164 4.135091 19,950 109 434 -3456
2022-05-16 21:03:56 GMT 50.773174 4.125977 20,125 109 435 -3456
2022-05-16 21:03:54 GMT 50.773922 4.122620 20,200 109 435 -3136
2022-05-16 21:03:52 GMT 50.774963 4.118017 20,250 109 436 -3520
2022-05-16 21:03:50 GMT 50.777084 4.108505 20,450 109 437 -3392
2022-05-16 21:03:47 GMT 50.778389 4.102478 20,550 109 438 -3328
2022-05-16 21:03:46 GMT 50.779861 4.096045 20,825 109 440 -3392
2022-05-16 21:03:44 GMT 50.780251 4.094391 20,700 109 440 -3456
2022-05-16 21:03:43 GMT 50.781742 4.087677 20,825 109 441 -3584
2022-05-16 21:03:40 GMT 50.783092 4.081650 20,950 109 442 -3520
2022-05-16 21:03:39 GMT 50.783791 4.078598 21,000 109 442 -3648
2022-05-16 21:03:37 GMT 50.785767 4.069692 21,175 109 443 -3648
2022-05-16 21:03:35 GMT 50.786453 4.066575 21,250 109 443 -3648
2022-05-16 21:03:34 GMT 50.787415 4.062343 21,325 109 444 -3712
2022-05-16 21:03:32 GMT 50.788467 4.057444 21,425 109 444 -3840
2022-05-16 21:03:31 GMT 50.789246 4.054104 21,500 109 444 -3712
2022-05-16 21:03:28 GMT 50.791214 4.045196 21,675 109 445 -3520
2022-05-16 21:03:27 GMT 50.793568 4.034653 21,825 109 445 -3968
2022-05-16 21:03:25 GMT 50.793568 4.034653 21,900 109 445 -4096
2022-05-16 21:03:23 GMT 50.794636 4.029694 22,000 109 445 -4416
2022-05-16 21:03:22 GMT 50.795334 4.026642 22,075 109 445 -4800
2022-05-16 21:03:21 GMT 50.796021 4.023446 22,150 109 444 -5056
2022-05-16 21:03:20 GMT 50.797394 4.017284 22,325 109 443 -5376
2022-05-16 21:03:18 GMT 50.797989 4.014612 22,400 109 443 -5376
2022-05-16 21:03:16 GMT 50.800003 4.005482 22,675 109 441 -5184
2022-05-16 21:03:13 GMT 50.802319 3.994980 22,975 109 439 -5248
2022-05-16 21:03:11 GMT 50.802979 3.992120 23,050 109 438 -4928
2022-05-16 21:03:10 GMT 50.803619 3.989258 23,125 109 438 -5120
2022-05-16 21:03:08 GMT 50.804970 3.983231 23,300 109 438 -5056
2022-05-16 21:03:07 GMT 50.806370 3.976898 23,475 109 437 -5056
2022-05-16 21:03:05 GMT 50.806778 3.975269 23,525 109 435 -4800
2022-05-16 21:03:04 GMT 50.807484 3.972092 23,600 109 435 -5248
2022-05-16 21:03:02 GMT 50.808880 3.965759 23,800 109 434 -4864
2022-05-16 21:03:00 GMT 50.809845 3.961462 23,875 109 433 -4992
2022-05-16 21:02:59 GMT 50.810715 3.957602 24,075 109 432 -4672
2022-05-16 21:02:57 GMT 50.811813 3.952554 24,125 109 431 -4480
2022-05-16 21:02:56 GMT 50.812408 3.949882 24,300 109 431 -4480
2022-05-16 21:02:54 GMT 50.813862 3.943481 24,375 109 431 -4160
2022-05-16 21:02:53 GMT 50.814838 3.939056 24,450 109 431 -3648
2022-05-16 21:02:52 GMT 50.815491 3.936081 24,525 109 432 -3072
2022-05-16 21:02:51 GMT 50.816238 3.932800 24,600 109 432 -3072
2022-05-16 21:02:49 GMT 50.817490 3.927018 24,675 109 432 -2944
2022-05-16 21:02:47 GMT 50.818909 3.920783 24,800 109 433 -2304
2022-05-16 21:02:45 GMT 50.819775 3.916702 24,825 109 434 -1856
2022-05-16 21:02:44 GMT 50.820419 3.913879 24,875 109 436 -1472
2022-05-16 21:02:43 GMT 50.821404 3.909531 24,900 109 437 -1472
2022-05-16 21:02:42 GMT 50.822296 3.905491 24,950 109 438 -1280
2022-05-16 21:02:41 GMT 50.823776 3.898697 24,975 109 439 -1600
2022-05-16 21:02:39 GMT 50.825127 3.892593 25,000 109 441 -1600
2022-05-16 21:02:37 GMT 50.825127 3.892593 25,050 109 443 -1344
2022-05-16 21:02:34 GMT 50.827194 3.883296 25,125 109 446 -1664
2022-05-16 21:02:33 GMT 50.827881 3.880178 25,150 109 447 -1536
2022-05-16 21:02:31 GMT 50.829224 3.874207 25,175 109 448 -1536
2022-05-16 21:02:30 GMT 50.830032 3.870676 25,225 109 450 -1664
2022-05-16 21:02:29 GMT 50.830719 3.867559 25,250 109 451 -1408
2022-05-16 21:02:27 GMT 50.832111 3.861160 25,275 109 455 -1536
2022-05-16 21:02:26 GMT 50.832825 3.857909 25,325 109 455 -1536
2022-05-16 21:02:24 GMT 50.834484 3.850479 25,450 109 460 -2304
2022-05-16 21:02:22 GMT 50.835800 3.844324 25,450 109 460 -2304
2022-05-16 21:02:20 GMT 50.837219 3.837940 25,500 109 462 -2304
2022-05-16 21:02:19 GMT 50.838364 3.832892 25,575 109 463 -2112
2022-05-16 21:02:17 GMT 50.839142 3.829403 25,650 109 465 -2368
2022-05-16 21:02:15 GMT 50.840488 3.823166 25,675 109 466 -2496
2022-05-16 21:02:13 GMT 50.841888 3.816858 25,775 109 467 -2944
2022-05-16 21:02:12 GMT 50.842911 3.812180 25,825 109 467 -3008
2022-05-16 21:02:10 GMT 50.844307 3.806076 25,875 109 468 -2880
2022-05-16 21:02:09 GMT 50.845005 3.802872 25,975 109 469 -3456
2022-05-16 21:02:08 GMT 50.845688 3.799785 26,100 109 469 -3072
2022-05-16 21:02:06 GMT 50.847332 3.792496 26,100 109 470 -3392
2022-05-16 21:02:04 GMT 50.848389 3.787834 26,225 109 471 -3776
2022-05-16 21:02:03 GMT 50.849121 3.784567 26,300 109 472 -4160
2022-05-16 21:02:02 GMT 50.850174 3.779831 26,375 109 472 -4096
2022-05-16 21:02:00 GMT 50.851479 3.773956 26,500 109 471 -4416
2022-05-16 21:01:57 GMT 50.853943 3.762970 26,750 109 471 -4480
2022-05-16 21:01:54 GMT 50.855804 3.754501 26,950 109 469 -4864
2022-05-16 21:01:53 GMT 50.857956 3.745002 27,200 109 469 -5312
2022-05-16 21:01:51 GMT 50.857956 3.745002 27,200 109 468 -5120
2022-05-16 21:01:49 GMT 50.859467 3.738247 27,300 109 468 -5312
2022-05-16 21:01:47 GMT 50.860611 3.733050 27,700 109 466 -4928
2022-05-16 21:01:44 GMT 50.863266 3.721173 28,775 109 465 -4608
2022-05-16 21:01:41 GMT 50.865463 3.711226 28,200 109 465 -4864
2022-05-16 21:01:38 GMT 50.867306 3.703079 28,850 109 464 -4672
2022-05-16 21:01:35 GMT 50.869213 3.694458 28,425 109 463 -4480
2022-05-16 21:01:32 GMT 50.871120 3.685837 28,850 109 462 -4672
2022-05-16 21:01:30 GMT 50.872845 3.678207 29,150 109 462 -3776
2022-05-16 21:01:27 GMT 50.875626 3.665648 29,175 109 464 -2880
2022-05-16 21:01:24 GMT 50.877136 3.658893 29,375 109 464 -2880
2022-05-16 21:01:21 GMT 50.879196 3.649688 29,550 109 464 -2816
2022-05-16 21:01:19 GMT 50.880291 3.644714 29,600 109 466 -2688
2022-05-16 21:01:16 GMT 50.882767 3.633654 29,600 109 467 -2688
2022-05-16 21:01:14 GMT 50.886063 3.618807 29,750 109 469 -3008
2022-05-16 21:01:11 GMT 50.886063 3.618807 29,825 109 468 -2880
2022-05-16 21:01:09 GMT 50.888260 3.609157 30,125 109 471 -2752
2022-05-16 21:01:06 GMT 50.889648 3.602829 30,125 109 471 -2816
2022-05-16 21:01:04 GMT 50.891838 3.593140 30,250 109 472 -2496
2022-05-16 21:01:01 GMT 50.893295 3.586739 30,300 109 473 -2560
2022-05-16 21:00:59 GMT 50.895470 3.577194 30,450 109 476 -2880
2022-05-16 21:00:56 GMT 50.897781 3.566845 30,550 109 476 -2816
2022-05-16 21:00:53 GMT 50.900116 3.556749 30,925 110 479 -2752
2022-05-16 21:00:50 GMT 50.901848 3.549347 30,775 110 478 -2880
2022-05-16 21:00:47 GMT 50.904266 3.538818 31,000 110 481 -2560
2022-05-16 21:00:44 GMT 50.906593 3.528976 31,300 110 484 -2304
2022-05-16 21:00:41 GMT 50.908539 3.520524 31,200 110 484 -2240
2022-05-16 21:00:39 GMT 50.910187 3.513547 31,250 110 484 -2304
2022-05-16 21:00:36 GMT 50.912842 3.502263 31,450 110 485 -2048
2022-05-16 21:00:33 GMT 50.915039 3.492984 31,600 110 486 -2048
2022-05-16 21:00:30 GMT 50.917557 3.482740 31,625 112 487 -1600
2022-05-16 21:00:27 GMT 50.920979 3.469009 31,675 112 487 -1408
2022-05-16 21:00:24 GMT 50.922283 3.464050 31,775 113 488 -2240
2022-05-16 21:00:21 GMT 50.925541 3.452225 32,200 118 489 -2752
2022-05-16 21:00:18 GMT 50.929077 3.440704 31,975 118 489 -2752
2022-05-16 21:00:15 GMT 50.931564 3.433228 32,050 118 489 -2944
2022-05-16 21:00:12 GMT 50.934853 3.424072 32,200 122 486 -3520
2022-05-16 21:00:10 GMT 50.937271 3.417740 32,400 122 485 -3840
2022-05-16 21:00:08 GMT 50.939880 3.411484 32,550 124 485 -3776
2022-05-16 21:00:05 GMT 50.943558 3.403015 32,675 125 483 -4032
2022-05-16 21:00:03 GMT 50.946213 3.397299 32,975 128 480 -3008
2022-05-16 21:00:00 GMT 50.949417 3.390841 32,975 128 480 -3008
2022-05-16 20:59:58 GMT 50.953903 3.382156 33,175 131 479 -2624
2022-05-16 20:59:55 GMT 50.956696 3.377182 33,325 137 478 -1792
2022-05-16 20:59:53 GMT 50.960407 3.370895 33,500 137 478 -1792
2022-05-16 20:59:50 GMT 50.964226 3.365097 33,375 137 478 -1984
2022-05-16 20:59:48 GMT 50.968918 3.358402 33,475 140 479 -1088
2022-05-16 20:59:45 GMT 50.973305 3.352814 33,550 144 480 -896
2022-05-16 20:59:42 GMT 50.978714 3.346450 33,600 146 480 -1152
2022-05-16 20:59:39 GMT 50.987408 3.337708 33,650 152 479 -1408
2022-05-16 20:59:34 GMT 50.996933 3.329897 33,775 160 479 -896
2022-05-16 20:59:32 GMT 50.996933 3.329897 33,775 156 480 -1216
2022-05-16 20:59:30 GMT 51.001095 3.326950 33,850 158 479 -1280
2022-05-16 20:59:28 GMT 51.006401 3.323593 33,800 159 479 -896
2022-05-16 20:59:25 GMT 51.012081 3.320541 33,875 168 476 -768
2022-05-16 20:59:23 GMT 51.018539 3.317574 33,875 169 477 -640
2022-05-16 20:59:20 GMT 51.023895 3.315570 33,975 170 476 -576
2022-05-16 20:59:17 GMT 51.028980 3.314056 33,925 170 476 -576
2022-05-16 20:59:15 GMT 51.033417 3.313046 33,950 175 474 -832
2022-05-16 20:59:13 GMT 51.037918 3.312302 33,975 175 474 -832
2022-05-16 20:59:11 GMT 51.043133 3.311691 34,000 178 473 -512
2022-05-16 20:59:09 GMT 51.046391 3.311539 34,000 178 473 -512
2022-05-16 20:59:06 GMT 51.059612 3.312225 34,025 184 469 -320
2022-05-16 20:59:03 GMT 51.059612 3.312225 34,050 187 467 -192
2022-05-16 20:59:01 GMT 51.064865 3.313120 34,050 208 447 128
2022-05-16 20:58:58 GMT 51.071228 3.314753 34,050 191 464 -256
2022-05-16 20:58:56 GMT 51.082283 3.319016 34,075 196 458 -320
2022-05-16 20:58:53 GMT 51.082283 3.319016 34,075 201 453 -128
2022-05-16 20:58:50 GMT 51.087498 3.321686 34,075 203 451 320
2022-05-16 20:58:47 GMT 51.092617 3.324738 34,075 204 451 384
2022-05-16 20:58:45 GMT 51.096725 3.327521 34,050 206 449 320
2022-05-16 20:58:43 GMT 51.100903 3.330688 34,050 207 447 192
2022-05-16 20:58:41 GMT 51.104095 3.333386 34,050 210 444 192
2022-05-16 20:58:39 GMT 51.108353 3.337246 34,025 216 440 -128
2022-05-16 20:58:36 GMT 51.113525 3.342590 34,025 217 439 -192
2022-05-16 20:58:33 GMT 51.119339 3.349494 34,025 221 437 -64
2022-05-16 20:58:30 GMT 51.123249 3.354797 34,025 223 434 -256
2022-05-16 20:58:28 GMT 51.126087 3.358917 34,025 225 432 320
2022-05-16 20:58:25 GMT 51.132885 3.370361 34,025 231 426 -128
2022-05-16 20:58:23 GMT 51.132885 3.370361 34,025 231 426 -128
2022-05-16 20:58:20 GMT 51.136005 3.376389 34,025 233 424 -192
2022-05-16 20:58:18 GMT 51.138931 3.382750 34,000 238 420 192
2022-05-16 20:58:15 GMT 51.142136 3.390544 34,000 241 416 64
2022-05-16 20:58:10 GMT 51.145981 3.401753 34,000 245 413 128
2022-05-16 20:58:08 GMT 51.147903 3.408360 34,000 248 410 192
2022-05-16 20:58:06 GMT 51.149643 3.415146 33,975 252 406 -64
2022-05-16 20:58:03 GMT 51.151459 3.423615 33,975 258 399 -192
2022-05-16 20:58:00 GMT 51.152763 3.431091 34,000 257 402 -128
2022-05-16 20:57:58 GMT 51.153580 3.436939 34,000 260 399 -64
2022-05-16 20:57:56 GMT 51.154018 3.441162 34,000 264 394 128
2022-05-16 20:57:53 GMT 51.154953 3.452231 34,025 265 392 0
2022-05-16 20:57:51 GMT 51.155228 3.456239 34,025 268 390 -128
2022-05-16 20:57:48 GMT 51.155640 3.465370 34,100 282 380 -1600
2022-05-16 20:57:45 GMT 51.155823 3.475094 34,050 272 385 -192
2022-05-16 20:57:42 GMT 51.155731 3.484151 34,050 274 384 0
2022-05-16 20:57:39 GMT 51.155510 3.491364 34,075 276 383 -384
2022-05-16 20:57:37 GMT 51.155228 3.497141 34,150 278 382 -1024
2022-05-16 20:57:34 GMT 51.154716 3.504257 34,150 278 382 -1024
2022-05-16 20:57:32 GMT 51.154301 3.508682 34,300 281 380 -1536
2022-05-16 20:57:29 GMT 51.152115 3.526092 34,275 284 380 -1920
2022-05-16 20:57:26 GMT 51.152115 3.526092 34,325 285 379 -1536
2022-05-16 20:57:23 GMT 51.148865 3.543907 34,425 293 374 -1664
2022-05-16 20:57:20 GMT 51.147594 3.549500 34,525 292 374 -1664
2022-05-16 20:57:18 GMT 51.147594 3.549500 34,600 291 374 -1728
2022-05-16 20:57:15 GMT 51.146618 3.553619 34,700 293 374 -1600
2022-05-16 20:57:12 GMT 51.143963 3.563385 34,700 296 372 -1408
2022-05-16 20:57:10 GMT 51.142456 3.568478 34,750 298 371 -1408
2022-05-16 20:57:08 GMT 51.140102 3.575592 34,800 299 371 -1664
2022-05-16 20:57:03 GMT 51.136642 3.585106 34,950 311 372 -1728
2022-05-16 20:57:00 GMT 51.132843 3.594237 35,000 311 372 -1728
2022-05-16 20:56:57 GMT 51.131393 3.597412 35,075 309 372 -1408
2022-05-16 20:56:54 GMT 51.127670 3.605270 35,125 310 372 -1536
2022-05-16 20:56:52 GMT 51.125565 3.609380 35,175 313 373 -1536
2022-05-16 20:56:49 GMT 51.122269 3.615319 35,225 314 374 -1664
2022-05-16 20:56:46 GMT 51.116364 3.624969 35,350 318 375 -1600
2022-05-16 20:56:44 GMT 51.116364 3.624969 35,350 318 375 -1600
2022-05-16 20:56:42 GMT 51.114487 3.627864 35,475 317 377 -1536
2022-05-16 20:56:39 GMT 51.109772 3.634767 35,475 318 376 -1472
2022-05-16 20:56:37 GMT 51.103603 3.643875 35,550 317 377 -1280
2022-05-16 20:56:34 GMT 51.103603 3.643875 35,650 316 376 -1792
2022-05-16 20:56:32 GMT 51.101440 3.647312 35,750 313 377 -1408
2022-05-16 20:56:29 GMT 51.097271 3.654175 35,775 312 376 -1344
2022-05-16 20:56:26 GMT 51.094852 3.658524 35,800 311 376 -1472
2022-05-16 20:56:24 GMT 51.091545 3.664932 35,850 308 375 -576
2022-05-16 20:56:21 GMT 51.088383 3.671494 35,950 303 373 64
2022-05-16 20:56:18 GMT 51.084183 3.681014 35,925 305 374 -448
2022-05-16 20:56:16 GMT 51.084183 3.681014 35,925 304 374 -384
2022-05-16 20:56:14 GMT 51.082169 3.686136 35,950 301 373 -448
2022-05-16 20:56:12 GMT 51.079491 3.693314 35,950 300 372 -320
2022-05-16 20:56:09 GMT 51.075943 3.704100 35,950 297 372 256
2022-05-16 20:56:07 GMT 51.075943 3.704100 35,950 297 372 128
2022-05-16 20:56:05 GMT 51.074741 3.708191 35,950 293 373 -192
2022-05-16 20:56:02 GMT 51.072227 3.717194 35,950 291 373 -64
2022-05-16 20:55:59 GMT 51.070786 3.723068 35,950 291 373 -64
2022-05-16 20:55:57 GMT 51.069214 3.729561 35,950 291 373 256
2022-05-16 20:55:55 GMT 51.067989 3.734589 35,975 292 376 -64
2022-05-16 20:55:52 GMT 51.066330 3.741587 35,975 291 374 128
2022-05-16 20:55:50 GMT 51.065140 3.746486 35,975 291 373 -64
2022-05-16 20:55:47 GMT 51.063034 3.755171 35,975 291 374 -64
2022-05-16 20:55:45 GMT 51.062119 3.759032 35,975 291 374 -192
2022-05-16 20:55:42 GMT 51.060310 3.766556 35,975 291 374 128
2022-05-16 20:55:39 GMT 51.058399 3.774490 35,975 291 374 -256
2022-05-16 20:55:37 GMT 51.056900 3.780782 35,975 291 374 0
2022-05-16 20:55:35 GMT 51.056305 3.783188 35,975 291 374 -64
2022-05-16 20:55:32 GMT 51.053650 3.794143 35,975 291 374 -128
2022-05-16 20:55:29 GMT 51.052048 3.800824 35,975 292 376 -384
2022-05-16 20:55:27 GMT 51.049164 3.812553 35,975 292 376 -64
2022-05-16 20:55:25 GMT 51.049164 3.812553 36,000 292 376 -192
2022-05-16 20:55:22 GMT 51.047600 3.819122 36,000 292 376 0
2022-05-16 20:55:19 GMT 51.045868 3.826211 36,000 292 376 -192
2022-05-16 20:55:17 GMT 51.043270 3.836899 36,000 292 376 128
2022-05-16 20:55:14 GMT 51.043270 3.836899 36,000 292 376 -64
2022-05-16 20:55:11 GMT 51.041382 3.844695 36,000 292 376 -64
2022-05-16 20:55:08 GMT 51.038040 3.858354 36,000 292 377 0
2022-05-16 20:55:04 GMT 51.036209 3.865777 36,000 292 377 0
2022-05-16 20:55:01 GMT 51.032333 3.881607 36,000 292 379 256
2022-05-16 20:54:58 GMT 51.032333 3.881607 36,000 292 378 0
2022-05-16 20:54:56 GMT 51.031448 3.885077 36,000 292 378 256
2022-05-16 20:54:53 GMT 51.029617 3.892575 36,000 292 379 64
2022-05-16 20:54:50 GMT 51.027630 3.900681 36,000 292 379 -192
2022-05-16 20:54:47 GMT 51.026001 3.907273 36,000 292 379 128
2022-05-16 20:54:45 GMT 51.024719 3.912469 36,000 292 379 0
2022-05-16 20:54:43 GMT 51.023163 3.918927 36,000 292 379 192
2022-05-16 20:54:41 GMT 51.021671 3.925018 36,000 292 380 0
2022-05-16 20:54:38 GMT 51.020050 3.931621 36,000 292 380 0
2022-05-16 20:54:36 GMT 51.016525 3.945948 36,000 292 381 -64
2022-05-16 20:54:33 GMT 51.014877 3.952703 36,000 292 380 64
2022-05-16 20:54:30 GMT 51.014877 3.952703 35,975 292 381 -64
2022-05-16 20:54:27 GMT 51.013229 3.959458 36,000 292 381 -192
2022-05-16 20:54:25 GMT 51.011856 3.965174 35,975 292 381 -64
2022-05-16 20:54:22 GMT 51.007847 3.981476 35,975 292 382 64
2022-05-16 20:54:19 GMT 51.006264 3.987961 35,975 292 383 -128
2022-05-16 20:54:17 GMT 51.006264 3.987961 35,975 292 383 0
2022-05-16 20:54:15 GMT 51.004578 3.994941 35,975 292 383 -384
2022-05-16 20:54:12 GMT 51.003342 3.999914 35,975 292 384 -256
2022-05-16 20:54:09 GMT 51.001556 4.007189 35,975 292 384 192
2022-05-16 20:54:06 GMT 50.999512 4.015427 35,975 292 384 192
2022-05-16 20:54:03 GMT 50.997528 4.023446 35,975 292 384 -128
2022-05-16 20:54:01 GMT 50.996208 4.028778 35,975 292 384 192
2022-05-16 20:53:57 GMT 50.993958 4.038069 35,975 292 384 -64
2022-05-16 20:53:55 GMT 50.991943 4.046235 35,975 292 384 128
2022-05-16 20:53:52 GMT 50.990341 4.052658 35,975 292 386 128
2022-05-16 20:53:49 GMT 50.988464 4.060413 35,975 292 385 64
2022-05-16 20:53:47 GMT 50.987549 4.064051 35,975 292 385 64
2022-05-16 20:53:45 GMT 50.983841 4.079045 35,975 292 385 -192
2022-05-16 20:53:42 GMT 50.981964 4.086533 35,975 292 386 128
2022-05-16 20:53:39 GMT 50.980427 4.092789 36,000 292 386 -192
2022-05-16 20:53:36 GMT 50.980427 4.092789 36,000 292 386 128
2022-05-16 20:53:34 GMT 50.978439 4.100870 36,000 292 386 -64
2022-05-16 20:53:31 GMT 50.976746 4.107699 36,000 292 386 -256
2022-05-16 20:53:28 GMT 50.974869 4.115345 36,000 292 386 -256
2022-05-16 20:53:26 GMT 50.973583 4.120483 36,000 292 387 64
2022-05-16 20:53:24 GMT 50.972046 4.126511 36,000 292 387 -64
2022-05-16 20:53:21 GMT 50.970371 4.133377 36,000 292 387 -128
2022-05-16 20:53:18 GMT 50.968414 4.141312 36,000 292 387 -256
2022-05-16 20:53:15 GMT 50.965996 4.151077 36,025 292 388 -64
2022-05-16 20:53:12 GMT 50.964272 4.157944 36,025 292 388 -128
2022-05-16 20:53:09 GMT 50.962555 4.164932 36,025 292 388 -192
2022-05-16 20:53:07 GMT 50.961502 4.169163 36,025 292 388 -128
2022-05-16 20:53:05 GMT 50.959213 4.178442 36,025 292 389 -256
2022-05-16 20:53:02 GMT 50.958130 4.182816 36,025 292 389 -192
2022-05-16 20:53:00 GMT 50.956684 4.188690 36,050 292 390 0
2022-05-16 20:52:57 GMT 50.955048 4.195441 36,050 292 390 -320
2022-05-16 20:52:55 GMT 50.953079 4.203458 36,050 292 389 128
2022-05-16 20:52:52 GMT 50.951294 4.210881 36,050 291 390 64
2022-05-16 20:52:49 GMT 50.949554 4.218082 36,050 291 390 128
2022-05-16 20:52:47 GMT 50.947048 4.228363 36,050 291 391 -64
2022-05-16 20:52:45 GMT 50.947048 4.228363 36,050 291 392 128
2022-05-16 20:52:42 GMT 50.944443 4.239349 36,050 291 393 -128
2022-05-16 20:52:39 GMT 50.940998 4.253845 36,050 291 393 0
2022-05-16 20:52:36 GMT 50.939941 4.258316 36,025 291 392 64
2022-05-16 20:52:34 GMT 50.939941 4.258316 36,025 291 393 320
2022-05-16 20:52:31 GMT 50.937504 4.268646 36,025 291 394 -64
2022-05-16 20:52:28 GMT 50.936249 4.274063 36,025 291 394 -64
2022-05-16 20:52:26 GMT 50.934711 4.280548 36,025 294 394 0
2022-05-16 20:52:23 GMT 50.933029 4.287711 36,025 295 395 -64
2022-05-16 20:52:20 GMT 50.930943 4.296112 36,025 294 394 0
2022-05-16 20:52:17 GMT 50.928955 4.303449 36,025 297 395 -128
2022-05-16 20:52:15 GMT 50.924789 4.316885 36,025 305 394 -448
2022-05-16 20:52:12 GMT 50.922981 4.322052 36,025 300 393 -128
2022-05-16 20:52:10 GMT 50.922981 4.322052 36,025 303 395 -320
2022-05-16 20:52:07 GMT 50.920120 4.329578 36,025 303 395 -128
2022-05-16 20:52:05 GMT 50.917580 4.335785 36,025 307 395 -64
2022-05-16 20:52:02 GMT 50.915115 4.341431 36,025 307 394 192
2022-05-16 20:51:59 GMT 50.911469 4.349250 36,025 307 395 256
2022-05-16 20:51:56 GMT 50.908039 4.356537 36,025 307 395 -320
2022-05-16 20:51:53 GMT 50.905334 4.362166 36,025 307 395 0
2022-05-16 20:51:50 GMT 50.901985 4.369202 36,025 307 395 128
2022-05-16 20:51:47 GMT 50.898422 4.376716 36,025 308 396 320
2022-05-16 20:51:45 GMT 50.896820 4.380035 36,025 308 397 128
2022-05-16 20:51:43 GMT 50.894165 4.385605 36,000 308 396 256
2022-05-16 20:51:41 GMT 50.890915 4.392379 36,025 308 397 320
2022-05-16 20:51:38 GMT 50.889324 4.395752 36,025 308 397 -64
2022-05-16 20:51:36 GMT 50.886345 4.402008 36,025 308 397 0
2022-05-16 20:51:34 GMT 50.884018 4.406815 36,025 308 397 128
2022-05-16 20:51:31 GMT 50.880432 4.414351 36,025 308 397 -128
2022-05-16 20:51:28 GMT 50.878235 4.419028 36,025 308 397 128
2022-05-16 20:51:26 GMT 50.875580 4.424521 36,025 308 397 -192
2022-05-16 20:51:24 GMT 50.873775 4.428329 36,050 308 397 384
2022-05-16 20:51:21 GMT 50.870422 4.435272 36,025 308 397 0
2022-05-16 20:51:18 GMT 50.867294 4.441891 36,050 308 397 -128
2022-05-16 20:51:16 GMT 50.864140 4.448471 36,025 308 397 -448
2022-05-16 20:51:14 GMT 50.862465 4.451981 36,025 308 398 0
2022-05-16 20:51:11 GMT 50.858040 4.461212 36,025 308 397 192
2022-05-16 20:51:08 GMT 50.856274 4.464951 36,025 308 399 -256
2022-05-16 20:51:06 GMT 50.853333 4.471064 36,025 308 398 -128
2022-05-16 20:51:02 GMT 50.848034 4.482040 36,025 308 399 -64
2022-05-16 20:50:59 GMT 50.845703 4.486923 36,025 308 399 -64
2022-05-16 20:50:56 GMT 50.841839 4.495087 36,025 308 399 320
2022-05-16 20:50:54 GMT 50.839931 4.498978 36,025 308 399 64
2022-05-16 20:50:51 GMT 50.836853 4.505360 36,025 308 399 192
2022-05-16 20:50:48 GMT 50.830948 4.517822 36,025 308 399 128
2022-05-16 20:50:46 GMT 50.830948 4.517822 36,000 308 399 576
2022-05-16 20:50:44 GMT 50.829300 4.521245 36,025 308 399 -320
2022-05-16 20:50:41 GMT 50.825268 4.529724 36,000 308 399 -64
2022-05-16 20:50:38 GMT 50.822475 4.535522 36,000 308 399 384
2022-05-16 20:50:36 GMT 50.819870 4.540991 36,000 308 399 128
2022-05-16 20:50:34 GMT 50.817028 4.546890 36,000 308 399 256
2022-05-16 20:50:31 GMT 50.814095 4.552994 36,000 308 399 128
2022-05-16 20:50:28 GMT 50.811401 4.558658 36,000 308 401 -512
2022-05-16 20:50:25 GMT 50.807529 4.566727 36,000 308 400 512
2022-05-16 20:50:23 GMT 50.802643 4.576950 36,000 308 400 -256
2022-05-16 20:50:20 GMT 50.802643 4.576950 36,000 308 401 -128
2022-05-16 20:50:18 GMT 50.799850 4.582748 36,000 308 400 192
2022-05-16 20:50:16 GMT 50.797577 4.587534 36,000 308 401 -448
2022-05-16 20:50:14 GMT 50.794647 4.593547 36,000 308 400 64
2022-05-16 20:50:11 GMT 50.791237 4.600601 36,000 308 400 128
2022-05-16 20:50:08 GMT 50.788773 4.605713 36,000 308 401 128
2022-05-16 20:50:05 GMT 50.785652 4.612274 36,000 308 401 64
2022-05-16 20:50:03 GMT 50.782253 4.619217 36,000 308 401 128
2022-05-16 20:50:00 GMT 50.779926 4.624100 36,000 308 401 -320
2022-05-16 20:49:58 GMT 50.777069 4.629995 36,000 308 401 -128
2022-05-16 20:49:55 GMT 50.774292 4.635696 36,000 308 401 -192
2022-05-16 20:49:53 GMT 50.772152 4.640045 36,000 308 400 576
2022-05-16 20:49:50 GMT 50.768940 4.646835 36,000 308 400 -192
2022-05-16 20:49:48 GMT 50.762604 4.659910 36,000 308 400 128
2022-05-16 20:49:45 GMT 50.762604 4.659910 36,000 308 400 -256
2022-05-16 20:49:42 GMT 50.757397 4.670639 36,000 308 400 -192
2022-05-16 20:49:40 GMT 50.755096 4.675425 35,975 308 400 0
2022-05-16 20:49:38 GMT 50.755096 4.675425 35,975 308 400 -192
2022-05-16 20:49:36 GMT 50.749054 4.687970 35,975 308 400 -64
2022-05-16 20:49:33 GMT 50.749054 4.687970 35,975 308 400 320
2022-05-16 20:49:30 GMT 50.745758 4.694824 35,975 308 400 320
2022-05-16 20:49:28 GMT 50.743332 4.699773 36,000 308 401 -384
2022-05-16 20:49:25 GMT 50.740540 4.705563 36,000 308 400 128
2022-05-16 20:49:23 GMT 50.738354 4.710083 36,000 308 400 -448
2022-05-16 20:49:20 GMT 50.734589 4.717886 36,000 308 400 -448
2022-05-16 20:49:18 GMT 50.732395 4.722366 36,000 308 400 -128
2022-05-16 20:49:15 GMT 50.725525 4.736592 36,000 308 399 256
2022-05-16 20:49:12 GMT 50.725525 4.736592 36,000 308 399 -128
2022-05-16 20:49:10 GMT 50.723511 4.740749 36,000 308 399 256
2022-05-16 20:49:07 GMT 50.720757 4.746399 36,000 308 399 128
2022-05-16 20:49:05 GMT 50.717964 4.752197 36,000 308 400 -128
2022-05-16 20:49:03 GMT 50.715225 4.757897 36,000 308 399 -256
2022-05-16 20:49:00 GMT 50.712891 4.762722 36,000 308 400 192
2022-05-16 20:48:58 GMT 50.707676 4.773483 36,000 308 400 128
2022-05-16 20:48:55 GMT 50.707676 4.773483 36,000 308 400 128
2022-05-16 20:48:53 GMT 50.703953 4.781113 35,975 308 400 64
2022-05-16 20:48:50 GMT 50.701065 4.787064 36,000 308 400 -128
2022-05-16 20:48:47 GMT 50.697018 4.795456 36,000 308 400 0
2022-05-16 20:48:44 GMT 50.695248 4.799118 36,000 308 400 256
2022-05-16 20:48:42 GMT 50.691757 4.806290 36,000 308 400 0
2022-05-16 20:48:39 GMT 50.689453 4.811047 36,000 308 401 128
2022-05-16 20:48:37 GMT 50.687347 4.815426 36,000 308 401 -64
2022-05-16 20:48:35 GMT 50.684029 4.822235 36,000 308 400 64
2022-05-16 20:48:33 GMT 50.681625 4.827229 36,000 308 399 0
2022-05-16 20:48:30 GMT 50.679466 4.831772 36,000 308 399 64
2022-05-16 20:48:28 GMT 50.676208 4.838486 36,000 308 399 -320
2022-05-16 20:48:25 GMT 50.672714 4.845657 36,000 308 399 64
2022-05-16 20:48:23 GMT 50.667686 4.856031 36,000 308 400 -128
2022-05-16 20:48:20 GMT 50.667686 4.856031 36,000 308 400 -128
2022-05-16 20:48:17 GMT 50.664276 4.863113 35,975 308 400 128
2022-05-16 20:48:14 GMT 50.661118 4.869545 36,000 308 400 128
2022-05-16 20:48:12 GMT 50.658283 4.875406 35,975 308 400 128
2022-05-16 20:48:09 GMT 50.653770 4.884685 35,975 308 400 128
2022-05-16 20:48:07 GMT 50.650314 4.891663 35,975 308 400 -64
2022-05-16 20:48:05 GMT 50.647903 4.896636 35,975 308 400 64
2022-05-16 20:48:02 GMT 50.647903 4.896636 35,975 308 401 -256
2022-05-16 20:47:59 GMT 50.644501 4.903661 35,975 308 400 64
2022-05-16 20:47:56 GMT 50.640594 4.911705 35,975 308 400 64
2022-05-16 20:47:54 GMT 50.639511 4.913852 35,975 308 400 64
2022-05-16 20:47:52 GMT 50.636032 4.921008 35,975 308 401 -128
2022-05-16 20:47:49 GMT 50.632553 4.928163 35,975 308 401 -128
2022-05-16 20:47:46 GMT 50.630402 4.932572 35,975 308 401 320
2022-05-16 20:47:44 GMT 50.626770 4.940136 35,975 308 401 64
2022-05-16 20:47:41 GMT 50.623741 4.946372 35,975 308 401 0
2022-05-16 20:47:39 GMT 50.621429 4.951076 36,000 308 401 -128
2022-05-16 20:47:36 GMT 50.618042 4.958014 35,975 308 401 192
2022-05-16 20:47:33 GMT 50.614655 4.964953 35,975 308 401 -512
2022-05-16 20:47:30 GMT 50.610008 4.974580 35,975 308 401 128
2022-05-16 20:47:27 GMT 50.608841 4.976951 35,975 308 401 64
2022-05-16 20:47:25 GMT 50.605633 4.983562 35,975 308 401 192
2022-05-16 20:47:23 GMT 50.602844 4.989239 36,000 308 401 768
2022-05-16 20:47:20 GMT 50.599915 4.995238 36,000 308 401 -64
2022-05-16 20:47:17 GMT 50.596928 5.001377 36,000 308 401 -64
2022-05-16 20:47:14 GMT 50.593761 5.007836 36,000 308 401 -64
2022-05-16 20:47:12 GMT 50.591583 5.012368 36,000 308 401 64
2022-05-16 20:47:09 GMT 50.588333 5.019090 36,000 308 401 320
2022-05-16 20:47:07 GMT 50.585243 5.025429 36,025 308 401 -128
2022-05-16 20:47:03 GMT 50.578766 5.038749 36,025 308 401 64
2022-05-16 20:47:00 GMT 50.577301 5.041785 36,025 308 401 -192
2022-05-16 20:46:57 GMT 50.573746 5.049034 36,025 308 402 -448
2022-05-16 20:46:54 GMT 50.570999 5.054602 36,025 308 402 0
2022-05-16 20:46:51 GMT 50.568008 5.060722 36,025 308 402 64
2022-05-16 20:46:48 GMT 50.564529 5.067878 36,025 308 402 -384
2022-05-16 20:46:46 GMT 50.560913 5.075250 36,025 308 402 -128
2022-05-16 20:46:43 GMT 50.558990 5.079153 36,000 308 406 0
2022-05-16 20:46:41 GMT 50.556702 5.083779 36,025 308 402 64
2022-05-16 20:46:38 GMT 50.552006 5.093351 36,025 308 402 0
2022-05-16 20:46:35 GMT 50.546631 5.104378 36,025 308 402 256
2022-05-16 20:46:32 GMT 50.543301 5.111166 36,025 308 402 -64
2022-05-16 20:46:29 GMT 50.543301 5.111166 36,025 308 402 -192
2022-05-16 20:46:27 GMT 50.539490 5.118906 36,025 308 402 0
2022-05-16 20:46:24 GMT 50.537018 5.123860 36,025 308 403 0
2022-05-16 20:46:22 GMT 50.534821 5.128375 36,025 308 404 64
2022-05-16 20:46:19 GMT 50.531525 5.135096 36,025 308 404 192
2022-05-16 20:46:17 GMT 50.528549 5.141168 36,025 308 404 192
2022-05-16 20:46:14 GMT 50.525116 5.148107 36,025 308 404 192
2022-05-16 20:46:11 GMT 50.519932 5.158601 36,025 308 404 0
2022-05-16 20:46:07 GMT 50.517838 5.162924 36,025 308 404 -64
2022-05-16 20:46:05 GMT 50.514999 5.168706 36,025 308 404 320
2022-05-16 20:46:03 GMT 50.513260 5.172175 36,025 308 404 -320
2022-05-16 20:46:00 GMT 50.506302 5.186342 36,025 308 405 0
2022-05-16 20:45:57 GMT 50.506302 5.186342 36,025 308 405 0
2022-05-16 20:45:54 GMT 50.501778 5.195494 36,025 308 405 -128
2022-05-16 20:45:51 GMT 50.499264 5.200616 36,025 308 405 -128
2022-05-16 20:45:48 GMT 50.495819 5.207594 36,025 308 405 128
2022-05-16 20:45:46 GMT 50.494236 5.210786 36,025 308 405 -64
2022-05-16 20:45:44 GMT 50.491196 5.216988 36,025 308 405 -128
2022-05-16 20:45:42 GMT 50.489532 5.220287 36,025 308 405 128
2022-05-16 20:45:40 GMT 50.486599 5.226374 36,025 308 405 -128
2022-05-16 20:45:37 GMT 50.482830 5.234020 36,025 308 405 -256
2022-05-16 20:45:34 GMT 50.475311 5.249224 36,025 308 405 128
2022-05-16 20:45:31 GMT 50.475311 5.249224 36,025 308 405 128
2022-05-16 20:45:28 GMT 50.471287 5.257478 36,000 308 406 -64
2022-05-16 20:45:24 GMT 50.468353 5.263391 36,000 308 405 -128
2022-05-16 20:45:22 GMT 50.462486 5.275368 36,000 308 405 -128
2022-05-16 20:45:19 GMT 50.462486 5.275368 36,000 308 405 128
2022-05-16 20:45:16 GMT 50.457596 5.285219 36,000 308 406 64
2022-05-16 20:45:14 GMT 50.457596 5.285219 36,000 308 406 128
2022-05-16 20:45:12 GMT 50.450500 5.299675 36,000 308 406 0
2022-05-16 20:45:09 GMT 50.450500 5.299675 36,000 308 406 64
2022-05-16 20:45:06 GMT 50.447266 5.306248 36,000 308 406 128
2022-05-16 20:45:03 GMT 50.444412 5.311962 36,000 308 406 -128
2022-05-16 20:45:00 GMT 50.437954 5.325103 36,000 308 406 -128
2022-05-16 20:44:57 GMT 50.437954 5.325103 36,000 308 406 128
2022-05-16 20:44:55 GMT 50.435120 5.330754 36,000 308 406 -128
2022-05-16 20:44:53 GMT 50.432411 5.336238 36,000 308 406 -64
2022-05-16 20:44:50 GMT 50.428574 5.343981 36,000 308 406 -128
2022-05-16 20:44:47 GMT 50.425663 5.349896 36,000 308 406 64
2022-05-16 20:44:43 GMT 50.422165 5.356991 36,000 308 406 128
2022-05-16 20:44:41 GMT 50.418541 5.364297 36,000 308 406 0
2022-05-16 20:44:38 GMT 50.416119 5.369197 36,000 308 405 128
2022-05-16 20:44:36 GMT 50.413002 5.375432 36,000 308 406 -192
2022-05-16 20:44:33 GMT 50.410023 5.381445 36,000 308 406 -64
2022-05-16 20:44:30 GMT 50.402061 5.397479 36,000 308 406 64
2022-05-16 20:44:27 GMT 50.402061 5.397479 36,000 308 406 -64
2022-05-16 20:44:24 GMT 50.399780 5.402081 36,000 308 406 -128
2022-05-16 20:44:22 GMT 50.397079 5.407514 36,000 308 406 0
2022-05-16 20:44:19 GMT 50.394241 5.413216 36,000 308 406 64
2022-05-16 20:44:16 GMT 50.387192 5.427463 36,000 308 405 -64
2022-05-16 20:44:13 GMT 50.387192 5.427463 36,000 308 405 64
2022-05-16 20:44:11 GMT 50.384464 5.432888 36,000 308 405 0
2022-05-16 20:44:08 GMT 50.374649 5.452616 36,000 308 405 -64
2022-05-16 20:44:05 GMT 50.374649 5.452616 36,000 308 405 -128
2022-05-16 20:44:01 GMT 50.373367 5.455146 36,000 308 405 -64
2022-05-16 20:43:58 GMT 50.367241 5.467554 36,000 308 405 0
2022-05-16 20:43:56 GMT 50.367241 5.467554 36,000 308 405 0
2022-05-16 20:43:53 GMT 50.363846 5.474372 36,000 308 405 -128
2022-05-16 20:43:51 GMT 50.362072 5.477947 36,000 308 404 -128
2022-05-16 20:43:48 GMT 50.354553 5.493020 36,000 308 404 -256
2022-05-16 20:43:45 GMT 50.354553 5.493020 36,000 308 404 0
2022-05-16 20:43:41 GMT 50.347549 5.507042 36,000 308 404 0
2022-05-16 20:43:38 GMT 50.346336 5.509495 36,000 308 405 128
2022-05-16 20:43:36 GMT 50.343918 5.514320 36,000 308 405 128
2022-05-16 20:43:33 GMT 50.341030 5.520110 36,000 308 405 128
2022-05-16 20:43:31 GMT 50.338749 5.524713 36,000 308 405 0
2022-05-16 20:43:28 GMT 50.334915 5.532411 36,000 308 405 -128
2022-05-16 20:43:25 GMT 50.331436 5.539350 36,000 308 405 128
2022-05-16 20:43:22 GMT 50.329113 5.544087 36,000 308 405 -64
2022-05-16 20:43:19 GMT 50.325027 5.552288 36,000 308 405 256
2022-05-16 20:43:16 GMT 50.320923 5.560418 36,000 308 405 256
2022-05-16 20:43:13 GMT 50.318436 5.565370 36,025 308 405 -64
2022-05-16 20:43:11 GMT 50.312309 5.577714 36,025 308 405 -128
2022-05-16 20:43:09 GMT 50.312309 5.577714 36,025 308 406 -64
2022-05-16 20:43:05 GMT 50.308914 5.584524 36,025 308 405 -128
2022-05-16 20:43:02 GMT 50.305141 5.592041 36,025 308 406 -64
2022-05-16 20:42:59 GMT 50.301773 5.598835 36,025 308 405 -128
2022-05-16 20:42:56 GMT 50.298576 5.605106 36,025 308 405 0
2022-05-16 20:42:53 GMT 50.292664 5.616977 36,025 308 406 -128
2022-05-16 20:42:51 GMT 50.292664 5.616977 36,025 308 406 -64
2022-05-16 20:42:48 GMT 50.289185 5.623916 36,025 308 406 192
2022-05-16 20:42:45 GMT 50.285912 5.630493 36,025 308 406 64
2022-05-16 20:42:42 GMT 50.282639 5.637071 36,025 308 406 64
2022-05-16 20:42:40 GMT 50.279118 5.644078 36,025 308 406 64
2022-05-16 20:42:37 GMT 50.276871 5.648563 36,025 308 406 -128
2022-05-16 20:42:35 GMT 50.275066 5.652169 36,025 308 406 192
2022-05-16 20:42:33 GMT 50.272087 5.658107 36,025 308 406 -128
2022-05-16 20:42:29 GMT 50.267105 5.668055 36,025 308 406 -128
2022-05-16 20:42:26 GMT 50.264053 5.674149 36,025 308 406 0
2022-05-16 20:42:24 GMT 50.261707 5.678892 36,025 308 406 64
2022-05-16 20:42:21 GMT 50.258194 5.685931 36,025 308 406 64
2022-05-16 20:42:18 GMT 50.255005 5.692254 36,025 308 406 192
2022-05-16 20:42:15 GMT 50.244762 5.712816 36,025 308 406 -128
2022-05-16 20:42:12 GMT 50.244762 5.712816 36,025 308 406 -128
2022-05-16 20:42:07 GMT 50.242264 5.717733 36,025 308 406 -64
2022-05-16 20:42:05 GMT 50.236660 5.728925 36,025 309 406 -128
2022-05-16 20:42:03 GMT 50.236660 5.728925 36,025 308 406 -128
2022-05-16 20:42:00 GMT 50.232559 5.737104 36,025 309 407 256
2022-05-16 20:41:57 GMT 50.230270 5.741730 36,025 309 407 256
2022-05-16 20:41:55 GMT 50.228394 5.745416 36,025 309 407 -192
2022-05-16 20:41:53 GMT 50.217712 5.766783 36,025 309 407 128
2022-05-16 20:41:49 GMT 50.217712 5.766783 36,025 309 407 64
2022-05-16 20:41:42 GMT 50.213524 5.775097 36,025 308 406 256
2022-05-16 20:41:40 GMT 50.210545 5.781036 36,025 308 406 192
2022-05-16 20:41:37 GMT 50.207520 5.787048 36,025 308 406 -64
2022-05-16 20:41:35 GMT 50.203995 5.794059 36,025 309 406 64
2022-05-16 20:41:32 GMT 50.201283 5.799519 36,025 309 406 384
2022-05-16 20:41:29 GMT 50.197769 5.806564 36,025 309 406 -256
2022-05-16 20:41:26 GMT 50.195370 5.811248 36,025 309 406 384
2022-05-16 20:41:24 GMT 50.192459 5.817116 36,025 309 406 192
2022-05-16 20:41:22 GMT 50.190125 5.821742 36,025 309 406 64
2022-05-16 20:41:19 GMT 50.186337 5.829212 36,025 309 406 -64
2022-05-16 20:41:16 GMT 50.183990 5.833885 36,025 309 406 128
2022-05-16 20:41:13 GMT 50.179138 5.843570 36,025 309 406 -192
2022-05-16 20:41:10 GMT 50.176117 5.849569 36,025 309 406 128
2022-05-16 20:41:07 GMT 50.169674 5.862320 36,025 309 406 0
2022-05-16 20:41:04 GMT 50.169674 5.862320 36,025 309 406 64
2022-05-16 20:41:02 GMT 50.164597 5.872415 36,000 309 406 -64
2022-05-16 20:40:57 GMT 50.159454 5.882673 36,000 309 406 320
2022-05-16 20:40:54 GMT 50.155800 5.889860 36,000 309 407 -256
2022-05-16 20:40:52 GMT 50.155800 5.889860 36,000 309 407 -256
2022-05-16 20:40:50 GMT 50.152359 5.896695 36,000 309 407 256
2022-05-16 20:40:47 GMT 50.148972 5.903344 36,000 309 407 256
2022-05-16 20:40:43 GMT 50.141418 5.918234 36,000 309 406 192
2022-05-16 20:40:39 GMT 50.136948 5.927050 36,000 309 406 64
2022-05-16 20:40:36 GMT 50.134151 5.932617 36,000 309 406 64
2022-05-16 20:40:34 GMT 50.134151 5.932617 36,000 309 406 64
2022-05-16 20:40:31 GMT 50.131210 5.938399 36,000 309 405 -64
2022-05-16 20:40:28 GMT 50.125305 5.950109 36,000 309 405 -64
2022-05-16 20:40:26 GMT 50.122833 5.954879 36,000 309 405 -64
2022-05-16 20:40:24 GMT 50.120499 5.959433 36,000 309 405 128
2022-05-16 20:40:22 GMT 50.120499 5.959433 36,000 309 405 0
2022-05-16 20:40:19 GMT 50.116741 5.966912 35,975 309 405 -128
2022-05-16 20:40:16 GMT 50.113083 5.974105 35,975 309 405 0
2022-05-16 20:40:12 GMT 50.108871 5.982272 35,975 309 405 64
2022-05-16 20:40:10 GMT 50.106308 5.987332 35,975 309 405 64
2022-05-16 20:40:07 GMT 50.102829 5.994126 35,975 309 404 0
2022-05-16 20:40:04 GMT 50.098774 6.002024 35,975 309 405 -192
2022-05-16 20:40:01 GMT 50.095284 6.008853 35,975 309 405 -64
2022-05-16 20:39:58 GMT 50.091843 6.015593 35,975 309 404 0
2022-05-16 20:39:55 GMT 50.088959 6.021231 35,975 309 404 -64
2022-05-16 20:39:53 GMT 50.084202 6.030455 35,975 309 404 64
2022-05-16 20:39:51 GMT 50.084202 6.030455 35,975 309 404 64
2022-05-16 20:39:48 GMT 50.080078 6.038577 35,975 309 404 128
2022-05-16 20:39:45 GMT 50.075962 6.046637 35,975 309 404 192
2022-05-16 20:39:42 GMT 50.073868 6.050720 35,950 309 404 192
2022-05-16 20:39:40 GMT 50.065163 6.067794 35,950 309 404 -128
2022-05-16 20:39:37 GMT 50.065163 6.067794 35,950 309 404 128
2022-05-16 20:39:32 GMT 50.062134 6.073777 35,950 309 404 64
2022-05-16 20:39:30 GMT 50.059708 6.078547 35,975 309 403 64
2022-05-16 20:39:27 GMT 50.056503 6.084793 35,975 309 404 128
2022-05-16 20:39:24 GMT 50.052292 6.093148 35,975 309 403 -64
2022-05-16 20:39:21 GMT 50.048775 6.100010 35,975 309 403 -64
2022-05-16 20:39:18 GMT 50.046387 6.104712 35,975 309 403 64
2022-05-16 20:39:15 GMT 50.041698 6.113892 35,975 309 402 -192
2022-05-16 20:39:12 GMT 50.039513 6.118197 35,975 309 402 -64
2022-05-16 20:39:10 GMT 50.036819 6.123505 35,975 309 402 -192
2022-05-16 20:39:07 GMT 50.032654 6.131672 35,975 309 403 320
2022-05-16 20:39:04 GMT 50.027176 6.142471 35,975 309 403 -128
2022-05-16 20:39:00 GMT 50.025082 6.146554 35,975 309 403 -128
2022-05-16 20:38:57 GMT 50.021961 6.152641 35,975 309 403 -128
2022-05-16 20:38:54 GMT 50.018425 6.159693 35,975 309 403 -384
2022-05-16 20:38:51 GMT 50.014526 6.167305 35,975 309 403 0
2022-05-16 20:38:48 GMT 50.011780 6.172726 35,975 309 402 0
2022-05-16 20:38:45 GMT 50.008041 6.180106 35,975 309 403 -128
2022-05-16 20:38:43 GMT 50.005157 6.185822 35,975 309 402 -192
2022-05-16 20:38:40 GMT 50.001846 6.192241 35,975 309 402 256
2022-05-16 20:38:38 GMT 49.999100 6.197662 35,975 309 402 256
2022-05-16 20:38:35 GMT 49.995529 6.204673 35,975 309 402 -64
2022-05-16 20:38:32 GMT 49.992645 6.210383 35,975 309 402 -256
2022-05-16 20:38:30 GMT 49.990906 6.213780 35,975 309 402 128
2022-05-16 20:38:28 GMT 49.988251 6.218985 35,975 309 402 128
2022-05-16 20:38:25 GMT 49.984348 6.226576 35,975 309 403 128
2022-05-16 20:38:22 GMT 49.980808 6.233553 35,975 309 402 -64
2022-05-16 20:38:19 GMT 49.976028 6.242981 35,975 309 402 -128
2022-05-16 20:38:17 GMT 49.976028 6.242981 35,975 309 403 0
2022-05-16 20:38:14 GMT 49.972477 6.249885 35,975 309 402 192
2022-05-16 20:38:11 GMT 49.967468 6.259750 35,975 309 403 -320
2022-05-16 20:38:08 GMT 49.965076 6.264360 35,975 309 403 0
2022-05-16 20:38:05 GMT 49.957767 6.278612 36,000 309 403 -64
2022-05-16 20:38:02 GMT 49.957767 6.278612 35,975 309 403 -64
2022-05-16 20:38:00 GMT 49.955441 6.283140 36,000 309 403 -192
2022-05-16 20:37:57 GMT 49.952042 6.289817 36,000 309 404 0
2022-05-16 20:37:54 GMT 49.949249 6.295238 36,000 309 404 128
2022-05-16 20:37:52 GMT 49.943848 6.305707 36,000 309 404 128
2022-05-16 20:37:49 GMT 49.943848 6.305707 36,000 309 404 64
2022-05-16 20:37:46 GMT 49.940029 6.313204 36,000 309 404 0
2022-05-16 20:37:44 GMT 49.936935 6.319162 36,000 309 404 0
2022-05-16 20:37:41 GMT 49.934536 6.323820 36,000 309 404 192
2022-05-16 20:37:39 GMT 49.931652 6.329461 36,000 309 404 192
2022-05-16 20:37:37 GMT 49.929417 6.333767 36,000 309 404 64
2022-05-16 20:37:34 GMT 49.925972 6.340596 35,975 309 406 -64
2022-05-16 20:37:31 GMT 49.921921 6.348363 35,975 309 405 -64
2022-05-16 20:37:29 GMT 49.920246 6.351657 35,975 309 404 -64
2022-05-16 20:37:26 GMT 49.916058 6.359822 35,975 309 405 -128
2022-05-16 20:37:23 GMT 49.913029 6.365686 35,975 309 405 -64
2022-05-16 20:37:20 GMT 49.910004 6.371625 35,975 309 405 64
2022-05-16 20:37:17 GMT 49.904892 6.381467 35,975 309 405 -192
2022-05-16 20:37:14 GMT 49.902370 6.386323 35,975 309 405 -64
2022-05-16 20:37:11 GMT 49.898178 6.394488 35,975 309 406 256
2022-05-16 20:37:07 GMT 49.892395 6.405752 35,975 309 406 128
2022-05-16 20:37:05 GMT 49.892395 6.405752 35,975 309 406 64
2022-05-16 20:37:03 GMT 49.889057 6.412230 35,975 309 406 0
2022-05-16 20:37:00 GMT 49.886169 6.417823 35,975 309 407 128
2022-05-16 20:36:57 GMT 49.881271 6.427363 35,975 309 406 -64
2022-05-16 20:36:54 GMT 49.876022 6.437469 35,975 309 406 0
2022-05-16 20:36:52 GMT 49.876022 6.437469 35,975 309 406 0
2022-05-16 20:36:49 GMT 49.873535 6.442325 35,975 309 406 0
2022-05-16 20:36:47 GMT 49.871086 6.446970 35,975 309 406 0
2022-05-16 20:36:45 GMT 49.868683 6.451649 35,975 309 406 0
2022-05-16 20:36:43 GMT 49.866524 6.455878 35,975 309 407 -192
2022-05-16 20:36:40 GMT 49.860718 6.467117 35,975 309 408 -256
2022-05-16 20:36:37 GMT 49.855179 6.477741 35,975 309 407 -64
2022-05-16 20:36:34 GMT 49.853073 6.481861 35,975 309 408 -256
2022-05-16 20:36:32 GMT 49.853073 6.481861 35,975 309 408 -256
2022-05-16 20:36:29 GMT 49.848495 6.490752 35,975 309 408 -192
2022-05-16 20:36:26 GMT 49.845947 6.495592 35,975 309 408 -64
2022-05-16 20:36:23 GMT 49.842361 6.502533 35,975 309 408 256
2022-05-16 20:36:20 GMT 49.835632 6.515543 35,975 309 408 -64
2022-05-16 20:36:17 GMT 49.835632 6.515543 35,975 309 408 -128
2022-05-16 20:36:14 GMT 49.832108 6.522410 35,950 309 409 64
2022-05-16 20:36:12 GMT 49.828583 6.529204 35,975 309 409 64
2022-05-16 20:36:09 GMT 49.825516 6.535131 35,950 309 409 64
2022-05-16 20:36:06 GMT 49.822392 6.541245 35,950 309 409 64
2022-05-16 20:36:03 GMT 49.818623 6.548520 35,975 309 409 64
2022-05-16 20:36:00 GMT 49.815582 6.554357 35,950 309 409 128
2022-05-16 20:35:57 GMT 49.811966 6.561288 35,975 309 409 128
2022-05-16 20:35:54 GMT 49.808121 6.568740 35,975 309 409 -192
2022-05-16 20:35:52 GMT 49.802654 6.579326 35,975 309 409 64
2022-05-16 20:35:49 GMT 49.802654 6.579326 35,975 309 411 -64
2022-05-16 20:35:46 GMT 49.798096 6.588183 35,975 309 410 -448
2022-05-16 20:35:43 GMT 49.795624 6.592836 35,975 309 411 -64
2022-05-16 20:35:41 GMT 49.793198 6.597507 36,000 309 411 -384
2022-05-16 20:35:38 GMT 49.788574 6.606469 36,000 309 411 64
2022-05-16 20:35:35 GMT 49.783127 6.616950 36,000 309 411 -256
2022-05-16 20:35:32 GMT 49.783127 6.616950 36,000 309 411 0
2022-05-16 20:35:29 GMT 49.779556 6.623816 36,000 309 411 128
2022-05-16 20:35:26 GMT 49.775932 6.630843 36,025 309 410 64
2022-05-16 20:35:24 GMT 49.772629 6.637227 36,000 309 411 -128
2022-05-16 20:35:21 GMT 49.769043 6.644056 36,000 309 411 128
2022-05-16 20:35:18 GMT 49.762993 6.655711 36,000 309 411 128
2022-05-16 20:35:13 GMT 49.759781 6.661872 36,000 309 412 0
2022-05-16 20:35:10 GMT 49.755962 6.669221 36,000 309 412 -64
2022-05-16 20:35:07 GMT 49.752846 6.675159 36,000 309 416 -64
2022-05-16 20:35:04 GMT 49.748562 6.683473 36,000 309 414 -128
2022-05-16 20:35:02 GMT 49.746597 6.687277 36,000 309 414 64
2022-05-16 20:34:59 GMT 49.743027 6.694143 36,025 309 414 128
2022-05-16 20:34:56 GMT 49.735611 6.708454 36,025 309 414 320
2022-05-16 20:34:53 GMT 49.732498 6.714381 36,025 309 414 256
2022-05-16 20:34:50 GMT 49.732498 6.714381 36,025 309 415 128
2022-05-16 20:34:48 GMT 49.729336 6.720515 36,025 309 415 -64
2022-05-16 20:34:45 GMT 49.726215 6.726528 36,025 309 415 192
2022-05-16 20:34:42 GMT 49.722656 6.733318 36,025 309 416 -448
2022-05-16 20:34:39 GMT 49.719543 6.739317 36,025 309 416 -128
2022-05-16 20:34:37 GMT 49.715927 6.746256 36,025 309 417 -128
2022-05-16 20:34:34 GMT 49.712994 6.751841 36,025 309 416 128
2022-05-16 20:34:32 GMT 49.710110 6.757408 36,025 309 416 -64
2022-05-16 20:34:29 GMT 49.706909 6.763531 36,025 309 417 -256
2022-05-16 20:34:26 GMT 49.703220 6.770622 36,025 309 417 -64
2022-05-16 20:34:24 GMT 49.700424 6.775892 36,025 309 417 -256
2022-05-16 20:34:21 GMT 49.696796 6.782870 36,050 309 418 0
2022-05-16 20:34:18 GMT 49.693768 6.788660 36,050 309 418 128
2022-05-16 20:34:15 GMT 49.690063 6.795694 36,050 309 418 0
2022-05-16 20:34:12 GMT 49.683716 6.807886 36,025 309 418 -320
2022-05-16 20:34:09 GMT 49.683716 6.807886 36,025 309 418 -64
2022-05-16 20:34:06 GMT 49.678207 6.818390 36,025 309 418 0
2022-05-16 20:34:02 GMT 49.674545 6.825401 36,050 309 418 0
2022-05-16 20:33:59 GMT 49.670727 6.832680 36,050 309 420 64
2022-05-16 20:33:56 GMT 49.666122 6.841374 36,050 309 420 128
2022-05-16 20:33:53 GMT 49.662907 6.847600 36,050 309 420 -64
2022-05-16 20:33:51 GMT 49.660484 6.852203 36,025 309 420 0
2022-05-16 20:33:48 GMT 49.653408 6.865713 36,025 309 424 128
2022-05-16 20:33:45 GMT 49.653408 6.865713 36,050 310 420 64
2022-05-16 20:33:43 GMT 49.650879 6.870503 36,025 309 421 320
2022-05-16 20:33:41 GMT 49.647354 6.877225 36,025 309 421 128
2022-05-16 20:33:38 GMT 49.646118 6.879537 36,025 309 421 -64
2022-05-16 20:33:36 GMT 49.642513 6.886423 36,025 309 421 320
2022-05-16 20:33:33 GMT 49.638744 6.893698 36,025 309 421 192
2022-05-16 20:33:31 GMT 49.636276 6.898375 36,025 310 422 64
2022-05-16 20:33:28 GMT 49.632088 6.906318 36,025 309 423 256
2022-05-16 20:33:25 GMT 49.629593 6.911051 36,025 309 423 64
2022-05-16 20:33:22 GMT 49.624592 6.920496 36,025 309 423 -256
2022-05-16 20:33:19 GMT 49.622086 6.925290 36,025 309 423 -256
2022-05-16 20:33:16 GMT 49.616684 6.935626 36,025 309 424 64
2022-05-16 20:33:13 GMT 49.613186 6.942320 36,025 309 424 64
2022-05-16 20:33:10 GMT 49.609314 6.949648 36,050 309 424 0
2022-05-16 20:33:07 GMT 49.607437 6.953189 36,050 309 424 64
2022-05-16 20:33:05 GMT 49.604874 6.958104 36,050 309 424 -128
2022-05-16 20:33:03 GMT 49.601898 6.963742 36,050 309 424 0
2022-05-16 20:33:01 GMT 49.598663 6.969934 36,050 310 425 64
2022-05-16 20:32:58 GMT 49.592560 6.981522 36,025 309 424 192
2022-05-16 20:32:55 GMT 49.592560 6.981522 36,025 309 425 -64
2022-05-16 20:32:53 GMT 49.589397 6.987527 36,050 309 424 64
2022-05-16 20:32:49 GMT 49.582649 7.000370 36,025 309 424 64
2022-05-16 20:32:47 GMT 49.579205 7.006976 36,025 309 424 64
2022-05-16 20:32:44 GMT 49.579205 7.006976 36,025 310 425 64
2022-05-16 20:32:42 GMT 49.575993 7.013063 36,025 309 424 -64
2022-05-16 20:32:39 GMT 49.571594 7.021348 36,025 310 425 64
2022-05-16 20:32:35 GMT 49.567196 7.029691 36,025 309 425 128
2022-05-16 20:32:33 GMT 49.564545 7.034719 36,025 309 425 192
2022-05-16 20:32:31 GMT 49.558907 7.045428 36,025 309 425 -128
2022-05-16 20:32:28 GMT 49.554672 7.053371 36,025 310 425 0
2022-05-16 20:32:25 GMT 49.554672 7.053371 36,025 309 425 320
2022-05-16 20:32:23 GMT 49.552277 7.057993 36,025 310 425 64
2022-05-16 20:32:21 GMT 49.550308 7.061679 36,025 310 425 64
2022-05-16 20:32:18 GMT 49.546524 7.068886 36,025 310 425 -192
2022-05-16 20:32:15 GMT 49.542290 7.076828 36,025 310 425 -192
2022-05-16 20:32:12 GMT 49.538704 7.083658 36,025 310 425 -64
2022-05-16 20:32:10 GMT 49.536758 7.087266 36,025 310 425 -128
2022-05-16 20:32:07 GMT 49.532372 7.095535 36,025 310 425 256
2022-05-16 20:32:04 GMT 49.528198 7.103384 36,025 310 425 -128
2022-05-16 20:32:01 GMT 49.524582 7.110178 36,000 310 425 192
2022-05-16 20:31:58 GMT 49.519638 7.119574 36,000 310 425 0
2022-05-16 20:31:56 GMT 49.519638 7.119574 36,000 310 425 0
2022-05-16 20:31:53 GMT 49.515152 7.128031 36,000 310 425 0
2022-05-16 20:31:49 GMT 49.511307 7.135259 36,000 310 425 0
2022-05-16 20:31:46 GMT 49.506592 7.144149 36,000 310 425 64
2022-05-16 20:31:43 GMT 49.503418 7.150095 36,000 310 425 -192
2022-05-16 20:31:41 GMT 49.499680 7.157231 36,000 310 425 64
2022-05-16 20:31:37 GMT 49.494232 7.167495 35,975 310 425 256
2022-05-16 20:31:34 GMT 49.492432 7.170955 35,975 310 425 128
2022-05-16 20:31:31 GMT 49.488102 7.179120 35,975 310 425 128
2022-05-16 20:31:28 GMT 49.484612 7.185652 35,975 310 425 256
2022-05-16 20:31:26 GMT 49.482655 7.189364 35,975 310 425 0
2022-05-16 20:31:24 GMT 49.475952 7.201983 35,950 310 423 128
2022-05-16 20:31:21 GMT 49.475952 7.201983 35,975 310 424 64
2022-05-16 20:31:19 GMT 49.472672 7.208188 35,975 310 424 192
2022-05-16 20:31:16 GMT 49.467087 7.218668 35,975 310 424 256
2022-05-16 20:31:14 GMT 49.467087 7.218668 35,975 310 424 64
2022-05-16 20:31:11 GMT 49.462730 7.226925 35,950 310 423 0
2022-05-16 20:31:08 GMT 49.459751 7.232493 35,975 310 424 256
2022-05-16 20:31:04 GMT 49.454910 7.241623 35,975 310 423 64
2022-05-16 20:31:01 GMT 49.451157 7.248664 35,975 310 423 0
2022-05-16 20:30:59 GMT 49.444611 7.261023 35,975 310 423 0
2022-05-16 20:30:56 GMT 49.444611 7.261023 35,950 310 423 0
2022-05-16 20:30:53 GMT 49.437359 7.274582 35,975 310 422 -128
2022-05-16 20:30:51 GMT 49.437359 7.274582 35,975 310 422 0
2022-05-16 20:30:48 GMT 49.434891 7.279259 35,975 310 422 -320
2022-05-16 20:30:46 GMT 49.432938 7.282971 35,975 310 422 0
2022-05-16 20:30:44 GMT 49.426117 7.295837 35,975 310 422 -64
2022-05-16 20:30:41 GMT 49.426117 7.295837 35,975 310 422 0
2022-05-16 20:30:39 GMT 49.420303 7.306683 35,975 310 422 -64
2022-05-16 20:30:36 GMT 49.420303 7.306683 35,975 310 422 0
2022-05-16 20:30:34 GMT 49.417603 7.311753 35,975 310 422 -64
2022-05-16 20:30:31 GMT 49.414536 7.317528 35,975 310 422 0
2022-05-16 20:30:29 GMT 49.412064 7.322176 35,975 310 422 64
2022-05-16 20:30:27 GMT 49.409058 7.327809 35,975 310 422 0
2022-05-16 20:30:24 GMT 49.405014 7.335346 36,000 310 421 -64
2022-05-16 20:30:22 GMT 49.402493 7.340096 36,000 310 421 -64
2022-05-16 20:30:19 GMT 49.395401 7.353375 36,000 310 421 0
2022-05-16 20:30:16 GMT 49.395401 7.353375 36,000 310 421 -192
2022-05-16 20:30:14 GMT 49.392838 7.358234 36,000 310 421 -128
2022-05-16 20:30:12 GMT 49.389633 7.364220 36,000 310 421 -64
2022-05-16 20:30:09 GMT 49.387081 7.368935 36,000 310 421 0
2022-05-16 20:30:06 GMT 49.383087 7.376404 36,000 310 421 64
2022-05-16 20:30:03 GMT 49.380020 7.382179 36,000 310 421 -256
2022-05-16 20:30:00 GMT 49.376083 7.389503 36,000 310 421 -384
2022-05-16 20:29:58 GMT 49.373749 7.393869 36,000 310 421 0
2022-05-16 20:29:56 GMT 49.370743 7.399581 36,000 310 421 192
2022-05-16 20:29:54 GMT 49.368370 7.403918 36,000 310 421 128
2022-05-16 20:29:51 GMT 49.364273 7.411616 36,000 310 424 0
2022-05-16 20:29:48 GMT 49.361664 7.416476 36,000 310 421 -128
2022-05-16 20:29:45 GMT 49.355988 7.427040 36,000 310 422 -192
2022-05-16 20:29:42 GMT 49.353428 7.431817 36,000 310 422 -192
2022-05-16 20:29:39 GMT 49.346165 7.445333 36,000 310 422 -256
2022-05-16 20:29:36 GMT 49.346165 7.445333 36,000 310 422 0
2022-05-16 20:29:33 GMT 49.343044 7.451116 36,000 310 422 -128
2022-05-16 20:29:31 GMT 49.340515 7.455843 36,000 310 422 128
2022-05-16 20:29:29 GMT 49.337173 7.462041 36,000 310 422 -64
2022-05-16 20:29:27 GMT 49.335205 7.465703 36,000 310 422 -576
2022-05-16 20:29:25 GMT 49.332733 7.470351 36,000 310 422 -128
2022-05-16 20:29:23 GMT 49.329163 7.477041 36,000 310 422 0
2022-05-16 20:29:20 GMT 49.326187 7.482535 36,000 310 422 -128
2022-05-16 20:29:18 GMT 49.324219 7.486267 36,025 310 422 -64
2022-05-16 20:29:15 GMT 49.321163 7.491881 36,025 310 422 -192
2022-05-16 20:29:13 GMT 49.317993 7.497746 36,025 310 422 0
2022-05-16 20:29:10 GMT 49.313622 7.505975 36,025 310 422 -256
2022-05-16 20:29:07 GMT 49.310440 7.511831 36,025 310 422 192
2022-05-16 20:29:05 GMT 49.308643 7.515154 36,025 310 422 -64
2022-05-16 20:29:03 GMT 49.305523 7.520937 36,025 310 422 64
2022-05-16 20:29:01 GMT 49.303055 7.525562 36,025 310 422 -128
2022-05-16 20:28:59 GMT 49.301239 7.528874 36,025 310 422 -128
2022-05-16 20:28:57 GMT 49.297668 7.535565 36,025 310 423 -64
2022-05-16 20:28:55 GMT 49.295288 7.539931 36,025 310 422 -192
2022-05-16 20:28:52 GMT 49.288193 7.553101 36,025 310 423 64
2022-05-16 20:28:49 GMT 49.288193 7.553101 36,025 310 423 128
2022-05-16 20:28:47 GMT 49.285553 7.558016 36,025 310 424 -128
2022-05-16 20:28:45 GMT 49.283340 7.562045 36,025 310 424 -192
2022-05-16 20:28:43 GMT 49.280663 7.567050 36,025 310 424 0
2022-05-16 20:28:41 GMT 49.272938 7.581361 36,050 310 424 -256
2022-05-16 20:28:38 GMT 49.272938 7.581361 36,025 310 424 -128
2022-05-16 20:28:35 GMT 49.270523 7.585848 36,025 310 424 -128
2022-05-16 20:28:32 GMT 49.266769 7.592750 36,050 310 424 -128
2022-05-16 20:28:29 GMT 49.263153 7.599511 36,050 310 424 0
2022-05-16 20:28:27 GMT 49.260090 7.605141 36,050 310 424 -64
2022-05-16 20:28:25 GMT 49.258224 7.608610 36,050 310 424 -192
2022-05-16 20:28:23 GMT 49.255619 7.613453 36,050 310 424 -192
2022-05-16 20:28:21 GMT 49.252441 7.619371 36,050 310 424 -64
2022-05-16 20:28:18 GMT 49.249382 7.625018 36,050 310 424 -64
2022-05-16 20:28:15 GMT 49.245346 7.632540 36,050 310 424 -64
2022-05-16 20:28:13 GMT 49.242828 7.637118 36,050 310 424 0
2022-05-16 20:28:10 GMT 49.239281 7.643666 36,050 310 425 128
2022-05-16 20:28:07 GMT 49.233078 7.655147 36,050 310 424 0
2022-05-16 20:28:05 GMT 49.233078 7.655147 36,050 310 424 192
2022-05-16 20:28:03 GMT 49.230389 7.660073 36,050 310 424 128
2022-05-16 20:27:59 GMT 49.224976 7.670147 36,050 310 425 64
2022-05-16 20:27:56 GMT 49.222382 7.674890 36,050 310 425 192
2022-05-16 20:27:54 GMT 49.219437 7.680288 36,050 310 425 -64
2022-05-16 20:27:51 GMT 49.216003 7.686671 36,050 310 425 -128
2022-05-16 20:27:48 GMT 49.211197 7.695571 36,050 310 425 128
2022-05-16 20:27:45 GMT 49.204041 7.708861 36,050 310 426 64
2022-05-16 20:27:42 GMT 49.204041 7.708861 36,050 310 425 128
2022-05-16 20:27:39 GMT 49.196960 7.721910 36,050 310 426 -128
2022-05-16 20:27:36 GMT 49.196960 7.721910 36,050 310 426 -128
2022-05-16 20:27:33 GMT 49.192356 7.730400 36,050 310 426 64
2022-05-16 20:27:30 GMT 49.185654 7.742756 36,050 310 426 64
2022-05-16 20:27:27 GMT 49.185654 7.742756 36,050 310 426 128
2022-05-16 20:27:24 GMT 49.182579 7.748469 36,050 310 426 128
2022-05-16 20:27:22 GMT 49.179180 7.754685 36,025 310 427 0
2022-05-16 20:27:19 GMT 49.175133 7.762130 36,025 310 427 0
2022-05-16 20:27:17 GMT 49.172619 7.766828 36,025 310 427 -128
2022-05-16 20:27:15 GMT 49.170753 7.770297 36,025 310 428 0
2022-05-16 20:27:12 GMT 49.163960 7.782802 36,000 310 428 448
2022-05-16 20:27:10 GMT 49.163960 7.782802 36,000 310 427 128
2022-05-16 20:27:07 GMT 49.157162 7.795306 36,000 310 427 320
2022-05-16 20:27:04 GMT 49.157162 7.795306 36,000 310 427 0
2022-05-16 20:27:02 GMT 49.153198 7.802617 36,000 310 427 -64
2022-05-16 20:26:59 GMT 49.149944 7.808533 36,000 310 427 128
2022-05-16 20:26:56 GMT 49.146881 7.814167 36,000 310 427 64
2022-05-16 20:26:54 GMT 49.144314 7.818941 36,000 310 427 -64
2022-05-16 20:26:52 GMT 49.141342 7.824378 36,000 310 426 -64
2022-05-16 20:26:48 GMT 49.137005 7.832385 36,000 310 426 64
2022-05-16 20:26:46 GMT 49.134628 7.836794 36,000 310 426 -64
2022-05-16 20:26:44 GMT 49.131233 7.843010 36,000 310 426 -128
2022-05-16 20:26:41 GMT 49.125973 7.852695 36,000 310 425 192
2022-05-16 20:26:38 GMT 49.124203 7.855875 36,000 310 425 192
2022-05-16 20:26:36 GMT 49.120377 7.862901 35,975 310 424 64
2022-05-16 20:26:33 GMT 49.117172 7.868813 35,975 310 424 64
2022-05-16 20:26:30 GMT 49.111542 7.879149 35,975 310 424 128
2022-05-16 20:26:28 GMT 49.111542 7.879149 35,975 310 418 64
2022-05-16 20:26:26 GMT 49.108978 7.883817 35,975 310 423 64
2022-05-16 20:26:24 GMT 49.106461 7.888395 35,975 310 423 64
2022-05-16 20:26:22 GMT 49.104080 7.892761 35,975 310 423 128
2022-05-16 20:26:20 GMT 49.101196 7.898043 35,975 310 423 -128
2022-05-16 20:26:17 GMT 49.097351 7.905156 35,975 310 423 384
2022-05-16 20:26:14 GMT 49.092224 7.914593 35,975 310 423 192
2022-05-16 20:26:11 GMT 49.089661 7.919263 35,975 310 421 -128
2022-05-16 20:26:08 GMT 49.086403 7.925262 35,975 310 421 -128
2022-05-16 20:26:06 GMT 49.083141 7.931189 35,975 310 423 64
2022-05-16 20:26:04 GMT 49.081192 7.934735 35,975 310 423 0
2022-05-16 20:26:02 GMT 49.075333 7.945510 35,975 310 421 0
2022-05-16 20:25:59 GMT 49.075333 7.945510 35,975 310 422 192
2022-05-16 20:25:56 GMT 49.071411 7.952656 35,975 310 422 -64
2022-05-16 20:25:54 GMT 49.069473 7.956214 35,975 310 422 64
2022-05-16 20:25:52 GMT 49.066292 7.962052 35,975 310 421 -192
2022-05-16 20:25:50 GMT 49.062881 7.968327 35,975 310 421 0
2022-05-16 20:25:47 GMT 49.055786 7.981286 35,975 310 421 0
2022-05-16 20:25:44 GMT 49.055786 7.981286 35,975 310 421 0
2022-05-16 20:25:42 GMT 49.053406 7.985582 35,975 310 421 -128
2022-05-16 20:25:40 GMT 49.051529 7.989032 35,975 310 421 -192
2022-05-16 20:25:37 GMT 49.047997 7.995517 35,975 310 421 -192
2022-05-16 20:25:34 GMT 49.043839 8.003117 35,975 310 421 64
2022-05-16 20:25:31 GMT 49.038849 8.012202 35,975 310 420 -256
2022-05-16 20:25:27 GMT 49.036171 8.017056 35,975 310 420 128
2022-05-16 20:25:25 GMT 49.032959 8.022983 35,975 310 420 0
2022-05-16 20:25:22 GMT 49.028351 8.031367 35,975 310 420 128
2022-05-16 20:25:20 GMT 49.026257 8.035270 35,975 310 420 -64
2022-05-16 20:25:17 GMT 49.023136 8.040908 35,975 310 420 -64
2022-05-16 20:25:15 GMT 49.019276 8.047919 35,975 310 420 256
2022-05-16 20:25:12 GMT 49.016602 8.052767 35,975 310 420 192
2022-05-16 20:25:10 GMT 49.012665 8.059917 35,975 310 420 0
2022-05-16 20:25:07 GMT 49.010239 8.064317 35,975 310 420 -384
2022-05-16 20:25:05 GMT 49.008499 8.067486 35,975 310 419 0
2022-05-16 20:25:03 GMT 49.005524 8.072909 35,975 310 419 0
2022-05-16 20:25:01 GMT 49.002182 8.079036 35,975 310 418 -64
2022-05-16 20:24:57 GMT 48.997997 8.086588 35,975 310 418 -64
2022-05-16 20:24:55 GMT 48.995453 8.091219 35,975 310 418 64
2022-05-16 20:24:53 GMT 48.992924 8.095840 35,975 310 418 0
2022-05-16 20:24:50 GMT 48.989201 8.102562 35,975 310 418 64
2022-05-16 20:24:48 GMT 48.986687 8.107115 35,975 310 418 64
2022-05-16 20:24:45 GMT 48.980576 8.118263 35,975 310 418 64
2022-05-16 20:24:43 GMT 48.980576 8.118263 35,975 310 418 0
2022-05-16 20:24:41 GMT 48.976959 8.124742 35,975 310 418 64
2022-05-16 20:24:38 GMT 48.973846 8.130446 35,975 310 418 64
2022-05-16 20:24:35 GMT 48.971237 8.135165 35,975 310 418 64
2022-05-16 20:24:33 GMT 48.967529 8.141926 35,975 310 418 -64
2022-05-16 20:24:30 GMT 48.964279 8.147700 35,975 310 418 -64
2022-05-16 20:24:27 GMT 48.960526 8.154602 35,975 310 418 0
2022-05-16 20:24:24 GMT 48.957321 8.160377 35,975 310 418 -128
2022-05-16 20:24:22 GMT 48.954346 8.165729 35,975 310 418 192
2022-05-16 20:24:20 GMT 48.951782 8.170518 35,975 310 418 -64
2022-05-16 20:24:16 GMT 48.946747 8.179610 35,975 310 418 192
2022-05-16 20:24:13 GMT 48.940926 8.190235 35,975 310 418 64
2022-05-16 20:24:09 GMT 48.938225 8.195150 35,975 310 418 128
2022-05-16 20:24:06 GMT 48.934433 8.202069 35,975 310 418 -64
2022-05-16 20:24:04 GMT 48.931229 8.207914 35,975 310 418 -64
2022-05-16 20:24:01 GMT 48.928253 8.213337 35,975 310 418 -64
2022-05-16 20:23:59 GMT 48.924911 8.219393 35,950 310 418 64
2022-05-16 20:23:56 GMT 48.923080 8.222774 35,950 310 418 64
2022-05-16 20:23:54 GMT 48.919601 8.229112 35,950 310 418 0
2022-05-16 20:23:51 GMT 48.915928 8.235698 35,975 310 418 -64
2022-05-16 20:23:49 GMT 48.910110 8.246323 35,975 310 418 -256
2022-05-16 20:23:46 GMT 48.910110 8.246323 35,950 310 418 64
2022-05-16 20:23:43 GMT 48.905781 8.254202 35,975 310 418 -64
2022-05-16 20:23:41 GMT 48.903545 8.258249 35,975 310 418 128
2022-05-16 20:23:38 GMT 48.899918 8.264817 35,975 310 418 0
2022-05-16 20:23:35 GMT 48.895294 8.273128 35,975 310 418 64
2022-05-16 20:23:32 GMT 48.892822 8.277635 35,975 310 418 64
2022-05-16 20:23:30 GMT 48.889393 8.283836 35,975 311 418 64
2022-05-16 20:23:27 GMT 48.885204 8.291425 35,975 310 418 0
2022-05-16 20:23:24 GMT 48.881378 8.298269 35,950 310 418 192
2022-05-16 20:23:21 GMT 48.878906 8.302777 35,950 310 418 64
2022-05-16 20:23:19 GMT 48.875702 8.308622 35,950 311 419 0
2022-05-16 20:23:16 GMT 48.872402 8.314554 35,950 311 419 -128
2022-05-16 20:23:14 GMT 48.866959 8.324327 35,950 311 419 -128
2022-05-16 20:23:09 GMT 48.863846 8.329961 35,950 311 419 0
2022-05-16 20:23:06 GMT 48.860001 8.336933 35,950 311 419 64
2022-05-16 20:23:04 GMT 48.855316 8.345345 35,975 311 419 -128
2022-05-16 20:23:02 GMT 48.853363 8.348835 35,950 311 419 -128
2022-05-16 20:23:00 GMT 48.853363 8.348835 35,975 311 419 -128
2022-05-16 20:22:57 GMT 48.849171 8.356331 35,975 311 419 -128
2022-05-16 20:22:54 GMT 48.842743 8.367920 35,975 311 419 64
2022-05-16 20:22:52 GMT 48.840363 8.372216 35,975 311 419 -64
2022-05-16 20:22:50 GMT 48.837952 8.376569 35,975 311 419 0
2022-05-16 20:22:48 GMT 48.837952 8.376569 35,975 311 419 -64
2022-05-16 20:22:45 GMT 48.834137 8.383413 35,975 310 420 64
2022-05-16 20:22:42 GMT 48.830318 8.390302 35,975 311 420 -192
2022-05-16 20:22:40 GMT 48.827850 8.394783 35,975 311 420 -64
2022-05-16 20:22:38 GMT 48.826080 8.397964 35,975 311 420 -192
2022-05-16 20:22:35 GMT 48.821777 8.405738 35,975 311 420 -256
2022-05-16 20:22:32 GMT 48.818024 8.412429 35,975 311 420 0
2022-05-16 20:22:30 GMT 48.815559 8.416828 36,000 311 420 -384
2022-05-16 20:22:27 GMT 48.811092 8.424996 36,000 310 420 64
2022-05-16 20:22:24 GMT 48.807907 8.430739 36,000 310 420 -192
2022-05-16 20:22:22 GMT 48.805225 8.435548 36,000 310 420 -64
2022-05-16 20:22:20 GMT 48.801407 8.442430 36,000 310 420 -128
2022-05-16 20:22:17 GMT 48.798477 8.447764 36,000 311 420 -128
2022-05-16 20:22:14 GMT 48.794678 8.454613 36,000 310 421 0
2022-05-16 20:22:11 GMT 48.788235 8.466195 36,000 310 421 0
2022-05-16 20:22:09 GMT 48.788235 8.466195 36,025 310 421 64
2022-05-16 20:22:05 GMT 48.783417 8.474896 36,025 311 422 -256
2022-05-16 20:22:02 GMT 48.779755 8.481445 36,025 311 422 0
2022-05-16 20:22:00 GMT 48.777878 8.484826 36,025 311 422 -192
2022-05-16 20:21:57 GMT 48.770096 8.498840 36,025 311 422 0
2022-05-16 20:21:54 GMT 48.770096 8.498840 36,025 311 422 0
2022-05-16 20:21:52 GMT 48.767521 8.503490 36,025 311 423 256
2022-05-16 20:21:49 GMT 48.763611 8.510501 36,000 311 424 128
2022-05-16 20:21:46 GMT 48.760483 8.516024 36,000 311 424 128
2022-05-16 20:21:43 GMT 48.756180 8.523700 36,000 311 425 128
2022-05-16 20:21:40 GMT 48.751690 8.531751 36,025 311 425 -128
2022-05-16 20:21:37 GMT 48.749039 8.536522 36,025 311 425 -320
2022-05-16 20:21:34 GMT 48.741577 8.549828 36,025 311 426 64
2022-05-16 20:21:32 GMT 48.741577 8.549828 36,025 311 425 -64
2022-05-16 20:21:29 GMT 48.738609 8.555169 36,025 311 425 64
2022-05-16 20:21:27 GMT 48.735123 8.561378 36,025 311 426 -128
2022-05-16 20:21:24 GMT 48.728989 8.572294 36,025 311 427 256
2022-05-16 20:21:21 GMT 48.728989 8.572294 36,025 311 427 -320
2022-05-16 20:21:19 GMT 48.726135 8.577431 36,025 311 427 448
2022-05-16 20:21:16 GMT 48.717709 8.592393 36,000 311 427 -320
2022-05-16 20:21:13 GMT 48.717709 8.592393 36,000 311 427 64
2022-05-16 20:21:10 GMT 48.714916 8.597452 36,000 311 427 192
2022-05-16 20:21:08 GMT 48.710999 8.604337 36,000 311 428 -192
2022-05-16 20:21:04 GMT 48.706863 8.611763 36,000 311 429 128
2022-05-16 20:21:02 GMT 48.704163 8.616606 36,000 311 429 320
2022-05-16 20:20:59 GMT 48.698250 8.627086 36,000 311 429 128
2022-05-16 20:20:57 GMT 48.698250 8.627086 35,975 311 429 128
2022-05-16 20:20:54 GMT 48.693466 8.635676 35,975 311 429 -64
2022-05-16 20:20:51 GMT 48.689575 8.642508 36,000 311 429 64
2022-05-16 20:20:48 GMT 48.683304 8.653705 36,000 311 430 64
2022-05-16 20:20:44 GMT 48.681244 8.657367 35,975 311 430 -192
2022-05-16 20:20:42 GMT 48.678093 8.663009 35,975 311 430 128
2022-05-16 20:20:39 GMT 48.673645 8.670889 35,975 311 430 256
2022-05-16 20:20:36 GMT 48.670364 8.676742 35,950 311 430 -192
2022-05-16 20:20:33 GMT 48.667740 8.681382 35,975 311 430 64
2022-05-16 20:20:31 GMT 48.663986 8.688073 35,975 311 431 192
2022-05-16 20:20:28 GMT 48.660645 8.693989 35,950 311 431 -64
2022-05-16 20:20:25 GMT 48.656250 8.701806 35,950 311 431 0
2022-05-16 20:20:23 GMT 48.654465 8.704975 35,950 311 431 0
2022-05-16 20:20:21 GMT 48.647873 8.716665 35,950 311 431 64
2022-05-16 20:20:19 GMT 48.647873 8.716665 35,950 311 431 -576
2022-05-16 20:20:16 GMT 48.644573 8.722494 35,950 311 432 -256
2022-05-16 20:20:13 GMT 48.641281 8.728356 35,950 311 432 384
2022-05-16 20:20:10 GMT 48.637871 8.734420 35,950 311 432 -128
2022-05-16 20:20:08 GMT 48.634048 8.741173 35,950 311 432 64
2022-05-16 20:20:05 GMT 48.630890 8.746780 35,950 311 432 -192
2022-05-16 20:20:02 GMT 48.626953 8.753779 35,950 311 432 256
2022-05-16 20:20:00 GMT 48.624977 8.757332 35,950 311 432 256
2022-05-16 20:19:58 GMT 48.621780 8.763005 35,975 311 432 -128
2022-05-16 20:19:55 GMT 48.614735 8.775474 35,975 311 433 128
2022-05-16 20:19:52 GMT 48.614735 8.775474 35,975 311 432 -320
2022-05-16 20:19:49 GMT 48.609566 8.784726 36,000 311 433 0
2022-05-16 20:19:46 GMT 48.606262 8.790541 36,000 311 433 -256
2022-05-16 20:19:42 GMT 48.600861 8.800049 36,000 311 433 -192
2022-05-16 20:19:38 GMT 48.595093 8.810331 36,000 311 433 -128
2022-05-16 20:19:35 GMT 48.592484 8.814909 36,000 311 433 -256
2022-05-16 20:19:32 GMT 48.588013 8.822817 36,000 311 433 -192
2022-05-16 20:19:30 GMT 48.585892 8.826599 36,000 311 434 -256
2022-05-16 20:19:28 GMT 48.583218 8.831345 36,000 311 434 -256
2022-05-16 20:19:26 GMT 48.579590 8.837778 36,025 311 435 -384
2022-05-16 20:19:23 GMT 48.575089 8.845684 36,025 311 434 64
2022-05-16 20:19:20 GMT 48.571060 8.852868 36,000 311 434 64
2022-05-16 20:19:17 GMT 48.568451 8.857445 36,000 311 435 -320
2022-05-16 20:19:14 GMT 48.562130 8.868641 36,025 311 436 192
2022-05-16 20:19:12 GMT 48.562130 8.868641 36,025 311 435 -256
2022-05-16 20:19:10 GMT 48.559753 8.872939 36,025 311 436 -320
2022-05-16 20:19:08 GMT 48.553207 8.884489 36,025 311 437 -384
2022-05-16 20:19:05 GMT 48.548443 8.892927 36,025 311 438 -192
2022-05-16 20:19:02 GMT 48.548443 8.892927 36,025 311 437 64
2022-05-16 20:18:59 GMT 48.544395 8.900082 36,025 311 437 -192
2022-05-16 20:18:57 GMT 48.542206 8.904058 36,025 311 437 0
2022-05-16 20:18:54 GMT 48.538055 8.911321 36,025 311 437 64
2022-05-16 20:18:51 GMT 48.534851 8.916995 36,025 311 437 -128
2022-05-16 20:18:48 GMT 48.529953 8.925687 36,050 311 438 64
2022-05-16 20:18:45 GMT 48.526520 8.931744 36,050 311 438 -256
2022-05-16 20:18:42 GMT 48.523167 8.937667 36,050 311 439 128
2022-05-16 20:18:40 GMT 48.519974 8.943294 36,050 311 438 0
2022-05-16 20:18:38 GMT 48.512741 8.956111 36,050 311 439 0
2022-05-16 20:18:35 GMT 48.512741 8.956111 36,050 311 439 -128
2022-05-16 20:18:32 GMT 48.506874 8.966362 36,050 311 439 -320
2022-05-16 20:18:30 GMT 48.506874 8.966362 36,050 311 439 -128
2022-05-16 20:18:28 GMT 48.500198 8.978154 36,050 311 440 -128
2022-05-16 20:18:25 GMT 48.500198 8.978154 36,050 311 440 0
2022-05-16 20:18:22 GMT 48.496960 8.983853 36,050 311 440 64
2022-05-16 20:18:20 GMT 48.493561 8.989924 36,050 311 441 64
2022-05-16 20:18:18 GMT 48.490952 8.994422 36,050 311 441 -128
2022-05-16 20:18:15 GMT 48.481796 9.010479 36,050 311 441 -128
2022-05-16 20:18:12 GMT 48.481796 9.010479 36,050 311 441 -64
2022-05-16 20:18:09 GMT 48.479691 9.014212 36,050 311 441 -64
2022-05-16 20:18:07 GMT 48.476288 9.020209 36,050 311 441 64
2022-05-16 20:18:04 GMT 48.472504 9.026818 36,050 311 442 256
2022-05-16 20:18:01 GMT 48.469070 9.032874 36,050 311 442 192
2022-05-16 20:17:58 GMT 48.463623 9.042452 36,025 311 443 192
2022-05-16 20:17:55 GMT 48.460228 9.048398 36,025 311 442 -64
2022-05-16 20:17:52 GMT 48.456085 9.055626 36,025 311 443 576
2022-05-16 20:17:49 GMT 48.452271 9.062312 36,025 311 443 64
2022-05-16 20:17:47 GMT 48.450359 9.065672 36,025 311 443 128
2022-05-16 20:17:45 GMT 48.447098 9.071397 36,025 311 443 192
2022-05-16 20:17:42 GMT 48.442863 9.078755 36,000 311 444 192
2022-05-16 20:17:39 GMT 48.435608 9.091468 36,000 311 444 0
2022-05-16 20:17:37 GMT 48.435608 9.091468 36,000 311 444 0
2022-05-16 20:17:34 GMT 48.429222 9.102607 36,000 311 444 0
2022-05-16 20:17:31 GMT 48.426010 9.108244 36,000 311 444 0
2022-05-16 20:17:29 GMT 48.426010 9.108244 36,000 311 445 0
2022-05-16 20:17:26 GMT 48.421509 9.116047 35,975 311 445 -192
2022-05-16 20:17:23 GMT 48.417309 9.123423 35,975 311 445 -192
2022-05-16 20:17:21 GMT 48.412464 9.131879 35,975 311 445 64
2022-05-16 20:17:19 GMT 48.412464 9.131879 35,975 311 445 -64
2022-05-16 20:17:17 GMT 48.410019 9.136188 35,975 311 445 -256
2022-05-16 20:17:14 GMT 48.406128 9.143019 35,975 311 445 64
2022-05-16 20:17:11 GMT 48.401245 9.151611 35,975 311 445 64
2022-05-16 20:17:09 GMT 48.397980 9.157316 35,975 311 445 192
2022-05-16 20:17:05 GMT 48.393986 9.164260 35,975 311 446 -192
2022-05-16 20:17:02 GMT 48.388321 9.174218 35,975 311 445 128
2022-05-16 20:16:59 GMT 48.383415 9.182763 35,975 311 446 -64
2022-05-16 20:16:57 GMT 48.383415 9.182763 35,975 311 445 192
2022-05-16 20:16:54 GMT 48.374496 9.198374 35,975 311 446 -64
2022-05-16 20:16:51 GMT 48.374496 9.198374 35,975 311 446 -128
2022-05-16 20:16:48 GMT 48.370941 9.204591 35,975 311 446 -192
2022-05-16 20:16:45 GMT 48.366005 9.213265 35,975 311 446 64
2022-05-16 20:16:42 GMT 48.363373 9.217811 35,975 311 446 128
2022-05-16 20:16:39 GMT 48.358292 9.226755 35,975 311 446 -256
2022-05-16 20:16:34 GMT 48.351425 9.238727 36,000 311 446 0
2022-05-16 20:16:31 GMT 48.348129 9.244417 36,000 311 445 256
2022-05-16 20:16:28 GMT 48.344193 9.251333 36,000 311 445 -64
2022-05-16 20:16:24 GMT 48.338772 9.260824 36,000 311 446 -192
2022-05-16 20:16:21 GMT 48.334862 9.267618 36,000 311 445 0
2022-05-16 20:16:19 GMT 48.331371 9.273690 36,000 311 446 0
2022-05-16 20:16:16 GMT 48.325378 9.284081 36,000 311 445 192
2022-05-16 20:16:14 GMT 48.325378 9.284081 36,000 311 445 256
2022-05-16 20:16:11 GMT 48.316055 9.300360 36,000 311 445 -64
2022-05-16 20:16:08 GMT 48.316055 9.300360 36,000 311 445 -64
2022-05-16 20:16:04 GMT 48.312057 9.307251 36,000 311 445 192
2022-05-16 20:16:01 GMT 48.304413 9.320491 36,000 311 446 -128
2022-05-16 20:15:59 GMT 48.304413 9.320491 36,000 311 445 0
2022-05-16 20:15:56 GMT 48.301712 9.325209 36,000 311 445 0
2022-05-16 20:15:54 GMT 48.298134 9.331368 36,000 311 445 64
2022-05-16 20:15:51 GMT 48.290825 9.344017 35,975 311 445 0
2022-05-16 20:15:48 GMT 48.290825 9.344017 35,975 311 445 0
2022-05-16 20:15:46 GMT 48.287472 9.349799 35,975 311 446 64
2022-05-16 20:15:43 GMT 48.282631 9.358255 35,975 311 446 192
2022-05-16 20:15:40 GMT 48.278721 9.364977 35,975 311 446 0
2022-05-16 20:15:37 GMT 48.276299 9.369242 35,975 311 446 -128
2022-05-16 20:15:34 GMT 48.271271 9.377843 36,000 311 446 -256
2022-05-16 20:15:31 GMT 48.267223 9.384854 36,000 311 446 128
2022-05-16 20:15:28 GMT 48.263172 9.391865 36,000 311 446 -128
2022-05-16 20:15:25 GMT 48.258820 9.399438 36,000 311 446 -192
2022-05-16 20:15:22 GMT 48.254143 9.407477 36,000 311 446 0
2022-05-16 20:15:19 GMT 48.251579 9.411958 36,000 311 446 0
2022-05-16 20:15:17 GMT 48.248291 9.417678 36,025 311 446 -256
2022-05-16 20:15:14 GMT 48.244812 9.423734 36,025 311 446 0
2022-05-16 20:15:11 GMT 48.239273 9.433312 36,025 311 446 -64
2022-05-16 20:15:08 GMT 48.234833 9.441059 36,025 311 446 0
2022-05-16 20:15:05 GMT 48.232819 9.444510 36,025 311 446 -64
2022-05-16 20:15:03 GMT 48.228653 9.451763 36,025 311 446 64
2022-05-16 20:14:59 GMT 48.223938 9.459933 36,025 311 446 256
2022-05-16 20:14:57 GMT 48.220764 9.465444 36,025 311 446 -64
2022-05-16 20:14:54 GMT 48.216934 9.472116 36,000 311 446 -192
2022-05-16 20:14:51 GMT 48.212906 9.479159 36,025 311 447 -128
2022-05-16 20:14:48 GMT 48.208878 9.486201 36,025 311 447 0
2022-05-16 20:14:46 GMT 48.201771 9.498476 36,025 312 450 -128
2022-05-16 20:14:43 GMT 48.198837 9.503607 36,050 311 447 -128
2022-05-16 20:14:40 GMT 48.198837 9.503607 36,050 311 448 64
2022-05-16 20:14:37 GMT 48.193222 9.513315 36,050 311 448 -64
2022-05-16 20:14:33 GMT 48.184639 9.528254 36,050 311 448 -192
2022-05-16 20:14:30 GMT 48.184639 9.528254 36,050 311 448 64
2022-05-16 20:14:27 GMT 48.180542 9.535265 36,050 311 447 -128
2022-05-16 20:14:24 GMT 48.172581 9.548998 36,050 312 447 -64
2022-05-16 20:14:21 GMT 48.172581 9.548998 36,050 312 447 64
2022-05-16 20:14:18 GMT 48.168411 9.556134 36,050 312 447 -256
2022-05-16 20:14:16 GMT 48.165710 9.560782 36,050 312 448 -64
2022-05-16 20:14:13 GMT 48.162338 9.566490 36,050 312 447 192
2022-05-16 20:14:10 GMT 48.158203 9.573624 36,050 312 448 128
2022-05-16 20:14:07 GMT 48.154816 9.579460 36,050 312 448 64
2022-05-16 20:14:05 GMT 48.151447 9.585149 36,050 312 448 128
2022-05-16 20:14:03 GMT 48.147396 9.592121 36,050 312 449 0
2022-05-16 20:13:59 GMT 48.142685 9.600197 36,050 312 449 64
2022-05-16 20:13:57 GMT 48.136551 9.610703 36,050 311 450 192
2022-05-16 20:13:54 GMT 48.133713 9.615646 36,050 311 450 64
2022-05-16 20:13:52 GMT 48.133713 9.615646 36,050 311 450 64
2022-05-16 20:13:49 GMT 48.128731 9.624235 36,050 312 450 0
2022-05-16 20:13:46 GMT 48.125145 9.630291 36,050 312 450 -320
2022-05-16 20:13:43 GMT 48.120537 9.638249 36,050 312 450 -64
2022-05-16 20:13:40 GMT 48.117188 9.644005 36,050 311 451 -192
2022-05-16 20:13:37 GMT 48.112995 9.651208 36,050 311 451 -128
2022-05-16 20:13:35 GMT 48.110153 9.656137 36,050 311 451 -128
2022-05-16 20:13:33 GMT 48.106991 9.661490 36,050 312 450 128
2022-05-16 20:13:30 GMT 48.102448 9.669342 36,050 312 450 128
2022-05-16 20:13:26 GMT 48.098145 9.676772 36,025 312 451 -192
2022-05-16 20:13:23 GMT 48.091721 9.687758 36,025 312 450 256
2022-05-16 20:13:20 GMT 48.089859 9.690903 36,025 312 450 0
2022-05-16 20:13:17 GMT 48.084038 9.700928 36,000 312 451 384
2022-05-16 20:13:14 GMT 48.080017 9.707794 35,975 312 451 64
2022-05-16 20:13:11 GMT 48.075939 9.714731 35,975 312 451 192
2022-05-16 20:13:07 GMT 48.071915 9.721664 35,975 312 451 64
2022-05-16 20:13:05 GMT 48.063583 9.735947 35,975 312 451 -128
2022-05-16 20:13:02 GMT 48.063583 9.735947 35,975 312 451 256
2022-05-16 20:12:59 GMT 48.057037 9.747056 35,975 312 450 128
2022-05-16 20:12:56 GMT 48.057037 9.747056 35,975 312 451 64
2022-05-16 20:12:53 GMT 48.048565 9.761564 35,975 312 450 0
2022-05-16 20:12:50 GMT 48.048565 9.761564 35,950 312 450 -192
2022-05-16 20:12:47 GMT 48.044678 9.768219 35,975 312 450 0
2022-05-16 20:12:42 GMT 48.037308 9.780853 35,950 311 448 64
2022-05-16 20:12:39 GMT 48.034698 9.785316 35,950 311 448 64
2022-05-16 20:12:36 GMT 48.028919 9.795227 35,950 311 448 64
2022-05-16 20:12:33 GMT 48.025383 9.801284 35,950 311 448 -256
2022-05-16 20:12:30 GMT 48.020912 9.809030 35,950 311 448 -192
2022-05-16 20:12:27 GMT 48.016754 9.816147 35,975 311 448 64
2022-05-16 20:12:25 GMT 48.010391 9.827065 35,975 311 448 0
2022-05-16 20:12:22 GMT 48.006111 9.834454 35,975 311 447 -192
2022-05-16 20:12:19 GMT 48.006111 9.834454 35,975 311 447 -128
2022-05-16 20:12:16 GMT 48.001602 9.842239 35,975 312 446 64
2022-05-16 20:12:13 GMT 47.997528 9.849174 35,975 312 446 128
2022-05-16 20:12:10 GMT 47.994614 9.854173 35,975 312 445 -128
2022-05-16 20:12:07 GMT 47.989380 9.863045 35,975 312 446 -64
2022-05-16 20:12:04 GMT 47.985256 9.870089 35,975 312 445 0
2022-05-16 20:12:01 GMT 47.981094 9.877121 35,975 312 446 -128
2022-05-16 20:11:58 GMT 47.978394 9.881790 35,975 312 445 192
2022-05-16 20:11:55 GMT 47.974319 9.888657 35,975 312 445 0
2022-05-16 20:11:52 GMT 47.969833 9.896278 35,975 312 445 0
2022-05-16 20:11:49 GMT 47.965805 9.903214 36,000 312 445 -128
2022-05-16 20:11:46 GMT 47.959511 9.913893 36,000 312 445 64
2022-05-16 20:11:44 GMT 47.959511 9.913893 36,000 312 445 -64
2022-05-16 20:11:41 GMT 47.955231 9.921135 36,000 312 444 64
2022-05-16 20:11:38 GMT 47.950882 9.928482 35,975 312 444 128
2022-05-16 20:11:35 GMT 47.945755 9.937271 35,975 312 444 -128
2022-05-16 20:11:32 GMT 47.941681 9.944138 35,975 312 444 -64
2022-05-16 20:11:29 GMT 47.939030 9.948613 35,975 312 444 128
2022-05-16 20:11:26 GMT 47.934700 9.955937 35,975 312 444 192
2022-05-16 20:11:24 GMT 47.931580 9.961219 35,975 312 444 64
2022-05-16 20:11:21 GMT 47.928463 9.966501 35,975 312 444 64
2022-05-16 20:11:18 GMT 47.922737 9.976149 36,000 312 444 -192
2022-05-16 20:11:15 GMT 47.920036 9.980727 36,000 312 444 -192
2022-05-16 20:11:12 GMT 47.915798 9.987769 36,000 312 444 -192
2022-05-16 20:11:09 GMT 47.910187 9.997284 36,000 312 444 -192
2022-05-16 20:11:06 GMT 47.907421 10.001995 36,000 312 444 -192
2022-05-16 20:11:04 GMT 47.900345 10.013897 36,000 312 444 64
2022-05-16 20:11:01 GMT 47.900345 10.013897 36,000 312 443 -128
2022-05-16 20:10:58 GMT 47.895264 10.022415 36,000 312 443 64
2022-05-16 20:10:55 GMT 47.892475 10.027137 36,000 312 443 -64
2022-05-16 20:10:52 GMT 47.889263 10.032630 36,000 312 443 -128
2022-05-16 20:10:49 GMT 47.884048 10.041435 36,025 311 443 -128
2022-05-16 20:10:46 GMT 47.877869 10.052010 36,000 311 443 -128
2022-05-16 20:10:41 GMT 47.872650 10.061005 36,025 311 443 192
2022-05-16 20:10:38 GMT 47.870087 10.065331 36,025 311 443 128
2022-05-16 20:10:35 GMT 47.865555 10.073227 36,000 311 442 -64
2022-05-16 20:10:32 GMT 47.861572 10.080162 36,025 311 443 64
2022-05-16 20:10:29 GMT 47.858139 10.086205 36,000 311 442 0
2022-05-16 20:10:26 GMT 47.853279 10.094675 36,000 311 443 192
2022-05-16 20:10:23 GMT 47.843365 10.111647 36,000 312 443 320
2022-05-16 20:10:19 GMT 47.843365 10.111647 36,000 313 444 -64
2022-05-16 20:10:16 GMT 47.839828 10.117378 36,000 317 447 320
2022-05-16 20:10:13 GMT 47.835823 10.123338 36,000 316 446 128
2022-05-16 20:10:10 GMT 47.831352 10.129676 36,000 319 447 -256
2022-05-16 20:10:08 GMT 47.829025 10.132775 36,000 321 448 0
2022-05-16 20:10:05 GMT 47.822090 10.141437 36,000 321 448 0
2022-05-16 20:10:02 GMT 47.818542 10.145462 36,000 324 449 192
2022-05-16 20:09:59 GMT 47.812080 10.152494 35,975 326 450 256
2022-05-16 20:09:56 GMT 47.808792 10.155899 35,975 326 449 64
2022-05-16 20:09:53 GMT 47.798206 10.166509 35,975 326 450 64
2022-05-16 20:09:50 GMT 47.792156 10.172565 35,975 326 450 320
2022-05-16 20:09:47 GMT 47.792156 10.172565 35,975 326 450 0
2022-05-16 20:09:44 GMT 47.788013 10.176720 35,975 326 450 128
2022-05-16 20:09:41 GMT 47.782146 10.182566 35,975 327 449 64
2022-05-16 20:09:38 GMT 47.777756 10.187004 35,975 326 450 -128
2022-05-16 20:09:35 GMT 47.772400 10.192360 35,975 327 449 128
2022-05-16 20:09:33 GMT 47.768696 10.196017 35,975 327 449 -192
2022-05-16 20:09:31 GMT 47.759491 10.205269 35,975 327 450 -256
2022-05-16 20:09:28 GMT 47.759491 10.205269 35,975 327 450 320
2022-05-16 20:09:25 GMT 47.755100 10.209609 35,975 327 450 320
2022-05-16 20:09:23 GMT 47.751469 10.213271 35,975 327 450 0
2022-05-16 20:09:21 GMT 47.748093 10.216599 35,975 327 449 64
2022-05-16 20:09:18 GMT 47.737690 10.227004 35,975 327 449 64
2022-05-16 20:09:15 GMT 47.737690 10.227004 35,975 327 449 192
2022-05-16 20:09:13 GMT 47.733765 10.230881 36,000 327 449 128
2022-05-16 20:09:10 GMT 47.728333 10.236300 36,000 327 449 -128
2022-05-16 20:09:07 GMT 47.723969 10.240631 36,000 327 449 -320
2022-05-16 20:09:04 GMT 47.719582 10.245033 36,000 327 449 -320
2022-05-16 20:09:02 GMT 47.715065 10.249540 36,000 327 449 -64
2022-05-16 20:08:59 GMT 47.710598 10.253977 36,000 327 449 -64
2022-05-16 20:08:56 GMT 47.698975 10.265556 36,000 327 449 -256
2022-05-16 20:08:53 GMT 47.695358 10.269196 36,000 327 449 192
2022-05-16 20:08:50 GMT 47.695358 10.269196 36,000 327 449 0
2022-05-16 20:08:47 GMT 47.689926 10.274611 36,000 327 449 64
2022-05-16 20:08:44 GMT 47.679153 10.285332 36,000 327 449 64
2022-05-16 20:08:41 GMT 47.679153 10.285332 36,000 327 449 64
2022-05-16 20:08:37 GMT 47.672844 10.291584 36,000 327 450 -64
2022-05-16 20:08:34 GMT 47.667675 10.296725 36,000 327 450 128
2022-05-16 20:08:32 GMT 47.657043 10.307236 36,000 327 450 -64
2022-05-16 20:08:29 GMT 47.657043 10.307236 36,000 327 450 64
2022-05-16 20:08:26 GMT 47.654362 10.309965 35,975 327 450 128
2022-05-16 20:08:23 GMT 47.649197 10.315106 35,975 327 451 -256
2022-05-16 20:08:20 GMT 47.643654 10.320599 36,000 327 451 -256
2022-05-16 20:08:17 GMT 47.636578 10.327571 36,000 327 451 -128
2022-05-16 20:08:14 GMT 47.632763 10.331374 36,000 327 451 0
2022-05-16 20:08:12 GMT 47.627407 10.336726 36,000 327 451 -64
2022-05-16 20:08:09 GMT 47.623993 10.340057 36,000 327 451 128
2022-05-16 20:08:06 GMT 47.618378 10.345600 36,000 327 451 256
2022-05-16 20:08:03 GMT 47.608612 10.355301 36,025 327 451 -128
2022-05-16 20:08:00 GMT 47.608612 10.355301 36,025 327 451 -128
2022-05-16 20:07:56 GMT 47.594925 10.368828 36,025 327 451 -64
2022-05-16 20:07:53 GMT 47.594925 10.368828 36,025 327 451 -64
2022-05-16 20:07:50 GMT 47.589890 10.373840 36,025 327 451 -256
2022-05-16 20:07:46 GMT 47.584442 10.379193 36,025 327 451 -64
2022-05-16 20:07:43 GMT 47.578308 10.385307 36,025 327 451 64
2022-05-16 20:07:40 GMT 47.574154 10.389404 36,025 327 451 -64
2022-05-16 20:07:37 GMT 47.568970 10.394577 36,025 327 451 -128
2022-05-16 20:07:34 GMT 47.562981 10.400461 36,025 327 451 -192
2022-05-16 20:07:31 GMT 47.558838 10.404616 36,025 327 451 -64
2022-05-16 20:07:29 GMT 47.556046 10.407363 36,050 327 451 0
2022-05-16 20:07:26 GMT 47.549744 10.413597 36,050 327 452 -64
2022-05-16 20:07:23 GMT 47.541412 10.421837 36,050 327 452 64
2022-05-16 20:07:21 GMT 47.541412 10.421837 36,050 327 452 0
2022-05-16 20:07:19 GMT 47.536819 10.426378 36,050 327 453 0
2022-05-16 20:07:16 GMT 47.532303 10.430814 36,050 327 452 -192
2022-05-16 20:07:13 GMT 47.527679 10.435364 36,050 327 453 -64
2022-05-16 20:07:10 GMT 47.521549 10.441449 36,050 327 452 -128
2022-05-16 20:07:07 GMT 47.515732 10.447243 36,050 327 452 128
2022-05-16 20:07:03 GMT 47.509911 10.452998 36,050 327 453 -64
2022-05-16 20:07:01 GMT 47.506302 10.456512 36,050 327 453 -128
2022-05-16 20:06:59 GMT 47.502602 10.460182 36,050 327 453 0
2022-05-16 20:06:56 GMT 47.495804 10.466872 36,050 327 453 192
2022-05-16 20:06:53 GMT 47.491989 10.470605 36,050 327 453 128
2022-05-16 20:06:50 GMT 47.485703 10.476802 36,050 327 453 -64
2022-05-16 20:06:47 GMT 47.481766 10.480682 36,050 327 453 256
2022-05-16 20:06:44 GMT 47.471146 10.491119 36,025 327 453 64
2022-05-16 20:06:41 GMT 47.471146 10.491119 36,025 327 453 -64
2022-05-16 20:06:38 GMT 47.465744 10.496475 36,025 327 452 64
2022-05-16 20:06:35 GMT 47.460796 10.501380 36,025 327 453 64
2022-05-16 20:06:32 GMT 47.454803 10.507256 36,025 327 454 0
2022-05-16 20:06:29 GMT 47.450272 10.511719 36,025 327 453 64
2022-05-16 20:06:25 GMT 47.436813 10.524971 36,025 327 454 128
2022-05-16 20:06:22 GMT 47.436813 10.524971 36,025 327 454 -64
2022-05-16 20:06:19 GMT 47.433426 10.528283 36,025 327 454 192
2022-05-16 20:06:16 GMT 47.421741 10.539832 36,025 327 454 64
2022-05-16 20:06:13 GMT 47.421741 10.539832 36,000 327 454 0
2022-05-16 20:06:10 GMT 47.415455 10.545959 36,000 327 454 -64
2022-05-16 20:06:07 GMT 47.412552 10.548798 36,000 327 454 128
2022-05-16 20:06:04 GMT 47.406097 10.555183 36,000 327 454 128
2022-05-16 20:06:01 GMT 47.400009 10.561157 36,000 327 455 64
2022-05-16 20:05:58 GMT 47.389759 10.571172 36,000 327 452 -448
2022-05-16 20:05:55 GMT 47.389759 10.571172 36,000 327 455 192
2022-05-16 20:05:52 GMT 47.386269 10.574623 36,000 327 454 -64
2022-05-16 20:05:50 GMT 47.383575 10.577293 36,000 327 454 192
2022-05-16 20:05:48 GMT 47.378677 10.582031 36,000 327 452 -448
2022-05-16 20:05:45 GMT 47.371605 10.588989 36,000 327 452 128
2022-05-16 20:05:42 GMT 47.368881 10.591644 36,000 327 454 -128
2022-05-16 20:05:40 GMT 47.365505 10.594975 36,000 327 454 -64
2022-05-16 20:05:38 GMT 47.360058 10.600257 36,000 327 452 64
2022-05-16 20:05:35 GMT 47.356476 10.603798 36,000 327 452 64
2022-05-16 20:05:32 GMT 47.351440 10.608742 36,000 327 452 64
2022-05-16 20:05:29 GMT 47.346222 10.613823 36,000 327 452 -64
2022-05-16 20:05:25 GMT 47.339401 10.620483 35,975 327 452 -64
2022-05-16 20:05:22 GMT 47.334270 10.625540 36,000 327 452 64
2022-05-16 20:05:20 GMT 47.328827 10.630920 35,975 327 452 -256
2022-05-16 20:05:16 GMT 47.321606 10.638005 35,975 327 452 -448
2022-05-16 20:05:13 GMT 47.316284 10.643211 36,000 327 452 -256
2022-05-16 20:05:10 GMT 47.313171 10.646301 36,000 327 452 -192
2022-05-16 20:05:07 GMT 47.308640 10.650696 36,000 327 452 -64
2022-05-16 20:05:04 GMT 47.301498 10.657700 36,000 327 452 0
2022-05-16 20:05:01 GMT 47.297836 10.661270 36,000 327 452 -448
2022-05-16 20:04:58 GMT 47.291245 10.667725 36,000 327 451 64
2022-05-16 20:04:55 GMT 47.286209 10.672600 36,000 327 450 64
2022-05-16 20:04:52 GMT 47.280735 10.677936 36,000 327 450 128
2022-05-16 20:04:49 GMT 47.276459 10.682076 36,000 327 450 -64
2022-05-16 20:04:45 GMT 47.267441 10.690865 36,000 327 450 0
2022-05-16 20:04:42 GMT 47.262997 10.695190 36,000 327 450 0
2022-05-16 20:04:39 GMT 47.256317 10.701714 36,000 327 450 64
2022-05-16 20:04:36 GMT 47.253708 10.704254 36,000 327 450 -128
2022-05-16 20:04:33 GMT 47.248489 10.709267 36,000 327 450 0
2022-05-16 20:04:30 GMT 47.242840 10.714769 36,000 327 450 128
2022-05-16 20:04:27 GMT 47.231201 10.726107 36,000 327 450 64
2022-05-16 20:04:24 GMT 47.231201 10.726107 36,000 327 450 128
2022-05-16 20:04:21 GMT 47.228596 10.728642 36,000 327 450 0
2022-05-16 20:04:18 GMT 47.217224 10.739754 36,000 327 450 192
2022-05-16 20:04:15 GMT 47.217224 10.739754 36,000 327 450 192
2022-05-16 20:04:12 GMT 47.206284 10.750397 36,000 327 450 64
2022-05-16 20:04:09 GMT 47.206284 10.750397 36,000 327 450 -64
2022-05-16 20:04:05 GMT 47.200195 10.756302 36,000 327 450 -128
2022-05-16 20:04:01 GMT 47.188141 10.768010 36,000 327 450 0
2022-05-16 20:03:58 GMT 47.188141 10.768010 36,000 327 450 -192
2022-05-16 20:03:54 GMT 47.178543 10.777382 36,000 327 450 64
2022-05-16 20:03:51 GMT 47.175667 10.780194 36,025 327 450 -128
2022-05-16 20:03:49 GMT 47.170029 10.785690 36,025 327 450 64
2022-05-16 20:03:46 GMT 47.160442 10.795053 36,025 327 450 -128
2022-05-16 20:03:43 GMT 47.152809 10.802448 36,025 327 450 -64
2022-05-16 20:03:39 GMT 47.152809 10.802448 36,025 327 450 0
2022-05-16 20:03:36 GMT 47.149246 10.805946 36,025 327 450 0
2022-05-16 20:03:33 GMT 47.142517 10.812538 36,025 327 449 -192
2022-05-16 20:03:30 GMT 47.138100 10.816815 36,000 327 449 0
2022-05-16 20:03:27 GMT 47.134552 10.820297 36,025 327 449 64
2022-05-16 20:03:24 GMT 47.123432 10.831252 36,000 327 449 -128
2022-05-16 20:03:21 GMT 47.120087 10.834511 36,000 326 450 128
2022-05-16 20:03:19 GMT 47.120087 10.834511 36,000 326 450 128
2022-05-16 20:03:16 GMT 47.114124 10.840407 36,000 326 449 128
2022-05-16 20:03:13 GMT 47.108047 10.846458 36,000 326 449 128
2022-05-16 20:03:10 GMT 47.105373 10.849140 36,000 326 449 -128
2022-05-16 20:03:08 GMT 47.099808 10.854698 36,000 326 449 -128
2022-05-16 20:03:04 GMT 47.093124 10.861359 36,000 326 450 -256
2022-05-16 20:03:01 GMT 47.088009 10.866535 36,000 326 449 0
2022-05-16 20:02:58 GMT 47.084656 10.869915 36,000 326 449 64
2022-05-16 20:02:55 GMT 47.077560 10.877083 36,000 326 449 -384
2022-05-16 20:02:52 GMT 47.069294 10.885479 36,000 326 449 -64
2022-05-16 20:02:47 GMT 47.065197 10.889634 36,025 326 449 -64
2022-05-16 20:02:43 GMT 47.053665 10.901321 36,025 326 449 -192
2022-05-16 20:02:40 GMT 47.053665 10.901321 36,025 327 450 -320
2022-05-16 20:02:38 GMT 47.048672 10.906466 36,025 326 449 64
2022-05-16 20:02:35 GMT 47.044968 10.910179 36,025 326 448 192
2022-05-16 20:02:32 GMT 47.039703 10.915535 36,025 326 449 -192
2022-05-16 20:02:29 GMT 47.033077 10.922100 36,025 326 449 128
2022-05-16 20:02:26 GMT 47.029816 10.925340 36,025 327 449 0
2022-05-16 20:02:23 GMT 47.024231 10.930847 36,025 327 449 64
2022-05-16 20:02:20 GMT 47.016769 10.938126 36,025 328 450 -192
2022-05-16 20:02:15 GMT 47.009892 10.944636 36,025 328 449 192
2022-05-16 20:02:13 GMT 47.007240 10.947031 36,025 329 450 0
2022-05-16 20:02:10 GMT 47.001793 10.952031 36,025 329 451 -64
2022-05-16 20:02:08 GMT 46.996624 10.956609 36,025 331 451 128
2022-05-16 20:02:05 GMT 46.991550 10.960905 36,025 331 451 -128
2022-05-16 20:02:01 GMT 46.985138 10.966278 36,025 332 452 -192
2022-05-16 20:01:58 GMT 46.978844 10.971328 36,025 341 454 0
2022-05-16 20:01:54 GMT 46.967251 10.980483 36,000 332 452 -64
2022-05-16 20:01:51 GMT 46.967251 10.980483 36,025 333 452 384
2022-05-16 20:01:48 GMT 46.959290 10.986610 36,000 334 453 192
2022-05-16 20:01:45 GMT 46.956390 10.988731 36,000 335 453 256
2022-05-16 20:01:42 GMT 46.950680 10.992878 36,025 334 453 256
2022-05-16 20:01:39 GMT 46.944439 10.997244 36,000 335 453 0
2022-05-16 20:01:37 GMT 46.941696 10.999168 36,000 336 453 64
2022-05-16 20:01:34 GMT 46.934280 11.004112 36,000 341 454 -448
2022-05-16 20:01:30 GMT 46.926636 11.009125 36,000 337 453 -128
2022-05-16 20:01:28 GMT 46.916245 11.015579 36,000 338 453 -192
2022-05-16 20:01:25 GMT 46.916245 11.015579 36,000 341 454 64
2022-05-16 20:01:22 GMT 46.905167 11.022102 36,000 342 454 64
2022-05-16 20:01:19 GMT 46.905167 11.022102 36,000 339 453 128
2022-05-16 20:01:16 GMT 46.899490 11.025261 36,000 340 454 64
2022-05-16 20:01:13 GMT 46.894363 11.028076 36,000 341 454 320
2022-05-16 20:01:10 GMT 46.888870 11.030960 36,000 344 455 128
2022-05-16 20:01:07 GMT 46.883698 11.033638 36,000 342 454 -256
2022-05-16 20:01:04 GMT 46.875778 11.037552 36,000 342 454 -256
2022-05-16 20:01:01 GMT 46.869678 11.040415 36,000 343 455 256
2022-05-16 20:00:58 GMT 46.862835 11.043526 35,975 344 455 128
2022-05-16 20:00:55 GMT 46.850357 11.048882 35,975 345 454 0
2022-05-16 20:00:51 GMT 46.850357 11.048882 35,975 345 454 0
2022-05-16 20:00:48 GMT 46.842133 11.052112 35,975 346 455 320
2022-05-16 20:00:45 GMT 46.840023 11.052933 35,975 346 454 128
2022-05-16 20:00:42 GMT 46.832062 11.055885 35,975 347 455 64
2022-05-16 20:00:39 GMT 46.826336 11.057877 35,975 349 455 64
2022-05-16 20:00:36 GMT 46.819885 11.060017 35,975 348 455 192
2022-05-16 20:00:33 GMT 46.810226 11.063031 35,975 350 455 -192
2022-05-16 20:00:31 GMT 46.810226 11.063031 35,975 349 454 128
2022-05-16 20:00:28 GMT 46.801895 11.065430 35,975 350 455 64
2022-05-16 20:00:25 GMT 46.798691 11.066314 35,975 351 455 64
2022-05-16 20:00:22 GMT 46.789654 11.068588 35,975 352 455 -64
2022-05-16 20:00:18 GMT 46.782486 11.070266 35,975 352 455 -64
2022-05-16 20:00:16 GMT 46.779373 11.070936 35,975 352 455 128
2022-05-16 20:00:13 GMT 46.773743 11.072142 35,975 353 455 -384
2022-05-16 20:00:11 GMT 46.767590 11.073257 35,975 355 455 -128
2022-05-16 20:00:08 GMT 46.760700 11.074425 35,975 355 454 0
2022-05-16 20:00:05 GMT 46.756622 11.075023 35,975 355 455 -256
2022-05-16 20:00:02 GMT 46.748886 11.076094 35,975 356 455 -64
2022-05-16 19:59:59 GMT 46.744675 11.076630 35,975 356 454 0
2022-05-16 19:59:56 GMT 46.736938 11.077501 35,975 356 454 0
2022-05-16 19:59:54 GMT 46.732815 11.077927 35,975 356 454 -64
2022-05-16 19:59:50 GMT 46.722244 11.078975 35,975 356 454 -64
2022-05-16 19:59:45 GMT 46.713455 11.079846 36,000 356 454 64
2022-05-16 19:59:42 GMT 46.707825 11.080449 35,975 356 454 64
2022-05-16 19:59:40 GMT 46.702194 11.080985 35,975 356 454 -128
2022-05-16 19:59:37 GMT 46.696831 11.081566 35,975 356 454 -64
2022-05-16 19:59:34 GMT 46.690475 11.082191 35,975 356 454 192
2022-05-16 19:59:31 GMT 46.684727 11.082802 35,975 356 454 -64
2022-05-16 19:59:28 GMT 46.678440 11.083420 35,975 356 454 384
2022-05-16 19:59:25 GMT 46.670197 11.084267 35,975 356 454 64
2022-05-16 19:59:21 GMT 46.663925 11.084937 35,975 356 454 -128
2022-05-16 19:59:18 GMT 46.650417 11.086304 35,975 356 453 128
2022-05-16 19:59:15 GMT 46.650417 11.086304 35,975 356 453 -64
2022-05-16 19:59:12 GMT 46.646164 11.086746 35,975 356 454 0
2022-05-16 19:59:10 GMT 46.640827 11.087265 35,975 356 454 0
2022-05-16 19:59:07 GMT 46.633705 11.088020 35,975 356 454 64
2022-05-16 19:59:04 GMT 46.626480 11.088756 35,975 356 454 64
2022-05-16 19:59:01 GMT 46.621181 11.089325 35,975 356 453 0
2022-05-16 19:58:58 GMT 46.616154 11.089874 35,975 356 454 128
2022-05-16 19:58:56 GMT 46.611877 11.090296 35,975 356 454 -64
2022-05-16 19:58:53 GMT 46.598789 11.091660 35,975 356 454 128
2022-05-16 19:58:50 GMT 46.598789 11.091660 35,975 356 454 256
2022-05-16 19:58:47 GMT 46.593342 11.092278 35,975 356 454 128
2022-05-16 19:58:45 GMT 46.582169 11.093378 35,975 356 454 -64
2022-05-16 19:58:42 GMT 46.582169 11.093378 35,975 356 454 320
2022-05-16 19:58:38 GMT 46.573696 11.094269 35,975 357 454 128
2022-05-16 19:58:35 GMT 46.568390 11.094785 35,975 357 454 -704
2022-05-16 19:58:32 GMT 46.554977 11.096191 35,975 356 454 -448
2022-05-16 19:58:29 GMT 46.554977 11.096191 35,975 356 454 -512
2022-05-16 19:58:26 GMT 46.546600 11.096995 35,975 356 454 -256
2022-05-16 19:58:22 GMT 46.541153 11.097531 36,000 356 454 448
2022-05-16 19:58:19 GMT 46.533646 11.098335 36,000 356 454 -320
2022-05-16 19:58:16 GMT 46.528309 11.098869 35,975 356 454 192
2022-05-16 19:58:13 GMT 46.520233 11.099742 36,000 356 454 128
2022-05-16 19:58:10 GMT 46.517120 11.100010 36,000 356 454 64
2022-05-16 19:58:08 GMT 46.510849 11.100680 36,000 356 454 64
2022-05-16 19:58:05 GMT 46.505268 11.101273 36,000 356 454 -128
2022-05-16 19:58:01 GMT 46.496098 11.102165 36,000 356 454 128
2022-05-16 19:57:58 GMT 46.489998 11.102783 36,000 356 455 512
2022-05-16 19:57:55 GMT 46.483295 11.103470 36,000 356 457 -64
2022-05-16 19:57:51 GMT 46.475101 11.104294 36,000 357 455 -64
2022-05-16 19:57:47 GMT 46.468323 11.104967 36,000 357 455 -448
2022-05-16 19:57:44 GMT 46.462112 11.105598 36,000 356 457 -64
2022-05-16 19:57:41 GMT 46.453629 11.106441 36,000 356 456 128
2022-05-16 19:57:37 GMT 46.444794 11.107379 36,000 356 456 128
2022-05-16 19:57:34 GMT 46.439209 11.107933 36,000 356 456 -128
2022-05-16 19:57:30 GMT 46.431435 11.108757 36,000 356 456 256
2022-05-16 19:57:27 GMT 46.426300 11.109254 36,000 356 456 128
2022-05-16 19:57:24 GMT 46.418335 11.110058 36,000 356 456 128
2022-05-16 19:57:19 GMT 46.408764 11.111023 36,000 356 457 192
2022-05-16 19:57:17 GMT 46.404343 11.111504 36,000 356 457 192
2022-05-16 19:57:13 GMT 46.395996 11.112336 36,000 356 457 -64
2022-05-16 19:57:09 GMT 46.387489 11.113152 36,000 356 457 256
2022-05-16 19:57:06 GMT 46.380432 11.113877 36,000 356 457 64
2022-05-16 19:57:03 GMT 46.375011 11.114456 36,000 356 458 64
2022-05-16 19:57:00 GMT 46.366589 11.115280 36,000 356 458 128
2022-05-16 19:56:57 GMT 46.355072 11.116422 36,000 357 459 -256
2022-05-16 19:56:54 GMT 46.355072 11.116422 36,000 357 459 -128
2022-05-16 19:56:50 GMT 46.345871 11.117340 36,000 357 459 0
2022-05-16 19:56:47 GMT 46.340286 11.117896 36,000 357 459 192
2022-05-16 19:56:44 GMT 46.332558 11.118645 36,000 357 459 128
2022-05-16 19:56:40 GMT 46.320084 11.119881 36,000 357 459 128
2022-05-16 19:56:37 GMT 46.320084 11.119881 36,000 357 459 -832
2022-05-16 19:56:34 GMT 46.314590 11.120430 36,000 357 459 192
2022-05-16 19:56:32 GMT 46.310211 11.120844 36,000 357 459 192
2022-05-16 19:56:29 GMT 46.300388 11.121872 36,000 357 459 64
2022-05-16 19:56:26 GMT 46.293274 11.122585 36,000 356 459 -704
2022-05-16 19:56:23 GMT 46.288521 11.123039 36,000 357 459 0
2022-05-16 19:56:20 GMT 46.281876 11.123724 36,000 357 459 128
2022-05-16 19:56:17 GMT 46.277348 11.124207 36,000 357 459 -256
2022-05-16 19:56:14 GMT 46.270969 11.124893 36,000 357 459 -384
2022-05-16 19:56:11 GMT 46.265579 11.125399 36,000 356 458 -256
2022-05-16 19:56:08 GMT 46.259033 11.126069 36,000 356 458 -704
2022-05-16 19:56:06 GMT 46.253883 11.126610 36,000 356 458 -256
2022-05-16 19:56:03 GMT 46.248688 11.127074 36,025 356 458 320
2022-05-16 19:56:00 GMT 46.241318 11.127878 36,025 356 458 64
2022-05-16 19:55:57 GMT 46.233490 11.128614 36,025 356 458 384
2022-05-16 19:55:54 GMT 46.229507 11.129016 36,025 356 458 -64
2022-05-16 19:55:51 GMT 46.222416 11.129768 36,025 356 458 384
2022-05-16 19:55:48 GMT 46.217388 11.130249 36,025 356 458 -64
2022-05-16 19:55:45 GMT 46.207535 11.131227 36,000 357 460 -192
2022-05-16 19:55:42 GMT 46.201511 11.131828 36,025 357 460 -192
2022-05-16 19:55:39 GMT 46.196625 11.132309 36,025 357 461 -640
2022-05-16 19:55:36 GMT 46.190060 11.132996 36,025 357 462 -704
2022-05-16 19:55:33 GMT 46.182568 11.133682 36,050 357 462 -128
2022-05-16 19:55:30 GMT 46.177074 11.134300 36,050 357 462 -64
2022-05-16 19:55:27 GMT 46.172558 11.134712 36,050 357 462 -384
2022-05-16 19:55:24 GMT 46.166702 11.135313 36,050 357 463 64
2022-05-16 19:55:21 GMT 46.157848 11.136154 36,050 357 463 256
2022-05-16 19:55:18 GMT 46.153702 11.136586 36,050 357 465 256
2022-05-16 19:55:15 GMT 46.145699 11.137390 36,050 357 464 -64
2022-05-16 19:55:12 GMT 46.137970 11.138145 36,050 357 465 64
2022-05-16 19:55:08 GMT 46.130585 11.138931 36,050 357 465 -192
2022-05-16 19:55:06 GMT 46.125355 11.139450 36,050 357 465 -192
2022-05-16 19:55:03 GMT 46.119766 11.139931 36,050 357 466 -192
2022-05-16 19:55:00 GMT 46.112457 11.140686 36,050 357 466 0
2022-05-16 19:54:56 GMT 46.105911 11.141343 36,050 357 466 320
2022-05-16 19:54:53 GMT 46.097237 11.142197 36,050 357 466 0
2022-05-16 19:54:49 GMT 46.089615 11.142950 36,050 357 467 128
2022-05-16 19:54:46 GMT 46.084671 11.143419 36,050 357 466 64
2022-05-16 19:54:43 GMT 46.075962 11.144325 36,050 357 467 -64
2022-05-16 19:54:40 GMT 46.071865 11.144737 36,050 357 467 -64
2022-05-16 19:54:37 GMT 46.062836 11.145630 36,050 356 467 64
2022-05-16 19:54:34 GMT 46.050545 11.146866 36,050 356 467 -192
2022-05-16 19:54:31 GMT 46.050545 11.146866 36,050 356 467 256
2022-05-16 19:54:28 GMT 46.044540 11.147484 36,025 356 467 64
2022-05-16 19:54:25 GMT 46.031296 11.148845 36,000 356 467 448
2022-05-16 19:54:22 GMT 46.031296 11.148845 36,000 356 467 448
2022-05-16 19:54:19 GMT 46.026764 11.149314 36,000 356 467 -192
2022-05-16 19:54:15 GMT 46.015678 11.150436 36,000 356 467 -256
2022-05-16 19:54:12 GMT 46.009903 11.151054 36,000 357 466 192
2022-05-16 19:54:09 GMT 46.004505 11.151604 36,000 356 467 128
2022-05-16 19:54:05 GMT 45.994904 11.152530 36,000 357 466 128
2022-05-16 19:54:02 GMT 45.986710 11.153133 36,000 358 467 -64
2022-05-16 19:53:59 GMT 45.983601 11.153320 36,000 359 467 0
2022-05-16 19:53:56 GMT 45.976295 11.153458 36,000 0 466 -256
2022-05-16 19:53:54 GMT 45.971237 11.153468 36,000 1 466 -448
2022-05-16 19:53:51 GMT 45.965607 11.153267 36,000 2 465 -128
2022-05-16 19:53:48 GMT 45.959908 11.153046 36,000 2 465 64
2022-05-16 19:53:45 GMT 45.951645 11.152530 36,000 2 465 -64
2022-05-16 19:53:42 GMT 45.946407 11.152222 36,000 2 465 -320
2022-05-16 19:53:39 GMT 45.938679 11.151810 36,000 2 465 -64
2022-05-16 19:53:36 GMT 45.933277 11.151466 36,000 2 465 64
2022-05-16 19:53:33 GMT 45.917953 11.150587 36,000 2 464 256
2022-05-16 19:53:30 GMT 45.907013 11.149984 36,000 2 464 128
2022-05-16 19:53:25 GMT 45.907013 11.149984 36,000 2 463 -256
2022-05-16 19:53:22 GMT 45.896988 11.149381 36,025 2 463 64
2022-05-16 19:53:19 GMT 45.896988 11.149381 36,000 2 462 -192
2022-05-16 19:53:15 GMT 45.879227 11.148443 36,000 2 462 -320
2022-05-16 19:53:12 GMT 45.879227 11.148443 36,000 2 462 -448
2022-05-16 19:53:09 GMT 45.875740 11.148239 36,000 2 462 -192
2022-05-16 19:53:05 GMT 45.865685 11.147758 36,000 2 462 64
2022-05-16 19:53:02 GMT 45.859177 11.147372 36,000 2 462 192
2022-05-16 19:52:59 GMT 45.853954 11.147072 36,000 2 462 0
2022-05-16 19:52:54 GMT 45.843155 11.146501 35,975 2 461 -64
2022-05-16 19:52:51 GMT 45.836151 11.146166 35,975 2 452 -128
2022-05-16 19:52:48 GMT 45.831665 11.145898 35,975 1 461 -64
2022-05-16 19:52:44 GMT 45.822922 11.145496 35,975 1 461 128
2022-05-16 19:52:42 GMT 45.816788 11.145228 35,975 1 460 128
2022-05-16 19:52:39 GMT 45.809448 11.144875 35,950 1 460 -64
2022-05-16 19:52:36 GMT 45.805069 11.144625 35,950 1 460 256
2022-05-16 19:52:32 GMT 45.796783 11.144223 35,950 1 460 -256
2022-05-16 19:52:29 GMT 45.790085 11.143913 35,950 1 460 -384
2022-05-16 19:52:26 GMT 45.782135 11.143553 35,950 1 460 -128
2022-05-16 19:52:23 GMT 45.776489 11.143364 35,950 1 460 -64
2022-05-16 19:52:20 GMT 45.768539 11.142950 35,950 1 460 -64
2022-05-16 19:52:17 GMT 45.765457 11.142815 35,950 1 459 0
2022-05-16 19:52:14 GMT 45.756752 11.142471 35,950 1 459 128
2022-05-16 19:52:11 GMT 45.750275 11.142146 35,950 1 458 0
2022-05-16 19:52:08 GMT 45.745113 11.141922 35,950 1 458 64
2022-05-16 19:52:04 GMT 45.736828 11.141647 35,950 1 457 64
2022-05-16 19:52:02 GMT 45.732513 11.141410 35,950 1 457 192
2022-05-16 19:51:58 GMT 45.722912 11.141098 35,950 1 457 64
2022-05-16 19:51:52 GMT 45.712051 11.140673 35,950 1 456 -128
2022-05-16 19:51:49 GMT 45.703915 11.140343 35,950 1 456 0
2022-05-16 19:51:46 GMT 45.697723 11.140070 35,950 1 455 -64
2022-05-16 19:51:43 GMT 45.692326 11.139862 35,950 1 455 -128
2022-05-16 19:51:40 GMT 45.680595 11.139381 35,950 1 455 -128
2022-05-16 19:51:37 GMT 45.680595 11.139381 35,950 1 454 192
2022-05-16 19:51:34 GMT 45.673553 11.139065 35,950 1 454 64
2022-05-16 19:51:31 GMT 45.667141 11.138763 35,950 1 454 -512
2022-05-16 19:51:29 GMT 45.661694 11.138489 35,950 1 454 -320
2022-05-16 19:51:26 GMT 45.648937 11.137871 35,950 2 453 -64
2022-05-16 19:51:23 GMT 45.648937 11.137871 35,950 2 453 256
2022-05-16 19:51:20 GMT 45.644623 11.137658 35,950 2 453 -192
2022-05-16 19:51:17 GMT 45.636246 11.137189 35,950 2 452 -64
2022-05-16 19:51:13 GMT 45.623196 11.136429 35,975 2 452 -64
2022-05-16 19:51:10 GMT 45.623196 11.136429 35,975 2 452 0
2022-05-16 19:51:08 GMT 45.619537 11.136251 35,975 2 452 -64
2022-05-16 19:51:05 GMT 45.610859 11.135742 35,975 2 452 -64
2022-05-16 19:51:02 GMT 45.605644 11.135468 35,975 2 452 -64
2022-05-16 19:50:59 GMT 45.600014 11.135193 35,975 2 452 -64
2022-05-16 19:50:56 GMT 45.594566 11.134850 35,975 2 452 0
2022-05-16 19:50:53 GMT 45.587357 11.134510 35,975 2 452 -64
2022-05-16 19:50:50 GMT 45.582275 11.134232 35,975 2 452 0
2022-05-16 19:50:48 GMT 45.577900 11.134026 35,975 2 451 -256
2022-05-16 19:50:45 GMT 45.568497 11.133545 35,975 1 452 64
2022-05-16 19:50:42 GMT 45.559093 11.133133 35,975 2 452 0
2022-05-16 19:50:39 GMT 45.559093 11.133133 35,975 2 451 -192
2022-05-16 19:50:36 GMT 45.553802 11.132835 35,975 2 452 -128
2022-05-16 19:50:33 GMT 45.540436 11.132159 35,975 2 452 -128
2022-05-16 19:50:30 GMT 45.540436 11.132159 35,975 2 452 256
2022-05-16 19:50:28 GMT 45.535217 11.131897 35,975 2 452 -256
2022-05-16 19:50:25 GMT 45.520615 11.131112 35,975 2 452 192
2022-05-16 19:50:21 GMT 45.512772 11.130758 36,000 2 452 0
2022-05-16 19:50:18 GMT 45.512772 11.130758 35,975 2 452 -128
2022-05-16 19:50:15 GMT 45.502766 11.130222 36,000 2 452 0
2022-05-16 19:50:12 GMT 45.502766 11.130222 36,000 2 452 128
2022-05-16 19:50:10 GMT 45.497452 11.129935 36,000 2 452 -64
2022-05-16 19:50:08 GMT 45.494198 11.129753 36,000 2 452 0
2022-05-16 19:50:05 GMT 45.487839 11.129412 36,000 2 452 -192
2022-05-16 19:50:02 GMT 45.482327 11.129150 36,000 2 452 -256
2022-05-16 19:49:59 GMT 45.469387 11.128414 36,000 2 452 -64
2022-05-16 19:49:56 GMT 45.469387 11.128414 36,025 2 452 -128
2022-05-16 19:49:53 GMT 45.462799 11.128039 36,025 2 452 -128
2022-05-16 19:49:49 GMT 45.455292 11.127646 36,025 2 452 0
2022-05-16 19:49:46 GMT 45.445786 11.127074 36,025 2 452 0
2022-05-16 19:49:43 GMT 45.441467 11.126862 36,025 2 453 -64
2022-05-16 19:49:39 GMT 45.434471 11.126404 36,025 2 453 64
2022-05-16 19:49:37 GMT 45.430283 11.126203 36,025 2 453 64
2022-05-16 19:49:34 GMT 45.422882 11.125815 36,025 359 455 -64
2022-05-16 19:49:31 GMT 45.417339 11.125466 36,025 2 453 128
2022-05-16 19:49:29 GMT 45.412266 11.125265 36,025 1 454 192
2022-05-16 19:49:26 GMT 45.400040 11.124704 36,025 1 454 64
2022-05-16 19:49:23 GMT 45.391388 11.124573 36,025 0 455 0
2022-05-16 19:49:19 GMT 45.391388 11.124573 36,025 0 455 -128
2022-05-16 19:49:17 GMT 45.385406 11.124595 36,025 358 454 0
2022-05-16 19:49:14 GMT 45.378517 11.124997 36,025 355 454 -128
2022-05-16 19:49:11 GMT 45.375275 11.125292 36,025 355 454 -64
2022-05-16 19:49:08 GMT 45.369003 11.126142 36,000 353 454 256
2022-05-16 19:49:05 GMT 45.363556 11.127058 36,025 352 454 0
2022-05-16 19:49:02 GMT 45.355984 11.128748 36,000 348 454 -256
2022-05-16 19:48:59 GMT 45.349319 11.130589 36,000 348 454 0
2022-05-16 19:48:56 GMT 45.337921 11.134578 36,000 343 454 192
2022-05-16 19:48:53 GMT 45.337921 11.134578 36,000 344 453 0
2022-05-16 19:48:50 GMT 45.331360 11.137390 36,000 341 453 128
2022-05-16 19:48:48 GMT 45.327301 11.139287 36,000 341 453 -64
2022-05-16 19:48:45 GMT 45.322281 11.141811 36,000 336 453 -64
2022-05-16 19:48:42 GMT 45.315765 11.145499 36,000 338 453 128
2022-05-16 19:48:39 GMT 45.308670 11.149946 36,000 335 452 256
2022-05-16 19:48:35 GMT 45.300728 11.155544 36,000 332 452 64
2022-05-16 19:48:32 GMT 45.296951 11.158447 36,000 331 452 64
2022-05-16 19:48:29 GMT 45.293152 11.161455 36,000 330 451 128
2022-05-16 19:48:27 GMT 45.289581 11.164529 36,000 329 451 64
2022-05-16 19:48:25 GMT 45.284389 11.169210 36,000 325 450 192
2022-05-16 19:48:22 GMT 45.279221 11.174168 36,000 324 450 128
2022-05-16 19:48:19 GMT 45.274193 11.179460 36,000 321 449 0
2022-05-16 19:48:16 GMT 45.269585 11.184551 36,000 320 449 64
2022-05-16 19:48:13 GMT 45.264511 11.190580 36,000 320 449 -128
2022-05-16 19:48:10 GMT 45.260559 11.195592 36,000 316 449 0
2022-05-16 19:48:07 GMT 45.251678 11.207886 36,000 314 449 0
2022-05-16 19:48:05 GMT 45.251678 11.207886 36,000 314 448 0
2022-05-16 19:48:01 GMT 45.247334 11.214428 36,000 313 448 -256
2022-05-16 19:47:58 GMT 45.239410 11.226654 36,000 313 448 -64
2022-05-16 19:47:56 GMT 45.239410 11.226654 36,000 313 448 -64
2022-05-16 19:47:52 GMT 45.234715 11.233922 36,000 313 448 -128
2022-05-16 19:47:49 GMT 45.230026 11.241172 36,000 313 448 -64
2022-05-16 19:47:46 GMT 45.225639 11.247990 36,000 313 448 -64
2022-05-16 19:47:42 GMT 45.220642 11.255624 36,000 313 448 0
2022-05-16 19:47:39 GMT 45.212677 11.267984 36,000 313 448 0
2022-05-16 19:47:37 GMT 45.212677 11.267984 36,000 313 448 0
2022-05-16 19:47:35 GMT 45.205853 11.278471 36,000 313 448 128
2022-05-16 19:47:32 GMT 45.205853 11.278471 36,000 313 448 -64
2022-05-16 19:47:29 GMT 45.202923 11.283026 36,000 313 448 -64
2022-05-16 19:47:26 GMT 45.196449 11.292940 36,000 313 449 0
2022-05-16 19:47:23 GMT 45.193588 11.297411 36,000 313 448 0
2022-05-16 19:47:20 GMT 45.189651 11.303428 36,025 313 448 0
2022-05-16 19:47:17 GMT 45.179672 11.318795 36,025 313 449 0
2022-05-16 19:47:13 GMT 45.179672 11.318795 36,000 313 448 0
2022-05-16 19:47:10 GMT 45.174179 11.327166 36,000 313 449 -192
2022-05-16 19:47:07 GMT 45.171593 11.331192 36,000 313 449 -64
2022-05-16 19:47:05 GMT 45.168194 11.336350 36,025 313 449 64
2022-05-16 19:47:02 GMT 45.163956 11.342781 36,000 313 449 192
2022-05-16 19:46:59 GMT 45.159721 11.349279 36,000 313 449 256
2022-05-16 19:46:56 GMT 45.153809 11.358323 36,000 313 450 64
2022-05-16 19:46:52 GMT 45.148594 11.366294 36,025 313 450 64
2022-05-16 19:46:49 GMT 45.145477 11.371051 36,000 313 450 0
2022-05-16 19:46:46 GMT 45.142593 11.375493 36,025 313 450 0
2022-05-16 19:46:43 GMT 45.137512 11.383209 36,025 313 450 -64
2022-05-16 19:46:40 GMT 45.131607 11.392299 36,025 313 450 -128
2022-05-16 19:46:37 GMT 45.128769 11.396615 36,025 313 450 -128
2022-05-16 19:46:34 GMT 45.124619 11.403005 36,025 313 450 128
2022-05-16 19:46:31 GMT 45.121082 11.408431 36,025 313 450 0
2022-05-16 19:46:27 GMT 45.114704 11.418144 36,025 313 450 0
2022-05-16 19:46:25 GMT 45.112049 11.422231 36,025 313 450 -64
2022-05-16 19:46:22 GMT 45.102695 11.436500 36,025 313 450 0
2022-05-16 19:46:19 GMT 45.102695 11.436500 36,025 313 451 0
2022-05-16 19:46:16 GMT 45.099155 11.441859 36,000 313 451 0
2022-05-16 19:46:13 GMT 45.095058 11.448156 36,025 313 450 -64
2022-05-16 19:46:10 GMT 45.090778 11.454587 36,025 313 450 256
2022-05-16 19:46:07 GMT 45.079277 11.472071 36,000 313 450 192
2022-05-16 19:46:03 GMT 45.079277 11.472071 36,000 313 451 -192
2022-05-16 19:46:00 GMT 45.076813 11.475808 36,000 313 451 192
2022-05-16 19:45:57 GMT 45.071922 11.483259 36,000 313 451 128
2022-05-16 19:45:54 GMT 45.067127 11.490627 36,000 313 451 64
2022-05-16 19:45:51 GMT 45.063492 11.496081 36,000 313 451 192
2022-05-16 19:45:48 GMT 45.059967 11.501508 36,000 313 451 -64
2022-05-16 19:45:45 GMT 45.056190 11.507241 36,000 313 451 -64
2022-05-16 19:45:42 GMT 45.050308 11.516157 36,000 313 451 64
2022-05-16 19:45:39 GMT 45.046551 11.521912 36,000 313 451 64
2022-05-16 19:45:35 GMT 45.040874 11.530486 36,000 313 451 64
2022-05-16 19:45:32 GMT 45.037811 11.535121 36,000 313 451 64
2022-05-16 19:45:29 GMT 45.033554 11.541595 36,000 313 451 0
2022-05-16 19:45:26 GMT 45.028473 11.549377 36,000 313 451 0
2022-05-16 19:45:23 GMT 45.025085 11.554544 36,000 313 451 0
2022-05-16 19:45:20 GMT 45.020344 11.561838 36,000 313 451 -128
2022-05-16 19:45:16 GMT 45.013687 11.571953 36,000 313 451 64
2022-05-16 19:45:14 GMT 45.010071 11.577497 36,000 313 451 64
2022-05-16 19:45:11 GMT 45.006191 11.583408 36,000 313 451 -64
2022-05-16 19:45:07 GMT 44.997395 11.596806 36,000 313 451 0
2022-05-16 19:45:04 GMT 44.997395 11.596806 36,000 313 451 64
2022-05-16 19:45:01 GMT 44.991943 11.605159 36,000 313 451 -192
2022-05-16 19:44:58 GMT 44.988007 11.611176 36,000 313 451 0
2022-05-16 19:44:55 GMT 44.985245 11.615429 36,000 313 451 -64
2022-05-16 19:44:52 GMT 44.980042 11.623274 36,000 313 450 -64
2022-05-16 19:44:49 GMT 44.975784 11.629682 36,000 313 450 192
2022-05-16 19:44:46 GMT 44.971390 11.636353 36,000 313 450 192
2022-05-16 19:44:42 GMT 44.966858 11.643284 36,000 313 450 0
2022-05-16 19:44:39 GMT 44.961594 11.651197 36,000 313 451 -192
2022-05-16 19:44:36 GMT 44.957264 11.657767 36,000 313 451 320
2022-05-16 19:44:33 GMT 44.953449 11.663595 36,025 313 450 -64
2022-05-16 19:44:30 GMT 44.949005 11.670358 36,000 313 451 128
2022-05-16 19:44:27 GMT 44.943466 11.678728 36,000 313 451 0
2022-05-16 19:44:24 GMT 44.941498 11.681802 36,000 313 451 0
2022-05-16 19:44:21 GMT 44.935013 11.691597 36,000 313 451 -64
2022-05-16 19:44:18 GMT 44.932251 11.695796 36,000 313 450 0
2022-05-16 19:44:15 GMT 44.927170 11.703513 36,000 313 451 -64
2022-05-16 19:44:12 GMT 44.923561 11.709014 36,000 313 451 -64
2022-05-16 19:44:09 GMT 44.919388 11.715349 36,000 313 450 -128
2022-05-16 19:44:06 GMT 44.914398 11.722870 36,000 313 451 -192
2022-05-16 19:44:03 GMT 44.911011 11.728036 36,000 313 450 -128
2022-05-16 19:44:00 GMT 44.905472 11.736407 36,000 313 450 -128
2022-05-16 19:43:53 GMT 44.893112 11.755044 36,000 313 450 320
2022-05-16 19:43:50 GMT 44.893112 11.755044 36,000 313 450 -192
2022-05-16 19:43:47 GMT 44.888855 11.761518 36,000 313 450 -192
2022-05-16 19:43:44 GMT 44.879429 11.775803 36,000 313 451 0
2022-05-16 19:43:41 GMT 44.879429 11.775803 36,000 313 450 -192
2022-05-16 19:43:38 GMT 44.874985 11.782575 36,000 313 451 -64
2022-05-16 19:43:35 GMT 44.871048 11.788592 36,000 313 450 0
2022-05-16 19:43:32 GMT 44.861847 11.802521 36,000 313 450 -64
2022-05-16 19:43:29 GMT 44.861847 11.802521 36,000 313 450 -64
2022-05-16 19:43:25 GMT 44.855301 11.812395 36,025 313 450 128
2022-05-16 19:43:22 GMT 44.852570 11.816600 36,025 313 450 0
2022-05-16 19:43:19 GMT 44.848053 11.823433 36,025 313 449 -64
2022-05-16 19:43:16 GMT 44.845139 11.827829 36,025 313 449 64
2022-05-16 19:43:13 GMT 44.839722 11.836094 36,000 313 449 -64
2022-05-16 19:43:10 GMT 44.831852 11.848085 36,000 313 449 0
2022-05-16 19:43:07 GMT 44.831852 11.848085 36,000 313 449 0
2022-05-16 19:43:04 GMT 44.827618 11.854583 36,000 313 448 128
2022-05-16 19:43:02 GMT 44.825043 11.858499 36,000 313 449 -128
2022-05-16 19:42:57 GMT 44.818119 11.869187 36,000 313 448 -64
2022-05-16 19:42:54 GMT 44.813873 11.875763 36,000 313 448 128
2022-05-16 19:42:51 GMT 44.808483 11.884059 36,000 313 448 -64
2022-05-16 19:42:47 GMT 44.802338 11.893571 36,000 313 448 128
2022-05-16 19:42:44 GMT 44.799545 11.897858 36,000 313 448 -64
2022-05-16 19:42:41 GMT 44.795975 11.903360 36,000 313 448 -64
2022-05-16 19:42:38 GMT 44.785721 11.919161 36,000 313 448 64
2022-05-16 19:42:34 GMT 44.785721 11.919161 36,000 313 448 -64
2022-05-16 19:42:32 GMT 44.782646 11.923917 36,000 313 448 -128
2022-05-16 19:42:28 GMT 44.776272 11.933832 36,000 313 448 192
2022-05-16 19:42:25 GMT 44.772537 11.939523 36,000 313 448 128
2022-05-16 19:42:22 GMT 44.768169 11.946359 36,000 313 448 192
2022-05-16 19:42:19 GMT 44.764816 11.951517 36,000 313 448 128
2022-05-16 19:42:16 GMT 44.760178 11.958684 36,000 313 448 0
2022-05-16 19:42:13 GMT 44.755737 11.965615 36,000 313 448 128
2022-05-16 19:42:11 GMT 44.751781 11.971748 36,000 313 448 -64
2022-05-16 19:42:08 GMT 44.749603 11.975098 36,000 313 448 64
2022-05-16 19:42:05 GMT 44.746059 11.980591 35,975 313 448 -128
2022-05-16 19:42:02 GMT 44.740448 11.989288 36,000 313 448 -64
2022-05-16 19:42:00 GMT 44.737026 11.994525 36,000 313 448 -128
2022-05-16 19:41:57 GMT 44.732975 12.000755 36,000 313 447 0
2022-05-16 19:41:54 GMT 44.729462 12.006226 36,000 313 447 64
2022-05-16 19:41:51 GMT 44.725479 12.012344 36,000 313 447 64
2022-05-16 19:41:48 GMT 44.720314 12.020316 36,000 313 447 -192
2022-05-16 19:41:45 GMT 44.718155 12.023621 36,000 313 447 0
2022-05-16 19:41:42 GMT 44.713379 12.030967 36,000 313 447 -64
2022-05-16 19:41:39 GMT 44.708488 12.038470 36,000 313 447 0
2022-05-16 19:41:36 GMT 44.705475 12.043108 36,000 313 447 0
2022-05-16 19:41:33 GMT 44.700485 12.050759 36,000 313 446 0
2022-05-16 19:41:30 GMT 44.697037 12.056021 36,000 313 446 64
2022-05-16 19:41:28 GMT 44.692932 12.062334 36,000 313 447 -192
2022-05-16 19:41:25 GMT 44.686146 12.072635 36,000 313 447 0
2022-05-16 19:41:22 GMT 44.686146 12.072635 36,000 313 447 0
2022-05-16 19:41:19 GMT 44.681763 12.079337 36,025 313 446 0
2022-05-16 19:41:16 GMT 44.670364 12.096751 36,000 313 446 128
2022-05-16 19:41:12 GMT 44.670364 12.096751 36,000 313 446 128
2022-05-16 19:41:09 GMT 44.667480 12.101113 36,000 313 446 -64
2022-05-16 19:41:06 GMT 44.662720 12.108307 36,000 313 447 -128
2022-05-16 19:41:03 GMT 44.658691 12.114519 36,000 313 447 0
2022-05-16 19:41:00 GMT 44.653419 12.122475 36,000 313 447 0
2022-05-16 19:40:56 GMT 44.644684 12.135838 36,000 313 446 0
2022-05-16 19:40:53 GMT 44.644684 12.135838 36,000 313 447 0
2022-05-16 19:40:49 GMT 44.639832 12.143293 36,025 313 447 -64
2022-05-16 19:40:45 GMT 44.633308 12.153224 36,025 313 447 -64
2022-05-16 19:40:42 GMT 44.629486 12.159053 36,025 313 447 -64
2022-05-16 19:40:39 GMT 44.620560 12.172721 36,025 313 447 -64
2022-05-16 19:40:36 GMT 44.620560 12.172721 36,025 313 447 64
2022-05-16 19:40:33 GMT 44.616257 12.179326 36,025 313 446 -64
2022-05-16 19:40:29 GMT 44.611221 12.187042 36,025 313 446 128
2022-05-16 19:40:27 GMT 44.607376 12.192882 36,025 313 447 0
2022-05-16 19:40:24 GMT 44.603714 12.198552 36,025 313 447 128
2022-05-16 19:40:19 GMT 44.597305 12.208426 36,000 313 448 -192
2022-05-16 19:40:15 GMT 44.587967 12.222748 36,000 313 447 64
2022-05-16 19:40:12 GMT 44.583069 12.230203 36,000 313 447 -256
2022-05-16 19:40:09 GMT 44.583069 12.230203 36,000 313 447 128
2022-05-16 19:40:07 GMT 44.578903 12.236612 36,000 313 447 128
2022-05-16 19:40:04 GMT 44.576050 12.240980 36,000 313 447 128
2022-05-16 19:40:01 GMT 44.567734 12.253680 36,000 313 447 128
2022-05-16 19:39:58 GMT 44.567734 12.253680 36,000 313 447 192
2022-05-16 19:39:55 GMT 44.562836 12.261135 36,000 313 447 192
2022-05-16 19:39:52 GMT 44.559357 12.266432 36,000 313 447 64
2022-05-16 19:39:50 GMT 44.556427 12.270944 36,000 313 446 64
2022-05-16 19:39:47 GMT 44.553085 12.276045 36,000 313 446 128
2022-05-16 19:39:44 GMT 44.547699 12.284256 36,000 313 446 0
2022-05-16 19:39:41 GMT 44.544159 12.289647 36,000 313 446 0
2022-05-16 19:39:38 GMT 44.539085 12.297453 36,000 313 446 -256
2022-05-16 19:39:35 GMT 44.531204 12.309461 36,000 313 446 320
2022-05-16 19:39:32 GMT 44.529373 12.312208 36,000 313 445 64
2022-05-16 19:39:27 GMT 44.524384 12.319859 36,000 313 446 -192
2022-05-16 19:39:25 GMT 44.522884 12.322105 36,000 313 446 128
2022-05-16 19:39:22 GMT 44.517242 12.330649 36,000 313 446 128
2022-05-16 19:39:20 GMT 44.515182 12.333854 36,000 313 446 -64
2022-05-16 19:39:17 GMT 44.510502 12.340996 36,000 313 445 -192
2022-05-16 19:39:15 GMT 44.503464 12.351706 36,000 313 445 64
2022-05-16 19:39:12 GMT 44.503464 12.351706 36,000 313 445 64
2022-05-16 19:39:10 GMT 44.499985 12.357003 36,000 313 445 0
2022-05-16 19:39:06 GMT 44.495819 12.363347 36,000 313 445 128
2022-05-16 19:39:04 GMT 44.489182 12.373419 36,000 313 445 448
2022-05-16 19:39:01 GMT 44.489182 12.373419 36,000 313 445 64
2022-05-16 19:38:59 GMT 44.485794 12.378584 36,000 313 445 -128
2022-05-16 19:38:56 GMT 44.479034 12.388894 36,000 313 446 -320
2022-05-16 19:38:54 GMT 44.475262 12.394588 36,000 313 446 -320
2022-05-16 19:38:51 GMT 44.475262 12.394588 36,000 313 445 0
2022-05-16 19:38:49 GMT 44.471771 12.399947 36,000 313 445 128
2022-05-16 19:38:46 GMT 44.467117 12.407030 36,000 313 446 -64
2022-05-16 19:38:44 GMT 44.465012 12.410235 36,000 313 446 64
2022-05-16 19:38:41 GMT 44.460880 12.416426 36,000 313 446 64
2022-05-16 19:38:38 GMT 44.457249 12.421987 36,000 313 446 0
2022-05-16 19:38:34 GMT 44.450588 12.432169 36,000 313 446 -256
2022-05-16 19:38:31 GMT 44.447239 12.437260 36,000 313 446 -256
2022-05-16 19:38:28 GMT 44.442993 12.443717 36,000 313 445 128
2022-05-16 19:38:25 GMT 44.438782 12.450060 36,000 313 445 192
2022-05-16 19:38:23 GMT 44.434479 12.456665 36,000 313 446 64
2022-05-16 19:38:20 GMT 44.432343 12.459903 36,000 313 446 -128
2022-05-16 19:38:17 GMT 44.427872 12.466736 36,000 313 445 192
2022-05-16 19:38:14 GMT 44.418377 12.481139 36,000 313 445 -64
2022-05-16 19:38:11 GMT 44.418377 12.481139 36,000 313 445 -128
2022-05-16 19:38:07 GMT 44.413879 12.487989 36,000 313 445 -192
2022-05-16 19:38:04 GMT 44.409065 12.495273 36,000 313 441 0
2022-05-16 19:38:01 GMT 44.404179 12.502642 36,000 313 444 -192
2022-05-16 19:37:56 GMT 44.397858 12.512251 36,000 313 443 -64
2022-05-16 19:37:53 GMT 44.393890 12.518184 36,000 313 443 64
2022-05-16 19:37:49 GMT 44.386070 12.529974 36,000 313 442 0
2022-05-16 19:37:46 GMT 44.383255 12.534223 36,000 313 442 -128
2022-05-16 19:37:43 GMT 44.379913 12.539259 36,000 313 442 0
2022-05-16 19:37:40 GMT 44.375748 12.545537 36,000 313 442 0
2022-05-16 19:37:37 GMT 44.372269 12.550768 36,000 313 441 0
2022-05-16 19:37:34 GMT 44.366180 12.559989 36,000 313 441 128
2022-05-16 19:37:30 GMT 44.358124 12.572087 36,000 313 441 64
2022-05-16 19:37:27 GMT 44.358124 12.572087 36,000 313 441 -128
2022-05-16 19:37:24 GMT 44.352505 12.580552 35,975 313 442 128
2022-05-16 19:37:21 GMT 44.349243 12.585427 35,975 313 443 64
2022-05-16 19:37:18 GMT 44.343426 12.594083 35,950 313 443 -64
2022-05-16 19:37:13 GMT 44.336380 12.604653 35,950 313 443 576
2022-05-16 19:37:09 GMT 44.333038 12.609689 35,925 313 443 576
2022-05-16 19:37:07 GMT 44.329880 12.614381 35,900 313 445 832
2022-05-16 19:37:04 GMT 44.326172 12.619956 35,825 313 443 960
2022-05-16 19:37:00 GMT 44.318291 12.631799 35,775 313 443 832
2022-05-16 19:36:57 GMT 44.315552 12.635847 35,750 313 444 832
2022-05-16 19:36:52 GMT 44.308933 12.645800 35,675 313 444 832
2022-05-16 19:36:49 GMT 44.303558 12.653896 35,625 313 445 704
2022-05-16 19:36:46 GMT 44.300903 12.657885 35,500 313 445 832
2022-05-16 19:36:42 GMT 44.295044 12.666713 35,550 313 445 640
2022-05-16 19:36:40 GMT 44.292171 12.671055 35,500 313 445 512
2022-05-16 19:36:37 GMT 44.286167 12.680098 35,450 313 445 832
2022-05-16 19:36:32 GMT 44.281326 12.687467 35,425 313 445 704
2022-05-16 19:36:29 GMT 44.274994 12.697056 35,375 313 445 896
2022-05-16 19:36:26 GMT 44.271790 12.701961 35,325 313 444 960
2022-05-16 19:36:20 GMT 44.264240 12.713459 35,250 313 445 1024
2022-05-16 19:36:17 GMT 44.258606 12.722037 35,200 313 444 640
2022-05-16 19:36:11 GMT 44.252186 12.731881 35,150 313 445 640
2022-05-16 19:36:08 GMT 44.246887 12.740021 35,075 312 445 1088
2022-05-16 19:36:04 GMT 44.240662 12.749634 35,025 312 445 704
2022-05-16 19:36:01 GMT 44.237705 12.754189 35,000 312 445 896
2022-05-16 19:35:58 GMT 44.234028 12.759950 34,975 312 445 960
2022-05-16 19:35:55 GMT 44.229858 12.766506 34,900 312 445 768
2022-05-16 19:35:52 GMT 44.225838 12.772812 34,825 312 446 896
2022-05-16 19:35:49 GMT 44.216309 12.787759 34,775 312 447 960
2022-05-16 19:35:46 GMT 44.216309 12.787759 34,750 312 447 960
2022-05-16 19:35:42 GMT 44.211590 12.795187 34,700 312 447 832
2022-05-16 19:35:39 GMT 44.203857 12.807312 34,600 312 447 896
2022-05-16 19:35:37 GMT 44.203857 12.807312 34,600 312 447 896
2022-05-16 19:35:34 GMT 44.201210 12.811532 34,600 312 447 896
2022-05-16 19:35:30 GMT 44.195858 12.819906 34,525 312 447 832
2022-05-16 19:35:28 GMT 44.191711 12.826342 34,475 312 447 896
2022-05-16 19:35:25 GMT 44.187653 12.832670 34,450 312 447 832
2022-05-16 19:35:19 GMT 44.175339 12.851704 34,375 313 447 384
2022-05-16 19:35:16 GMT 44.175339 12.851704 34,375 313 447 960
2022-05-16 19:35:09 GMT 44.163780 12.869437 34,300 313 446 512
2022-05-16 19:35:07 GMT 44.163780 12.869437 34,275 313 446 320
2022-05-16 19:35:03 GMT 44.158802 12.877088 34,250 313 446 640
2022-05-16 19:35:00 GMT 44.153641 12.885047 34,225 313 444 704
2022-05-16 19:34:57 GMT 44.150070 12.890540 34,200 313 444 512
2022-05-16 19:34:54 GMT 44.146454 12.896033 34,175 313 444 448
2022-05-16 19:34:51 GMT 44.140961 12.904528 34,125 313 443 768
2022-05-16 19:34:48 GMT 44.138969 12.907562 34,100 313 443 576
2022-05-16 19:34:46 GMT 44.135330 12.913215 34,075 313 443 704
2022-05-16 19:34:43 GMT 44.131073 12.919730 34,025 313 444 512
2022-05-16 19:34:38 GMT 44.123749 12.930972 34,000 313 444 0
2022-05-16 19:34:35 GMT 44.119419 12.937644 34,000 312 443 0
2022-05-16 19:34:32 GMT 44.116020 12.942941 34,000 312 443 192
2022-05-16 19:34:29 GMT 44.111317 12.950134 34,000 312 443 0
2022-05-16 19:34:27 GMT 44.109268 12.953273 34,000 312 443 -128
2022-05-16 19:34:24 GMT 44.103775 12.961775 34,000 312 443 192
2022-05-16 19:34:21 GMT 44.095734 12.974151 34,000 312 444 256
2022-05-16 19:34:18 GMT 44.095734 12.974151 34,000 312 444 256
2022-05-16 19:34:13 GMT 44.088318 12.985584 34,000 312 443 64
2022-05-16 19:34:08 GMT 44.082085 12.995257 34,000 312 443 -192
2022-05-16 19:34:04 GMT 44.077057 13.002958 34,000 313 444 0
2022-05-16 19:34:00 GMT 44.071888 13.010886 34,000 313 444 -320
2022-05-16 19:33:57 GMT 44.067581 13.017585 34,000 313 444 -64
2022-05-16 19:33:52 GMT 44.060394 13.028572 34,000 313 444 128
2022-05-16 19:33:48 GMT 44.054710 13.037306 34,000 313 444 64
2022-05-16 19:33:45 GMT 44.050709 13.043453 34,000 312 443 -128
2022-05-16 19:33:42 GMT 44.046661 13.049650 34,000 312 443 -128
2022-05-16 19:33:37 GMT 44.039719 13.060325 34,000 313 443 -128
2022-05-16 19:33:33 GMT 44.034988 13.067599 34,000 313 443 -64
2022-05-16 19:33:30 GMT 44.031418 13.073092 34,000 313 443 -128
2022-05-16 19:33:27 GMT 44.025375 13.082417 34,000 313 443 256
2022-05-16 19:33:24 GMT 44.020523 13.089763 34,000 313 443 -64
2022-05-16 19:33:20 GMT 44.017090 13.095064 34,000 313 443 128
2022-05-16 19:33:17 GMT 44.012348 13.102308 34,000 313 443 -64
2022-05-16 19:33:15 GMT 44.005363 13.113033 34,000 313 443 192
2022-05-16 19:33:12 GMT 44.005363 13.113033 34,000 313 443 0
2022-05-16 19:33:09 GMT 44.001781 13.118526 34,000 313 443 -192
2022-05-16 19:33:06 GMT 43.997589 13.124957 34,000 313 443 64
2022-05-16 19:33:03 GMT 43.992146 13.133240 34,000 313 443 256
2022-05-16 19:33:00 GMT 43.989956 13.136640 34,000 313 443 -320
2022-05-16 19:32:57 GMT 43.985092 13.144120 34,000 313 443 -64
2022-05-16 19:32:55 GMT 43.981064 13.150308 34,000 313 443 0
2022-05-16 19:32:51 GMT 43.976578 13.157150 34,000 313 443 -128
2022-05-16 19:32:46 GMT 43.969437 13.168072 33,975 313 443 128
2022-05-16 19:32:41 GMT 43.961838 13.179735 33,975 313 443 -64
2022-05-16 19:32:37 GMT 43.957535 13.186404 33,975 312 442 -128
2022-05-16 19:32:34 GMT 43.953415 13.192664 33,975 312 442 -192
2022-05-16 19:32:30 GMT 43.948196 13.200712 34,000 312 442 192
2022-05-16 19:32:26 GMT 43.942337 13.209718 34,000 312 442 256
2022-05-16 19:32:24 GMT 43.935863 13.219692 33,975 312 442 -64
2022-05-16 19:32:22 GMT 43.935863 13.219692 34,000 312 442 -192
2022-05-16 19:32:18 GMT 43.931721 13.226035 34,000 313 441 -64
2022-05-16 19:32:15 GMT 43.924782 13.236694 34,000 311 441 -128
2022-05-16 19:32:13 GMT 43.920128 13.243888 34,000 311 441 -128
2022-05-16 19:32:10 GMT 43.920128 13.243888 34,000 313 441 -64
2022-05-16 19:32:06 GMT 43.915611 13.250754 34,000 313 441 128
2022-05-16 19:32:03 GMT 43.912125 13.256091 34,000 313 441 -128
2022-05-16 19:32:00 GMT 43.905945 13.265544 34,000 312 441 0
2022-05-16 19:31:55 GMT 43.898808 13.276520 34,000 312 441 64
2022-05-16 19:31:52 GMT 43.895782 13.281163 34,000 312 441 256
2022-05-16 19:31:49 GMT 43.892303 13.286495 34,000 312 441 64
2022-05-16 19:31:46 GMT 43.888145 13.292868 34,000 312 441 0
2022-05-16 19:31:44 GMT 43.885208 13.297353 34,000 312 441 192
2022-05-16 19:31:42 GMT 43.882980 13.300847 34,000 312 440 -256
2022-05-16 19:31:39 GMT 43.878296 13.308084 34,000 311 441 320
2022-05-16 19:31:36 GMT 43.874954 13.313386 34,000 311 440 -192
2022-05-16 19:31:33 GMT 43.870224 13.320988 34,000 311 441 0
2022-05-16 19:31:30 GMT 43.866871 13.326285 34,000 311 441 128
2022-05-16 19:31:26 GMT 43.860992 13.335805 34,000 311 441 -64
2022-05-16 19:31:24 GMT 43.858261 13.340149 34,000 311 441 -64
2022-05-16 19:31:22 GMT 43.851013 13.351774 34,000 311 441 192
2022-05-16 19:31:19 GMT 43.847534 13.357331 34,000 311 441 -192
2022-05-16 19:31:16 GMT 43.847534 13.357331 34,000 311 441 192
2022-05-16 19:31:14 GMT 43.844330 13.362441 34,000 311 441 -64
2022-05-16 19:31:12 GMT 43.842430 13.365522 34,000 311 441 64
2022-05-16 19:31:09 GMT 43.837830 13.372852 34,000 311 441 -256
2022-05-16 19:31:06 GMT 43.834351 13.378409 34,000 311 441 192
2022-05-16 19:31:03 GMT 43.831055 13.383775 34,000 311 441 -64
2022-05-16 19:31:01 GMT 43.828186 13.388345 34,000 311 440 -64
2022-05-16 19:30:56 GMT 43.820160 13.401212 34,000 311 440 192
2022-05-16 19:30:53 GMT 43.816956 13.406322 34,000 311 441 128
2022-05-16 19:30:50 GMT 43.814163 13.410794 34,000 311 441 320
2022-05-16 19:30:46 GMT 43.803772 13.427401 34,000 311 441 128
2022-05-16 19:30:43 GMT 43.803772 13.427401 34,000 311 441 -64
2022-05-16 19:30:41 GMT 43.801048 13.431767 34,000 311 441 -256
2022-05-16 19:30:36 GMT 43.794342 13.442475 34,000 311 440 64
2022-05-16 19:30:32 GMT 43.788151 13.452366 34,000 311 440 0
2022-05-16 19:30:29 GMT 43.783951 13.459082 34,000 311 440 -192
2022-05-16 19:30:25 GMT 43.779602 13.466108 34,000 311 440 64
2022-05-16 19:30:21 GMT 43.774246 13.474604 34,000 311 440 -64
2022-05-16 19:30:18 GMT 43.768661 13.483546 34,000 311 440 -64
2022-05-16 19:30:15 GMT 43.766006 13.487762 34,000 311 440 0
2022-05-16 19:30:12 GMT 43.759644 13.497918 34,000 311 440 -128
2022-05-16 19:30:10 GMT 43.759644 13.497918 34,000 311 440 -128
2022-05-16 19:30:07 GMT 43.755524 13.504561 34,000 311 440 -128
2022-05-16 19:30:04 GMT 43.752258 13.509718 34,000 311 440 0
2022-05-16 19:30:01 GMT 43.748978 13.514972 34,000 311 440 -64
2022-05-16 19:29:58 GMT 43.743320 13.523974 34,000 311 440 -128
2022-05-16 19:29:54 GMT 43.739178 13.530579 34,000 311 440 0
2022-05-16 19:29:51 GMT 43.735176 13.536922 34,000 311 440 192
2022-05-16 19:29:48 GMT 43.729660 13.545695 34,000 311 440 0
2022-05-16 19:29:45 GMT 43.726730 13.550358 34,000 311 440 0
2022-05-16 19:29:41 GMT 43.720505 13.560386 34,000 311 440 -64
2022-05-16 19:29:37 GMT 43.715698 13.567987 34,000 311 440 64
2022-05-16 19:29:34 GMT 43.712040 13.573805 34,000 311 440 -320
2022-05-16 19:29:31 GMT 43.708035 13.580213 34,000 311 440 256
2022-05-16 19:29:28 GMT 43.704170 13.586360 34,000 311 440 -128
2022-05-16 19:29:23 GMT 43.698864 13.594796 34,000 311 440 -64
2022-05-16 19:29:19 GMT 43.684059 13.618338 34,000 311 440 0
2022-05-16 19:29:13 GMT 43.684059 13.618338 34,000 311 440 -64
2022-05-16 19:29:10 GMT 43.680199 13.624486 34,000 311 440 0
2022-05-16 19:29:07 GMT 43.676102 13.630967 34,000 311 440 320
2022-05-16 19:29:04 GMT 43.671494 13.638284 34,000 311 440 64
2022-05-16 19:29:01 GMT 43.667767 13.644169 34,000 311 440 64
2022-05-16 19:28:58 GMT 43.664139 13.649924 34,000 311 440 64
2022-05-16 19:28:53 GMT 43.657200 13.660910 34,000 311 440 0
2022-05-16 19:28:50 GMT 43.653755 13.666404 34,000 312 440 -128
2022-05-16 19:28:47 GMT 43.649986 13.672355 34,000 312 440 -256
2022-05-16 19:28:44 GMT 43.645191 13.679940 34,000 312 440 64
2022-05-16 19:28:40 GMT 43.640442 13.687432 34,000 312 440 -192
2022-05-16 19:28:37 GMT 43.636532 13.693673 34,000 312 440 384
2022-05-16 19:28:33 GMT 43.631516 13.701612 34,000 312 440 -192
2022-05-16 19:28:30 GMT 43.623871 13.713684 34,000 312 440 -64
2022-05-16 19:28:28 GMT 43.623871 13.713684 34,000 312 440 -128
2022-05-16 19:28:25 GMT 43.620472 13.719046 34,000 312 440 -64
2022-05-16 19:28:22 GMT 43.616272 13.725692 34,000 312 440 64
2022-05-16 19:28:19 GMT 43.612186 13.732125 34,000 312 440 64
2022-05-16 19:28:16 GMT 43.607712 13.739234 34,000 312 440 0
2022-05-16 19:28:12 GMT 43.602409 13.747559 34,000 312 440 -192
2022-05-16 19:28:09 GMT 43.598740 13.753350 34,000 312 440 -128
2022-05-16 19:28:06 GMT 43.593521 13.761590 34,000 312 440 0
2022-05-16 19:28:03 GMT 43.590397 13.766523 34,000 312 440 -128
2022-05-16 19:27:59 GMT 43.585697 13.773913 33,975 312 440 64
2022-05-16 19:27:57 GMT 43.582809 13.778452 34,000 312 440 -256
2022-05-16 19:27:53 GMT 43.577690 13.786599 33,975 312 440 128
2022-05-16 19:27:51 GMT 43.573963 13.792550 34,000 312 440 64
2022-05-16 19:27:47 GMT 43.569916 13.798828 33,975 312 440 256
2022-05-16 19:27:44 GMT 43.565323 13.806110 33,975 312 440 0
2022-05-16 19:27:41 GMT 43.561020 13.812880 33,975 312 440 0
2022-05-16 19:27:38 GMT 43.557541 13.818374 34,000 312 440 -64
2022-05-16 19:27:36 GMT 43.554611 13.822972 34,000 312 440 0
2022-05-16 19:27:32 GMT 43.549061 13.831722 34,000 312 440 0
2022-05-16 19:27:29 GMT 43.543533 13.840474 34,000 312 439 64
2022-05-16 19:27:23 GMT 43.536575 13.851460 34,000 312 439 0
2022-05-16 19:27:18 GMT 43.531277 13.859711 34,000 312 439 0
2022-05-16 19:27:13 GMT 43.523270 13.872332 34,000 312 439 -128
2022-05-16 19:27:10 GMT 43.519405 13.878414 34,000 312 439 0
2022-05-16 19:27:06 GMT 43.515263 13.884953 34,000 312 438 64
2022-05-16 19:27:03 GMT 43.509842 13.893426 34,000 312 438 256
2022-05-16 19:27:01 GMT 43.507965 13.896364 34,000 312 438 -192
2022-05-16 19:26:58 GMT 43.503937 13.902687 34,000 312 438 64
2022-05-16 19:26:55 GMT 43.499344 13.909869 34,000 312 438 -64
2022-05-16 19:26:50 GMT 43.491196 13.922686 34,000 312 438 -64
2022-05-16 19:26:47 GMT 43.489845 13.924779 34,000 312 438 -64
2022-05-16 19:26:42 GMT 43.479218 13.941459 34,000 312 438 128
2022-05-16 19:26:40 GMT 43.474342 13.949105 34,000 312 438 0
2022-05-16 19:26:37 GMT 43.474342 13.949105 34,000 312 438 192
2022-05-16 19:26:34 GMT 43.471619 13.953403 34,000 312 438 192
2022-05-16 19:26:31 GMT 43.467453 13.959918 34,000 312 438 0
2022-05-16 19:26:28 GMT 43.462921 13.967008 34,000 312 438 0
2022-05-16 19:26:25 GMT 43.455688 13.978314 33,975 312 438 128
2022-05-16 19:26:22 GMT 43.455688 13.978314 33,975 312 438 0
2022-05-16 19:26:18 GMT 43.449417 13.988215 33,975 312 438 0
2022-05-16 19:26:15 GMT 43.446213 13.993197 33,975 312 438 64
2022-05-16 19:26:12 GMT 43.441910 13.999903 34,000 312 438 0
2022-05-16 19:26:10 GMT 43.439850 14.003187 34,000 312 438 -256
2022-05-16 19:26:07 GMT 43.436123 14.009007 34,000 312 438 0
2022-05-16 19:26:04 GMT 43.432159 14.015233 34,000 312 438 -64
2022-05-16 19:26:01 GMT 43.427185 14.023067 34,000 312 438 0
2022-05-16 19:25:59 GMT 43.425182 14.026206 34,000 312 438 64
2022-05-16 19:25:56 GMT 43.420807 14.032990 34,000 312 438 -192
2022-05-16 19:25:50 GMT 43.407349 14.054133 34,000 312 438 -256
2022-05-16 19:25:46 GMT 43.407349 14.054133 34,000 312 438 -64
2022-05-16 19:25:43 GMT 43.402405 14.061861 34,000 312 438 192
2022-05-16 19:25:39 GMT 43.399063 14.067099 34,000 312 438 0
2022-05-16 19:25:35 GMT 43.393761 14.075317 34,000 312 437 320
2022-05-16 19:25:33 GMT 43.390091 14.081087 34,025 312 437 -128
2022-05-16 19:25:29 GMT 43.385338 14.088527 34,025 312 438 0
2022-05-16 19:25:26 GMT 43.380203 14.096545 34,000 312 437 -192
2022-05-16 19:25:22 GMT 43.376118 14.102914 34,025 312 438 128
2022-05-16 19:25:19 GMT 43.371975 14.109388 34,000 312 437 192
2022-05-16 19:25:16 GMT 43.367065 14.116985 34,025 312 437 64
2022-05-16 19:25:11 GMT 43.360382 14.127396 34,000 312 438 64
2022-05-16 19:25:08 GMT 43.357124 14.132538 34,000 312 438 -192
2022-05-16 19:25:05 GMT 43.352425 14.139862 34,000 312 439 64
2022-05-16 19:25:02 GMT 43.349117 14.145094 34,000 312 439 128
2022-05-16 19:24:59 GMT 43.345001 14.151476 34,000 312 439 -128
2022-05-16 19:24:54 GMT 43.338272 14.162031 34,000 312 439 0
2022-05-16 19:24:50 GMT 43.332962 14.170255 34,025 312 439 128
2022-05-16 19:24:48 GMT 43.330357 14.174325 34,025 312 439 -64
2022-05-16 19:24:44 GMT 43.325096 14.182434 34,025 312 439 128
2022-05-16 19:24:40 GMT 43.319550 14.191142 34,025 312 438 64
2022-05-16 19:24:38 GMT 43.316849 14.195294 34,025 312 438 64
2022-05-16 19:24:35 GMT 43.312317 14.202384 34,025 312 438 64
2022-05-16 19:24:31 GMT 43.306755 14.211012 34,025 312 438 64
2022-05-16 19:24:25 GMT 43.298561 14.223764 34,000 312 438 -64
2022-05-16 19:24:21 GMT 43.293209 14.232069 34,000 312 438 -320
2022-05-16 19:24:18 GMT 43.289436 14.237889 34,000 312 438 -320
2022-05-16 19:24:15 GMT 43.285217 14.244477 34,000 312 439 192
2022-05-16 19:24:10 GMT 43.279175 14.253867 34,000 312 439 192
2022-05-16 19:24:06 GMT 43.273563 14.262477 34,000 312 439 64
2022-05-16 19:24:03 GMT 43.270771 14.266859 34,000 312 439 0
2022-05-16 19:24:00 GMT 43.266129 14.274051 34,000 312 439 64
2022-05-16 19:23:55 GMT 43.259598 14.284188 34,000 312 437 64
2022-05-16 19:23:52 GMT 43.251266 14.297071 34,000 312 438 -128
2022-05-16 19:23:46 GMT 43.246841 14.303938 34,000 312 437 64
2022-05-16 19:23:43 GMT 43.242977 14.309954 34,000 312 439 0
2022-05-16 19:23:39 GMT 43.237999 14.317671 34,000 312 439 64
2022-05-16 19:23:36 GMT 43.231476 14.327769 34,000 312 439 0
2022-05-16 19:23:29 GMT 43.223614 14.339970 34,000 312 438 64
2022-05-16 19:23:26 GMT 43.219471 14.346379 34,000 312 438 -64
2022-05-16 19:23:23 GMT 43.213898 14.355043 34,000 312 438 -128
2022-05-16 19:23:19 GMT 43.209507 14.361812 34,000 312 438 192
2022-05-16 19:23:17 GMT 43.207367 14.365147 34,000 312 438 128
2022-05-16 19:23:13 GMT 43.202011 14.373452 34,000 312 438 0
2022-05-16 19:23:09 GMT 43.196869 14.381487 34,000 312 438 256
2022-05-16 19:23:05 GMT 43.191467 14.389790 34,000 312 438 128
2022-05-16 19:23:01 GMT 43.186977 14.396733 34,000 312 438 64
2022-05-16 19:22:57 GMT 43.180756 14.406398 34,000 312 437 64
2022-05-16 19:22:54 GMT 43.176865 14.412402 34,000 312 438 0
2022-05-16 19:22:51 GMT 43.174164 14.416554 34,000 312 437 192
2022-05-16 19:22:48 GMT 43.170078 14.422891 34,000 312 437 192
2022-05-16 19:22:45 GMT 43.164677 14.431196 34,000 312 437 64
2022-05-16 19:22:42 GMT 43.155415 14.445452 34,000 312 438 -128
2022-05-16 19:22:38 GMT 43.155415 14.445452 34,000 312 438 0
2022-05-16 19:22:35 GMT 43.147221 14.458073 34,000 312 438 64
2022-05-16 19:22:32 GMT 43.147221 14.458073 34,000 312 438 64
2022-05-16 19:22:29 GMT 43.137585 14.472983 34,000 312 438 64
2022-05-16 19:22:25 GMT 43.137585 14.472983 34,000 312 437 64
2022-05-16 19:22:22 GMT 43.133606 14.479086 34,000 312 437 0
2022-05-16 19:22:18 GMT 43.128834 14.486389 34,000 312 437 0
2022-05-16 19:22:15 GMT 43.124828 14.492602 34,000 312 437 64
2022-05-16 19:22:11 GMT 43.118820 14.501762 34,000 312 437 -128
2022-05-16 19:22:08 GMT 43.115799 14.506465 34,000 312 437 -64
2022-05-16 19:22:05 GMT 43.111588 14.512939 34,000 312 437 128
2022-05-16 19:22:01 GMT 43.106022 14.521506 34,000 312 437 0
2022-05-16 19:21:58 GMT 43.102066 14.527630 34,000 312 437 0
2022-05-16 19:21:53 GMT 43.093781 14.540274 34,000 312 437 64
2022-05-16 19:21:48 GMT 43.088703 14.548122 34,000 312 437 -64
2022-05-16 19:21:45 GMT 43.082932 14.557016 34,000 312 436 64
2022-05-16 19:21:38 GMT 43.074554 14.569915 34,000 312 437 -64
2022-05-16 19:21:35 GMT 43.071247 14.574934 34,000 312 437 -64
2022-05-16 19:21:32 GMT 43.065674 14.583520 34,000 312 437 128
2022-05-16 19:21:29 GMT 43.063019 14.587608 34,000 312 437 -192
2022-05-16 19:21:26 GMT 43.059193 14.593506 34,000 312 437 -192
2022-05-16 19:21:24 GMT 43.056702 14.597317 34,000 312 437 -64
2022-05-16 19:21:21 GMT 43.051849 14.604726 34,000 312 436 -64
2022-05-16 19:21:17 GMT 43.047180 14.611880 34,000 312 436 64
2022-05-16 19:21:14 GMT 43.042946 14.618356 34,000 312 437 -128
2022-05-16 19:21:11 GMT 43.038662 14.624961 34,000 312 436 -64
2022-05-16 19:21:08 GMT 43.034409 14.631426 34,000 312 436 64
2022-05-16 19:21:03 GMT 43.027489 14.642029 34,000 312 436 128
2022-05-16 19:20:58 GMT 43.020508 14.652754 34,000 312 436 -256
2022-05-16 19:20:51 GMT 43.011200 14.667004 34,000 312 436 192
2022-05-16 19:20:48 GMT 43.005844 14.675243 34,000 312 436 -64
2022-05-16 19:20:43 GMT 43.001884 14.681266 34,000 312 436 192
2022-05-16 19:20:39 GMT 42.996323 14.689807 34,000 312 436 0
2022-05-16 19:20:37 GMT 42.993622 14.693894 34,000 312 436 -128
2022-05-16 19:20:33 GMT 42.987782 14.702846 33,975 312 436 -64
2022-05-16 19:20:30 GMT 42.983139 14.709927 33,975 312 436 -192
2022-05-16 19:20:26 GMT 42.979168 14.715990 33,975 312 436 -64
2022-05-16 19:20:24 GMT 42.974945 14.722446 34,000 312 436 -64
2022-05-16 19:20:22 GMT 42.973534 14.724622 34,000 312 436 -64
2022-05-16 19:20:19 GMT 42.968262 14.732730 34,000 312 436 0
2022-05-16 19:20:16 GMT 42.963547 14.739884 33,975 312 436 -64
2022-05-16 19:20:13 GMT 42.960640 14.744306 33,975 312 436 0
2022-05-16 19:20:09 GMT 42.955284 14.752481 34,000 312 436 -128
2022-05-16 19:20:05 GMT 42.943497 14.770479 34,000 312 436 64
2022-05-16 19:20:00 GMT 42.943497 14.770479 34,000 312 436 64
2022-05-16 19:19:55 GMT 42.937130 14.780208 34,000 312 436 -192
2022-05-16 19:19:50 GMT 42.925446 14.797995 34,000 312 436 -128
2022-05-16 19:19:47 GMT 42.925446 14.797995 34,000 312 436 64
2022-05-16 19:19:45 GMT 42.922668 14.802225 34,000 312 436 -128
2022-05-16 19:19:39 GMT 42.914886 14.814105 34,000 312 436 64
2022-05-16 19:19:36 GMT 42.911343 14.819510 34,000 312 436 -128
2022-05-16 19:19:27 GMT 42.898865 14.838441 34,000 312 436 -64
2022-05-16 19:19:19 GMT 42.887505 14.855674 34,000 312 436 128
2022-05-16 19:19:16 GMT 42.884216 14.860733 34,000 312 436 0
2022-05-16 19:19:10 GMT 42.871910 14.879412 34,025 312 436 0
2022-05-16 19:19:07 GMT 42.871910 14.879412 34,025 312 436 0
2022-05-16 19:19:00 GMT 42.863300 14.892491 34,025 312 436 -64
2022-05-16 19:18:56 GMT 42.857944 14.900665 34,025 312 436 -64
2022-05-16 19:18:48 GMT 42.846634 14.917799 34,025 312 436 -64
2022-05-16 19:18:45 GMT 42.842651 14.923841 34,025 312 436 -64
2022-05-16 19:18:39 GMT 42.833275 14.938071 34,025 312 437 0
2022-05-16 19:18:35 GMT 42.829922 14.943172 34,025 312 437 0
2022-05-16 19:18:29 GMT 42.819820 14.958540 34,025 312 437 0
2022-05-16 19:18:26 GMT 42.816978 14.962856 34,025 312 437 0
2022-05-16 19:18:21 GMT 42.810425 14.972768 34,025 312 437 128
2022-05-16 19:18:15 GMT 42.796600 14.993654 34,025 312 438 64
2022-05-16 19:18:11 GMT 42.796600 14.993654 34,025 312 438 -128
2022-05-16 19:18:04 GMT 42.787231 15.007899 34,025 312 438 -64
2022-05-16 19:18:00 GMT 42.782345 15.015245 34,025 312 438 192
2022-05-16 19:17:56 GMT 42.775547 15.025528 34,025 312 438 -192
2022-05-16 19:17:52 GMT 42.760651 15.048012 34,025 312 438 256
2022-05-16 19:17:44 GMT 42.760651 15.048012 34,000 312 439 -64
2022-05-16 19:17:34 GMT 42.747711 15.067624 34,000 312 439 -64
2022-05-16 19:17:30 GMT 42.741657 15.076755 34,000 312 439 -128
2022-05-16 19:17:24 GMT 42.733231 15.089466 34,000 312 439 256
2022-05-16 19:17:16 GMT 42.721756 15.106763 34,000 312 438 -192
2022-05-16 19:17:13 GMT 42.718475 15.111758 34,000 312 438 192
2022-05-16 19:17:09 GMT 42.712097 15.121339 34,000 312 438 -64
2022-05-16 19:17:05 GMT 42.706650 15.129515 34,000 312 438 0
2022-05-16 19:16:58 GMT 42.698318 15.142094 34,000 312 438 64
2022-05-16 19:16:55 GMT 42.693283 15.149647 34,000 312 438 128
2022-05-16 19:16:48 GMT 42.682755 15.165565 34,000 313 437 -64
2022-05-16 19:16:44 GMT 42.678349 15.172183 34,000 313 437 -128
2022-05-16 19:16:38 GMT 42.670258 15.184291 34,000 313 437 128
2022-05-16 19:16:34 GMT 42.665451 15.191537 34,000 313 437 192
2022-05-16 19:16:27 GMT 42.654007 15.208761 34,000 313 437 -64
2022-05-16 19:16:24 GMT 42.651253 15.212871 34,000 313 437 128
2022-05-16 19:16:17 GMT 42.640545 15.228967 34,000 313 436 0
2022-05-16 19:16:14 GMT 42.637802 15.233106 34,000 313 436 -192
2022-05-16 19:16:08 GMT 42.629745 15.245191 34,000 313 436 -64
2022-05-16 19:16:04 GMT 42.624020 15.253686 34,000 313 436 -448
2022-05-16 19:15:56 GMT 42.612625 15.270809 34,000 313 435 0
2022-05-16 19:15:53 GMT 42.609787 15.275054 34,000 313 435 -64
2022-05-16 19:15:48 GMT 42.602978 15.285240 34,000 313 435 -128
2022-05-16 19:15:44 GMT 42.595112 15.296993 34,000 313 435 0
2022-05-16 19:15:32 GMT 42.571880 15.331740 33,975 313 435 0
2022-05-16 19:15:25 GMT 42.571880 15.331740 33,975 313 434 192
2022-05-16 19:15:21 GMT 42.566483 15.339788 33,975 313 434 0
2022-05-16 19:15:15 GMT 42.557144 15.353768 34,000 313 434 0
2022-05-16 19:15:12 GMT 42.554379 15.357929 34,000 313 434 -192
2022-05-16 19:15:07 GMT 42.547489 15.368148 34,000 313 434 256
2022-05-16 19:15:02 GMT 42.541077 15.377738 34,000 313 434 -64
2022-05-16 19:14:53 GMT 42.528355 15.396700 34,000 313 434 64
2022-05-16 19:14:51 GMT 42.524864 15.401938 34,000 313 434 0
2022-05-16 19:14:44 GMT 42.516174 15.414942 34,000 313 434 -128
2022-05-16 19:14:41 GMT 42.512100 15.420935 34,000 313 434 128
2022-05-16 19:14:30 GMT 42.498283 15.441540 34,000 313 434 -64
2022-05-16 19:14:23 GMT 42.484783 15.461660 34,000 313 434 192
2022-05-16 19:14:20 GMT 42.484783 15.461660 34,000 313 434 64
2022-05-16 19:14:12 GMT 42.471222 15.481859 34,000 313 434 64
2022-05-16 19:14:03 GMT 42.460693 15.497464 34,000 313 433 0
2022-05-16 19:14:01 GMT 42.456478 15.503817 34,000 313 433 -128
2022-05-16 19:13:55 GMT 42.450798 15.512248 34,000 313 433 -64
2022-05-16 19:13:52 GMT 42.445400 15.520232 34,000 313 433 64
2022-05-16 19:13:48 GMT 42.440735 15.527177 34,000 313 433 192
2022-05-16 19:13:43 GMT 42.432495 15.539412 34,000 313 433 64
2022-05-16 19:13:40 GMT 42.429794 15.543407 34,000 313 433 -64
2022-05-16 19:13:34 GMT 42.421967 15.555018 34,000 313 433 -64
2022-05-16 19:13:30 GMT 42.416351 15.563347 34,000 313 434 64
2022-05-16 19:13:22 GMT 42.405350 15.579737 34,025 313 434 64
2022-05-16 19:13:19 GMT 42.402512 15.583919 34,000 313 434 64
2022-05-16 19:13:12 GMT 42.391956 15.599692 34,000 313 434 320
2022-05-16 19:13:10 GMT 42.387817 15.605829 34,000 313 434 64
2022-05-16 19:13:02 GMT 42.378738 15.619365 34,000 313 434 0
2022-05-16 19:12:59 GMT 42.374359 15.625867 34,000 313 434 0
2022-05-16 19:12:51 GMT 42.364025 15.641274 34,000 313 434 -128
2022-05-16 19:12:49 GMT 42.357330 15.651148 34,000 313 433 0
2022-05-16 19:12:46 GMT 42.357330 15.651148 34,000 313 433 64
2022-05-16 19:12:39 GMT 42.347408 15.665865 34,000 313 433 64
2022-05-16 19:12:36 GMT 42.344429 15.670272 34,000 313 433 -64
2022-05-16 19:12:29 GMT 42.333210 15.686816 34,000 313 433 256
2022-05-16 19:12:22 GMT 42.325012 15.698839 34,000 313 433 64
2022-05-16 19:12:16 GMT 42.316772 15.711011 34,000 313 433 384
2022-05-16 19:12:10 GMT 42.308815 15.722649 34,000 313 433 -64
2022-05-16 19:12:08 GMT 42.305374 15.727740 34,000 313 433 -64
2022-05-16 19:12:04 GMT 42.299286 15.736729 34,000 313 433 -64
2022-05-16 19:12:00 GMT 42.294525 15.743720 34,000 313 433 -64
2022-05-16 19:11:56 GMT 42.289867 15.750562 34,000 313 433 128
2022-05-16 19:11:51 GMT 42.282349 15.761636 34,000 313 433 -64
2022-05-16 19:11:48 GMT 42.277359 15.769001 34,000 313 433 0
2022-05-16 19:11:41 GMT 42.268661 15.781736 34,000 313 433 192
2022-05-16 19:11:36 GMT 42.263123 15.789850 34,000 313 433 -128
2022-05-16 19:11:31 GMT 42.255020 15.801835 34,000 313 433 64
2022-05-16 19:11:27 GMT 42.240143 15.823683 34,000 313 433 64
2022-05-16 19:11:19 GMT 42.240143 15.823683 34,000 313 433 0
2022-05-16 19:11:16 GMT 42.236115 15.829676 34,000 313 432 0
2022-05-16 19:11:10 GMT 42.227814 15.841902 34,000 313 432 -256
2022-05-16 19:11:06 GMT 42.222694 15.849439 34,000 313 432 128
2022-05-16 19:10:58 GMT 42.211613 15.865727 34,000 313 432 192
2022-05-16 19:10:56 GMT 42.207703 15.871476 34,000 313 432 0
2022-05-16 19:10:49 GMT 42.199493 15.883484 34,000 313 432 256
2022-05-16 19:10:46 GMT 42.194916 15.890225 34,000 313 432 -192
2022-05-16 19:10:39 GMT 42.185028 15.904707 34,000 313 432 0
2022-05-16 19:10:36 GMT 42.181587 15.909736 34,000 313 432 0
2022-05-16 19:10:26 GMT 42.167435 15.930559 33,975 313 432 -64
2022-05-16 19:10:19 GMT 42.158157 15.944096 33,975 313 432 -256
2022-05-16 19:10:15 GMT 42.152679 15.952148 33,975 313 432 0
2022-05-16 19:10:06 GMT 42.139252 15.971811 33,975 313 432 -64
2022-05-16 19:09:58 GMT 42.131149 15.983672 33,975 313 431 0
2022-05-16 19:09:55 GMT 42.125816 15.991495 33,975 313 431 -192
2022-05-16 19:09:48 GMT 42.117718 16.003374 34,000 313 431 0
2022-05-16 19:09:45 GMT 42.112457 16.011040 34,000 313 431 64
2022-05-16 19:09:38 GMT 42.103146 16.024645 34,000 313 430 -256
2022-05-16 19:09:34 GMT 42.098465 16.031425 34,000 313 430 -128
2022-05-16 19:09:28 GMT 42.089787 16.044127 34,000 313 430 -64
2022-05-16 19:09:24 GMT 42.083496 16.053272 33,975 313 430 64
2022-05-16 19:09:19 GMT 42.076584 16.063322 33,975 313 430 -128
2022-05-16 19:09:13 GMT 42.068893 16.074558 33,975 313 430 -64
2022-05-16 19:09:07 GMT 42.062740 16.083473 33,975 313 431 -64
2022-05-16 19:09:04 GMT 42.057060 16.091778 33,975 313 431 128
2022-05-16 19:08:56 GMT 42.045052 16.109278 33,975 313 431 64
2022-05-16 19:08:48 GMT 42.035797 16.122810 33,975 313 432 64
2022-05-16 19:08:41 GMT 42.026104 16.136871 34,000 313 432 256
2022-05-16 19:08:38 GMT 42.022194 16.142620 34,000 313 432 256
2022-05-16 19:08:32 GMT 42.012978 16.155970 34,000 313 431 -64
2022-05-16 19:08:28 GMT 42.008194 16.162949 34,000 313 432 0
2022-05-16 19:08:22 GMT 42.000366 16.174435 34,000 313 432 64
2022-05-16 19:08:12 GMT 41.987640 16.192911 34,025 313 432 -128
2022-05-16 19:08:06 GMT 41.979218 16.205084 34,025 313 432 -128
2022-05-16 19:08:02 GMT 41.974010 16.212690 34,025 313 431 -128
2022-05-16 19:07:56 GMT 41.965725 16.224699 34,025 313 431 -256
2022-05-16 19:07:53 GMT 41.960278 16.232555 34,025 313 431 -192
2022-05-16 19:07:46 GMT 41.952179 16.244308 34,025 313 431 -64
2022-05-16 19:07:41 GMT 41.944824 16.254911 34,050 313 432 -64
2022-05-16 19:07:35 GMT 41.937374 16.265705 34,050 313 432 64
2022-05-16 19:07:32 GMT 41.932388 16.272875 34,025 313 432 -64
2022-05-16 19:07:27 GMT 41.925339 16.283112 34,050 313 433 0
2022-05-16 19:07:22 GMT 41.918755 16.292662 34,025 313 433 0
2022-05-16 19:07:17 GMT 41.911819 16.302689 34,025 313 433 192
2022-05-16 19:07:12 GMT 41.903961 16.314011 34,025 313 433 128
2022-05-16 19:07:06 GMT 41.896912 16.324247 34,025 313 433 -128
2022-05-16 19:07:01 GMT 41.890728 16.333221 34,025 313 433 0
2022-05-16 19:06:55 GMT 41.883041 16.344349 34,025 313 433 192
2022-05-16 19:06:52 GMT 41.878418 16.351089 34,025 313 433 0
2022-05-16 19:06:45 GMT 41.869362 16.364136 34,025 313 433 -128
2022-05-16 19:06:43 GMT 41.865372 16.369942 34,025 313 433 -64
2022-05-16 19:06:40 GMT 41.861588 16.375378 34,025 313 433 256
2022-05-16 19:06:33 GMT 41.850540 16.391415 34,000 313 433 -192
2022-05-16 19:06:30 GMT 41.848553 16.394283 34,000 313 433 -64
2022-05-16 19:06:26 GMT 41.842758 16.402651 34,000 313 433 -128
2022-05-16 19:06:22 GMT 41.837311 16.410517 34,000 313 433 64
2022-05-16 19:06:19 GMT 41.833099 16.416571 34,000 313 433 64
2022-05-16 19:06:09 GMT 41.820190 16.435234 34,000 313 433 64
2022-05-16 19:06:04 GMT 41.813171 16.445383 34,000 313 432 128
2022-05-16 19:05:59 GMT 41.806099 16.455540 34,000 313 432 -64
2022-05-16 19:05:55 GMT 41.800186 16.464073 34,000 313 432 -128
2022-05-16 19:05:49 GMT 41.792542 16.475060 34,000 313 432 -128
2022-05-16 19:05:45 GMT 41.787197 16.482750 34,000 313 432 64
2022-05-16 19:05:40 GMT 41.778809 16.494785 34,000 313 432 -128
2022-05-16 19:05:35 GMT 41.773499 16.502401 34,000 313 431 64
2022-05-16 19:05:31 GMT 41.767597 16.510918 34,000 313 431 -192
2022-05-16 19:05:27 GMT 41.762741 16.517881 34,000 313 431 -64
2022-05-16 19:05:19 GMT 41.751259 16.534361 34,000 314 432 -128
2022-05-16 19:05:15 GMT 41.746883 16.540556 34,000 314 432 64
2022-05-16 19:05:08 GMT 41.737152 16.554523 34,000 314 431 -256
2022-05-16 19:05:01 GMT 41.726532 16.569693 34,000 314 431 0
2022-05-16 19:04:57 GMT 41.722210 16.575813 34,000 314 431 0
2022-05-16 19:04:54 GMT 41.718063 16.581739 34,000 314 431 -64
2022-05-16 19:04:49 GMT 41.709686 16.593699 34,000 314 431 -128
2022-05-16 19:04:46 GMT 41.706894 16.597658 34,000 314 431 -64
2022-05-16 19:04:43 GMT 41.703049 16.603151 34,000 314 431 64
2022-05-16 19:04:39 GMT 41.697601 16.610891 34,000 314 431 128
2022-05-16 19:04:32 GMT 41.688080 16.624498 34,000 314 431 128
2022-05-16 19:04:27 GMT 41.681339 16.634130 34,000 314 430 -128
2022-05-16 19:04:22 GMT 41.674400 16.644032 34,000 314 430 192
2022-05-16 19:04:18 GMT 41.668022 16.653166 34,000 314 430 -64
2022-05-16 19:04:10 GMT 41.654755 16.672066 33,975 314 430 192
2022-05-16 19:04:07 GMT 41.652740 16.674936 33,975 314 430 192
2022-05-16 19:04:01 GMT 41.645447 16.685293 33,975 314 430 -128
2022-05-16 19:03:57 GMT 41.639908 16.693277 33,975 314 430 64
2022-05-16 19:03:52 GMT 41.632736 16.703463 33,975 314 430 -128
2022-05-16 19:03:48 GMT 41.626034 16.713017 33,975 314 430 -64
2022-05-16 19:03:42 GMT 41.619186 16.722815 33,975 314 429 0
2022-05-16 19:03:36 GMT 41.611137 16.734285 33,975 314 429 -192
2022-05-16 19:03:32 GMT 41.605637 16.742165 33,975 314 429 -128
2022-05-16 19:03:27 GMT 41.597683 16.753448 33,975 314 429 -128
2022-05-16 19:03:21 GMT 41.590988 16.763014 33,975 314 429 128
2022-05-16 19:03:16 GMT 41.583984 16.773064 33,975 313 428 -64
2022-05-16 19:03:11 GMT 41.577435 16.782383 34,000 314 428 -64
2022-05-16 19:03:06 GMT 41.571030 16.791540 34,000 314 428 -64
2022-05-16 19:03:02 GMT 41.564213 16.801289 34,000 314 428 64
2022-05-16 19:02:55 GMT 41.556252 16.812658 34,000 314 428 128
2022-05-16 19:02:51 GMT 41.550854 16.820389 34,000 314 428 64
2022-05-16 19:02:45 GMT 41.542610 16.832077 34,000 314 427 64
2022-05-16 19:02:41 GMT 41.537071 16.839933 34,000 314 428 64
2022-05-16 19:02:35 GMT 41.529064 16.851238 34,000 314 427 0
2022-05-16 19:02:30 GMT 41.522232 16.860954 34,000 314 427 0
2022-05-16 19:02:25 GMT 41.515331 16.870592 34,000 314 427 -64
2022-05-16 19:02:20 GMT 41.508816 16.879726 34,000 314 428 128
2022-05-16 19:02:15 GMT 41.501816 16.889606 34,000 314 428 64
2022-05-16 19:02:10 GMT 41.494171 16.900656 34,000 312 428 128
2022-05-16 19:02:04 GMT 41.487762 16.910706 34,000 310 428 0
2022-05-16 19:02:00 GMT 41.482655 16.919266 34,000 308 428 128
2022-05-16 19:01:54 GMT 41.474854 16.932741 34,000 308 428 -64
2022-05-16 19:01:50 GMT 41.470081 16.940918 34,000 308 427 64
2022-05-16 19:01:44 GMT 41.463566 16.952225 34,000 308 428 128
2022-05-16 19:01:39 GMT 41.457596 16.962517 34,000 308 428 -64
2022-05-16 19:01:33 GMT 41.450253 16.975155 34,000 308 428 64
2022-05-16 19:01:29 GMT 41.445549 16.983267 34,000 308 428 192
2022-05-16 19:01:20 GMT 41.432190 17.006336 34,000 308 428 -128
2022-05-16 19:01:13 GMT 41.426186 17.016609 34,000 308 428 -128
2022-05-16 19:01:09 GMT 41.421345 17.024977 34,000 308 428 0
2022-05-16 19:01:02 GMT 41.412918 17.039419 34,000 308 428 64
2022-05-16 19:00:59 GMT 41.408497 17.047077 34,000 308 428 0
2022-05-16 19:00:53 GMT 41.401062 17.059895 34,000 308 429 128
2022-05-16 19:00:48 GMT 41.395157 17.070070 34,000 308 429 -128
2022-05-16 19:00:43 GMT 41.389114 17.080494 34,000 308 429 -128
2022-05-16 19:00:38 GMT 41.383667 17.089905 34,000 308 428 64
2022-05-16 19:00:32 GMT 41.376755 17.101746 34,000 308 428 64
2022-05-16 19:00:29 GMT 41.370880 17.111893 34,000 308 428 -128
2022-05-16 19:00:23 GMT 41.363480 17.124563 34,000 308 428 -64
2022-05-16 19:00:18 GMT 41.358498 17.133116 34,000 308 429 0
2022-05-16 19:00:12 GMT 41.351486 17.145081 34,000 308 429 0
2022-05-16 19:00:08 GMT 41.347092 17.152655 34,000 308 429 0
2022-05-16 19:00:03 GMT 41.334595 17.174011 34,000 308 429 192
2022-05-16 18:59:58 GMT 41.334595 17.174011 34,000 308 429 0
2022-05-16 18:59:51 GMT 41.325851 17.188965 34,000 308 429 -640
2022-05-16 18:59:47 GMT 41.320698 17.197786 34,000 308 429 64
2022-05-16 18:59:41 GMT 41.314461 17.208399 34,000 308 429 320
2022-05-16 18:59:36 GMT 41.307896 17.219570 34,000 308 429 64
2022-05-16 18:59:31 GMT 41.301937 17.229746 34,000 308 429 256
2022-05-16 18:59:27 GMT 41.297096 17.238111 34,000 308 429 -64
2022-05-16 18:59:22 GMT 41.291061 17.248352 34,000 308 429 128
2022-05-16 18:59:16 GMT 41.283596 17.261145 34,000 308 429 -192
2022-05-16 18:59:11 GMT 41.277542 17.271568 34,000 308 428 -256
2022-05-16 18:59:07 GMT 41.271652 17.281616 34,000 308 428 -64
2022-05-16 18:59:00 GMT 41.264324 17.294167 33,975 308 428 -64
2022-05-16 18:58:56 GMT 41.259293 17.302795 33,975 308 428 -192
2022-05-16 18:58:51 GMT 41.252686 17.314140 33,975 308 429 128
2022-05-16 18:58:45 GMT 41.246494 17.324753 33,975 308 429 0
2022-05-16 18:58:40 GMT 41.240395 17.335115 33,975 308 429 -64
2022-05-16 18:58:35 GMT 41.234577 17.345102 34,000 308 429 192
2022-05-16 18:58:30 GMT 41.228382 17.355652 33,975 308 429 192
2022-05-16 18:58:26 GMT 41.222054 17.366451 34,000 308 429 -64
2022-05-16 18:58:20 GMT 41.215897 17.376892 34,000 308 428 -256
2022-05-16 18:58:15 GMT 41.209393 17.387987 34,000 308 428 -256
2022-05-16 18:58:10 GMT 41.203720 17.397644 34,000 308 428 -128
2022-05-16 18:58:05 GMT 41.197266 17.408569 34,000 308 428 -192
2022-05-16 18:58:01 GMT 41.191544 17.418335 34,000 308 428 0
2022-05-16 18:57:54 GMT 41.183926 17.431246 34,000 308 428 64
2022-05-16 18:57:50 GMT 41.178574 17.440359 34,000 308 428 0
2022-05-16 18:57:44 GMT 41.172318 17.450989 34,000 308 428 64
2022-05-16 18:57:39 GMT 41.165817 17.461975 34,000 308 428 64
2022-05-16 18:57:33 GMT 41.158997 17.473511 34,000 308 428 -64
2022-05-16 18:57:30 GMT 41.154411 17.481308 34,000 308 428 64
2022-05-16 18:57:23 GMT 41.145767 17.495850 34,025 309 429 -192
2022-05-16 18:57:19 GMT 41.140915 17.504150 34,025 308 428 -192
2022-05-16 18:57:13 GMT 41.132950 17.517578 34,025 309 429 -64
2022-05-16 18:57:10 GMT 41.128574 17.524940 34,025 309 429 -128
2022-05-16 18:57:02 GMT 41.120590 17.538513 34,025 309 430 192
2022-05-16 18:56:59 GMT 41.116425 17.545532 34,000 308 429 -64
2022-05-16 18:56:54 GMT 41.103973 17.566711 34,025 308 429 -128
2022-05-16 18:56:49 GMT 41.103973 17.566711 34,025 308 429 0
2022-05-16 18:56:43 GMT 41.096878 17.578735 34,000 308 429 -192
2022-05-16 18:56:38 GMT 41.091110 17.588440 34,000 308 429 -192
2022-05-16 18:56:33 GMT 41.084381 17.599854 34,000 309 430 64
2022-05-16 18:56:28 GMT 41.079185 17.608650 34,000 309 430 64
2022-05-16 18:56:22 GMT 41.071655 17.621399 34,000 309 430 0
2022-05-16 18:56:18 GMT 41.066620 17.629883 34,000 309 430 64
2022-05-16 18:56:12 GMT 41.059074 17.642670 34,000 309 430 -64
2022-05-16 18:56:07 GMT 41.053116 17.652710 34,000 309 430 0
2022-05-16 18:56:01 GMT 41.045517 17.665527 34,000 309 430 0
2022-05-16 18:55:57 GMT 41.040779 17.673506 34,000 309 430 0
2022-05-16 18:55:52 GMT 41.033981 17.684998 34,000 309 430 0
2022-05-16 18:55:47 GMT 41.028629 17.693981 34,000 309 430 320
2022-05-16 18:55:42 GMT 41.022675 17.704041 34,000 309 430 128
2022-05-16 18:55:38 GMT 41.015030 17.716858 34,000 309 430 -64
2022-05-16 18:55:34 GMT 41.012558 17.721008 34,000 309 430 -64
2022-05-16 18:55:31 GMT 41.008564 17.727690 34,000 309 430 -64
2022-05-16 18:55:26 GMT 41.002140 17.738426 34,000 309 431 64
2022-05-16 18:55:21 GMT 40.995625 17.749413 34,000 309 431 -128
2022-05-16 18:55:16 GMT 40.989487 17.759644 34,000 309 431 -64
2022-05-16 18:55:10 GMT 40.983379 17.769886 34,000 309 431 128
2022-05-16 18:55:05 GMT 40.977234 17.780186 34,000 309 431 -64
2022-05-16 18:55:02 GMT 40.972229 17.788635 34,000 309 431 -64
2022-05-16 18:54:59 GMT 40.969692 17.792858 34,000 309 431 -128
2022-05-16 18:54:55 GMT 40.963551 17.803221 34,000 309 431 320
2022-05-16 18:54:50 GMT 40.958755 17.811335 34,000 309 431 -128
2022-05-16 18:54:45 GMT 40.951351 17.823757 34,000 309 430 -64
2022-05-16 18:54:40 GMT 40.944973 17.834494 34,000 309 430 64
2022-05-16 18:54:35 GMT 40.939636 17.843506 34,000 309 430 -128
2022-05-16 18:54:29 GMT 40.932590 17.855343 34,000 309 429 -192
2022-05-16 18:54:25 GMT 40.927094 17.864502 34,000 309 428 64
2022-05-16 18:54:20 GMT 40.921371 17.874146 34,000 309 428 -64
2022-05-16 18:54:17 GMT 40.918167 17.879517 34,000 309 428 256
2022-05-16 18:54:14 GMT 40.914902 17.884993 34,000 309 428 192
2022-05-16 18:54:08 GMT 40.907410 17.897583 34,000 309 428 128
2022-05-16 18:54:04 GMT 40.902374 17.906006 33,975 309 430 192
2022-05-16 18:53:58 GMT 40.893997 17.919983 33,975 309 430 64
2022-05-16 18:53:54 GMT 40.888878 17.928564 33,950 309 430 128
2022-05-16 18:53:50 GMT 40.884247 17.936279 33,950 309 430 192
2022-05-16 18:53:47 GMT 40.881710 17.940487 33,925 309 430 640
2022-05-16 18:53:43 GMT 40.875423 17.950974 33,875 309 430 896
2022-05-16 18:53:34 GMT 40.864674 17.968889 33,725 309 430 960
2022-05-16 18:53:24 GMT 40.851917 17.990112 33,500 309 432 1472
2022-05-16 18:53:17 GMT 40.844055 18.003235 33,350 309 434 1472
2022-05-16 18:53:13 GMT 40.838882 18.011835 33,250 309 435 1024
2022-05-16 18:53:07 GMT 40.831245 18.024569 33,150 309 435 896
2022-05-16 18:53:04 GMT 40.826340 18.032776 33,100 309 435 1088
2022-05-16 18:52:56 GMT 40.818329 18.046082 32,975 309 436 1216
2022-05-16 18:52:53 GMT 40.813744 18.053658 32,925 309 436 1280
2022-05-16 18:52:46 GMT 40.803734 18.070387 32,750 309 437 1216
2022-05-16 18:52:42 GMT 40.800018 18.076538 32,700 309 437 1088
2022-05-16 18:52:32 GMT 40.787201 18.097900 32,525 309 438 1024
2022-05-16 18:52:26 GMT 40.779922 18.110046 32,400 309 438 1152
2022-05-16 18:52:22 GMT 40.775337 18.117704 32,400 309 438 704
2022-05-16 18:52:16 GMT 40.767052 18.131498 32,200 309 438 1152
2022-05-16 18:52:12 GMT 40.760395 18.142611 32,200 309 438 960
2022-05-16 18:52:06 GMT 40.753971 18.153284 32,100 309 439 1152
2022-05-16 18:52:02 GMT 40.749550 18.160587 32,050 309 439 1152
2022-05-16 18:51:55 GMT 40.741074 18.174633 31,925 309 440 1152
2022-05-16 18:51:51 GMT 40.736233 18.182623 31,850 309 440 1216
2022-05-16 18:51:46 GMT 40.730324 18.192486 31,750 309 440 1088
2022-05-16 18:51:41 GMT 40.723572 18.203596 31,675 309 440 1216
2022-05-16 18:51:35 GMT 40.714508 18.218628 31,550 309 440 896
2022-05-16 18:51:28 GMT 40.705994 18.232666 31,450 309 440 768
2022-05-16 18:51:20 GMT 40.696976 18.247559 31,350 309 440 1216
2022-05-16 18:51:14 GMT 40.688938 18.260838 31,250 309 440 1280
2022-05-16 18:51:10 GMT 40.683632 18.269638 31,150 309 440 1216
2022-05-16 18:51:03 GMT 40.675625 18.282873 31,000 309 441 1472
2022-05-16 18:50:59 GMT 40.670547 18.291239 30,925 309 441 1216
2022-05-16 18:50:54 GMT 40.662262 18.304909 30,775 309 443 1024
2022-05-16 18:50:49 GMT 40.657333 18.313049 30,700 309 443 896
2022-05-16 18:50:46 GMT 40.652756 18.320618 30,625 309 443 832
2022-05-16 18:50:43 GMT 40.649506 18.326008 30,150 309 443 1088
2022-05-16 18:50:38 GMT 40.643131 18.336494 30,475 309 443 1216
2022-05-16 18:50:34 GMT 40.638199 18.344604 30,350 309 443 1280
2022-05-16 18:50:31 GMT 40.634937 18.350039 30,350 309 443 1280
2022-05-16 18:50:27 GMT 40.628494 18.360657 30,250 309 444 960
2022-05-16 18:50:24 GMT 40.625252 18.366020 30,150 309 444 1088
2022-05-16 18:50:21 GMT 40.619854 18.374884 30,125 309 444 1344
2022-05-16 18:50:18 GMT 40.617599 18.378601 30,075 309 444 1536
2022-05-16 18:50:14 GMT 40.612381 18.387207 29,900 309 445 1344
2022-05-16 18:50:10 GMT 40.607117 18.395874 29,875 309 446 1344
2022-05-16 18:50:07 GMT 40.603867 18.401184 29,750 309 446 1600
2022-05-16 18:50:00 GMT 40.594437 18.416769 29,650 309 447 832
2022-05-16 18:49:56 GMT 40.589081 18.425537 29,575 309 447 1024
2022-05-16 18:49:51 GMT 40.582489 18.436401 29,500 309 446 960
2022-05-16 18:49:47 GMT 40.577362 18.444824 29,450 309 446 1088
2022-05-16 18:49:42 GMT 40.569763 18.457336 29,350 309 446 896
2022-05-16 18:49:36 GMT 40.563805 18.467144 29,275 309 444 1088
2022-05-16 18:49:31 GMT 40.557007 18.478317 29,225 309 444 960
2022-05-16 18:49:24 GMT 40.548477 18.492310 29,125 309 444 1088
2022-05-16 18:49:21 GMT 40.544266 18.499268 29,025 309 444 1408
2022-05-16 18:49:15 GMT 40.537270 18.510777 28,650 309 444 1088
2022-05-16 18:49:10 GMT 40.530807 18.521362 28,800 309 444 1152
2022-05-16 18:49:05 GMT 40.524094 18.532436 28,700 309 444 960
2022-05-16 18:49:01 GMT 40.517990 18.542419 28,625 309 444 896
2022-05-16 18:48:54 GMT 40.510437 18.554810 28,525 309 443 1280
2022-05-16 18:48:48 GMT 40.497093 18.576694 28,375 309 441 896
2022-05-16 18:48:44 GMT 40.497093 18.576694 28,375 309 441 832
2022-05-16 18:48:39 GMT 40.490250 18.587891 28,275 309 441 896
2022-05-16 18:48:33 GMT 40.483109 18.599548 28,200 309 440 960
2022-05-16 18:48:28 GMT 40.476799 18.609840 28,125 309 439 1024
2022-05-16 18:48:22 GMT 40.469330 18.622009 28,025 309 438 1408
2022-05-16 18:48:18 GMT 40.464043 18.630566 27,950 309 438 1152
2022-05-16 18:48:13 GMT 40.457710 18.640926 27,850 309 438 1152
2022-05-16 18:48:08 GMT 40.451157 18.651611 27,775 309 437 1088
2022-05-16 18:48:02 GMT 40.444118 18.663088 27,675 309 436 1152
2022-05-16 18:47:57 GMT 40.437927 18.673201 27,575 309 436 1152
2022-05-16 18:47:52 GMT 40.431061 18.684387 27,475 309 436 1280
2022-05-16 18:47:47 GMT 40.425217 18.693987 27,375 309 435 1280
2022-05-16 18:47:42 GMT 40.418106 18.705627 27,250 309 435 1152
2022-05-16 18:47:36 GMT 40.410690 18.717773 27,150 309 435 960
2022-05-16 18:47:31 GMT 40.405014 18.726990 27,050 309 434 1152
2022-05-16 18:47:26 GMT 40.398102 18.738281 26,975 309 434 1088
2022-05-16 18:47:20 GMT 40.390686 18.750366 26,850 309 433 1088
2022-05-16 18:47:17 GMT 40.387436 18.755676 26,800 309 432 896
2022-05-16 18:47:14 GMT 40.383820 18.761597 26,750 309 432 960
2022-05-16 18:47:11 GMT 40.379059 18.769348 26,700 309 431 1088
2022-05-16 18:47:08 GMT 40.374573 18.776672 26,625 309 431 1024
2022-05-16 18:47:00 GMT 40.365692 18.791077 26,500 309 430 1024
2022-05-16 18:46:56 GMT 40.360977 18.798767 26,425 309 429 1088
2022-05-16 18:46:50 GMT 40.353241 18.811340 26,300 309 428 1024
2022-05-16 18:46:45 GMT 40.347382 18.820801 26,225 309 428 1280
2022-05-16 18:46:39 GMT 40.339462 18.833740 26,100 309 427 1152
2022-05-16 18:46:35 GMT 40.334908 18.841053 26,025 309 427 1344
2022-05-16 18:46:29 GMT 40.326920 18.854004 25,900 309 426 1088
2022-05-16 18:46:25 GMT 40.321918 18.862152 25,825 309 425 1216
2022-05-16 18:46:18 GMT 40.313919 18.875061 25,700 309 425 1024
2022-05-16 18:46:14 GMT 40.308559 18.883751 25,625 309 424 1152
2022-05-16 18:46:08 GMT 40.301529 18.895111 25,525 309 423 1216
2022-05-16 18:46:04 GMT 40.296204 18.903748 25,450 309 423 1216
2022-05-16 18:45:56 GMT 40.285469 18.921080 25,275 310 420 1344
2022-05-16 18:45:53 GMT 40.283607 18.924074 25,250 309 420 1280
2022-05-16 18:45:47 GMT 40.275272 18.937496 25,125 309 420 1088
2022-05-16 18:45:43 GMT 40.270248 18.945679 25,050 309 418 896
2022-05-16 18:45:35 GMT 40.260864 18.960815 24,925 309 416 896
2022-05-16 18:45:32 GMT 40.257771 18.965836 24,875 309 416 1088
2022-05-16 18:45:25 GMT 40.248367 18.981068 24,725 309 415 1216
2022-05-16 18:45:19 GMT 40.242081 18.991179 24,625 309 415 1024
2022-05-16 18:45:16 GMT 40.238159 18.997498 24,525 309 412 1152
2022-05-16 18:45:13 GMT 40.233948 19.004272 24,500 309 412 1152
2022-05-16 18:45:05 GMT 40.225479 19.018005 24,375 309 411 1344
2022-05-16 18:45:02 GMT 40.221039 19.025146 24,275 309 411 1600
2022-05-16 18:44:55 GMT 40.213081 19.037996 24,075 309 410 1664
2022-05-16 18:44:51 GMT 40.208130 19.046021 24,025 309 410 1472
2022-05-16 18:44:42 GMT 40.196880 19.064152 23,800 310 409 1280
2022-05-16 18:44:34 GMT 40.188217 19.078125 23,625 309 408 1280
2022-05-16 18:44:31 GMT 40.184265 19.084499 23,575 309 407 1152
2022-05-16 18:44:24 GMT 40.175980 19.097858 23,400 309 402 1152
2022-05-16 18:44:21 GMT 40.172379 19.103699 23,400 309 405 1152
2022-05-16 18:44:14 GMT 40.164139 19.116943 23,225 309 402 1152
2022-05-16 18:44:09 GMT 40.158875 19.125427 23,175 310 401 1280
2022-05-16 18:44:02 GMT 40.149445 19.140556 22,975 310 400 1728
2022-05-16 18:43:59 GMT 40.147114 19.144363 22,900 310 400 1856
2022-05-16 18:43:52 GMT 40.138275 19.158508 22,675 310 400 1728
2022-05-16 18:43:49 GMT 40.135292 19.163277 22,625 310 400 1472
2022-05-16 18:43:42 GMT 40.126511 19.177429 22,450 310 399 1472
2022-05-16 18:43:38 GMT 40.122620 19.183594 22,375 310 399 1408
2022-05-16 18:43:32 GMT 40.115459 19.195112 22,150 310 398 1344
2022-05-16 18:43:29 GMT 40.111408 19.201605 22,125 310 398 1536
2022-05-16 18:43:22 GMT 40.102524 19.215820 21,925 310 396 1664
2022-05-16 18:43:17 GMT 40.097443 19.223999 21,800 310 396 1792
2022-05-16 18:43:11 GMT 40.087528 19.239870 21,625 310 396 1792
2022-05-16 18:43:08 GMT 40.087528 19.239870 21,550 310 396 1728
2022-05-16 18:43:01 GMT 40.078732 19.253977 21,300 310 396 1984
2022-05-16 18:42:58 GMT 40.075470 19.259277 21,225 310 396 1856
2022-05-16 18:42:50 GMT 40.065308 19.275635 21,000 309 396 1600
2022-05-16 18:42:47 GMT 40.063507 19.278509 20,950 309 395 1472
2022-05-16 18:42:40 GMT 40.055099 19.292114 20,775 309 394 1536
2022-05-16 18:42:36 GMT 40.050846 19.299046 20,700 309 392 1536
2022-05-16 18:42:30 GMT 40.043674 19.310656 20,525 309 391 1600
2022-05-16 18:42:27 GMT 40.040279 19.316151 20,450 309 390 1600
2022-05-16 18:42:19 GMT 40.031807 19.329884 20,250 309 389 1728
2022-05-16 18:42:16 GMT 40.028320 19.335388 20,150 309 388 1728
2022-05-16 18:42:08 GMT 40.019375 19.349857 19,950 310 387 1664
2022-05-16 18:42:05 GMT 40.016071 19.355101 19,875 310 386 1728
2022-05-16 18:41:59 GMT 40.008224 19.367615 19,675 310 385 1728
2022-05-16 18:41:56 GMT 40.004852 19.372829 19,600 310 384 1536
2022-05-16 18:41:48 GMT 39.995632 19.387186 19,400 311 382 1600
2022-05-16 18:41:45 GMT 39.992702 19.391806 19,325 311 381 1728
2022-05-16 18:41:38 GMT 39.984695 19.404175 19,100 311 380 1664
2022-05-16 18:41:35 GMT 39.981628 19.408875 19,025 311 380 1728
2022-05-16 18:41:28 GMT 39.972733 19.422642 18,800 311 378 1664
2022-05-16 18:41:25 GMT 39.969936 19.426949 18,750 311 377 1856
2022-05-16 18:41:15 GMT 39.958420 19.444763 18,375 311 376 2240
2022-05-16 18:41:07 GMT 39.950199 19.457474 18,050 311 376 2304
2022-05-16 18:41:04 GMT 39.946011 19.463903 17,975 311 376 2176
2022-05-16 18:40:54 GMT 39.934883 19.481070 17,650 311 375 2048
2022-05-16 18:40:46 GMT 39.926880 19.493408 17,375 311 374 2048
2022-05-16 18:40:43 GMT 39.923573 19.498486 17,325 311 374 2112
2022-05-16 18:40:37 GMT 39.916168 19.509869 17,075 311 373 2368
2022-05-16 18:40:33 GMT 39.912048 19.516197 16,925 311 373 2368
2022-05-16 18:40:26 GMT 39.903973 19.528687 16,600 311 374 2624
2022-05-16 18:40:23 GMT 39.900330 19.534229 16,500 311 374 2496
2022-05-16 18:40:17 GMT 39.892475 19.546387 16,250 311 374 2112
2022-05-16 18:40:13 GMT 39.889160 19.551426 16,125 311 374 2112
2022-05-16 18:40:05 GMT 39.880280 19.565098 15,850 311 371 1792
2022-05-16 18:40:02 GMT 39.877438 19.569458 15,800 311 370 1664
2022-05-16 18:39:55 GMT 39.869152 19.582214 15,600 311 367 1472
2022-05-16 18:39:52 GMT 39.865906 19.587191 15,550 311 366 1536
2022-05-16 18:39:45 GMT 39.858212 19.598999 15,350 311 364 1792
2022-05-16 18:39:41 GMT 39.854782 19.604267 15,225 311 362 1856
2022-05-16 18:39:36 GMT 39.847824 19.614895 15,025 311 361 1856
2022-05-16 18:39:31 GMT 39.843933 19.620867 14,925 311 359 1792
2022-05-16 18:39:25 GMT 39.836975 19.631554 14,725 311 357 1920
2022-05-16 18:39:21 GMT 39.832981 19.637695 14,625 311 356 1984
2022-05-16 18:39:14 GMT 39.825207 19.649597 14,375 311 354 2048
2022-05-16 18:39:10 GMT 39.820877 19.656250 14,225 311 354 2112
2022-05-16 18:39:05 GMT 39.815094 19.665110 14,025 311 353 1984
2022-05-16 18:39:02 GMT 39.812439 19.669170 13,925 311 352 2176
2022-05-16 18:38:59 GMT 39.809921 19.673052 13,850 311 352 2112
2022-05-16 18:38:52 GMT 39.801975 19.685181 13,575 311 350 2176
2022-05-16 18:38:49 GMT 39.798889 19.689947 13,475 311 349 2304
2022-05-16 18:38:44 GMT 39.793552 19.698181 13,275 311 348 2112
2022-05-16 18:38:39 GMT 39.788525 19.705811 13,100 311 346 2304
2022-05-16 18:38:31 GMT 39.779865 19.719116 12,750 311 345 2560
2022-05-16 18:38:28 GMT 39.777676 19.722473 12,675 311 345 2560
2022-05-16 18:38:24 GMT 39.771652 19.731684 12,425 311 344 2688
2022-05-16 18:38:18 GMT 39.766972 19.738892 12,225 311 344 2688
2022-05-16 18:38:11 GMT 39.759846 19.749756 11,925 311 343 2752
2022-05-16 18:38:08 GMT 39.756226 19.755329 11,750 311 343 2880
2022-05-16 18:38:02 GMT 39.750549 19.763987 11,525 311 343 2304
2022-05-16 18:37:57 GMT 39.745556 19.771606 11,350 311 341 2048
2022-05-16 18:37:51 GMT 39.739365 19.781067 11,175 311 338 1472
2022-05-16 18:37:47 GMT 39.735260 19.787333 11,100 311 334 1280
2022-05-16 18:37:42 GMT 39.729450 19.796204 11,000 311 329 1088
2022-05-16 18:37:37 GMT 39.724960 19.803036 10,925 311 322 1088
2022-05-16 18:37:30 GMT 39.718826 19.812410 10,800 311 317 1152
2022-05-16 18:37:26 GMT 39.714787 19.818481 10,750 311 311 1152
2022-05-16 18:37:22 GMT 39.710541 19.824949 10,675 311 305 1216
2022-05-16 18:37:16 GMT 39.705597 19.832413 10,600 311 302 1408
2022-05-16 18:37:12 GMT 39.701111 19.839218 10,425 311 296 1984
2022-05-16 18:37:06 GMT 39.696629 19.846008 10,225 311 292 2624
2022-05-16 18:37:00 GMT 39.691555 19.853577 9,975 311 292 3008
2022-05-16 18:36:56 GMT 39.687286 19.859997 9,725 311 292 3008
2022-05-16 18:36:45 GMT 39.678009 19.873901 9,175 311 294 3008
2022-05-16 18:36:40 GMT 39.673599 19.880478 8,900 311 294 2944
2022-05-16 18:36:35 GMT 39.668655 19.888000 8,675 311 293 2624
2022-05-16 18:36:26 GMT 39.660919 19.899702 8,200 311 290 2432
2022-05-16 18:36:23 GMT 39.658550 19.903381 8,200 311 290 2432
2022-05-16 18:36:19 GMT 39.655106 19.908691 8,025 310 287 2816
2022-05-16 18:36:14 GMT 39.651054 19.915100 7,800 309 286 3008
2022-05-16 18:36:02 GMT 39.640915 19.931707 7,200 308 284 2688
2022-05-16 18:35:54 GMT 39.634483 19.942932 6,850 306 281 2496
2022-05-16 18:35:44 GMT 39.627136 19.956783 6,450 304 275 2304
2022-05-16 18:35:32 GMT 39.619492 19.972427 6,025 302 269 2432
2022-05-16 18:35:22 GMT 39.612698 19.986206 5,550 304 263 3392
2022-05-16 18:35:12 GMT 39.605526 19.999023 4,975 311 264 3520
2022-05-16 18:35:02 GMT 39.596867 20.010437 4,375 320 266 3136
2022-05-16 18:34:51 GMT 39.586113 20.019165 3,900 340 263 2304
2022-05-16 18:34:41 GMT 39.574150 20.021729 3,550 5 255 1920
2022-05-16 18:34:38 GMT 39.569458 20.020851 3,425 17 251 1856
2022-05-16 18:34:29 GMT 39.560696 20.016174 3,175 28 246 1728
2022-05-16 18:34:21 GMT 39.553806 20.008545 2,975 49 236 1472
2022-05-16 18:34:09 GMT 39.547756 19.994690 2,700 74 225 1472
2022-05-16 18:33:59 GMT 39.546638 19.981079 2,425 98 218 1664
2022-05-16 18:33:50 GMT 39.550362 19.966675 2,125 123 212 1664
2022-05-16 18:33:39 GMT 39.554855 19.958755 1,950 127 204 1152
2022-05-16 18:33:34 GMT 39.557812 19.953735 1,875 127 195 896
2022-05-16 18:33:28 GMT 39.560741 19.948669 1,800 126 191 768
2022-05-16 18:33:24 GMT 39.562820 19.945082 1,750 127 189 640
2022-05-16 18:33:18 GMT 39.566071 19.939529 1,700 126 174 704
2022-05-16 18:33:08 GMT 39.570938 19.931091 1,550 128 164 960
2022-05-16 18:32:58 GMT 39.576107 19.924133 1,375 139 156 1408
2022-05-16 18:32:47 GMT 39.582203 19.918701 1,025 151 153 3072
2022-05-16 18:32:37 GMT 39.589279 19.915525 475 167 156 3264
2022-05-16 18:32:26 GMT 39.597149 19.913391 -75 168 166 2176
2022-05-16 18:32:16 GMT 39.603943 19.911621 -100 168 130 64
2022-05-16 18:32:05 GMT 39.609409 19.910212 0 168 78
2022-05-16 18:31:55 GMT 39.611790 19.909607 0 168 25
2022-05-16 18:31:44 GMT 39.612080 19.909531 0 0
2022-05-16 18:31:34 GMT 39.612087 19.909525 0 0
2022-05-16 18:31:24 GMT 39.612122 19.909494 0 5
2022-05-16 18:31:13 GMT 39.612347 19.909515 0 6
2022-05-16 18:31:03 GMT 39.612282 19.910032 0 9
2022-05-16 18:30:51 GMT 39.612125 19.910507 0 6
2022-05-16 18:30:41 GMT 39.611996 19.910780 0 5
2022-05-16 18:30:32 GMT 39.611835 19.910885 0 4
2022-05-16 18:30:21 GMT 39.611652 19.910929 0 5
2022-05-16 18:30:11 GMT 39.611313 19.911011 0 13
2022-05-16 18:30:00 GMT 39.610718 19.911179 0 12
2022-05-16 18:29:50 GMT 39.610222 19.911303 0 11
2022-05-16 18:29:40 GMT 39.609798 19.911406 0 8
2022-05-16 18:29:29 GMT 39.609459 19.911484 0 6
2022-05-16 18:29:15 GMT 39.609238 19.911575 0 0
2022-05-16 18:29:05 GMT 39.609226 19.911585 0 0
2022-05-16 18:28:25 GMT 39.609226 19.911591 0 0
2022-05-16 18:27:56 GMT 39.609226 19.911585 0 0
2022-05-16 18:27:11 GMT 39.609226 19.911591 0 0
2022-05-16 18:26:56 GMT 39.609226 19.911585 0 0
2022-05-16 18:26:30 GMT 39.609226 19.911591 0 0
2022-05-16 18:26:11 GMT 39.609226 19.911585 0 0
2022-05-16 18:26:01 GMT 39.609238 19.911575 0 1
2022-05-16 18:25:51 GMT 39.609287 19.911591 0 2
2022-05-16 18:25:40 GMT 39.609333 19.911606 0 2
2022-05-16 18:25:30 GMT 39.609364 19.911705 0 3
2022-05-16 18:25:17 GMT 39.609364 19.911854 0 2
2022-05-16 18:25:08 GMT 39.609375 19.911974 0 3
2022-05-16 18:24:59 GMT 39.609375 19.912092 0 3
2022-05-16 18:24:47 GMT 39.609344 19.912247 0 2
2022-05-16 18:24:36 GMT 39.609352 19.912376 0 2
2022-05-16 18:24:28 GMT 39.609379 19.912460 0 2

Making use of Plane Finder data

You are free to use the raw flight data, aircraft information and images provided in this report for your own purposes provided the data is correctly attributed to Plane Finder. We ask that you please credit Plane Finder and link to planefinder.net in close proximity to the content.

Optionally one of the following logos (no smaller then 150x24px) can be used and must link to planefinder.net

Embedding the Plane Finder map

You are welcome to embed the Plane Finder playback map on your website to offer visitors a more interactive experience. We suggest using the following HTML code:

<iframe src="//planefinder.net/data/report/BY4732-ES-SAM-7700-squawk-2022-05-16/map" width="800" height="600" seamless="seamless"></iframe>

Where our data comes from

Plane Finder has a global network of data feeds and antenna radars that receive data broadcast directly from aircraft. The primary technologies used are ADS-B and MLAT. We also show feeds from the FAA and a FLARM glider feed.

Click here to find out more about the Plane Finder network.

How we collect our data